<?xml version="1.0" encoding="UTF-8" standalone="no" ?>
<gpx xmlns="http://www.topografix.com/GPX/1/1" xmlns:xsi="http://www.w3.org/2001/XMLSchema-instance" xsi:schemaLocation="http://www.topografix.com/GPX/1/1 http://www.topografix.com/GPX/1/1/gpx.xsd" version="1.1" creator="VisuGPX - https://www.visugpx.com">
  <metadata>
    <name>68 CCC Flémalle - Barvaux - Flémalle</name>
    <desc><![CDATA[Randonnée au départ de l'Auto 5 de Flémalle.
Flémalle - Mons - Cahottes - Horion - Dommartin - St-Georges - Jehay -     
Amay - Fond d'Oxhe - Outrelouxhe - Strée - Vierset-Barse - Modave - Clavier - Les Avins - Havelange - Jeneffe - Porcheresse - Scy - Mohiville - Achet - Hamois - Buresse - Barsy - Goesnes - Marchin - Huy - Amay - Engis - Awirs - Horion - Cahottes - Mons - Flémalle.]]></desc>
  </metadata>
  <trk>
    <name><![CDATA[Flémalle Cyclisme sur route]]></name>
    <trkseg>
      <trkpt lat="50.62281" lon="5.46382">
        <ele>159.19999694824</ele>
        <time>2019-06-20T06:48:07.000Z</time>
      </trkpt>
      <trkpt lat="50.62281" lon="5.46382">
        <ele>151.80000305176</ele>
        <time>2019-06-20T06:48:08.000Z</time>
      </trkpt>
      <trkpt lat="50.62277" lon="5.46378">
        <ele>148.19999694824</ele>
        <time>2019-06-20T06:48:09.000Z</time>
      </trkpt>
      <trkpt lat="50.62277" lon="5.46376">
        <ele>146.39999389648</ele>
        <time>2019-06-20T06:48:10.000Z</time>
      </trkpt>
      <trkpt lat="50.62276" lon="5.46374">
        <ele>145.60000610352</ele>
        <time>2019-06-20T06:48:11.000Z</time>
      </trkpt>
      <trkpt lat="50.62272" lon="5.46364">
        <ele>145</ele>
        <time>2019-06-20T06:48:13.000Z</time>
      </trkpt>
      <trkpt lat="50.62263" lon="5.46365">
        <ele>144.80000305176</ele>
        <time>2019-06-20T06:48:17.000Z</time>
      </trkpt>
      <trkpt lat="50.62261" lon="5.46367">
        <ele>144.60000610352</ele>
        <time>2019-06-20T06:48:18.000Z</time>
      </trkpt>
      <trkpt lat="50.6226" lon="5.46369">
        <ele>144.80000305176</ele>
        <time>2019-06-20T06:48:19.000Z</time>
      </trkpt>
      <trkpt lat="50.62257" lon="5.46376">
        <ele>144.60000610352</ele>
        <time>2019-06-20T06:48:22.000Z</time>
      </trkpt>
      <trkpt lat="50.62246" lon="5.46384">
        <ele>145</ele>
        <time>2019-06-20T06:48:28.000Z</time>
      </trkpt>
      <trkpt lat="50.62238" lon="5.46396">
        <ele>145.19999694824</ele>
        <time>2019-06-20T06:48:33.000Z</time>
      </trkpt>
      <trkpt lat="50.62232" lon="5.46406">
        <ele>145.19999694824</ele>
        <time>2019-06-20T06:48:36.000Z</time>
      </trkpt>
      <trkpt lat="50.6222" lon="5.46419">
        <ele>145</ele>
        <time>2019-06-20T06:48:41.000Z</time>
      </trkpt>
      <trkpt lat="50.62217" lon="5.46419">
        <ele>145</ele>
        <time>2019-06-20T06:48:42.000Z</time>
      </trkpt>
      <trkpt lat="50.62214" lon="5.46412">
        <ele>145</ele>
        <time>2019-06-20T06:48:44.000Z</time>
      </trkpt>
      <trkpt lat="50.62214" lon="5.46412">
        <ele>145</ele>
        <time>2019-06-20T06:48:45.000Z</time>
      </trkpt>
      <trkpt lat="50.62202" lon="5.46369">
        <ele>144.80000305176</ele>
        <time>2019-06-20T06:48:53.000Z</time>
      </trkpt>
      <trkpt lat="50.62194" lon="5.46328">
        <ele>144.60000610352</ele>
        <time>2019-06-20T06:49:01.000Z</time>
      </trkpt>
      <trkpt lat="50.62193" lon="5.46322">
        <ele>144.80000305176</ele>
        <time>2019-06-20T06:49:02.000Z</time>
      </trkpt>
      <trkpt lat="50.62195" lon="5.46294">
        <ele>145</ele>
        <time>2019-06-20T06:49:08.000Z</time>
      </trkpt>
      <trkpt lat="50.622" lon="5.46255">
        <ele>145.39999389648</ele>
        <time>2019-06-20T06:49:15.000Z</time>
      </trkpt>
      <trkpt lat="50.62202" lon="5.46242">
        <ele>145.39999389648</ele>
        <time>2019-06-20T06:49:17.000Z</time>
      </trkpt>
      <trkpt lat="50.62206" lon="5.46211">
        <ele>145.39999389648</ele>
        <time>2019-06-20T06:49:23.000Z</time>
      </trkpt>
      <trkpt lat="50.62211" lon="5.46162">
        <ele>145.60000610352</ele>
        <time>2019-06-20T06:49:30.000Z</time>
      </trkpt>
      <trkpt lat="50.62216" lon="5.46129">
        <ele>145.39999389648</ele>
        <time>2019-06-20T06:49:35.000Z</time>
      </trkpt>
      <trkpt lat="50.62221" lon="5.46103">
        <ele>145.39999389648</ele>
        <time>2019-06-20T06:49:39.000Z</time>
      </trkpt>
      <trkpt lat="50.62228" lon="5.46077">
        <ele>145.19999694824</ele>
        <time>2019-06-20T06:49:43.000Z</time>
      </trkpt>
      <trkpt lat="50.62232" lon="5.46057">
        <ele>145.19999694824</ele>
        <time>2019-06-20T06:49:46.000Z</time>
      </trkpt>
      <trkpt lat="50.62239" lon="5.46023">
        <ele>144.80000305176</ele>
        <time>2019-06-20T06:49:51.000Z</time>
      </trkpt>
      <trkpt lat="50.62243" lon="5.46009">
        <ele>144.80000305176</ele>
        <time>2019-06-20T06:49:53.000Z</time>
      </trkpt>
      <trkpt lat="50.62246" lon="5.46004">
        <ele>144.80000305176</ele>
        <time>2019-06-20T06:49:54.000Z</time>
      </trkpt>
      <trkpt lat="50.62258" lon="5.45995">
        <ele>144.80000305176</ele>
        <time>2019-06-20T06:49:57.000Z</time>
      </trkpt>
      <trkpt lat="50.62262" lon="5.45993">
        <ele>144.80000305176</ele>
        <time>2019-06-20T06:49:58.000Z</time>
      </trkpt>
      <trkpt lat="50.62285" lon="5.45983">
        <ele>144.60000610352</ele>
        <time>2019-06-20T06:50:05.000Z</time>
      </trkpt>
      <trkpt lat="50.62301" lon="5.45972">
        <ele>144.80000305176</ele>
        <time>2019-06-20T06:50:08.000Z</time>
      </trkpt>
      <trkpt lat="50.62314" lon="5.45963">
        <ele>144.80000305176</ele>
        <time>2019-06-20T06:50:11.000Z</time>
      </trkpt>
      <trkpt lat="50.62338" lon="5.45947">
        <ele>144.80000305176</ele>
        <time>2019-06-20T06:50:17.000Z</time>
      </trkpt>
      <trkpt lat="50.62383" lon="5.4592">
        <ele>143.80000305176</ele>
        <time>2019-06-20T06:50:24.000Z</time>
      </trkpt>
      <trkpt lat="50.62415" lon="5.45904">
        <ele>143</ele>
        <time>2019-06-20T06:50:29.000Z</time>
      </trkpt>
      <trkpt lat="50.62442" lon="5.45893">
        <ele>142</ele>
        <time>2019-06-20T06:50:33.000Z</time>
      </trkpt>
      <trkpt lat="50.62448" lon="5.45889">
        <ele>141.60000610352</ele>
        <time>2019-06-20T06:50:34.000Z</time>
      </trkpt>
      <trkpt lat="50.62475" lon="5.45869">
        <ele>140.80000305176</ele>
        <time>2019-06-20T06:50:39.000Z</time>
      </trkpt>
      <trkpt lat="50.62488" lon="5.45855">
        <ele>140.80000305176</ele>
        <time>2019-06-20T06:50:42.000Z</time>
      </trkpt>
      <trkpt lat="50.62494" lon="5.45847">
        <ele>140.80000305176</ele>
        <time>2019-06-20T06:50:44.000Z</time>
      </trkpt>
      <trkpt lat="50.62499" lon="5.45832">
        <ele>140.80000305176</ele>
        <time>2019-06-20T06:50:47.000Z</time>
      </trkpt>
      <trkpt lat="50.62499" lon="5.45825">
        <ele>140.80000305176</ele>
        <time>2019-06-20T06:50:48.000Z</time>
      </trkpt>
      <trkpt lat="50.62496" lon="5.45814">
        <ele>141</ele>
        <time>2019-06-20T06:50:50.000Z</time>
      </trkpt>
      <trkpt lat="50.62492" lon="5.45806">
        <ele>141</ele>
        <time>2019-06-20T06:50:52.000Z</time>
      </trkpt>
      <trkpt lat="50.62489" lon="5.45803">
        <ele>141</ele>
        <time>2019-06-20T06:50:53.000Z</time>
      </trkpt>
      <trkpt lat="50.62483" lon="5.45797">
        <ele>141.19999694824</ele>
        <time>2019-06-20T06:50:55.000Z</time>
      </trkpt>
      <trkpt lat="50.62477" lon="5.45794">
        <ele>141</ele>
        <time>2019-06-20T06:50:57.000Z</time>
      </trkpt>
      <trkpt lat="50.62475" lon="5.45792">
        <ele>141</ele>
        <time>2019-06-20T06:50:58.000Z</time>
      </trkpt>
      <trkpt lat="50.62472" lon="5.45789">
        <ele>141.39999389648</ele>
        <time>2019-06-20T06:51:00.000Z</time>
      </trkpt>
      <trkpt lat="50.62458" lon="5.45773">
        <ele>142.39999389648</ele>
        <time>2019-06-20T06:51:05.000Z</time>
      </trkpt>
      <trkpt lat="50.62446" lon="5.45757">
        <ele>143.39999389648</ele>
        <time>2019-06-20T06:51:09.000Z</time>
      </trkpt>
      <trkpt lat="50.62432" lon="5.45738">
        <ele>144</ele>
        <time>2019-06-20T06:51:14.000Z</time>
      </trkpt>
      <trkpt lat="50.62429" lon="5.45734">
        <ele>144</ele>
        <time>2019-06-20T06:51:15.000Z</time>
      </trkpt>
      <trkpt lat="50.6242" lon="5.45721">
        <ele>144.39999389648</ele>
        <time>2019-06-20T06:51:18.000Z</time>
      </trkpt>
      <trkpt lat="50.6241" lon="5.45701">
        <ele>145</ele>
        <time>2019-06-20T06:51:22.000Z</time>
      </trkpt>
      <trkpt lat="50.62407" lon="5.45695">
        <ele>145.19999694824</ele>
        <time>2019-06-20T06:51:23.000Z</time>
      </trkpt>
      <trkpt lat="50.62405" lon="5.45689">
        <ele>145.39999389648</ele>
        <time>2019-06-20T06:51:24.000Z</time>
      </trkpt>
      <trkpt lat="50.62391" lon="5.45662">
        <ele>146</ele>
        <time>2019-06-20T06:51:29.000Z</time>
      </trkpt>
      <trkpt lat="50.62365" lon="5.45625">
        <ele>146.19999694824</ele>
        <time>2019-06-20T06:51:36.000Z</time>
      </trkpt>
      <trkpt lat="50.62358" lon="5.45616">
        <ele>146.19999694824</ele>
        <time>2019-06-20T06:51:38.000Z</time>
      </trkpt>
      <trkpt lat="50.62353" lon="5.4561">
        <ele>146.19999694824</ele>
        <time>2019-06-20T06:51:41.000Z</time>
      </trkpt>
      <trkpt lat="50.62344" lon="5.45614">
        <ele>146.19999694824</ele>
        <time>2019-06-20T06:51:45.000Z</time>
      </trkpt>
      <trkpt lat="50.62342" lon="5.45619">
        <ele>146</ele>
        <time>2019-06-20T06:51:46.000Z</time>
      </trkpt>
      <trkpt lat="50.62337" lon="5.45629">
        <ele>146</ele>
        <time>2019-06-20T06:51:48.000Z</time>
      </trkpt>
      <trkpt lat="50.62335" lon="5.45635">
        <ele>146</ele>
        <time>2019-06-20T06:51:50.000Z</time>
      </trkpt>
      <trkpt lat="50.62318" lon="5.45678">
        <ele>145.80000305176</ele>
        <time>2019-06-20T06:51:56.000Z</time>
      </trkpt>
      <trkpt lat="50.62317" lon="5.45685">
        <ele>145.80000305176</ele>
        <time>2019-06-20T06:51:57.000Z</time>
      </trkpt>
      <trkpt lat="50.62314" lon="5.45698">
        <ele>145.80000305176</ele>
        <time>2019-06-20T06:52:01.000Z</time>
      </trkpt>
      <trkpt lat="50.62308" lon="5.45729">
        <ele>145.80000305176</ele>
        <time>2019-06-20T06:52:04.000Z</time>
      </trkpt>
      <trkpt lat="50.62308" lon="5.4574">
        <ele>145.60000610352</ele>
        <time>2019-06-20T06:52:07.000Z</time>
      </trkpt>
      <trkpt lat="50.62307" lon="5.45743">
        <ele>145.60000610352</ele>
        <time>2019-06-20T06:52:08.000Z</time>
      </trkpt>
      <trkpt lat="50.62306" lon="5.45752">
        <ele>145.39999389648</ele>
        <time>2019-06-20T06:52:12.000Z</time>
      </trkpt>
      <trkpt lat="50.62304" lon="5.45755">
        <ele>145.39999389648</ele>
        <time>2019-06-20T06:52:14.000Z</time>
      </trkpt>
      <trkpt lat="50.62302" lon="5.45755">
        <ele>145.39999389648</ele>
        <time>2019-06-20T06:52:15.000Z</time>
      </trkpt>
      <trkpt lat="50.62301" lon="5.45756">
        <ele>145.19999694824</ele>
        <time>2019-06-20T06:52:17.000Z</time>
      </trkpt>
      <trkpt lat="50.62302" lon="5.45759">
        <ele>145.19999694824</ele>
        <time>2019-06-20T06:52:20.000Z</time>
      </trkpt>
      <trkpt lat="50.62303" lon="5.4576">
        <ele>145.19999694824</ele>
        <time>2019-06-20T06:52:21.000Z</time>
      </trkpt>
      <trkpt lat="50.62303" lon="5.45763">
        <ele>145.19999694824</ele>
        <time>2019-06-20T06:52:24.000Z</time>
      </trkpt>
      <trkpt lat="50.62304" lon="5.45764">
        <ele>145.19999694824</ele>
        <time>2019-06-20T06:52:27.000Z</time>
      </trkpt>
      <trkpt lat="50.62291" lon="5.45781">
        <ele>145.60000610352</ele>
        <time>2019-06-20T06:57:31.000Z</time>
      </trkpt>
      <trkpt lat="50.62291" lon="5.45781">
        <ele>145.60000610352</ele>
        <time>2019-06-20T06:57:32.000Z</time>
      </trkpt>
      <trkpt lat="50.62291" lon="5.45782">
        <ele>145.60000610352</ele>
        <time>2019-06-20T06:57:33.000Z</time>
      </trkpt>
      <trkpt lat="50.62291" lon="5.45782">
        <ele>145.39999389648</ele>
        <time>2019-06-20T06:57:34.000Z</time>
      </trkpt>
      <trkpt lat="50.62291" lon="5.45783">
        <ele>145.39999389648</ele>
        <time>2019-06-20T06:57:36.000Z</time>
      </trkpt>
      <trkpt lat="50.62286" lon="5.45785">
        <ele>145</ele>
        <time>2019-06-20T07:00:55.000Z</time>
      </trkpt>
      <trkpt lat="50.62285" lon="5.45786">
        <ele>145</ele>
        <time>2019-06-20T07:00:56.000Z</time>
      </trkpt>
      <trkpt lat="50.62284" lon="5.45789">
        <ele>145</ele>
        <time>2019-06-20T07:00:57.000Z</time>
      </trkpt>
      <trkpt lat="50.6228" lon="5.45807">
        <ele>145</ele>
        <time>2019-06-20T07:01:02.000Z</time>
      </trkpt>
      <trkpt lat="50.62271" lon="5.45843">
        <ele>144.80000305176</ele>
        <time>2019-06-20T07:01:09.000Z</time>
      </trkpt>
      <trkpt lat="50.62258" lon="5.45889">
        <ele>144.60000610352</ele>
        <time>2019-06-20T07:01:17.000Z</time>
      </trkpt>
      <trkpt lat="50.62241" lon="5.45945">
        <ele>144</ele>
        <time>2019-06-20T07:01:27.000Z</time>
      </trkpt>
      <trkpt lat="50.62237" lon="5.45975">
        <ele>144</ele>
        <time>2019-06-20T07:01:32.000Z</time>
      </trkpt>
      <trkpt lat="50.62239" lon="5.45979">
        <ele>144</ele>
        <time>2019-06-20T07:01:33.000Z</time>
      </trkpt>
      <trkpt lat="50.62242" lon="5.45982">
        <ele>144</ele>
        <time>2019-06-20T07:01:34.000Z</time>
      </trkpt>
      <trkpt lat="50.62249" lon="5.45985">
        <ele>144.19999694824</ele>
        <time>2019-06-20T07:01:36.000Z</time>
      </trkpt>
      <trkpt lat="50.62261" lon="5.45981">
        <ele>144.60000610352</ele>
        <time>2019-06-20T07:01:39.000Z</time>
      </trkpt>
      <trkpt lat="50.62265" lon="5.45979">
        <ele>144.39999389648</ele>
        <time>2019-06-20T07:01:40.000Z</time>
      </trkpt>
      <trkpt lat="50.62279" lon="5.45975">
        <ele>144.60000610352</ele>
        <time>2019-06-20T07:01:43.000Z</time>
      </trkpt>
      <trkpt lat="50.62305" lon="5.45962">
        <ele>144.80000305176</ele>
        <time>2019-06-20T07:01:49.000Z</time>
      </trkpt>
      <trkpt lat="50.62342" lon="5.45944">
        <ele>144.80000305176</ele>
        <time>2019-06-20T07:01:56.000Z</time>
      </trkpt>
      <trkpt lat="50.62384" lon="5.45922">
        <ele>144</ele>
        <time>2019-06-20T07:02:03.000Z</time>
      </trkpt>
      <trkpt lat="50.6239" lon="5.45918">
        <ele>143.80000305176</ele>
        <time>2019-06-20T07:02:04.000Z</time>
      </trkpt>
      <trkpt lat="50.62403" lon="5.4591">
        <ele>143.39999389648</ele>
        <time>2019-06-20T07:02:06.000Z</time>
      </trkpt>
      <trkpt lat="50.62416" lon="5.45903">
        <ele>143</ele>
        <time>2019-06-20T07:02:08.000Z</time>
      </trkpt>
      <trkpt lat="50.6243" lon="5.45899">
        <ele>142.80000305176</ele>
        <time>2019-06-20T07:02:10.000Z</time>
      </trkpt>
      <trkpt lat="50.62451" lon="5.45888">
        <ele>141.80000305176</ele>
        <time>2019-06-20T07:02:13.000Z</time>
      </trkpt>
      <trkpt lat="50.62474" lon="5.45871">
        <ele>141</ele>
        <time>2019-06-20T07:02:17.000Z</time>
      </trkpt>
      <trkpt lat="50.62479" lon="5.45866">
        <ele>141</ele>
        <time>2019-06-20T07:02:18.000Z</time>
      </trkpt>
      <trkpt lat="50.62483" lon="5.45861">
        <ele>140.80000305176</ele>
        <time>2019-06-20T07:02:19.000Z</time>
      </trkpt>
      <trkpt lat="50.62498" lon="5.45843">
        <ele>140.60000610352</ele>
        <time>2019-06-20T07:02:23.000Z</time>
      </trkpt>
      <trkpt lat="50.62502" lon="5.45827">
        <ele>140.60000610352</ele>
        <time>2019-06-20T07:02:26.000Z</time>
      </trkpt>
      <trkpt lat="50.62501" lon="5.45821">
        <ele>140.80000305176</ele>
        <time>2019-06-20T07:02:27.000Z</time>
      </trkpt>
      <trkpt lat="50.62496" lon="5.45811">
        <ele>140.80000305176</ele>
        <time>2019-06-20T07:02:29.000Z</time>
      </trkpt>
      <trkpt lat="50.62493" lon="5.45806">
        <ele>140.80000305176</ele>
        <time>2019-06-20T07:02:30.000Z</time>
      </trkpt>
      <trkpt lat="50.62487" lon="5.45799">
        <ele>141</ele>
        <time>2019-06-20T07:02:32.000Z</time>
      </trkpt>
      <trkpt lat="50.62483" lon="5.45796">
        <ele>141</ele>
        <time>2019-06-20T07:02:33.000Z</time>
      </trkpt>
      <trkpt lat="50.62477" lon="5.45789">
        <ele>141.19999694824</ele>
        <time>2019-06-20T07:02:35.000Z</time>
      </trkpt>
      <trkpt lat="50.62468" lon="5.45781">
        <ele>141.60000610352</ele>
        <time>2019-06-20T07:02:38.000Z</time>
      </trkpt>
      <trkpt lat="50.62463" lon="5.45774">
        <ele>142</ele>
        <time>2019-06-20T07:02:40.000Z</time>
      </trkpt>
      <trkpt lat="50.62457" lon="5.45767">
        <ele>142.39999389648</ele>
        <time>2019-06-20T07:02:42.000Z</time>
      </trkpt>
      <trkpt lat="50.6245" lon="5.4576">
        <ele>142.80000305176</ele>
        <time>2019-06-20T07:02:44.000Z</time>
      </trkpt>
      <trkpt lat="50.62445" lon="5.45753">
        <ele>143.19999694824</ele>
        <time>2019-06-20T07:02:46.000Z</time>
      </trkpt>
      <trkpt lat="50.62443" lon="5.45749">
        <ele>143.39999389648</ele>
        <time>2019-06-20T07:02:47.000Z</time>
      </trkpt>
      <trkpt lat="50.62435" lon="5.45738">
        <ele>144</ele>
        <time>2019-06-20T07:02:50.000Z</time>
      </trkpt>
      <trkpt lat="50.62431" lon="5.45735">
        <ele>144.19999694824</ele>
        <time>2019-06-20T07:02:51.000Z</time>
      </trkpt>
      <trkpt lat="50.62426" lon="5.45726">
        <ele>144.60000610352</ele>
        <time>2019-06-20T07:02:53.000Z</time>
      </trkpt>
      <trkpt lat="50.62416" lon="5.45712">
        <ele>144.60000610352</ele>
        <time>2019-06-20T07:02:56.000Z</time>
      </trkpt>
      <trkpt lat="50.62413" lon="5.45708">
        <ele>144.80000305176</ele>
        <time>2019-06-20T07:02:57.000Z</time>
      </trkpt>
      <trkpt lat="50.62407" lon="5.45698">
        <ele>145</ele>
        <time>2019-06-20T07:02:59.000Z</time>
      </trkpt>
      <trkpt lat="50.62398" lon="5.45676">
        <ele>145.60000610352</ele>
        <time>2019-06-20T07:03:03.000Z</time>
      </trkpt>
      <trkpt lat="50.62374" lon="5.45634">
        <ele>146</ele>
        <time>2019-06-20T07:03:11.000Z</time>
      </trkpt>
      <trkpt lat="50.62355" lon="5.45606">
        <ele>146.19999694824</ele>
        <time>2019-06-20T07:03:16.000Z</time>
      </trkpt>
      <trkpt lat="50.62352" lon="5.45599">
        <ele>146.19999694824</ele>
        <time>2019-06-20T07:03:17.000Z</time>
      </trkpt>
      <trkpt lat="50.62346" lon="5.45568">
        <ele>146</ele>
        <time>2019-06-20T07:03:21.000Z</time>
      </trkpt>
      <trkpt lat="50.62345" lon="5.45552">
        <ele>145.80000305176</ele>
        <time>2019-06-20T07:03:23.000Z</time>
      </trkpt>
      <trkpt lat="50.62343" lon="5.45503">
        <ele>145.60000610352</ele>
        <time>2019-06-20T07:03:29.000Z</time>
      </trkpt>
      <trkpt lat="50.62339" lon="5.45436">
        <ele>145.60000610352</ele>
        <time>2019-06-20T07:03:37.000Z</time>
      </trkpt>
      <trkpt lat="50.62339" lon="5.45418">
        <ele>145.60000610352</ele>
        <time>2019-06-20T07:03:39.000Z</time>
      </trkpt>
      <trkpt lat="50.62336" lon="5.45332">
        <ele>145.80000305176</ele>
        <time>2019-06-20T07:03:49.000Z</time>
      </trkpt>
      <trkpt lat="50.62334" lon="5.45243">
        <ele>146.19999694824</ele>
        <time>2019-06-20T07:04:00.000Z</time>
      </trkpt>
      <trkpt lat="50.6233" lon="5.45176">
        <ele>146.19999694824</ele>
        <time>2019-06-20T07:04:08.000Z</time>
      </trkpt>
      <trkpt lat="50.62329" lon="5.45158">
        <ele>146.39999389648</ele>
        <time>2019-06-20T07:04:10.000Z</time>
      </trkpt>
      <trkpt lat="50.62328" lon="5.45114">
        <ele>146.80000305176</ele>
        <time>2019-06-20T07:04:15.000Z</time>
      </trkpt>
      <trkpt lat="50.62328" lon="5.45039">
        <ele>147.19999694824</ele>
        <time>2019-06-20T07:04:24.000Z</time>
      </trkpt>
      <trkpt lat="50.62331" lon="5.44961">
        <ele>147.80000305176</ele>
        <time>2019-06-20T07:04:33.000Z</time>
      </trkpt>
      <trkpt lat="50.62332" lon="5.44928">
        <ele>148.19999694824</ele>
        <time>2019-06-20T07:04:37.000Z</time>
      </trkpt>
      <trkpt lat="50.62333" lon="5.44903">
        <ele>148.60000610352</ele>
        <time>2019-06-20T07:04:40.000Z</time>
      </trkpt>
      <trkpt lat="50.62333" lon="5.4488">
        <ele>149.19999694824</ele>
        <time>2019-06-20T07:04:43.000Z</time>
      </trkpt>
      <trkpt lat="50.62334" lon="5.44864">
        <ele>149.39999389648</ele>
        <time>2019-06-20T07:04:45.000Z</time>
      </trkpt>
      <trkpt lat="50.62337" lon="5.44842">
        <ele>149.60000610352</ele>
        <time>2019-06-20T07:04:48.000Z</time>
      </trkpt>
      <trkpt lat="50.62341" lon="5.44811">
        <ele>150.39999389648</ele>
        <time>2019-06-20T07:04:52.000Z</time>
      </trkpt>
      <trkpt lat="50.62344" lon="5.4478">
        <ele>150.80000305176</ele>
        <time>2019-06-20T07:04:56.000Z</time>
      </trkpt>
      <trkpt lat="50.62352" lon="5.44707">
        <ele>151.39999389648</ele>
        <time>2019-06-20T07:05:05.000Z</time>
      </trkpt>
      <trkpt lat="50.62359" lon="5.44631">
        <ele>152.19999694824</ele>
        <time>2019-06-20T07:05:14.000Z</time>
      </trkpt>
      <trkpt lat="50.6236" lon="5.44613">
        <ele>152.19999694824</ele>
        <time>2019-06-20T07:05:16.000Z</time>
      </trkpt>
      <trkpt lat="50.62362" lon="5.44532">
        <ele>152.19999694824</ele>
        <time>2019-06-20T07:05:25.000Z</time>
      </trkpt>
      <trkpt lat="50.62362" lon="5.44523">
        <ele>152.19999694824</ele>
        <time>2019-06-20T07:05:26.000Z</time>
      </trkpt>
      <trkpt lat="50.62359" lon="5.44467">
        <ele>152.19999694824</ele>
        <time>2019-06-20T07:05:32.000Z</time>
      </trkpt>
      <trkpt lat="50.62358" lon="5.44448">
        <ele>152</ele>
        <time>2019-06-20T07:05:34.000Z</time>
      </trkpt>
      <trkpt lat="50.62356" lon="5.44418">
        <ele>152</ele>
        <time>2019-06-20T07:05:37.000Z</time>
      </trkpt>
      <trkpt lat="50.62355" lon="5.44408">
        <ele>151.80000305176</ele>
        <time>2019-06-20T07:05:38.000Z</time>
      </trkpt>
      <trkpt lat="50.62352" lon="5.44388">
        <ele>152</ele>
        <time>2019-06-20T07:05:40.000Z</time>
      </trkpt>
      <trkpt lat="50.62348" lon="5.44359">
        <ele>151.60000610352</ele>
        <time>2019-06-20T07:05:43.000Z</time>
      </trkpt>
      <trkpt lat="50.62341" lon="5.44319">
        <ele>151</ele>
        <time>2019-06-20T07:05:47.000Z</time>
      </trkpt>
      <trkpt lat="50.6234" lon="5.44309">
        <ele>150.80000305176</ele>
        <time>2019-06-20T07:05:48.000Z</time>
      </trkpt>
      <trkpt lat="50.62334" lon="5.44281">
        <ele>150.19999694824</ele>
        <time>2019-06-20T07:05:51.000Z</time>
      </trkpt>
      <trkpt lat="50.62323" lon="5.44235">
        <ele>149.60000610352</ele>
        <time>2019-06-20T07:05:56.000Z</time>
      </trkpt>
      <trkpt lat="50.62313" lon="5.44188">
        <ele>148.80000305176</ele>
        <time>2019-06-20T07:06:01.000Z</time>
      </trkpt>
      <trkpt lat="50.62313" lon="5.44158">
        <ele>148.80000305176</ele>
        <time>2019-06-20T07:06:04.000Z</time>
      </trkpt>
      <trkpt lat="50.62316" lon="5.44138">
        <ele>148.39999389648</ele>
        <time>2019-06-20T07:06:06.000Z</time>
      </trkpt>
      <trkpt lat="50.62319" lon="5.44128">
        <ele>148</ele>
        <time>2019-06-20T07:06:07.000Z</time>
      </trkpt>
      <trkpt lat="50.62325" lon="5.44111">
        <ele>147.60000610352</ele>
        <time>2019-06-20T07:06:09.000Z</time>
      </trkpt>
      <trkpt lat="50.62334" lon="5.44094">
        <ele>147.60000610352</ele>
        <time>2019-06-20T07:06:11.000Z</time>
      </trkpt>
      <trkpt lat="50.6235" lon="5.44063">
        <ele>147.39999389648</ele>
        <time>2019-06-20T07:06:15.000Z</time>
      </trkpt>
      <trkpt lat="50.62358" lon="5.44049">
        <ele>147</ele>
        <time>2019-06-20T07:06:17.000Z</time>
      </trkpt>
      <trkpt lat="50.62373" lon="5.44018">
        <ele>146.80000305176</ele>
        <time>2019-06-20T07:06:21.000Z</time>
      </trkpt>
      <trkpt lat="50.62375" lon="5.44009">
        <ele>146.80000305176</ele>
        <time>2019-06-20T07:06:22.000Z</time>
      </trkpt>
      <trkpt lat="50.62376" lon="5.43973">
        <ele>146.80000305176</ele>
        <time>2019-06-20T07:06:26.000Z</time>
      </trkpt>
      <trkpt lat="50.62373" lon="5.43952">
        <ele>146.80000305176</ele>
        <time>2019-06-20T07:06:28.000Z</time>
      </trkpt>
      <trkpt lat="50.62365" lon="5.43914">
        <ele>146.60000610352</ele>
        <time>2019-06-20T07:06:32.000Z</time>
      </trkpt>
      <trkpt lat="50.62349" lon="5.43834">
        <ele>145.80000305176</ele>
        <time>2019-06-20T07:06:40.000Z</time>
      </trkpt>
      <trkpt lat="50.62347" lon="5.43823">
        <ele>145.80000305176</ele>
        <time>2019-06-20T07:06:41.000Z</time>
      </trkpt>
      <trkpt lat="50.62328" lon="5.43755">
        <ele>144.80000305176</ele>
        <time>2019-06-20T07:06:48.000Z</time>
      </trkpt>
      <trkpt lat="50.62325" lon="5.43746">
        <ele>144.39999389648</ele>
        <time>2019-06-20T07:06:49.000Z</time>
      </trkpt>
      <trkpt lat="50.62316" lon="5.4372">
        <ele>144.19999694824</ele>
        <time>2019-06-20T07:06:52.000Z</time>
      </trkpt>
      <trkpt lat="50.62307" lon="5.43698">
        <ele>144.19999694824</ele>
        <time>2019-06-20T07:06:55.000Z</time>
      </trkpt>
      <trkpt lat="50.62304" lon="5.4369">
        <ele>144.19999694824</ele>
        <time>2019-06-20T07:06:56.000Z</time>
      </trkpt>
      <trkpt lat="50.62295" lon="5.43667">
        <ele>144.39999389648</ele>
        <time>2019-06-20T07:06:59.000Z</time>
      </trkpt>
      <trkpt lat="50.62286" lon="5.43644">
        <ele>145.19999694824</ele>
        <time>2019-06-20T07:07:02.000Z</time>
      </trkpt>
      <trkpt lat="50.62284" lon="5.43637">
        <ele>145.19999694824</ele>
        <time>2019-06-20T07:07:03.000Z</time>
      </trkpt>
      <trkpt lat="50.62281" lon="5.4363">
        <ele>145.39999389648</ele>
        <time>2019-06-20T07:07:04.000Z</time>
      </trkpt>
      <trkpt lat="50.62273" lon="5.4361">
        <ele>146</ele>
        <time>2019-06-20T07:07:07.000Z</time>
      </trkpt>
      <trkpt lat="50.62268" lon="5.43596">
        <ele>146.19999694824</ele>
        <time>2019-06-20T07:07:09.000Z</time>
      </trkpt>
      <trkpt lat="50.62263" lon="5.43582">
        <ele>146.39999389648</ele>
        <time>2019-06-20T07:07:11.000Z</time>
      </trkpt>
      <trkpt lat="50.62252" lon="5.43554">
        <ele>147.19999694824</ele>
        <time>2019-06-20T07:07:15.000Z</time>
      </trkpt>
      <trkpt lat="50.62247" lon="5.4354">
        <ele>148</ele>
        <time>2019-06-20T07:07:17.000Z</time>
      </trkpt>
      <trkpt lat="50.62244" lon="5.43533">
        <ele>148.39999389648</ele>
        <time>2019-06-20T07:07:18.000Z</time>
      </trkpt>
      <trkpt lat="50.62237" lon="5.43495">
        <ele>149.39999389648</ele>
        <time>2019-06-20T07:07:23.000Z</time>
      </trkpt>
      <trkpt lat="50.62226" lon="5.43474">
        <ele>150.19999694824</ele>
        <time>2019-06-20T07:07:27.000Z</time>
      </trkpt>
      <trkpt lat="50.62221" lon="5.43471">
        <ele>150.39999389648</ele>
        <time>2019-06-20T07:07:28.000Z</time>
      </trkpt>
      <trkpt lat="50.62217" lon="5.43466">
        <ele>150.80000305176</ele>
        <time>2019-06-20T07:07:29.000Z</time>
      </trkpt>
      <trkpt lat="50.6221" lon="5.43453">
        <ele>151.19999694824</ele>
        <time>2019-06-20T07:07:31.000Z</time>
      </trkpt>
      <trkpt lat="50.62207" lon="5.43446">
        <ele>151.39999389648</ele>
        <time>2019-06-20T07:07:32.000Z</time>
      </trkpt>
      <trkpt lat="50.62187" lon="5.43393">
        <ele>151.80000305176</ele>
        <time>2019-06-20T07:07:39.000Z</time>
      </trkpt>
      <trkpt lat="50.62167" lon="5.43334">
        <ele>152</ele>
        <time>2019-06-20T07:07:47.000Z</time>
      </trkpt>
      <trkpt lat="50.62164" lon="5.43327">
        <ele>152.19999694824</ele>
        <time>2019-06-20T07:07:48.000Z</time>
      </trkpt>
      <trkpt lat="50.62151" lon="5.43302">
        <ele>153</ele>
        <time>2019-06-20T07:07:52.000Z</time>
      </trkpt>
      <trkpt lat="50.62147" lon="5.43297">
        <ele>153</ele>
        <time>2019-06-20T07:07:53.000Z</time>
      </trkpt>
      <trkpt lat="50.62142" lon="5.43292">
        <ele>153.39999389648</ele>
        <time>2019-06-20T07:07:54.000Z</time>
      </trkpt>
      <trkpt lat="50.62116" lon="5.43264">
        <ele>154.19999694824</ele>
        <time>2019-06-20T07:08:00.000Z</time>
      </trkpt>
      <trkpt lat="50.62107" lon="5.43255">
        <ele>154.39999389648</ele>
        <time>2019-06-20T07:08:02.000Z</time>
      </trkpt>
      <trkpt lat="50.62072" lon="5.43217">
        <ele>154.39999389648</ele>
        <time>2019-06-20T07:08:09.000Z</time>
      </trkpt>
      <trkpt lat="50.62032" lon="5.43179">
        <ele>153.39999389648</ele>
        <time>2019-06-20T07:08:16.000Z</time>
      </trkpt>
      <trkpt lat="50.6202" lon="5.4317">
        <ele>153</ele>
        <time>2019-06-20T07:08:18.000Z</time>
      </trkpt>
      <trkpt lat="50.62014" lon="5.43167">
        <ele>153</ele>
        <time>2019-06-20T07:08:19.000Z</time>
      </trkpt>
      <trkpt lat="50.62002" lon="5.43162">
        <ele>153</ele>
        <time>2019-06-20T07:08:21.000Z</time>
      </trkpt>
      <trkpt lat="50.61971" lon="5.43137">
        <ele>153.39999389648</ele>
        <time>2019-06-20T07:08:27.000Z</time>
      </trkpt>
      <trkpt lat="50.61943" lon="5.431">
        <ele>153.39999389648</ele>
        <time>2019-06-20T07:08:33.000Z</time>
      </trkpt>
      <trkpt lat="50.61938" lon="5.43093">
        <ele>153.39999389648</ele>
        <time>2019-06-20T07:08:34.000Z</time>
      </trkpt>
      <trkpt lat="50.6192" lon="5.43068">
        <ele>153.19999694824</ele>
        <time>2019-06-20T07:08:38.000Z</time>
      </trkpt>
      <trkpt lat="50.61911" lon="5.43055">
        <ele>153</ele>
        <time>2019-06-20T07:08:40.000Z</time>
      </trkpt>
      <trkpt lat="50.61898" lon="5.43037">
        <ele>153</ele>
        <time>2019-06-20T07:08:43.000Z</time>
      </trkpt>
      <trkpt lat="50.61872" lon="5.43001">
        <ele>152.60000610352</ele>
        <time>2019-06-20T07:08:49.000Z</time>
      </trkpt>
      <trkpt lat="50.61837" lon="5.42956">
        <ele>152.60000610352</ele>
        <time>2019-06-20T07:08:57.000Z</time>
      </trkpt>
      <trkpt lat="50.618" lon="5.42919">
        <ele>152.60000610352</ele>
        <time>2019-06-20T07:09:04.000Z</time>
      </trkpt>
      <trkpt lat="50.61784" lon="5.429">
        <ele>152.60000610352</ele>
        <time>2019-06-20T07:09:07.000Z</time>
      </trkpt>
      <trkpt lat="50.61776" lon="5.42883">
        <ele>152.19999694824</ele>
        <time>2019-06-20T07:09:09.000Z</time>
      </trkpt>
      <trkpt lat="50.61774" lon="5.42852">
        <ele>151</ele>
        <time>2019-06-20T07:09:12.000Z</time>
      </trkpt>
      <trkpt lat="50.61777" lon="5.42842">
        <ele>150.80000305176</ele>
        <time>2019-06-20T07:09:13.000Z</time>
      </trkpt>
      <trkpt lat="50.61784" lon="5.42821">
        <ele>150.39999389648</ele>
        <time>2019-06-20T07:09:15.000Z</time>
      </trkpt>
      <trkpt lat="50.61798" lon="5.4279">
        <ele>149.80000305176</ele>
        <time>2019-06-20T07:09:18.000Z</time>
      </trkpt>
      <trkpt lat="50.61805" lon="5.42767">
        <ele>149.39999389648</ele>
        <time>2019-06-20T07:09:20.000Z</time>
      </trkpt>
      <trkpt lat="50.61811" lon="5.42741">
        <ele>148.60000610352</ele>
        <time>2019-06-20T07:09:22.000Z</time>
      </trkpt>
      <trkpt lat="50.61817" lon="5.42705">
        <ele>147.80000305176</ele>
        <time>2019-06-20T07:09:25.000Z</time>
      </trkpt>
      <trkpt lat="50.61819" lon="5.42695">
        <ele>147.39999389648</ele>
        <time>2019-06-20T07:09:26.000Z</time>
      </trkpt>
      <trkpt lat="50.61823" lon="5.42667">
        <ele>147</ele>
        <time>2019-06-20T07:09:29.000Z</time>
      </trkpt>
      <trkpt lat="50.61823" lon="5.42658">
        <ele>147</ele>
        <time>2019-06-20T07:09:30.000Z</time>
      </trkpt>
      <trkpt lat="50.61823" lon="5.4264">
        <ele>147</ele>
        <time>2019-06-20T07:09:32.000Z</time>
      </trkpt>
      <trkpt lat="50.61823" lon="5.42615">
        <ele>146.80000305176</ele>
        <time>2019-06-20T07:09:35.000Z</time>
      </trkpt>
      <trkpt lat="50.61831" lon="5.42602">
        <ele>147.80000305176</ele>
        <time>2019-06-20T07:09:38.000Z</time>
      </trkpt>
      <trkpt lat="50.61835" lon="5.42601">
        <ele>148.19999694824</ele>
        <time>2019-06-20T07:09:39.000Z</time>
      </trkpt>
      <trkpt lat="50.61848" lon="5.42604">
        <ele>148.80000305176</ele>
        <time>2019-06-20T07:09:42.000Z</time>
      </trkpt>
      <trkpt lat="50.61852" lon="5.42605">
        <ele>149.39999389648</ele>
        <time>2019-06-20T07:09:43.000Z</time>
      </trkpt>
      <trkpt lat="50.61863" lon="5.42608">
        <ele>150.39999389648</ele>
        <time>2019-06-20T07:09:46.000Z</time>
      </trkpt>
      <trkpt lat="50.61867" lon="5.42609">
        <ele>151</ele>
        <time>2019-06-20T07:09:47.000Z</time>
      </trkpt>
      <trkpt lat="50.61871" lon="5.42609">
        <ele>151.39999389648</ele>
        <time>2019-06-20T07:09:48.000Z</time>
      </trkpt>
      <trkpt lat="50.61881" lon="5.4261">
        <ele>152.19999694824</ele>
        <time>2019-06-20T07:09:50.000Z</time>
      </trkpt>
      <trkpt lat="50.61896" lon="5.42609">
        <ele>153.19999694824</ele>
        <time>2019-06-20T07:09:53.000Z</time>
      </trkpt>
      <trkpt lat="50.619" lon="5.42609">
        <ele>153.60000610352</ele>
        <time>2019-06-20T07:09:54.000Z</time>
      </trkpt>
      <trkpt lat="50.61919" lon="5.42609">
        <ele>154.19999694824</ele>
        <time>2019-06-20T07:09:58.000Z</time>
      </trkpt>
      <trkpt lat="50.61924" lon="5.42608">
        <ele>154.39999389648</ele>
        <time>2019-06-20T07:09:59.000Z</time>
      </trkpt>
      <trkpt lat="50.61953" lon="5.42605">
        <ele>155.60000610352</ele>
        <time>2019-06-20T07:10:04.000Z</time>
      </trkpt>
      <trkpt lat="50.6197" lon="5.42604">
        <ele>156.19999694824</ele>
        <time>2019-06-20T07:10:07.000Z</time>
      </trkpt>
      <trkpt lat="50.62012" lon="5.42609">
        <ele>156.60000610352</ele>
        <time>2019-06-20T07:10:14.000Z</time>
      </trkpt>
      <trkpt lat="50.62062" lon="5.4262">
        <ele>156.19999694824</ele>
        <time>2019-06-20T07:10:22.000Z</time>
      </trkpt>
      <trkpt lat="50.62095" lon="5.42624">
        <ele>155.60000610352</ele>
        <time>2019-06-20T07:10:27.000Z</time>
      </trkpt>
      <trkpt lat="50.62116" lon="5.42627">
        <ele>155.60000610352</ele>
        <time>2019-06-20T07:10:30.000Z</time>
      </trkpt>
      <trkpt lat="50.62139" lon="5.42633">
        <ele>155</ele>
        <time>2019-06-20T07:10:33.000Z</time>
      </trkpt>
      <trkpt lat="50.62153" lon="5.42635">
        <ele>154.60000610352</ele>
        <time>2019-06-20T07:10:35.000Z</time>
      </trkpt>
      <trkpt lat="50.6216" lon="5.42634">
        <ele>154.39999389648</ele>
        <time>2019-06-20T07:10:36.000Z</time>
      </trkpt>
      <trkpt lat="50.62168" lon="5.42632">
        <ele>154</ele>
        <time>2019-06-20T07:10:37.000Z</time>
      </trkpt>
      <trkpt lat="50.62174" lon="5.42627">
        <ele>153</ele>
        <time>2019-06-20T07:10:38.000Z</time>
      </trkpt>
      <trkpt lat="50.6218" lon="5.4262">
        <ele>152.60000610352</ele>
        <time>2019-06-20T07:10:39.000Z</time>
      </trkpt>
      <trkpt lat="50.6219" lon="5.42603">
        <ele>151.80000305176</ele>
        <time>2019-06-20T07:10:41.000Z</time>
      </trkpt>
      <trkpt lat="50.62194" lon="5.42593">
        <ele>151.39999389648</ele>
        <time>2019-06-20T07:10:42.000Z</time>
      </trkpt>
      <trkpt lat="50.62199" lon="5.42585">
        <ele>151</ele>
        <time>2019-06-20T07:10:43.000Z</time>
      </trkpt>
      <trkpt lat="50.62209" lon="5.4257">
        <ele>150.19999694824</ele>
        <time>2019-06-20T07:10:45.000Z</time>
      </trkpt>
      <trkpt lat="50.62214" lon="5.42564">
        <ele>149.80000305176</ele>
        <time>2019-06-20T07:10:46.000Z</time>
      </trkpt>
      <trkpt lat="50.62227" lon="5.42563">
        <ele>149</ele>
        <time>2019-06-20T07:10:48.000Z</time>
      </trkpt>
      <trkpt lat="50.6225" lon="5.42565">
        <ele>147.80000305176</ele>
        <time>2019-06-20T07:10:51.000Z</time>
      </trkpt>
      <trkpt lat="50.62258" lon="5.42565">
        <ele>147.39999389648</ele>
        <time>2019-06-20T07:10:52.000Z</time>
      </trkpt>
      <trkpt lat="50.6227" lon="5.4256">
        <ele>146.60000610352</ele>
        <time>2019-06-20T07:10:54.000Z</time>
      </trkpt>
      <trkpt lat="50.62276" lon="5.42558">
        <ele>146.19999694824</ele>
        <time>2019-06-20T07:10:55.000Z</time>
      </trkpt>
      <trkpt lat="50.6228" lon="5.42558">
        <ele>145.80000305176</ele>
        <time>2019-06-20T07:10:56.000Z</time>
      </trkpt>
      <trkpt lat="50.62285" lon="5.42558">
        <ele>145.19999694824</ele>
        <time>2019-06-20T07:10:57.000Z</time>
      </trkpt>
      <trkpt lat="50.62289" lon="5.42558">
        <ele>144.80000305176</ele>
        <time>2019-06-20T07:10:58.000Z</time>
      </trkpt>
      <trkpt lat="50.62294" lon="5.42558">
        <ele>144.39999389648</ele>
        <time>2019-06-20T07:10:59.000Z</time>
      </trkpt>
      <trkpt lat="50.62299" lon="5.42558">
        <ele>144</ele>
        <time>2019-06-20T07:11:00.000Z</time>
      </trkpt>
      <trkpt lat="50.62309" lon="5.42553">
        <ele>143.39999389648</ele>
        <time>2019-06-20T07:11:02.000Z</time>
      </trkpt>
      <trkpt lat="50.62318" lon="5.42531">
        <ele>143</ele>
        <time>2019-06-20T07:11:05.000Z</time>
      </trkpt>
      <trkpt lat="50.62319" lon="5.42521">
        <ele>142.80000305176</ele>
        <time>2019-06-20T07:11:06.000Z</time>
      </trkpt>
      <trkpt lat="50.62321" lon="5.42512">
        <ele>142.60000610352</ele>
        <time>2019-06-20T07:11:07.000Z</time>
      </trkpt>
      <trkpt lat="50.6233" lon="5.42488">
        <ele>142.60000610352</ele>
        <time>2019-06-20T07:11:10.000Z</time>
      </trkpt>
      <trkpt lat="50.62338" lon="5.42472">
        <ele>142.39999389648</ele>
        <time>2019-06-20T07:11:12.000Z</time>
      </trkpt>
      <trkpt lat="50.62356" lon="5.42445">
        <ele>142</ele>
        <time>2019-06-20T07:11:16.000Z</time>
      </trkpt>
      <trkpt lat="50.62366" lon="5.42428">
        <ele>142</ele>
        <time>2019-06-20T07:11:18.000Z</time>
      </trkpt>
      <trkpt lat="50.62377" lon="5.42415">
        <ele>142</ele>
        <time>2019-06-20T07:11:20.000Z</time>
      </trkpt>
      <trkpt lat="50.62381" lon="5.42409">
        <ele>142</ele>
        <time>2019-06-20T07:11:21.000Z</time>
      </trkpt>
      <trkpt lat="50.62388" lon="5.42386">
        <ele>141.80000305176</ele>
        <time>2019-06-20T07:11:24.000Z</time>
      </trkpt>
      <trkpt lat="50.62388" lon="5.42368">
        <ele>141.60000610352</ele>
        <time>2019-06-20T07:11:26.000Z</time>
      </trkpt>
      <trkpt lat="50.62388" lon="5.42358">
        <ele>141.60000610352</ele>
        <time>2019-06-20T07:11:27.000Z</time>
      </trkpt>
      <trkpt lat="50.62389" lon="5.42347">
        <ele>141.60000610352</ele>
        <time>2019-06-20T07:11:28.000Z</time>
      </trkpt>
      <trkpt lat="50.62391" lon="5.42337">
        <ele>141.60000610352</ele>
        <time>2019-06-20T07:11:29.000Z</time>
      </trkpt>
      <trkpt lat="50.62397" lon="5.42318">
        <ele>141.39999389648</ele>
        <time>2019-06-20T07:11:31.000Z</time>
      </trkpt>
      <trkpt lat="50.62405" lon="5.42291">
        <ele>141.19999694824</ele>
        <time>2019-06-20T07:11:34.000Z</time>
      </trkpt>
      <trkpt lat="50.62418" lon="5.42246">
        <ele>141</ele>
        <time>2019-06-20T07:11:40.000Z</time>
      </trkpt>
      <trkpt lat="50.62423" lon="5.42228">
        <ele>140.39999389648</ele>
        <time>2019-06-20T07:11:45.000Z</time>
      </trkpt>
      <trkpt lat="50.62426" lon="5.42218">
        <ele>140.39999389648</ele>
        <time>2019-06-20T07:11:48.000Z</time>
      </trkpt>
      <trkpt lat="50.62428" lon="5.4221">
        <ele>140.39999389648</ele>
        <time>2019-06-20T07:11:51.000Z</time>
      </trkpt>
      <trkpt lat="50.62431" lon="5.42202">
        <ele>140.39999389648</ele>
        <time>2019-06-20T07:11:54.000Z</time>
      </trkpt>
      <trkpt lat="50.62433" lon="5.42197">
        <ele>140.19999694824</ele>
        <time>2019-06-20T07:11:56.000Z</time>
      </trkpt>
      <trkpt lat="50.62438" lon="5.42183">
        <ele>140.19999694824</ele>
        <time>2019-06-20T07:12:03.000Z</time>
      </trkpt>
      <trkpt lat="50.62446" lon="5.42171">
        <ele>140.19999694824</ele>
        <time>2019-06-20T07:12:10.000Z</time>
      </trkpt>
      <trkpt lat="50.62455" lon="5.42161">
        <ele>140</ele>
        <time>2019-06-20T07:12:17.000Z</time>
      </trkpt>
      <trkpt lat="50.62463" lon="5.42154">
        <ele>140.19999694824</ele>
        <time>2019-06-20T07:12:22.000Z</time>
      </trkpt>
      <trkpt lat="50.62477" lon="5.42146">
        <ele>140</ele>
        <time>2019-06-20T07:12:27.000Z</time>
      </trkpt>
      <trkpt lat="50.62493" lon="5.4214">
        <ele>140</ele>
        <time>2019-06-20T07:12:31.000Z</time>
      </trkpt>
      <trkpt lat="50.62506" lon="5.42133">
        <ele>140</ele>
        <time>2019-06-20T07:12:34.000Z</time>
      </trkpt>
      <trkpt lat="50.62519" lon="5.42124">
        <ele>140.19999694824</ele>
        <time>2019-06-20T07:12:37.000Z</time>
      </trkpt>
      <trkpt lat="50.62528" lon="5.42117">
        <ele>140.39999389648</ele>
        <time>2019-06-20T07:12:39.000Z</time>
      </trkpt>
      <trkpt lat="50.62536" lon="5.42109">
        <ele>140.39999389648</ele>
        <time>2019-06-20T07:12:41.000Z</time>
      </trkpt>
      <trkpt lat="50.62549" lon="5.42094">
        <ele>141</ele>
        <time>2019-06-20T07:12:44.000Z</time>
      </trkpt>
      <trkpt lat="50.6256" lon="5.4208">
        <ele>141.19999694824</ele>
        <time>2019-06-20T07:12:46.000Z</time>
      </trkpt>
      <trkpt lat="50.62597" lon="5.42032">
        <ele>141.19999694824</ele>
        <time>2019-06-20T07:12:52.000Z</time>
      </trkpt>
      <trkpt lat="50.62646" lon="5.4197">
        <ele>139</ele>
        <time>2019-06-20T07:12:59.000Z</time>
      </trkpt>
      <trkpt lat="50.62676" lon="5.41945">
        <ele>138</ele>
        <time>2019-06-20T07:13:03.000Z</time>
      </trkpt>
      <trkpt lat="50.62683" lon="5.41924">
        <ele>137.19999694824</ele>
        <time>2019-06-20T07:13:05.000Z</time>
      </trkpt>
      <trkpt lat="50.62682" lon="5.41902">
        <ele>136.80000305176</ele>
        <time>2019-06-20T07:13:07.000Z</time>
      </trkpt>
      <trkpt lat="50.62678" lon="5.41879">
        <ele>136.19999694824</ele>
        <time>2019-06-20T07:13:09.000Z</time>
      </trkpt>
      <trkpt lat="50.62675" lon="5.41856">
        <ele>135.60000610352</ele>
        <time>2019-06-20T07:13:11.000Z</time>
      </trkpt>
      <trkpt lat="50.6267" lon="5.41822">
        <ele>135</ele>
        <time>2019-06-20T07:13:14.000Z</time>
      </trkpt>
      <trkpt lat="50.62667" lon="5.41811">
        <ele>134.80000305176</ele>
        <time>2019-06-20T07:13:15.000Z</time>
      </trkpt>
      <trkpt lat="50.62656" lon="5.41779">
        <ele>134.60000610352</ele>
        <time>2019-06-20T07:13:18.000Z</time>
      </trkpt>
      <trkpt lat="50.62652" lon="5.41768">
        <ele>134.60000610352</ele>
        <time>2019-06-20T07:13:19.000Z</time>
      </trkpt>
      <trkpt lat="50.62645" lon="5.41747">
        <ele>134.39999389648</ele>
        <time>2019-06-20T07:13:21.000Z</time>
      </trkpt>
      <trkpt lat="50.62633" lon="5.41716">
        <ele>133.60000610352</ele>
        <time>2019-06-20T07:13:24.000Z</time>
      </trkpt>
      <trkpt lat="50.62622" lon="5.41685">
        <ele>133.19999694824</ele>
        <time>2019-06-20T07:13:27.000Z</time>
      </trkpt>
      <trkpt lat="50.62618" lon="5.41675">
        <ele>133</ele>
        <time>2019-06-20T07:13:28.000Z</time>
      </trkpt>
      <trkpt lat="50.62601" lon="5.41625">
        <ele>132.80000305176</ele>
        <time>2019-06-20T07:13:33.000Z</time>
      </trkpt>
      <trkpt lat="50.62598" lon="5.41615">
        <ele>132.80000305176</ele>
        <time>2019-06-20T07:13:34.000Z</time>
      </trkpt>
      <trkpt lat="50.62584" lon="5.41568">
        <ele>132.19999694824</ele>
        <time>2019-06-20T07:13:39.000Z</time>
      </trkpt>
      <trkpt lat="50.62584" lon="5.41559">
        <ele>132.19999694824</ele>
        <time>2019-06-20T07:13:40.000Z</time>
      </trkpt>
      <trkpt lat="50.62595" lon="5.41538">
        <ele>132</ele>
        <time>2019-06-20T07:13:43.000Z</time>
      </trkpt>
      <trkpt lat="50.62625" lon="5.4149">
        <ele>131.19999694824</ele>
        <time>2019-06-20T07:13:49.000Z</time>
      </trkpt>
      <trkpt lat="50.62641" lon="5.41466">
        <ele>131</ele>
        <time>2019-06-20T07:13:52.000Z</time>
      </trkpt>
      <trkpt lat="50.62654" lon="5.41455">
        <ele>130.60000610352</ele>
        <time>2019-06-20T07:13:54.000Z</time>
      </trkpt>
      <trkpt lat="50.62668" lon="5.41447">
        <ele>130.39999389648</ele>
        <time>2019-06-20T07:13:56.000Z</time>
      </trkpt>
      <trkpt lat="50.6269" lon="5.41442">
        <ele>129.80000305176</ele>
        <time>2019-06-20T07:13:59.000Z</time>
      </trkpt>
      <trkpt lat="50.62704" lon="5.41444">
        <ele>129.39999389648</ele>
        <time>2019-06-20T07:14:01.000Z</time>
      </trkpt>
      <trkpt lat="50.62719" lon="5.41448">
        <ele>129.19999694824</ele>
        <time>2019-06-20T07:14:03.000Z</time>
      </trkpt>
      <trkpt lat="50.62773" lon="5.41469">
        <ele>128.60000610352</ele>
        <time>2019-06-20T07:14:11.000Z</time>
      </trkpt>
      <trkpt lat="50.62819" lon="5.41486">
        <ele>128.60000610352</ele>
        <time>2019-06-20T07:14:18.000Z</time>
      </trkpt>
      <trkpt lat="50.62838" lon="5.41493">
        <ele>128.80000305176</ele>
        <time>2019-06-20T07:14:21.000Z</time>
      </trkpt>
      <trkpt lat="50.62863" lon="5.41502">
        <ele>129.39999389648</ele>
        <time>2019-06-20T07:14:25.000Z</time>
      </trkpt>
      <trkpt lat="50.62875" lon="5.41507">
        <ele>129.60000610352</ele>
        <time>2019-06-20T07:14:27.000Z</time>
      </trkpt>
      <trkpt lat="50.62882" lon="5.41507">
        <ele>129.60000610352</ele>
        <time>2019-06-20T07:14:28.000Z</time>
      </trkpt>
      <trkpt lat="50.62895" lon="5.41503">
        <ele>129.60000610352</ele>
        <time>2019-06-20T07:14:30.000Z</time>
      </trkpt>
      <trkpt lat="50.6294" lon="5.41477">
        <ele>129.60000610352</ele>
        <time>2019-06-20T07:14:36.000Z</time>
      </trkpt>
      <trkpt lat="50.62995" lon="5.41448">
        <ele>127.80000305176</ele>
        <time>2019-06-20T07:14:43.000Z</time>
      </trkpt>
      <trkpt lat="50.63002" lon="5.41444">
        <ele>126.80000305176</ele>
        <time>2019-06-20T07:14:44.000Z</time>
      </trkpt>
      <trkpt lat="50.63021" lon="5.41434">
        <ele>125.80000305176</ele>
        <time>2019-06-20T07:14:47.000Z</time>
      </trkpt>
      <trkpt lat="50.63025" lon="5.41429">
        <ele>125.59999847412</ele>
        <time>2019-06-20T07:14:48.000Z</time>
      </trkpt>
      <trkpt lat="50.63027" lon="5.41416">
        <ele>125.59999847412</ele>
        <time>2019-06-20T07:14:50.000Z</time>
      </trkpt>
      <trkpt lat="50.63022" lon="5.414">
        <ele>125.40000152588</ele>
        <time>2019-06-20T07:14:52.000Z</time>
      </trkpt>
      <trkpt lat="50.63016" lon="5.41382">
        <ele>125.40000152588</ele>
        <time>2019-06-20T07:14:54.000Z</time>
      </trkpt>
      <trkpt lat="50.62995" lon="5.41303">
        <ele>125.19999694824</ele>
        <time>2019-06-20T07:15:02.000Z</time>
      </trkpt>
      <trkpt lat="50.62981" lon="5.41249">
        <ele>124.40000152588</ele>
        <time>2019-06-20T07:15:07.000Z</time>
      </trkpt>
      <trkpt lat="50.62967" lon="5.41194">
        <ele>123.80000305176</ele>
        <time>2019-06-20T07:15:12.000Z</time>
      </trkpt>
      <trkpt lat="50.62958" lon="5.41161">
        <ele>123.19999694824</ele>
        <time>2019-06-20T07:15:15.000Z</time>
      </trkpt>
      <trkpt lat="50.62939" lon="5.41096">
        <ele>122</ele>
        <time>2019-06-20T07:15:21.000Z</time>
      </trkpt>
      <trkpt lat="50.62933" lon="5.41074">
        <ele>122</ele>
        <time>2019-06-20T07:15:23.000Z</time>
      </trkpt>
      <trkpt lat="50.62913" lon="5.41008">
        <ele>120.80000305176</ele>
        <time>2019-06-20T07:15:29.000Z</time>
      </trkpt>
      <trkpt lat="50.62897" lon="5.40953">
        <ele>120.40000152588</ele>
        <time>2019-06-20T07:15:34.000Z</time>
      </trkpt>
      <trkpt lat="50.62885" lon="5.4091">
        <ele>119.59999847412</ele>
        <time>2019-06-20T07:15:38.000Z</time>
      </trkpt>
      <trkpt lat="50.62866" lon="5.40847">
        <ele>119.40000152588</ele>
        <time>2019-06-20T07:15:44.000Z</time>
      </trkpt>
      <trkpt lat="50.62844" lon="5.40785">
        <ele>119.19999694824</ele>
        <time>2019-06-20T07:15:50.000Z</time>
      </trkpt>
      <trkpt lat="50.62833" lon="5.40754">
        <ele>119.19999694824</ele>
        <time>2019-06-20T07:15:53.000Z</time>
      </trkpt>
      <trkpt lat="50.62803" lon="5.40675">
        <ele>119.19999694824</ele>
        <time>2019-06-20T07:16:01.000Z</time>
      </trkpt>
      <trkpt lat="50.62781" lon="5.40617">
        <ele>119.40000152588</ele>
        <time>2019-06-20T07:16:08.000Z</time>
      </trkpt>
      <trkpt lat="50.62776" lon="5.40604">
        <ele>119.40000152588</ele>
        <time>2019-06-20T07:16:10.000Z</time>
      </trkpt>
      <trkpt lat="50.62775" lon="5.4059">
        <ele>119.59999847412</ele>
        <time>2019-06-20T07:16:12.000Z</time>
      </trkpt>
      <trkpt lat="50.62785" lon="5.40576">
        <ele>119.59999847412</ele>
        <time>2019-06-20T07:16:15.000Z</time>
      </trkpt>
      <trkpt lat="50.62789" lon="5.40571">
        <ele>119.80000305176</ele>
        <time>2019-06-20T07:16:16.000Z</time>
      </trkpt>
      <trkpt lat="50.62804" lon="5.40554">
        <ele>119.80000305176</ele>
        <time>2019-06-20T07:16:19.000Z</time>
      </trkpt>
      <trkpt lat="50.62848" lon="5.40496">
        <ele>119.40000152588</ele>
        <time>2019-06-20T07:16:27.000Z</time>
      </trkpt>
      <trkpt lat="50.62882" lon="5.40452">
        <ele>118.19999694824</ele>
        <time>2019-06-20T07:16:33.000Z</time>
      </trkpt>
      <trkpt lat="50.62888" lon="5.40446">
        <ele>117.80000305176</ele>
        <time>2019-06-20T07:16:34.000Z</time>
      </trkpt>
      <trkpt lat="50.62909" lon="5.4042">
        <ele>117</ele>
        <time>2019-06-20T07:16:38.000Z</time>
      </trkpt>
      <trkpt lat="50.62942" lon="5.40381">
        <ele>116.80000305176</ele>
        <time>2019-06-20T07:16:44.000Z</time>
      </trkpt>
      <trkpt lat="50.62975" lon="5.40341">
        <ele>116.80000305176</ele>
        <time>2019-06-20T07:16:50.000Z</time>
      </trkpt>
      <trkpt lat="50.6299" lon="5.40321">
        <ele>117.59999847412</ele>
        <time>2019-06-20T07:16:53.000Z</time>
      </trkpt>
      <trkpt lat="50.63001" lon="5.40307">
        <ele>117.80000305176</ele>
        <time>2019-06-20T07:16:55.000Z</time>
      </trkpt>
      <trkpt lat="50.63006" lon="5.40299">
        <ele>117.80000305176</ele>
        <time>2019-06-20T07:16:56.000Z</time>
      </trkpt>
      <trkpt lat="50.63041" lon="5.40252">
        <ele>118.19999694824</ele>
        <time>2019-06-20T07:17:03.000Z</time>
      </trkpt>
      <trkpt lat="50.63063" lon="5.40221">
        <ele>118.40000152588</ele>
        <time>2019-06-20T07:17:06.000Z</time>
      </trkpt>
      <trkpt lat="50.63092" lon="5.40184">
        <ele>118.59999847412</ele>
        <time>2019-06-20T07:17:11.000Z</time>
      </trkpt>
      <trkpt lat="50.63125" lon="5.4014">
        <ele>118.80000305176</ele>
        <time>2019-06-20T07:17:17.000Z</time>
      </trkpt>
      <trkpt lat="50.63158" lon="5.40098">
        <ele>119.40000152588</ele>
        <time>2019-06-20T07:17:23.000Z</time>
      </trkpt>
      <trkpt lat="50.63164" lon="5.40091">
        <ele>119.59999847412</ele>
        <time>2019-06-20T07:17:24.000Z</time>
      </trkpt>
      <trkpt lat="50.63202" lon="5.40041">
        <ele>120.19999694824</ele>
        <time>2019-06-20T07:17:31.000Z</time>
      </trkpt>
      <trkpt lat="50.63229" lon="5.40006">
        <ele>120.40000152588</ele>
        <time>2019-06-20T07:17:36.000Z</time>
      </trkpt>
      <trkpt lat="50.63254" lon="5.39974">
        <ele>120.80000305176</ele>
        <time>2019-06-20T07:17:41.000Z</time>
      </trkpt>
      <trkpt lat="50.63285" lon="5.39932">
        <ele>121.40000152588</ele>
        <time>2019-06-20T07:17:47.000Z</time>
      </trkpt>
      <trkpt lat="50.63301" lon="5.39912">
        <ele>121.59999847412</ele>
        <time>2019-06-20T07:17:50.000Z</time>
      </trkpt>
      <trkpt lat="50.6333" lon="5.39873">
        <ele>122.19999694824</ele>
        <time>2019-06-20T07:17:56.000Z</time>
      </trkpt>
      <trkpt lat="50.63336" lon="5.39866">
        <ele>122.19999694824</ele>
        <time>2019-06-20T07:17:57.000Z</time>
      </trkpt>
      <trkpt lat="50.63379" lon="5.39812">
        <ele>122.80000305176</ele>
        <time>2019-06-20T07:18:05.000Z</time>
      </trkpt>
      <trkpt lat="50.634" lon="5.39784">
        <ele>123.40000152588</ele>
        <time>2019-06-20T07:18:09.000Z</time>
      </trkpt>
      <trkpt lat="50.63432" lon="5.39743">
        <ele>123.80000305176</ele>
        <time>2019-06-20T07:18:15.000Z</time>
      </trkpt>
      <trkpt lat="50.63468" lon="5.39697">
        <ele>124.19999694824</ele>
        <time>2019-06-20T07:18:22.000Z</time>
      </trkpt>
      <trkpt lat="50.63472" lon="5.39691">
        <ele>124.40000152588</ele>
        <time>2019-06-20T07:18:23.000Z</time>
      </trkpt>
      <trkpt lat="50.63505" lon="5.39648">
        <ele>124.80000305176</ele>
        <time>2019-06-20T07:18:30.000Z</time>
      </trkpt>
      <trkpt lat="50.63509" lon="5.39644">
        <ele>124.80000305176</ele>
        <time>2019-06-20T07:18:31.000Z</time>
      </trkpt>
      <trkpt lat="50.63518" lon="5.39637">
        <ele>125.19999694824</ele>
        <time>2019-06-20T07:18:33.000Z</time>
      </trkpt>
      <trkpt lat="50.63522" lon="5.39635">
        <ele>125.40000152588</ele>
        <time>2019-06-20T07:18:34.000Z</time>
      </trkpt>
      <trkpt lat="50.63526" lon="5.39632">
        <ele>125.40000152588</ele>
        <time>2019-06-20T07:18:35.000Z</time>
      </trkpt>
      <trkpt lat="50.6353" lon="5.39621">
        <ele>125.59999847412</ele>
        <time>2019-06-20T07:18:37.000Z</time>
      </trkpt>
      <trkpt lat="50.63523" lon="5.39614">
        <ele>126</ele>
        <time>2019-06-20T07:18:40.000Z</time>
      </trkpt>
      <trkpt lat="50.6352" lon="5.39614">
        <ele>126</ele>
        <time>2019-06-20T07:18:41.000Z</time>
      </trkpt>
      <trkpt lat="50.63516" lon="5.39612">
        <ele>126.19999694824</ele>
        <time>2019-06-20T07:18:42.000Z</time>
      </trkpt>
      <trkpt lat="50.63506" lon="5.39605">
        <ele>126.40000152588</ele>
        <time>2019-06-20T07:18:44.000Z</time>
      </trkpt>
      <trkpt lat="50.63491" lon="5.3959">
        <ele>126.40000152588</ele>
        <time>2019-06-20T07:18:47.000Z</time>
      </trkpt>
      <trkpt lat="50.63475" lon="5.39572">
        <ele>126.40000152588</ele>
        <time>2019-06-20T07:18:50.000Z</time>
      </trkpt>
      <trkpt lat="50.63451" lon="5.3953">
        <ele>126</ele>
        <time>2019-06-20T07:18:55.000Z</time>
      </trkpt>
      <trkpt lat="50.63434" lon="5.39493">
        <ele>125.80000305176</ele>
        <time>2019-06-20T07:18:59.000Z</time>
      </trkpt>
      <trkpt lat="50.63415" lon="5.39459">
        <ele>125.59999847412</ele>
        <time>2019-06-20T07:19:03.000Z</time>
      </trkpt>
      <trkpt lat="50.63381" lon="5.39417">
        <ele>125.19999694824</ele>
        <time>2019-06-20T07:19:09.000Z</time>
      </trkpt>
      <trkpt lat="50.63374" lon="5.39412">
        <ele>125.19999694824</ele>
        <time>2019-06-20T07:19:10.000Z</time>
      </trkpt>
      <trkpt lat="50.63341" lon="5.3939">
        <ele>125.19999694824</ele>
        <time>2019-06-20T07:19:15.000Z</time>
      </trkpt>
      <trkpt lat="50.63302" lon="5.39376">
        <ele>125.19999694824</ele>
        <time>2019-06-20T07:19:21.000Z</time>
      </trkpt>
      <trkpt lat="50.63289" lon="5.39375">
        <ele>125.19999694824</ele>
        <time>2019-06-20T07:19:23.000Z</time>
      </trkpt>
      <trkpt lat="50.63279" lon="5.39366">
        <ele>125.19999694824</ele>
        <time>2019-06-20T07:19:25.000Z</time>
      </trkpt>
      <trkpt lat="50.63252" lon="5.39334">
        <ele>125.40000152588</ele>
        <time>2019-06-20T07:19:31.000Z</time>
      </trkpt>
      <trkpt lat="50.63223" lon="5.39303">
        <ele>126.19999694824</ele>
        <time>2019-06-20T07:19:37.000Z</time>
      </trkpt>
      <trkpt lat="50.63218" lon="5.39298">
        <ele>126.40000152588</ele>
        <time>2019-06-20T07:19:38.000Z</time>
      </trkpt>
      <trkpt lat="50.63213" lon="5.39294">
        <ele>126.80000305176</ele>
        <time>2019-06-20T07:19:39.000Z</time>
      </trkpt>
      <trkpt lat="50.63187" lon="5.39268">
        <ele>127.80000305176</ele>
        <time>2019-06-20T07:19:44.000Z</time>
      </trkpt>
      <trkpt lat="50.6316" lon="5.39243">
        <ele>128.39999389648</ele>
        <time>2019-06-20T07:19:49.000Z</time>
      </trkpt>
      <trkpt lat="50.63144" lon="5.39228">
        <ele>128.60000610352</ele>
        <time>2019-06-20T07:19:52.000Z</time>
      </trkpt>
      <trkpt lat="50.63107" lon="5.3919">
        <ele>129.19999694824</ele>
        <time>2019-06-20T07:19:59.000Z</time>
      </trkpt>
      <trkpt lat="50.63076" lon="5.39159">
        <ele>129.60000610352</ele>
        <time>2019-06-20T07:20:05.000Z</time>
      </trkpt>
      <trkpt lat="50.63059" lon="5.39144">
        <ele>130</ele>
        <time>2019-06-20T07:20:08.000Z</time>
      </trkpt>
      <trkpt lat="50.63008" lon="5.39094">
        <ele>130.39999389648</ele>
        <time>2019-06-20T07:20:17.000Z</time>
      </trkpt>
      <trkpt lat="50.62996" lon="5.39083">
        <ele>130.39999389648</ele>
        <time>2019-06-20T07:20:19.000Z</time>
      </trkpt>
      <trkpt lat="50.62954" lon="5.39031">
        <ele>130</ele>
        <time>2019-06-20T07:20:27.000Z</time>
      </trkpt>
      <trkpt lat="50.62919" lon="5.38963">
        <ele>129.60000610352</ele>
        <time>2019-06-20T07:20:35.000Z</time>
      </trkpt>
      <trkpt lat="50.62889" lon="5.38901">
        <ele>128.19999694824</ele>
        <time>2019-06-20T07:20:42.000Z</time>
      </trkpt>
      <trkpt lat="50.62875" lon="5.38874">
        <ele>128</ele>
        <time>2019-06-20T07:20:45.000Z</time>
      </trkpt>
      <trkpt lat="50.62857" lon="5.38838">
        <ele>127.80000305176</ele>
        <time>2019-06-20T07:20:49.000Z</time>
      </trkpt>
      <trkpt lat="50.62844" lon="5.38811">
        <ele>127.40000152588</ele>
        <time>2019-06-20T07:20:52.000Z</time>
      </trkpt>
      <trkpt lat="50.62839" lon="5.38802">
        <ele>127.19999694824</ele>
        <time>2019-06-20T07:20:53.000Z</time>
      </trkpt>
      <trkpt lat="50.62821" lon="5.38766">
        <ele>126.59999847412</ele>
        <time>2019-06-20T07:20:57.000Z</time>
      </trkpt>
      <trkpt lat="50.62785" lon="5.38697">
        <ele>126</ele>
        <time>2019-06-20T07:21:05.000Z</time>
      </trkpt>
      <trkpt lat="50.62775" lon="5.38681">
        <ele>125.80000305176</ele>
        <time>2019-06-20T07:21:07.000Z</time>
      </trkpt>
      <trkpt lat="50.62734" lon="5.38621">
        <ele>125.19999694824</ele>
        <time>2019-06-20T07:21:15.000Z</time>
      </trkpt>
      <trkpt lat="50.62729" lon="5.38614">
        <ele>125.19999694824</ele>
        <time>2019-06-20T07:21:16.000Z</time>
      </trkpt>
      <trkpt lat="50.62691" lon="5.38556">
        <ele>125</ele>
        <time>2019-06-20T07:21:24.000Z</time>
      </trkpt>
      <trkpt lat="50.62664" lon="5.38506">
        <ele>125</ele>
        <time>2019-06-20T07:21:30.000Z</time>
      </trkpt>
      <trkpt lat="50.6266" lon="5.38498">
        <ele>125</ele>
        <time>2019-06-20T07:21:31.000Z</time>
      </trkpt>
      <trkpt lat="50.62653" lon="5.38483">
        <ele>124.80000305176</ele>
        <time>2019-06-20T07:21:33.000Z</time>
      </trkpt>
      <trkpt lat="50.62645" lon="5.38479">
        <ele>124.40000152588</ele>
        <time>2019-06-20T07:21:35.000Z</time>
      </trkpt>
      <trkpt lat="50.62635" lon="5.38488">
        <ele>123.40000152588</ele>
        <time>2019-06-20T07:21:37.000Z</time>
      </trkpt>
      <trkpt lat="50.6263" lon="5.38494">
        <ele>123</ele>
        <time>2019-06-20T07:21:38.000Z</time>
      </trkpt>
      <trkpt lat="50.62607" lon="5.38517">
        <ele>122.40000152588</ele>
        <time>2019-06-20T07:21:42.000Z</time>
      </trkpt>
      <trkpt lat="50.62589" lon="5.38537">
        <ele>122</ele>
        <time>2019-06-20T07:21:45.000Z</time>
      </trkpt>
      <trkpt lat="50.62565" lon="5.38566">
        <ele>121.19999694824</ele>
        <time>2019-06-20T07:21:49.000Z</time>
      </trkpt>
      <trkpt lat="50.62549" lon="5.38591">
        <ele>120.40000152588</ele>
        <time>2019-06-20T07:21:52.000Z</time>
      </trkpt>
      <trkpt lat="50.62544" lon="5.38599">
        <ele>120</ele>
        <time>2019-06-20T07:21:53.000Z</time>
      </trkpt>
      <trkpt lat="50.62515" lon="5.3865">
        <ele>119</ele>
        <time>2019-06-20T07:21:59.000Z</time>
      </trkpt>
      <trkpt lat="50.62506" lon="5.38666">
        <ele>118.80000305176</ele>
        <time>2019-06-20T07:22:01.000Z</time>
      </trkpt>
      <trkpt lat="50.6248" lon="5.38717">
        <ele>117.80000305176</ele>
        <time>2019-06-20T07:22:07.000Z</time>
      </trkpt>
      <trkpt lat="50.62467" lon="5.38744">
        <ele>117.59999847412</ele>
        <time>2019-06-20T07:22:10.000Z</time>
      </trkpt>
      <trkpt lat="50.62439" lon="5.38823">
        <ele>117.40000152588</ele>
        <time>2019-06-20T07:22:18.000Z</time>
      </trkpt>
      <trkpt lat="50.62419" lon="5.38891">
        <ele>116.80000305176</ele>
        <time>2019-06-20T07:22:25.000Z</time>
      </trkpt>
      <trkpt lat="50.62413" lon="5.3891">
        <ele>116.59999847412</ele>
        <time>2019-06-20T07:22:27.000Z</time>
      </trkpt>
      <trkpt lat="50.62403" lon="5.38946">
        <ele>116.40000152588</ele>
        <time>2019-06-20T07:22:31.000Z</time>
      </trkpt>
      <trkpt lat="50.624" lon="5.38953">
        <ele>116.40000152588</ele>
        <time>2019-06-20T07:22:32.000Z</time>
      </trkpt>
      <trkpt lat="50.62393" lon="5.38956">
        <ele>116.19999694824</ele>
        <time>2019-06-20T07:22:34.000Z</time>
      </trkpt>
      <trkpt lat="50.62387" lon="5.38947">
        <ele>115.80000305176</ele>
        <time>2019-06-20T07:22:37.000Z</time>
      </trkpt>
      <trkpt lat="50.62386" lon="5.38943">
        <ele>115.80000305176</ele>
        <time>2019-06-20T07:22:38.000Z</time>
      </trkpt>
      <trkpt lat="50.62373" lon="5.38908">
        <ele>115.80000305176</ele>
        <time>2019-06-20T07:22:46.000Z</time>
      </trkpt>
      <trkpt lat="50.6236" lon="5.38873">
        <ele>116.19999694824</ele>
        <time>2019-06-20T07:22:52.000Z</time>
      </trkpt>
      <trkpt lat="50.62336" lon="5.38807">
        <ele>115.80000305176</ele>
        <time>2019-06-20T07:23:01.000Z</time>
      </trkpt>
      <trkpt lat="50.62329" lon="5.38792">
        <ele>115.40000152588</ele>
        <time>2019-06-20T07:23:03.000Z</time>
      </trkpt>
      <trkpt lat="50.62314" lon="5.3876">
        <ele>114</ele>
        <time>2019-06-20T07:23:07.000Z</time>
      </trkpt>
      <trkpt lat="50.6231" lon="5.38751">
        <ele>113.59999847412</ele>
        <time>2019-06-20T07:23:08.000Z</time>
      </trkpt>
      <trkpt lat="50.62303" lon="5.38731">
        <ele>112.80000305176</ele>
        <time>2019-06-20T07:23:10.000Z</time>
      </trkpt>
      <trkpt lat="50.62292" lon="5.38693">
        <ele>111.40000152588</ele>
        <time>2019-06-20T07:23:13.000Z</time>
      </trkpt>
      <trkpt lat="50.62284" lon="5.38658">
        <ele>110</ele>
        <time>2019-06-20T07:23:16.000Z</time>
      </trkpt>
      <trkpt lat="50.62282" lon="5.38638">
        <ele>108.80000305176</ele>
        <time>2019-06-20T07:23:18.000Z</time>
      </trkpt>
      <trkpt lat="50.6228" lon="5.38608">
        <ele>107.80000305176</ele>
        <time>2019-06-20T07:23:22.000Z</time>
      </trkpt>
      <trkpt lat="50.62279" lon="5.38601">
        <ele>107.80000305176</ele>
        <time>2019-06-20T07:23:23.000Z</time>
      </trkpt>
      <trkpt lat="50.62278" lon="5.38594">
        <ele>107.80000305176</ele>
        <time>2019-06-20T07:23:24.000Z</time>
      </trkpt>
      <trkpt lat="50.6227" lon="5.38554">
        <ele>108.40000152588</ele>
        <time>2019-06-20T07:23:30.000Z</time>
      </trkpt>
      <trkpt lat="50.62266" lon="5.38536">
        <ele>108.59999847412</ele>
        <time>2019-06-20T07:23:32.000Z</time>
      </trkpt>
      <trkpt lat="50.62262" lon="5.38519">
        <ele>108.59999847412</ele>
        <time>2019-06-20T07:23:34.000Z</time>
      </trkpt>
      <trkpt lat="50.62245" lon="5.38458">
        <ele>107.80000305176</ele>
        <time>2019-06-20T07:23:41.000Z</time>
      </trkpt>
      <trkpt lat="50.62237" lon="5.38444">
        <ele>107.40000152588</ele>
        <time>2019-06-20T07:23:43.000Z</time>
      </trkpt>
      <trkpt lat="50.62229" lon="5.38428">
        <ele>106.80000305176</ele>
        <time>2019-06-20T07:23:45.000Z</time>
      </trkpt>
      <trkpt lat="50.62226" lon="5.38421">
        <ele>106.40000152588</ele>
        <time>2019-06-20T07:23:46.000Z</time>
      </trkpt>
      <trkpt lat="50.62223" lon="5.38411">
        <ele>106</ele>
        <time>2019-06-20T07:23:48.000Z</time>
      </trkpt>
      <trkpt lat="50.62221" lon="5.38407">
        <ele>105.59999847412</ele>
        <time>2019-06-20T07:23:50.000Z</time>
      </trkpt>
      <trkpt lat="50.62221" lon="5.38404">
        <ele>105.19999694824</ele>
        <time>2019-06-20T07:23:51.000Z</time>
      </trkpt>
      <trkpt lat="50.6222" lon="5.38403">
        <ele>105</ele>
        <time>2019-06-20T07:23:52.000Z</time>
      </trkpt>
      <trkpt lat="50.62218" lon="5.38401">
        <ele>104.19999694824</ele>
        <time>2019-06-20T07:23:53.000Z</time>
      </trkpt>
      <trkpt lat="50.62212" lon="5.38395">
        <ele>103</ele>
        <time>2019-06-20T07:23:57.000Z</time>
      </trkpt>
      <trkpt lat="50.62206" lon="5.38391">
        <ele>103</ele>
        <time>2019-06-20T07:23:59.000Z</time>
      </trkpt>
      <trkpt lat="50.62198" lon="5.38387">
        <ele>102.80000305176</ele>
        <time>2019-06-20T07:24:01.000Z</time>
      </trkpt>
      <trkpt lat="50.62194" lon="5.38385">
        <ele>102.80000305176</ele>
        <time>2019-06-20T07:24:02.000Z</time>
      </trkpt>
      <trkpt lat="50.62168" lon="5.38375">
        <ele>102.19999694824</ele>
        <time>2019-06-20T07:24:07.000Z</time>
      </trkpt>
      <trkpt lat="50.62163" lon="5.38373">
        <ele>101.80000305176</ele>
        <time>2019-06-20T07:24:08.000Z</time>
      </trkpt>
      <trkpt lat="50.62154" lon="5.38367">
        <ele>101.59999847412</ele>
        <time>2019-06-20T07:24:10.000Z</time>
      </trkpt>
      <trkpt lat="50.62146" lon="5.38361">
        <ele>101.59999847412</ele>
        <time>2019-06-20T07:24:12.000Z</time>
      </trkpt>
      <trkpt lat="50.62142" lon="5.38357">
        <ele>101.59999847412</ele>
        <time>2019-06-20T07:24:13.000Z</time>
      </trkpt>
      <trkpt lat="50.6213" lon="5.38339">
        <ele>101.59999847412</ele>
        <time>2019-06-20T07:24:18.000Z</time>
      </trkpt>
      <trkpt lat="50.62125" lon="5.38329">
        <ele>102.80000305176</ele>
        <time>2019-06-20T07:24:22.000Z</time>
      </trkpt>
      <trkpt lat="50.62124" lon="5.38328">
        <ele>103</ele>
        <time>2019-06-20T07:24:23.000Z</time>
      </trkpt>
      <trkpt lat="50.62125" lon="5.38329">
        <ele>103.59999847412</ele>
        <time>2019-06-20T07:24:26.000Z</time>
      </trkpt>
      <trkpt lat="50.62125" lon="5.38331">
        <ele>103.80000305176</ele>
        <time>2019-06-20T07:24:27.000Z</time>
      </trkpt>
      <trkpt lat="50.62132" lon="5.38345">
        <ele>104.19999694824</ele>
        <time>2019-06-20T07:24:31.000Z</time>
      </trkpt>
      <trkpt lat="50.62141" lon="5.38358">
        <ele>104.19999694824</ele>
        <time>2019-06-20T07:24:34.000Z</time>
      </trkpt>
      <trkpt lat="50.62152" lon="5.38367">
        <ele>104.19999694824</ele>
        <time>2019-06-20T07:24:37.000Z</time>
      </trkpt>
      <trkpt lat="50.62162" lon="5.38373">
        <ele>104</ele>
        <time>2019-06-20T07:24:39.000Z</time>
      </trkpt>
      <trkpt lat="50.62179" lon="5.38379">
        <ele>103.19999694824</ele>
        <time>2019-06-20T07:24:42.000Z</time>
      </trkpt>
      <trkpt lat="50.62206" lon="5.38392">
        <ele>102.40000152588</ele>
        <time>2019-06-20T07:24:47.000Z</time>
      </trkpt>
      <trkpt lat="50.62215" lon="5.38402">
        <ele>102.19999694824</ele>
        <time>2019-06-20T07:24:51.000Z</time>
      </trkpt>
      <trkpt lat="50.62222" lon="5.38398">
        <ele>102.19999694824</ele>
        <time>2019-06-20T07:24:54.000Z</time>
      </trkpt>
      <trkpt lat="50.62232" lon="5.38399">
        <ele>102.19999694824</ele>
        <time>2019-06-20T07:24:57.000Z</time>
      </trkpt>
      <trkpt lat="50.62234" lon="5.384">
        <ele>102.40000152588</ele>
        <time>2019-06-20T07:24:58.000Z</time>
      </trkpt>
      <trkpt lat="50.62237" lon="5.38401">
        <ele>102.19999694824</ele>
        <time>2019-06-20T07:24:59.000Z</time>
      </trkpt>
      <trkpt lat="50.62243" lon="5.38402">
        <ele>102.80000305176</ele>
        <time>2019-06-20T07:25:01.000Z</time>
      </trkpt>
      <trkpt lat="50.62253" lon="5.38403">
        <ele>103</ele>
        <time>2019-06-20T07:25:04.000Z</time>
      </trkpt>
      <trkpt lat="50.62257" lon="5.38403">
        <ele>103.19999694824</ele>
        <time>2019-06-20T07:25:05.000Z</time>
      </trkpt>
      <trkpt lat="50.6226" lon="5.38405">
        <ele>103.59999847412</ele>
        <time>2019-06-20T07:25:06.000Z</time>
      </trkpt>
      <trkpt lat="50.62267" lon="5.38409">
        <ele>104</ele>
        <time>2019-06-20T07:25:08.000Z</time>
      </trkpt>
      <trkpt lat="50.62279" lon="5.38417">
        <ele>104.59999847412</ele>
        <time>2019-06-20T07:25:11.000Z</time>
      </trkpt>
      <trkpt lat="50.62283" lon="5.3842">
        <ele>104.59999847412</ele>
        <time>2019-06-20T07:25:12.000Z</time>
      </trkpt>
      <trkpt lat="50.62287" lon="5.38423">
        <ele>104.80000305176</ele>
        <time>2019-06-20T07:25:13.000Z</time>
      </trkpt>
      <trkpt lat="50.62291" lon="5.38425">
        <ele>105</ele>
        <time>2019-06-20T07:25:14.000Z</time>
      </trkpt>
      <trkpt lat="50.623" lon="5.38429">
        <ele>105.80000305176</ele>
        <time>2019-06-20T07:25:16.000Z</time>
      </trkpt>
      <trkpt lat="50.62308" lon="5.38434">
        <ele>106.40000152588</ele>
        <time>2019-06-20T07:25:18.000Z</time>
      </trkpt>
      <trkpt lat="50.62316" lon="5.3844">
        <ele>106.80000305176</ele>
        <time>2019-06-20T07:25:20.000Z</time>
      </trkpt>
      <trkpt lat="50.62319" lon="5.38442">
        <ele>107.40000152588</ele>
        <time>2019-06-20T07:25:21.000Z</time>
      </trkpt>
      <trkpt lat="50.62325" lon="5.38446">
        <ele>108</ele>
        <time>2019-06-20T07:25:23.000Z</time>
      </trkpt>
      <trkpt lat="50.62332" lon="5.3845">
        <ele>109</ele>
        <time>2019-06-20T07:25:26.000Z</time>
      </trkpt>
      <trkpt lat="50.62342" lon="5.38444">
        <ele>110.19999694824</ele>
        <time>2019-06-20T07:25:29.000Z</time>
      </trkpt>
      <trkpt lat="50.62346" lon="5.38442">
        <ele>110.59999847412</ele>
        <time>2019-06-20T07:25:30.000Z</time>
      </trkpt>
      <trkpt lat="50.6235" lon="5.38441">
        <ele>111</ele>
        <time>2019-06-20T07:25:31.000Z</time>
      </trkpt>
      <trkpt lat="50.62358" lon="5.38436">
        <ele>111.40000152588</ele>
        <time>2019-06-20T07:25:33.000Z</time>
      </trkpt>
      <trkpt lat="50.6237" lon="5.38424">
        <ele>111.80000305176</ele>
        <time>2019-06-20T07:25:36.000Z</time>
      </trkpt>
      <trkpt lat="50.62392" lon="5.38392">
        <ele>112.19999694824</ele>
        <time>2019-06-20T07:25:42.000Z</time>
      </trkpt>
      <trkpt lat="50.62414" lon="5.38348">
        <ele>112</ele>
        <time>2019-06-20T07:25:48.000Z</time>
      </trkpt>
      <trkpt lat="50.62419" lon="5.38341">
        <ele>111.80000305176</ele>
        <time>2019-06-20T07:25:49.000Z</time>
      </trkpt>
      <trkpt lat="50.62434" lon="5.38326">
        <ele>111.40000152588</ele>
        <time>2019-06-20T07:25:52.000Z</time>
      </trkpt>
      <trkpt lat="50.62454" lon="5.38304">
        <ele>111.19999694824</ele>
        <time>2019-06-20T07:25:56.000Z</time>
      </trkpt>
      <trkpt lat="50.62468" lon="5.38289">
        <ele>111.19999694824</ele>
        <time>2019-06-20T07:25:59.000Z</time>
      </trkpt>
      <trkpt lat="50.62495" lon="5.38255">
        <ele>112.19999694824</ele>
        <time>2019-06-20T07:26:05.000Z</time>
      </trkpt>
      <trkpt lat="50.62499" lon="5.38249">
        <ele>112.40000152588</ele>
        <time>2019-06-20T07:26:06.000Z</time>
      </trkpt>
      <trkpt lat="50.62515" lon="5.38226">
        <ele>113.40000152588</ele>
        <time>2019-06-20T07:26:10.000Z</time>
      </trkpt>
      <trkpt lat="50.62527" lon="5.38209">
        <ele>114</ele>
        <time>2019-06-20T07:26:13.000Z</time>
      </trkpt>
      <trkpt lat="50.62537" lon="5.382">
        <ele>114.59999847412</ele>
        <time>2019-06-20T07:26:15.000Z</time>
      </trkpt>
      <trkpt lat="50.62561" lon="5.38191">
        <ele>115.19999694824</ele>
        <time>2019-06-20T07:26:20.000Z</time>
      </trkpt>
      <trkpt lat="50.62571" lon="5.38194">
        <ele>115.59999847412</ele>
        <time>2019-06-20T07:26:22.000Z</time>
      </trkpt>
      <trkpt lat="50.62586" lon="5.38203">
        <ele>116.59999847412</ele>
        <time>2019-06-20T07:26:25.000Z</time>
      </trkpt>
      <trkpt lat="50.62591" lon="5.38208">
        <ele>117</ele>
        <time>2019-06-20T07:26:26.000Z</time>
      </trkpt>
      <trkpt lat="50.62613" lon="5.3823">
        <ele>118</ele>
        <time>2019-06-20T07:26:31.000Z</time>
      </trkpt>
      <trkpt lat="50.62625" lon="5.38243">
        <ele>118.80000305176</ele>
        <time>2019-06-20T07:26:34.000Z</time>
      </trkpt>
      <trkpt lat="50.62633" lon="5.38252">
        <ele>119.19999694824</ele>
        <time>2019-06-20T07:26:36.000Z</time>
      </trkpt>
      <trkpt lat="50.6264" lon="5.38259">
        <ele>120</ele>
        <time>2019-06-20T07:26:38.000Z</time>
      </trkpt>
      <trkpt lat="50.62644" lon="5.38259">
        <ele>120.19999694824</ele>
        <time>2019-06-20T07:26:39.000Z</time>
      </trkpt>
      <trkpt lat="50.62649" lon="5.38257">
        <ele>120.40000152588</ele>
        <time>2019-06-20T07:26:40.000Z</time>
      </trkpt>
      <trkpt lat="50.62656" lon="5.38248">
        <ele>121.19999694824</ele>
        <time>2019-06-20T07:26:42.000Z</time>
      </trkpt>
      <trkpt lat="50.6266" lon="5.38243">
        <ele>121.40000152588</ele>
        <time>2019-06-20T07:26:43.000Z</time>
      </trkpt>
      <trkpt lat="50.62687" lon="5.38201">
        <ele>122.19999694824</ele>
        <time>2019-06-20T07:26:50.000Z</time>
      </trkpt>
      <trkpt lat="50.62695" lon="5.38188">
        <ele>122.40000152588</ele>
        <time>2019-06-20T07:26:52.000Z</time>
      </trkpt>
      <trkpt lat="50.62721" lon="5.38149">
        <ele>122.59999847412</ele>
        <time>2019-06-20T07:26:58.000Z</time>
      </trkpt>
      <trkpt lat="50.62752" lon="5.381">
        <ele>123.19999694824</ele>
        <time>2019-06-20T07:27:05.000Z</time>
      </trkpt>
      <trkpt lat="50.62761" lon="5.38086">
        <ele>123.59999847412</ele>
        <time>2019-06-20T07:27:07.000Z</time>
      </trkpt>
      <trkpt lat="50.628" lon="5.3802">
        <ele>124</ele>
        <time>2019-06-20T07:27:16.000Z</time>
      </trkpt>
      <trkpt lat="50.62804" lon="5.38012">
        <ele>124.19999694824</ele>
        <time>2019-06-20T07:27:17.000Z</time>
      </trkpt>
      <trkpt lat="50.62808" lon="5.38005">
        <ele>124.19999694824</ele>
        <time>2019-06-20T07:27:18.000Z</time>
      </trkpt>
      <trkpt lat="50.6284" lon="5.37954">
        <ele>125.40000152588</ele>
        <time>2019-06-20T07:27:25.000Z</time>
      </trkpt>
      <trkpt lat="50.62844" lon="5.37948">
        <ele>125.59999847412</ele>
        <time>2019-06-20T07:27:26.000Z</time>
      </trkpt>
      <trkpt lat="50.62861" lon="5.37933">
        <ele>125.80000305176</ele>
        <time>2019-06-20T07:27:29.000Z</time>
      </trkpt>
      <trkpt lat="50.6289" lon="5.37912">
        <ele>126.40000152588</ele>
        <time>2019-06-20T07:27:34.000Z</time>
      </trkpt>
      <trkpt lat="50.62902" lon="5.37905">
        <ele>126.59999847412</ele>
        <time>2019-06-20T07:27:36.000Z</time>
      </trkpt>
      <trkpt lat="50.62951" lon="5.37875">
        <ele>127</ele>
        <time>2019-06-20T07:27:44.000Z</time>
      </trkpt>
      <trkpt lat="50.62965" lon="5.37867">
        <ele>127.40000152588</ele>
        <time>2019-06-20T07:27:46.000Z</time>
      </trkpt>
      <trkpt lat="50.63021" lon="5.37836">
        <ele>127.80000305176</ele>
        <time>2019-06-20T07:27:54.000Z</time>
      </trkpt>
      <trkpt lat="50.63028" lon="5.37832">
        <ele>127.80000305176</ele>
        <time>2019-06-20T07:27:55.000Z</time>
      </trkpt>
      <trkpt lat="50.63073" lon="5.37805">
        <ele>128.39999389648</ele>
        <time>2019-06-20T07:28:02.000Z</time>
      </trkpt>
      <trkpt lat="50.63079" lon="5.378">
        <ele>128.39999389648</ele>
        <time>2019-06-20T07:28:03.000Z</time>
      </trkpt>
      <trkpt lat="50.63107" lon="5.37763">
        <ele>128.39999389648</ele>
        <time>2019-06-20T07:28:09.000Z</time>
      </trkpt>
      <trkpt lat="50.63127" lon="5.37724">
        <ele>129.19999694824</ele>
        <time>2019-06-20T07:28:14.000Z</time>
      </trkpt>
      <trkpt lat="50.63131" lon="5.37715">
        <ele>129.39999389648</ele>
        <time>2019-06-20T07:28:15.000Z</time>
      </trkpt>
      <trkpt lat="50.63143" lon="5.37681">
        <ele>130.60000610352</ele>
        <time>2019-06-20T07:28:19.000Z</time>
      </trkpt>
      <trkpt lat="50.63148" lon="5.37662">
        <ele>131</ele>
        <time>2019-06-20T07:28:21.000Z</time>
      </trkpt>
      <trkpt lat="50.63149" lon="5.37652">
        <ele>131.39999389648</ele>
        <time>2019-06-20T07:28:22.000Z</time>
      </trkpt>
      <trkpt lat="50.63151" lon="5.37641">
        <ele>131.60000610352</ele>
        <time>2019-06-20T07:28:23.000Z</time>
      </trkpt>
      <trkpt lat="50.63154" lon="5.3761">
        <ele>131.80000305176</ele>
        <time>2019-06-20T07:28:26.000Z</time>
      </trkpt>
      <trkpt lat="50.63161" lon="5.37539">
        <ele>132.60000610352</ele>
        <time>2019-06-20T07:28:33.000Z</time>
      </trkpt>
      <trkpt lat="50.63164" lon="5.37507">
        <ele>133</ele>
        <time>2019-06-20T07:28:36.000Z</time>
      </trkpt>
      <trkpt lat="50.6317" lon="5.37433">
        <ele>133.60000610352</ele>
        <time>2019-06-20T07:28:43.000Z</time>
      </trkpt>
      <trkpt lat="50.63172" lon="5.37412">
        <ele>133.80000305176</ele>
        <time>2019-06-20T07:28:45.000Z</time>
      </trkpt>
      <trkpt lat="50.63176" lon="5.37336">
        <ele>134.39999389648</ele>
        <time>2019-06-20T07:28:52.000Z</time>
      </trkpt>
      <trkpt lat="50.63177" lon="5.37305">
        <ele>134.39999389648</ele>
        <time>2019-06-20T07:28:55.000Z</time>
      </trkpt>
      <trkpt lat="50.63183" lon="5.37265">
        <ele>134.80000305176</ele>
        <time>2019-06-20T07:28:59.000Z</time>
      </trkpt>
      <trkpt lat="50.63188" lon="5.37241">
        <ele>135</ele>
        <time>2019-06-20T07:29:02.000Z</time>
      </trkpt>
      <trkpt lat="50.63187" lon="5.37234">
        <ele>135</ele>
        <time>2019-06-20T07:29:03.000Z</time>
      </trkpt>
      <trkpt lat="50.63179" lon="5.3723">
        <ele>135.19999694824</ele>
        <time>2019-06-20T07:29:05.000Z</time>
      </trkpt>
      <trkpt lat="50.63162" lon="5.37233">
        <ele>135.19999694824</ele>
        <time>2019-06-20T07:29:08.000Z</time>
      </trkpt>
      <trkpt lat="50.63156" lon="5.37235">
        <ele>135.19999694824</ele>
        <time>2019-06-20T07:29:09.000Z</time>
      </trkpt>
      <trkpt lat="50.63113" lon="5.37246">
        <ele>135.19999694824</ele>
        <time>2019-06-20T07:29:15.000Z</time>
      </trkpt>
      <trkpt lat="50.63082" lon="5.37255">
        <ele>135</ele>
        <time>2019-06-20T07:29:19.000Z</time>
      </trkpt>
      <trkpt lat="50.63056" lon="5.37259">
        <ele>133.60000610352</ele>
        <time>2019-06-20T07:29:22.000Z</time>
      </trkpt>
      <trkpt lat="50.63047" lon="5.37259">
        <ele>133.19999694824</ele>
        <time>2019-06-20T07:29:23.000Z</time>
      </trkpt>
      <trkpt lat="50.6303" lon="5.37254">
        <ele>132</ele>
        <time>2019-06-20T07:29:25.000Z</time>
      </trkpt>
      <trkpt lat="50.63022" lon="5.3725">
        <ele>131.60000610352</ele>
        <time>2019-06-20T07:29:26.000Z</time>
      </trkpt>
      <trkpt lat="50.63014" lon="5.37246">
        <ele>131.19999694824</ele>
        <time>2019-06-20T07:29:27.000Z</time>
      </trkpt>
      <trkpt lat="50.63007" lon="5.37241">
        <ele>130.60000610352</ele>
        <time>2019-06-20T07:29:28.000Z</time>
      </trkpt>
      <trkpt lat="50.62993" lon="5.37231">
        <ele>129.39999389648</ele>
        <time>2019-06-20T07:29:30.000Z</time>
      </trkpt>
      <trkpt lat="50.62987" lon="5.37227">
        <ele>129</ele>
        <time>2019-06-20T07:29:31.000Z</time>
      </trkpt>
      <trkpt lat="50.62978" lon="5.37227">
        <ele>128.19999694824</ele>
        <time>2019-06-20T07:29:33.000Z</time>
      </trkpt>
      <trkpt lat="50.62975" lon="5.37231">
        <ele>127.80000305176</ele>
        <time>2019-06-20T07:29:34.000Z</time>
      </trkpt>
      <trkpt lat="50.62968" lon="5.37242">
        <ele>127</ele>
        <time>2019-06-20T07:29:36.000Z</time>
      </trkpt>
      <trkpt lat="50.62955" lon="5.37261">
        <ele>125.59999847412</ele>
        <time>2019-06-20T07:29:39.000Z</time>
      </trkpt>
      <trkpt lat="50.6295" lon="5.37267">
        <ele>125.19999694824</ele>
        <time>2019-06-20T07:29:40.000Z</time>
      </trkpt>
      <trkpt lat="50.62928" lon="5.37289">
        <ele>124.59999847412</ele>
        <time>2019-06-20T07:29:44.000Z</time>
      </trkpt>
      <trkpt lat="50.62923" lon="5.37298">
        <ele>124.59999847412</ele>
        <time>2019-06-20T07:29:45.000Z</time>
      </trkpt>
      <trkpt lat="50.62919" lon="5.37307">
        <ele>124.59999847412</ele>
        <time>2019-06-20T07:29:46.000Z</time>
      </trkpt>
      <trkpt lat="50.62915" lon="5.37316">
        <ele>124.59999847412</ele>
        <time>2019-06-20T07:29:47.000Z</time>
      </trkpt>
      <trkpt lat="50.62887" lon="5.37397">
        <ele>123.80000305176</ele>
        <time>2019-06-20T07:29:55.000Z</time>
      </trkpt>
      <trkpt lat="50.62871" lon="5.37437">
        <ele>123.40000152588</ele>
        <time>2019-06-20T07:29:59.000Z</time>
      </trkpt>
      <trkpt lat="50.62858" lon="5.37465">
        <ele>123.19999694824</ele>
        <time>2019-06-20T07:30:02.000Z</time>
      </trkpt>
      <trkpt lat="50.62838" lon="5.37506">
        <ele>122.80000305176</ele>
        <time>2019-06-20T07:30:07.000Z</time>
      </trkpt>
      <trkpt lat="50.62833" lon="5.37513">
        <ele>122.80000305176</ele>
        <time>2019-06-20T07:30:08.000Z</time>
      </trkpt>
      <trkpt lat="50.62816" lon="5.37521">
        <ele>122.19999694824</ele>
        <time>2019-06-20T07:30:11.000Z</time>
      </trkpt>
      <trkpt lat="50.6281" lon="5.37522">
        <ele>122.19999694824</ele>
        <time>2019-06-20T07:30:12.000Z</time>
      </trkpt>
      <trkpt lat="50.62792" lon="5.37524">
        <ele>122.19999694824</ele>
        <time>2019-06-20T07:30:15.000Z</time>
      </trkpt>
      <trkpt lat="50.62786" lon="5.37523">
        <ele>122.19999694824</ele>
        <time>2019-06-20T07:30:16.000Z</time>
      </trkpt>
      <trkpt lat="50.62777" lon="5.37513">
        <ele>122.40000152588</ele>
        <time>2019-06-20T07:30:18.000Z</time>
      </trkpt>
      <trkpt lat="50.6277" lon="5.37498">
        <ele>122.40000152588</ele>
        <time>2019-06-20T07:30:20.000Z</time>
      </trkpt>
      <trkpt lat="50.62759" lon="5.37478">
        <ele>122.59999847412</ele>
        <time>2019-06-20T07:30:23.000Z</time>
      </trkpt>
      <trkpt lat="50.62756" lon="5.37472">
        <ele>122.80000305176</ele>
        <time>2019-06-20T07:30:24.000Z</time>
      </trkpt>
      <trkpt lat="50.62742" lon="5.37446">
        <ele>123.40000152588</ele>
        <time>2019-06-20T07:30:28.000Z</time>
      </trkpt>
      <trkpt lat="50.62729" lon="5.3742">
        <ele>124.59999847412</ele>
        <time>2019-06-20T07:30:32.000Z</time>
      </trkpt>
      <trkpt lat="50.6272" lon="5.37403">
        <ele>124.80000305176</ele>
        <time>2019-06-20T07:30:35.000Z</time>
      </trkpt>
      <trkpt lat="50.62717" lon="5.37397">
        <ele>124.80000305176</ele>
        <time>2019-06-20T07:30:36.000Z</time>
      </trkpt>
      <trkpt lat="50.62709" lon="5.37389">
        <ele>125.59999847412</ele>
        <time>2019-06-20T07:30:38.000Z</time>
      </trkpt>
      <trkpt lat="50.62705" lon="5.37385">
        <ele>125.59999847412</ele>
        <time>2019-06-20T07:30:39.000Z</time>
      </trkpt>
      <trkpt lat="50.62697" lon="5.37378">
        <ele>125.80000305176</ele>
        <time>2019-06-20T07:30:41.000Z</time>
      </trkpt>
      <trkpt lat="50.6269" lon="5.37373">
        <ele>126.40000152588</ele>
        <time>2019-06-20T07:30:43.000Z</time>
      </trkpt>
      <trkpt lat="50.62683" lon="5.37369">
        <ele>126.59999847412</ele>
        <time>2019-06-20T07:30:45.000Z</time>
      </trkpt>
      <trkpt lat="50.62679" lon="5.37369">
        <ele>127</ele>
        <time>2019-06-20T07:30:46.000Z</time>
      </trkpt>
      <trkpt lat="50.62669" lon="5.37368">
        <ele>127.40000152588</ele>
        <time>2019-06-20T07:30:48.000Z</time>
      </trkpt>
      <trkpt lat="50.62644" lon="5.37366">
        <ele>128.39999389648</ele>
        <time>2019-06-20T07:30:53.000Z</time>
      </trkpt>
      <trkpt lat="50.62639" lon="5.37365">
        <ele>128.39999389648</ele>
        <time>2019-06-20T07:30:54.000Z</time>
      </trkpt>
      <trkpt lat="50.62621" lon="5.37361">
        <ele>129</ele>
        <time>2019-06-20T07:30:57.000Z</time>
      </trkpt>
      <trkpt lat="50.6261" lon="5.37358">
        <ele>129.39999389648</ele>
        <time>2019-06-20T07:30:59.000Z</time>
      </trkpt>
      <trkpt lat="50.62603" lon="5.37355">
        <ele>129.60000610352</ele>
        <time>2019-06-20T07:31:00.000Z</time>
      </trkpt>
      <trkpt lat="50.62565" lon="5.37346">
        <ele>130.39999389648</ele>
        <time>2019-06-20T07:31:06.000Z</time>
      </trkpt>
      <trkpt lat="50.62516" lon="5.37321">
        <ele>130.39999389648</ele>
        <time>2019-06-20T07:31:13.000Z</time>
      </trkpt>
      <trkpt lat="50.62481" lon="5.37279">
        <ele>129.60000610352</ele>
        <time>2019-06-20T07:31:19.000Z</time>
      </trkpt>
      <trkpt lat="50.62449" lon="5.37255">
        <ele>129.60000610352</ele>
        <time>2019-06-20T07:31:24.000Z</time>
      </trkpt>
      <trkpt lat="50.62443" lon="5.3725">
        <ele>129.60000610352</ele>
        <time>2019-06-20T07:31:25.000Z</time>
      </trkpt>
      <trkpt lat="50.62387" lon="5.3721">
        <ele>129.80000305176</ele>
        <time>2019-06-20T07:31:34.000Z</time>
      </trkpt>
      <trkpt lat="50.6235" lon="5.37181">
        <ele>130.39999389648</ele>
        <time>2019-06-20T07:31:40.000Z</time>
      </trkpt>
      <trkpt lat="50.62327" lon="5.37162">
        <ele>131.19999694824</ele>
        <time>2019-06-20T07:31:44.000Z</time>
      </trkpt>
      <trkpt lat="50.623" lon="5.37136">
        <ele>131.39999389648</ele>
        <time>2019-06-20T07:31:49.000Z</time>
      </trkpt>
      <trkpt lat="50.62272" lon="5.37108">
        <ele>132.19999694824</ele>
        <time>2019-06-20T07:31:54.000Z</time>
      </trkpt>
      <trkpt lat="50.62222" lon="5.37053">
        <ele>132.39999389648</ele>
        <time>2019-06-20T07:32:03.000Z</time>
      </trkpt>
      <trkpt lat="50.62216" lon="5.37047">
        <ele>132.39999389648</ele>
        <time>2019-06-20T07:32:04.000Z</time>
      </trkpt>
      <trkpt lat="50.62172" lon="5.36994">
        <ele>132.19999694824</ele>
        <time>2019-06-20T07:32:12.000Z</time>
      </trkpt>
      <trkpt lat="50.62156" lon="5.36973">
        <ele>132.19999694824</ele>
        <time>2019-06-20T07:32:15.000Z</time>
      </trkpt>
      <trkpt lat="50.62116" lon="5.36919">
        <ele>132.19999694824</ele>
        <time>2019-06-20T07:32:23.000Z</time>
      </trkpt>
      <trkpt lat="50.62107" lon="5.36907">
        <ele>131.80000305176</ele>
        <time>2019-06-20T07:32:25.000Z</time>
      </trkpt>
      <trkpt lat="50.62103" lon="5.36882">
        <ele>131.80000305176</ele>
        <time>2019-06-20T07:32:28.000Z</time>
      </trkpt>
      <trkpt lat="50.62105" lon="5.36874">
        <ele>131.60000610352</ele>
        <time>2019-06-20T07:32:30.000Z</time>
      </trkpt>
      <trkpt lat="50.62115" lon="5.3685">
        <ele>131.60000610352</ele>
        <time>2019-06-20T07:32:32.000Z</time>
      </trkpt>
      <trkpt lat="50.62138" lon="5.36792">
        <ele>131.60000610352</ele>
        <time>2019-06-20T07:32:40.000Z</time>
      </trkpt>
      <trkpt lat="50.62148" lon="5.36766">
        <ele>131.60000610352</ele>
        <time>2019-06-20T07:32:42.000Z</time>
      </trkpt>
      <trkpt lat="50.62172" lon="5.36706">
        <ele>132.19999694824</ele>
        <time>2019-06-20T07:32:49.000Z</time>
      </trkpt>
      <trkpt lat="50.62182" lon="5.3668">
        <ele>132.39999389648</ele>
        <time>2019-06-20T07:32:53.000Z</time>
      </trkpt>
      <trkpt lat="50.62188" lon="5.36662">
        <ele>132.60000610352</ele>
        <time>2019-06-20T07:32:54.000Z</time>
      </trkpt>
      <trkpt lat="50.62204" lon="5.36593">
        <ele>133.19999694824</ele>
        <time>2019-06-20T07:33:01.000Z</time>
      </trkpt>
      <trkpt lat="50.62213" lon="5.36521">
        <ele>133.60000610352</ele>
        <time>2019-06-20T07:33:08.000Z</time>
      </trkpt>
      <trkpt lat="50.62222" lon="5.36428">
        <ele>134.39999389648</ele>
        <time>2019-06-20T07:33:17.000Z</time>
      </trkpt>
      <trkpt lat="50.62223" lon="5.36418">
        <ele>134.60000610352</ele>
        <time>2019-06-20T07:33:18.000Z</time>
      </trkpt>
      <trkpt lat="50.62226" lon="5.36377">
        <ele>134.80000305176</ele>
        <time>2019-06-20T07:33:22.000Z</time>
      </trkpt>
      <trkpt lat="50.62233" lon="5.36291">
        <ele>135</ele>
        <time>2019-06-20T07:33:30.000Z</time>
      </trkpt>
      <trkpt lat="50.62236" lon="5.36259">
        <ele>135</ele>
        <time>2019-06-20T07:33:33.000Z</time>
      </trkpt>
      <trkpt lat="50.62242" lon="5.36206">
        <ele>134.60000610352</ele>
        <time>2019-06-20T07:33:38.000Z</time>
      </trkpt>
      <trkpt lat="50.62244" lon="5.36196">
        <ele>134.60000610352</ele>
        <time>2019-06-20T07:33:39.000Z</time>
      </trkpt>
      <trkpt lat="50.62247" lon="5.36188">
        <ele>134.60000610352</ele>
        <time>2019-06-20T07:33:40.000Z</time>
      </trkpt>
      <trkpt lat="50.6227" lon="5.3614">
        <ele>134.60000610352</ele>
        <time>2019-06-20T07:33:46.000Z</time>
      </trkpt>
      <trkpt lat="50.62295" lon="5.36071">
        <ele>134.80000305176</ele>
        <time>2019-06-20T07:33:54.000Z</time>
      </trkpt>
      <trkpt lat="50.62314" lon="5.36017">
        <ele>135</ele>
        <time>2019-06-20T07:34:00.000Z</time>
      </trkpt>
      <trkpt lat="50.62323" lon="5.3599">
        <ele>135.19999694824</ele>
        <time>2019-06-20T07:34:03.000Z</time>
      </trkpt>
      <trkpt lat="50.62347" lon="5.3592">
        <ele>135.19999694824</ele>
        <time>2019-06-20T07:34:11.000Z</time>
      </trkpt>
      <trkpt lat="50.62349" lon="5.35911">
        <ele>135.39999389648</ele>
        <time>2019-06-20T07:34:12.000Z</time>
      </trkpt>
      <trkpt lat="50.62363" lon="5.35864">
        <ele>135.39999389648</ele>
        <time>2019-06-20T07:34:18.000Z</time>
      </trkpt>
      <trkpt lat="50.62366" lon="5.3585">
        <ele>135.39999389648</ele>
        <time>2019-06-20T07:34:20.000Z</time>
      </trkpt>
      <trkpt lat="50.62369" lon="5.3583">
        <ele>135.39999389648</ele>
        <time>2019-06-20T07:34:24.000Z</time>
      </trkpt>
      <trkpt lat="50.62366" lon="5.35823">
        <ele>135.39999389648</ele>
        <time>2019-06-20T07:34:26.000Z</time>
      </trkpt>
      <trkpt lat="50.62362" lon="5.3582">
        <ele>135.39999389648</ele>
        <time>2019-06-20T07:34:27.000Z</time>
      </trkpt>
      <trkpt lat="50.62362" lon="5.3582">
        <ele>135.39999389648</ele>
        <time>2019-06-20T07:34:28.000Z</time>
      </trkpt>
      <trkpt lat="50.62354" lon="5.35814">
        <ele>135.39999389648</ele>
        <time>2019-06-20T07:34:29.000Z</time>
      </trkpt>
      <trkpt lat="50.62338" lon="5.35806">
        <ele>135.39999389648</ele>
        <time>2019-06-20T07:34:32.000Z</time>
      </trkpt>
      <trkpt lat="50.62294" lon="5.35783">
        <ele>135.19999694824</ele>
        <time>2019-06-20T07:34:40.000Z</time>
      </trkpt>
      <trkpt lat="50.62252" lon="5.35761">
        <ele>134.80000305176</ele>
        <time>2019-06-20T07:34:48.000Z</time>
      </trkpt>
      <trkpt lat="50.622" lon="5.35734">
        <ele>135.19999694824</ele>
        <time>2019-06-20T07:34:58.000Z</time>
      </trkpt>
      <trkpt lat="50.62145" lon="5.35705">
        <ele>135.39999389648</ele>
        <time>2019-06-20T07:35:08.000Z</time>
      </trkpt>
      <trkpt lat="50.62145" lon="5.35705">
        <ele>135.60000610352</ele>
        <time>2019-06-20T07:35:09.000Z</time>
      </trkpt>
      <trkpt lat="50.62124" lon="5.35694">
        <ele>136</ele>
        <time>2019-06-20T07:35:12.000Z</time>
      </trkpt>
      <trkpt lat="50.62118" lon="5.35691">
        <ele>136</ele>
        <time>2019-06-20T07:35:13.000Z</time>
      </trkpt>
      <trkpt lat="50.62087" lon="5.35674">
        <ele>137.19999694824</ele>
        <time>2019-06-20T07:35:19.000Z</time>
      </trkpt>
      <trkpt lat="50.62071" lon="5.35666">
        <ele>138</ele>
        <time>2019-06-20T07:35:22.000Z</time>
      </trkpt>
      <trkpt lat="50.62066" lon="5.35663">
        <ele>138.19999694824</ele>
        <time>2019-06-20T07:35:23.000Z</time>
      </trkpt>
      <trkpt lat="50.62036" lon="5.35646">
        <ele>139.39999389648</ele>
        <time>2019-06-20T07:35:29.000Z</time>
      </trkpt>
      <trkpt lat="50.62009" lon="5.35632">
        <ele>140.19999694824</ele>
        <time>2019-06-20T07:35:34.000Z</time>
      </trkpt>
      <trkpt lat="50.62003" lon="5.3563">
        <ele>140.39999389648</ele>
        <time>2019-06-20T07:35:35.000Z</time>
      </trkpt>
      <trkpt lat="50.61967" lon="5.35616">
        <ele>140.60000610352</ele>
        <time>2019-06-20T07:35:41.000Z</time>
      </trkpt>
      <trkpt lat="50.61908" lon="5.35602">
        <ele>140.39999389648</ele>
        <time>2019-06-20T07:35:50.000Z</time>
      </trkpt>
      <trkpt lat="50.61857" lon="5.35579">
        <ele>139.80000305176</ele>
        <time>2019-06-20T07:35:58.000Z</time>
      </trkpt>
      <trkpt lat="50.61816" lon="5.35556">
        <ele>139</ele>
        <time>2019-06-20T07:36:04.000Z</time>
      </trkpt>
      <trkpt lat="50.61787" lon="5.35541">
        <ele>138.39999389648</ele>
        <time>2019-06-20T07:36:08.000Z</time>
      </trkpt>
      <trkpt lat="50.6178" lon="5.35537">
        <ele>138.19999694824</ele>
        <time>2019-06-20T07:36:09.000Z</time>
      </trkpt>
      <trkpt lat="50.61773" lon="5.35533">
        <ele>138</ele>
        <time>2019-06-20T07:36:10.000Z</time>
      </trkpt>
      <trkpt lat="50.61751" lon="5.35522">
        <ele>137.19999694824</ele>
        <time>2019-06-20T07:36:13.000Z</time>
      </trkpt>
      <trkpt lat="50.61737" lon="5.35514">
        <ele>136.80000305176</ele>
        <time>2019-06-20T07:36:15.000Z</time>
      </trkpt>
      <trkpt lat="50.61723" lon="5.35507">
        <ele>135.80000305176</ele>
        <time>2019-06-20T07:36:18.000Z</time>
      </trkpt>
      <trkpt lat="50.61708" lon="5.35499">
        <ele>135.39999389648</ele>
        <time>2019-06-20T07:36:19.000Z</time>
      </trkpt>
      <trkpt lat="50.6168" lon="5.35483">
        <ele>134.60000610352</ele>
        <time>2019-06-20T07:36:23.000Z</time>
      </trkpt>
      <trkpt lat="50.6165" lon="5.35463">
        <ele>134.19999694824</ele>
        <time>2019-06-20T07:36:27.000Z</time>
      </trkpt>
      <trkpt lat="50.61643" lon="5.35458">
        <ele>134.19999694824</ele>
        <time>2019-06-20T07:36:28.000Z</time>
      </trkpt>
      <trkpt lat="50.61621" lon="5.35443">
        <ele>134</ele>
        <time>2019-06-20T07:36:31.000Z</time>
      </trkpt>
      <trkpt lat="50.616" lon="5.35427">
        <ele>133.80000305176</ele>
        <time>2019-06-20T07:36:34.000Z</time>
      </trkpt>
      <trkpt lat="50.61586" lon="5.35417">
        <ele>133.39999389648</ele>
        <time>2019-06-20T07:36:36.000Z</time>
      </trkpt>
      <trkpt lat="50.61579" lon="5.35412">
        <ele>133.39999389648</ele>
        <time>2019-06-20T07:36:38.000Z</time>
      </trkpt>
      <trkpt lat="50.6155" lon="5.35391">
        <ele>133</ele>
        <time>2019-06-20T07:36:41.000Z</time>
      </trkpt>
      <trkpt lat="50.61522" lon="5.35372">
        <ele>132.39999389648</ele>
        <time>2019-06-20T07:36:45.000Z</time>
      </trkpt>
      <trkpt lat="50.61515" lon="5.35368">
        <ele>132.39999389648</ele>
        <time>2019-06-20T07:36:47.000Z</time>
      </trkpt>
      <trkpt lat="50.6148" lon="5.35347">
        <ele>132.39999389648</ele>
        <time>2019-06-20T07:36:51.000Z</time>
      </trkpt>
      <trkpt lat="50.61438" lon="5.35323">
        <ele>132.60000610352</ele>
        <time>2019-06-20T07:36:57.000Z</time>
      </trkpt>
      <trkpt lat="50.61392" lon="5.35296">
        <ele>133</ele>
        <time>2019-06-20T07:37:04.000Z</time>
      </trkpt>
      <trkpt lat="50.61379" lon="5.35289">
        <ele>133.60000610352</ele>
        <time>2019-06-20T07:37:06.000Z</time>
      </trkpt>
      <trkpt lat="50.61366" lon="5.35282">
        <ele>134.19999694824</ele>
        <time>2019-06-20T07:37:08.000Z</time>
      </trkpt>
      <trkpt lat="50.61353" lon="5.35275">
        <ele>134.60000610352</ele>
        <time>2019-06-20T07:37:10.000Z</time>
      </trkpt>
      <trkpt lat="50.61328" lon="5.3526">
        <ele>135.39999389648</ele>
        <time>2019-06-20T07:37:14.000Z</time>
      </trkpt>
      <trkpt lat="50.61322" lon="5.35256">
        <ele>135.39999389648</ele>
        <time>2019-06-20T07:37:15.000Z</time>
      </trkpt>
      <trkpt lat="50.61296" lon="5.35242">
        <ele>136</ele>
        <time>2019-06-20T07:37:19.000Z</time>
      </trkpt>
      <trkpt lat="50.61284" lon="5.35234">
        <ele>136.39999389648</ele>
        <time>2019-06-20T07:37:21.000Z</time>
      </trkpt>
      <trkpt lat="50.61277" lon="5.35231">
        <ele>136.60000610352</ele>
        <time>2019-06-20T07:37:22.000Z</time>
      </trkpt>
      <trkpt lat="50.61233" lon="5.35206">
        <ele>137.60000610352</ele>
        <time>2019-06-20T07:37:29.000Z</time>
      </trkpt>
      <trkpt lat="50.61221" lon="5.35199">
        <ele>137.80000305176</ele>
        <time>2019-06-20T07:37:31.000Z</time>
      </trkpt>
      <trkpt lat="50.61183" lon="5.35178">
        <ele>138.60000610352</ele>
        <time>2019-06-20T07:37:37.000Z</time>
      </trkpt>
      <trkpt lat="50.61176" lon="5.35174">
        <ele>138.60000610352</ele>
        <time>2019-06-20T07:37:38.000Z</time>
      </trkpt>
      <trkpt lat="50.61138" lon="5.35154">
        <ele>139.19999694824</ele>
        <time>2019-06-20T07:37:45.000Z</time>
      </trkpt>
      <trkpt lat="50.6108" lon="5.35123">
        <ele>139.19999694824</ele>
        <time>2019-06-20T07:37:53.000Z</time>
      </trkpt>
      <trkpt lat="50.61061" lon="5.35113">
        <ele>139.60000610352</ele>
        <time>2019-06-20T07:37:56.000Z</time>
      </trkpt>
      <trkpt lat="50.61006" lon="5.35084">
        <ele>139.80000305176</ele>
        <time>2019-06-20T07:38:04.000Z</time>
      </trkpt>
      <trkpt lat="50.60986" lon="5.35072">
        <ele>139.60000610352</ele>
        <time>2019-06-20T07:38:07.000Z</time>
      </trkpt>
      <trkpt lat="50.60934" lon="5.35044">
        <ele>139.60000610352</ele>
        <time>2019-06-20T07:38:15.000Z</time>
      </trkpt>
      <trkpt lat="50.60928" lon="5.3504">
        <ele>139.60000610352</ele>
        <time>2019-06-20T07:38:16.000Z</time>
      </trkpt>
      <trkpt lat="50.60871" lon="5.35009">
        <ele>140.60000610352</ele>
        <time>2019-06-20T07:38:25.000Z</time>
      </trkpt>
      <trkpt lat="50.60835" lon="5.34993">
        <ele>142</ele>
        <time>2019-06-20T07:38:31.000Z</time>
      </trkpt>
      <trkpt lat="50.60823" lon="5.34986">
        <ele>142.19999694824</ele>
        <time>2019-06-20T07:38:33.000Z</time>
      </trkpt>
      <trkpt lat="50.608" lon="5.34972">
        <ele>143</ele>
        <time>2019-06-20T07:38:37.000Z</time>
      </trkpt>
      <trkpt lat="50.60788" lon="5.34966">
        <ele>143.39999389648</ele>
        <time>2019-06-20T07:38:39.000Z</time>
      </trkpt>
      <trkpt lat="50.60764" lon="5.34953">
        <ele>144.19999694824</ele>
        <time>2019-06-20T07:38:43.000Z</time>
      </trkpt>
      <trkpt lat="50.60707" lon="5.34924">
        <ele>145</ele>
        <time>2019-06-20T07:38:52.000Z</time>
      </trkpt>
      <trkpt lat="50.60695" lon="5.34918">
        <ele>145.19999694824</ele>
        <time>2019-06-20T07:38:54.000Z</time>
      </trkpt>
      <trkpt lat="50.60688" lon="5.34914">
        <ele>145.19999694824</ele>
        <time>2019-06-20T07:38:55.000Z</time>
      </trkpt>
      <trkpt lat="50.60636" lon="5.34888">
        <ele>145.39999389648</ele>
        <time>2019-06-20T07:39:03.000Z</time>
      </trkpt>
      <trkpt lat="50.60617" lon="5.34878">
        <ele>145.39999389648</ele>
        <time>2019-06-20T07:39:06.000Z</time>
      </trkpt>
      <trkpt lat="50.60608" lon="5.34863">
        <ele>144.80000305176</ele>
        <time>2019-06-20T07:39:08.000Z</time>
      </trkpt>
      <trkpt lat="50.60595" lon="5.3484">
        <ele>144.60000610352</ele>
        <time>2019-06-20T07:39:11.000Z</time>
      </trkpt>
      <trkpt lat="50.60576" lon="5.34847">
        <ele>144.39999389648</ele>
        <time>2019-06-20T07:39:14.000Z</time>
      </trkpt>
      <trkpt lat="50.6057" lon="5.3485">
        <ele>144.19999694824</ele>
        <time>2019-06-20T07:39:15.000Z</time>
      </trkpt>
      <trkpt lat="50.60557" lon="5.34849">
        <ele>144.19999694824</ele>
        <time>2019-06-20T07:39:17.000Z</time>
      </trkpt>
      <trkpt lat="50.60544" lon="5.34843">
        <ele>143.80000305176</ele>
        <time>2019-06-20T07:39:19.000Z</time>
      </trkpt>
      <trkpt lat="50.60517" lon="5.34828">
        <ele>143.39999389648</ele>
        <time>2019-06-20T07:39:23.000Z</time>
      </trkpt>
      <trkpt lat="50.60461" lon="5.34801">
        <ele>143.19999694824</ele>
        <time>2019-06-20T07:39:31.000Z</time>
      </trkpt>
      <trkpt lat="50.60448" lon="5.34794">
        <ele>143</ele>
        <time>2019-06-20T07:39:33.000Z</time>
      </trkpt>
      <trkpt lat="50.60396" lon="5.34765">
        <ele>143.19999694824</ele>
        <time>2019-06-20T07:39:41.000Z</time>
      </trkpt>
      <trkpt lat="50.6038" lon="5.34751">
        <ele>143.39999389648</ele>
        <time>2019-06-20T07:39:44.000Z</time>
      </trkpt>
      <trkpt lat="50.60372" lon="5.34738">
        <ele>143.39999389648</ele>
        <time>2019-06-20T07:39:46.000Z</time>
      </trkpt>
      <trkpt lat="50.60357" lon="5.34736">
        <ele>143.39999389648</ele>
        <time>2019-06-20T07:39:49.000Z</time>
      </trkpt>
      <trkpt lat="50.60352" lon="5.3475">
        <ele>143.60000610352</ele>
        <time>2019-06-20T07:39:51.000Z</time>
      </trkpt>
      <trkpt lat="50.6035" lon="5.3478">
        <ele>143.60000610352</ele>
        <time>2019-06-20T07:39:54.000Z</time>
      </trkpt>
      <trkpt lat="50.60344" lon="5.348">
        <ele>143.60000610352</ele>
        <time>2019-06-20T07:39:56.000Z</time>
      </trkpt>
      <trkpt lat="50.60333" lon="5.3483">
        <ele>143.60000610352</ele>
        <time>2019-06-20T07:39:59.000Z</time>
      </trkpt>
      <trkpt lat="50.6031" lon="5.34891">
        <ele>142.60000610352</ele>
        <time>2019-06-20T07:40:05.000Z</time>
      </trkpt>
      <trkpt lat="50.60298" lon="5.34924">
        <ele>141.80000305176</ele>
        <time>2019-06-20T07:40:08.000Z</time>
      </trkpt>
      <trkpt lat="50.60285" lon="5.34956">
        <ele>141.39999389648</ele>
        <time>2019-06-20T07:40:11.000Z</time>
      </trkpt>
      <trkpt lat="50.60274" lon="5.34987">
        <ele>140.39999389648</ele>
        <time>2019-06-20T07:40:14.000Z</time>
      </trkpt>
      <trkpt lat="50.6027" lon="5.34997">
        <ele>140.19999694824</ele>
        <time>2019-06-20T07:40:15.000Z</time>
      </trkpt>
      <trkpt lat="50.60246" lon="5.35068">
        <ele>140</ele>
        <time>2019-06-20T07:40:22.000Z</time>
      </trkpt>
      <trkpt lat="50.60231" lon="5.35105">
        <ele>140.39999389648</ele>
        <time>2019-06-20T07:40:26.000Z</time>
      </trkpt>
      <trkpt lat="50.60224" lon="5.35124">
        <ele>140.60000610352</ele>
        <time>2019-06-20T07:40:28.000Z</time>
      </trkpt>
      <trkpt lat="50.60221" lon="5.35133">
        <ele>140.60000610352</ele>
        <time>2019-06-20T07:40:29.000Z</time>
      </trkpt>
      <trkpt lat="50.60212" lon="5.35161">
        <ele>141.19999694824</ele>
        <time>2019-06-20T07:40:32.000Z</time>
      </trkpt>
      <trkpt lat="50.60206" lon="5.3518">
        <ele>141.19999694824</ele>
        <time>2019-06-20T07:40:34.000Z</time>
      </trkpt>
      <trkpt lat="50.60196" lon="5.35207">
        <ele>141.60000610352</ele>
        <time>2019-06-20T07:40:37.000Z</time>
      </trkpt>
      <trkpt lat="50.60186" lon="5.35234">
        <ele>142.39999389648</ele>
        <time>2019-06-20T07:40:40.000Z</time>
      </trkpt>
      <trkpt lat="50.6017" lon="5.35279">
        <ele>143.19999694824</ele>
        <time>2019-06-20T07:40:45.000Z</time>
      </trkpt>
      <trkpt lat="50.60163" lon="5.35297">
        <ele>143.39999389648</ele>
        <time>2019-06-20T07:40:47.000Z</time>
      </trkpt>
      <trkpt lat="50.60146" lon="5.35343">
        <ele>144</ele>
        <time>2019-06-20T07:40:52.000Z</time>
      </trkpt>
      <trkpt lat="50.60117" lon="5.35423">
        <ele>144.19999694824</ele>
        <time>2019-06-20T07:41:00.000Z</time>
      </trkpt>
      <trkpt lat="50.6011" lon="5.35443">
        <ele>144.19999694824</ele>
        <time>2019-06-20T07:41:02.000Z</time>
      </trkpt>
      <trkpt lat="50.60082" lon="5.35528">
        <ele>143.39999389648</ele>
        <time>2019-06-20T07:41:10.000Z</time>
      </trkpt>
      <trkpt lat="50.60057" lon="5.35607">
        <ele>142.60000610352</ele>
        <time>2019-06-20T07:41:18.000Z</time>
      </trkpt>
      <trkpt lat="50.60033" lon="5.35678">
        <ele>143.39999389648</ele>
        <time>2019-06-20T07:41:26.000Z</time>
      </trkpt>
      <trkpt lat="50.60022" lon="5.35713">
        <ele>144.39999389648</ele>
        <time>2019-06-20T07:41:30.000Z</time>
      </trkpt>
      <trkpt lat="50.60017" lon="5.35729">
        <ele>144.80000305176</ele>
        <time>2019-06-20T07:41:32.000Z</time>
      </trkpt>
      <trkpt lat="50.60011" lon="5.35746">
        <ele>145.39999389648</ele>
        <time>2019-06-20T07:41:34.000Z</time>
      </trkpt>
      <trkpt lat="50.59999" lon="5.35759">
        <ele>146</ele>
        <time>2019-06-20T07:41:37.000Z</time>
      </trkpt>
      <trkpt lat="50.59979" lon="5.35759">
        <ele>146.80000305176</ele>
        <time>2019-06-20T07:41:41.000Z</time>
      </trkpt>
      <trkpt lat="50.59964" lon="5.35747">
        <ele>147.19999694824</ele>
        <time>2019-06-20T07:41:44.000Z</time>
      </trkpt>
      <trkpt lat="50.59955" lon="5.35734">
        <ele>147.39999389648</ele>
        <time>2019-06-20T07:41:46.000Z</time>
      </trkpt>
      <trkpt lat="50.5994" lon="5.35712">
        <ele>147.60000610352</ele>
        <time>2019-06-20T07:41:49.000Z</time>
      </trkpt>
      <trkpt lat="50.59935" lon="5.35705">
        <ele>147.60000610352</ele>
        <time>2019-06-20T07:41:50.000Z</time>
      </trkpt>
      <trkpt lat="50.59894" lon="5.35646">
        <ele>147.60000610352</ele>
        <time>2019-06-20T07:41:58.000Z</time>
      </trkpt>
      <trkpt lat="50.59884" lon="5.35631">
        <ele>147.60000610352</ele>
        <time>2019-06-20T07:42:00.000Z</time>
      </trkpt>
      <trkpt lat="50.59841" lon="5.35567">
        <ele>147.60000610352</ele>
        <time>2019-06-20T07:42:09.000Z</time>
      </trkpt>
      <trkpt lat="50.59836" lon="5.3556">
        <ele>147.60000610352</ele>
        <time>2019-06-20T07:42:10.000Z</time>
      </trkpt>
      <trkpt lat="50.59793" lon="5.35496">
        <ele>148.39999389648</ele>
        <time>2019-06-20T07:42:19.000Z</time>
      </trkpt>
      <trkpt lat="50.59788" lon="5.35489">
        <ele>148.39999389648</ele>
        <time>2019-06-20T07:42:20.000Z</time>
      </trkpt>
      <trkpt lat="50.59754" lon="5.35427">
        <ele>149.39999389648</ele>
        <time>2019-06-20T07:42:28.000Z</time>
      </trkpt>
      <trkpt lat="50.59749" lon="5.3542">
        <ele>149.60000610352</ele>
        <time>2019-06-20T07:42:29.000Z</time>
      </trkpt>
      <trkpt lat="50.59709" lon="5.35353">
        <ele>150</ele>
        <time>2019-06-20T07:42:38.000Z</time>
      </trkpt>
      <trkpt lat="50.59667" lon="5.35284">
        <ele>150.19999694824</ele>
        <time>2019-06-20T07:42:47.000Z</time>
      </trkpt>
      <trkpt lat="50.59648" lon="5.35253">
        <ele>150.19999694824</ele>
        <time>2019-06-20T07:42:51.000Z</time>
      </trkpt>
      <trkpt lat="50.5961" lon="5.3519">
        <ele>150.19999694824</ele>
        <time>2019-06-20T07:42:59.000Z</time>
      </trkpt>
      <trkpt lat="50.5959" lon="5.3516">
        <ele>150.19999694824</ele>
        <time>2019-06-20T07:43:03.000Z</time>
      </trkpt>
      <trkpt lat="50.59581" lon="5.35145">
        <ele>150.39999389648</ele>
        <time>2019-06-20T07:43:05.000Z</time>
      </trkpt>
      <trkpt lat="50.59542" lon="5.35085">
        <ele>151</ele>
        <time>2019-06-20T07:43:13.000Z</time>
      </trkpt>
      <trkpt lat="50.59532" lon="5.3507">
        <ele>151.19999694824</ele>
        <time>2019-06-20T07:43:15.000Z</time>
      </trkpt>
      <trkpt lat="50.59493" lon="5.35012">
        <ele>151.19999694824</ele>
        <time>2019-06-20T07:43:23.000Z</time>
      </trkpt>
      <trkpt lat="50.59473" lon="5.34983">
        <ele>151.19999694824</ele>
        <time>2019-06-20T07:43:27.000Z</time>
      </trkpt>
      <trkpt lat="50.59439" lon="5.34931">
        <ele>151.39999389648</ele>
        <time>2019-06-20T07:43:34.000Z</time>
      </trkpt>
      <trkpt lat="50.59425" lon="5.34909">
        <ele>151.60000610352</ele>
        <time>2019-06-20T07:43:37.000Z</time>
      </trkpt>
      <trkpt lat="50.59387" lon="5.34851">
        <ele>152</ele>
        <time>2019-06-20T07:43:45.000Z</time>
      </trkpt>
      <trkpt lat="50.59355" lon="5.34799">
        <ele>152.39999389648</ele>
        <time>2019-06-20T07:43:52.000Z</time>
      </trkpt>
      <trkpt lat="50.59332" lon="5.34761">
        <ele>152.80000305176</ele>
        <time>2019-06-20T07:43:57.000Z</time>
      </trkpt>
      <trkpt lat="50.59298" lon="5.34697">
        <ele>153.39999389648</ele>
        <time>2019-06-20T07:44:05.000Z</time>
      </trkpt>
      <trkpt lat="50.59295" lon="5.34688">
        <ele>153.19999694824</ele>
        <time>2019-06-20T07:44:06.000Z</time>
      </trkpt>
      <trkpt lat="50.59275" lon="5.34638">
        <ele>154.39999389648</ele>
        <time>2019-06-20T07:44:12.000Z</time>
      </trkpt>
      <trkpt lat="50.59255" lon="5.34586">
        <ele>155.39999389648</ele>
        <time>2019-06-20T07:44:18.000Z</time>
      </trkpt>
      <trkpt lat="50.59252" lon="5.34578">
        <ele>155.60000610352</ele>
        <time>2019-06-20T07:44:19.000Z</time>
      </trkpt>
      <trkpt lat="50.59235" lon="5.34535">
        <ele>156.39999389648</ele>
        <time>2019-06-20T07:44:24.000Z</time>
      </trkpt>
      <trkpt lat="50.59209" lon="5.34467">
        <ele>157.80000305176</ele>
        <time>2019-06-20T07:44:32.000Z</time>
      </trkpt>
      <trkpt lat="50.59206" lon="5.34458">
        <ele>158</ele>
        <time>2019-06-20T07:44:33.000Z</time>
      </trkpt>
      <trkpt lat="50.59191" lon="5.34413">
        <ele>159</ele>
        <time>2019-06-20T07:44:38.000Z</time>
      </trkpt>
      <trkpt lat="50.59184" lon="5.34396">
        <ele>159</ele>
        <time>2019-06-20T07:44:40.000Z</time>
      </trkpt>
      <trkpt lat="50.59172" lon="5.34373">
        <ele>159.39999389648</ele>
        <time>2019-06-20T07:44:43.000Z</time>
      </trkpt>
      <trkpt lat="50.59166" lon="5.34359">
        <ele>159.39999389648</ele>
        <time>2019-06-20T07:44:45.000Z</time>
      </trkpt>
      <trkpt lat="50.59149" lon="5.34308">
        <ele>159.80000305176</ele>
        <time>2019-06-20T07:44:52.000Z</time>
      </trkpt>
      <trkpt lat="50.59147" lon="5.34301">
        <ele>159.80000305176</ele>
        <time>2019-06-20T07:44:53.000Z</time>
      </trkpt>
      <trkpt lat="50.59143" lon="5.34286">
        <ele>159.80000305176</ele>
        <time>2019-06-20T07:44:55.000Z</time>
      </trkpt>
      <trkpt lat="50.59143" lon="5.34277">
        <ele>159.80000305176</ele>
        <time>2019-06-20T07:44:56.000Z</time>
      </trkpt>
      <trkpt lat="50.59152" lon="5.34254">
        <ele>159.80000305176</ele>
        <time>2019-06-20T07:44:59.000Z</time>
      </trkpt>
      <trkpt lat="50.59155" lon="5.34246">
        <ele>159.80000305176</ele>
        <time>2019-06-20T07:45:00.000Z</time>
      </trkpt>
      <trkpt lat="50.59175" lon="5.34206">
        <ele>159.60000610352</ele>
        <time>2019-06-20T07:45:05.000Z</time>
      </trkpt>
      <trkpt lat="50.59186" lon="5.34181">
        <ele>159.39999389648</ele>
        <time>2019-06-20T07:45:08.000Z</time>
      </trkpt>
      <trkpt lat="50.59189" lon="5.34174">
        <ele>159.39999389648</ele>
        <time>2019-06-20T07:45:09.000Z</time>
      </trkpt>
      <trkpt lat="50.59199" lon="5.34152">
        <ele>158.80000305176</ele>
        <time>2019-06-20T07:45:12.000Z</time>
      </trkpt>
      <trkpt lat="50.59202" lon="5.34147">
        <ele>158.60000610352</ele>
        <time>2019-06-20T07:45:13.000Z</time>
      </trkpt>
      <trkpt lat="50.59204" lon="5.34142">
        <ele>158.39999389648</ele>
        <time>2019-06-20T07:45:14.000Z</time>
      </trkpt>
      <trkpt lat="50.59205" lon="5.34138">
        <ele>158.19999694824</ele>
        <time>2019-06-20T07:45:16.000Z</time>
      </trkpt>
      <trkpt lat="50.59205" lon="5.34135">
        <ele>158</ele>
        <time>2019-06-20T07:45:18.000Z</time>
      </trkpt>
      <trkpt lat="50.59205" lon="5.34127">
        <ele>157.80000305176</ele>
        <time>2019-06-20T07:45:21.000Z</time>
      </trkpt>
      <trkpt lat="50.59203" lon="5.34125">
        <ele>157.80000305176</ele>
        <time>2019-06-20T07:45:22.000Z</time>
      </trkpt>
      <trkpt lat="50.592" lon="5.34123">
        <ele>157.80000305176</ele>
        <time>2019-06-20T07:45:23.000Z</time>
      </trkpt>
      <trkpt lat="50.59186" lon="5.34113">
        <ele>157.80000305176</ele>
        <time>2019-06-20T07:45:27.000Z</time>
      </trkpt>
      <trkpt lat="50.59156" lon="5.34093">
        <ele>157.80000305176</ele>
        <time>2019-06-20T07:45:34.000Z</time>
      </trkpt>
      <trkpt lat="50.59127" lon="5.3408">
        <ele>158.80000305176</ele>
        <time>2019-06-20T07:45:41.000Z</time>
      </trkpt>
      <trkpt lat="50.591" lon="5.34071">
        <ele>159</ele>
        <time>2019-06-20T07:45:47.000Z</time>
      </trkpt>
      <trkpt lat="50.59063" lon="5.34057">
        <ele>159</ele>
        <time>2019-06-20T07:45:54.000Z</time>
      </trkpt>
      <trkpt lat="50.59058" lon="5.34053">
        <ele>159.19999694824</ele>
        <time>2019-06-20T07:45:55.000Z</time>
      </trkpt>
      <trkpt lat="50.59047" lon="5.34034">
        <ele>158.80000305176</ele>
        <time>2019-06-20T07:45:58.000Z</time>
      </trkpt>
      <trkpt lat="50.59045" lon="5.34026">
        <ele>158.80000305176</ele>
        <time>2019-06-20T07:45:59.000Z</time>
      </trkpt>
      <trkpt lat="50.59043" lon="5.34019">
        <ele>158.80000305176</ele>
        <time>2019-06-20T07:46:00.000Z</time>
      </trkpt>
      <trkpt lat="50.5904" lon="5.33995">
        <ele>158.60000610352</ele>
        <time>2019-06-20T07:46:03.000Z</time>
      </trkpt>
      <trkpt lat="50.59031" lon="5.33935">
        <ele>158.60000610352</ele>
        <time>2019-06-20T07:46:10.000Z</time>
      </trkpt>
      <trkpt lat="50.59025" lon="5.3391">
        <ele>158.60000610352</ele>
        <time>2019-06-20T07:46:13.000Z</time>
      </trkpt>
      <trkpt lat="50.59018" lon="5.33894">
        <ele>158.60000610352</ele>
        <time>2019-06-20T07:46:15.000Z</time>
      </trkpt>
      <trkpt lat="50.58989" lon="5.33832">
        <ele>158.60000610352</ele>
        <time>2019-06-20T07:46:23.000Z</time>
      </trkpt>
      <trkpt lat="50.58952" lon="5.33761">
        <ele>158.60000610352</ele>
        <time>2019-06-20T07:46:32.000Z</time>
      </trkpt>
      <trkpt lat="50.58933" lon="5.3375">
        <ele>158.60000610352</ele>
        <time>2019-06-20T07:46:35.000Z</time>
      </trkpt>
      <trkpt lat="50.58926" lon="5.33749">
        <ele>158.60000610352</ele>
        <time>2019-06-20T07:46:36.000Z</time>
      </trkpt>
      <trkpt lat="50.58876" lon="5.33745">
        <ele>158.19999694824</ele>
        <time>2019-06-20T07:46:43.000Z</time>
      </trkpt>
      <trkpt lat="50.58848" lon="5.33737">
        <ele>158.19999694824</ele>
        <time>2019-06-20T07:46:47.000Z</time>
      </trkpt>
      <trkpt lat="50.58841" lon="5.33733">
        <ele>158</ele>
        <time>2019-06-20T07:46:48.000Z</time>
      </trkpt>
      <trkpt lat="50.58786" lon="5.33699">
        <ele>157.39999389648</ele>
        <time>2019-06-20T07:46:56.000Z</time>
      </trkpt>
      <trkpt lat="50.58779" lon="5.33695">
        <ele>157.19999694824</ele>
        <time>2019-06-20T07:46:57.000Z</time>
      </trkpt>
      <trkpt lat="50.58766" lon="5.33685">
        <ele>157</ele>
        <time>2019-06-20T07:46:59.000Z</time>
      </trkpt>
      <trkpt lat="50.58736" lon="5.33656">
        <ele>156.19999694824</ele>
        <time>2019-06-20T07:47:04.000Z</time>
      </trkpt>
      <trkpt lat="50.58724" lon="5.33643">
        <ele>156</ele>
        <time>2019-06-20T07:47:06.000Z</time>
      </trkpt>
      <trkpt lat="50.58682" lon="5.33597">
        <ele>155.19999694824</ele>
        <time>2019-06-20T07:47:13.000Z</time>
      </trkpt>
      <trkpt lat="50.58662" lon="5.33579">
        <ele>154.80000305176</ele>
        <time>2019-06-20T07:47:16.000Z</time>
      </trkpt>
      <trkpt lat="50.58634" lon="5.33559">
        <ele>154.19999694824</ele>
        <time>2019-06-20T07:47:20.000Z</time>
      </trkpt>
      <trkpt lat="50.58589" lon="5.33536">
        <ele>153.80000305176</ele>
        <time>2019-06-20T07:47:26.000Z</time>
      </trkpt>
      <trkpt lat="50.58574" lon="5.33528">
        <ele>153.60000610352</ele>
        <time>2019-06-20T07:47:28.000Z</time>
      </trkpt>
      <trkpt lat="50.58567" lon="5.33524">
        <ele>153.39999389648</ele>
        <time>2019-06-20T07:47:29.000Z</time>
      </trkpt>
      <trkpt lat="50.58529" lon="5.33505">
        <ele>152.60000610352</ele>
        <time>2019-06-20T07:47:34.000Z</time>
      </trkpt>
      <trkpt lat="50.58521" lon="5.33501">
        <ele>152.60000610352</ele>
        <time>2019-06-20T07:47:35.000Z</time>
      </trkpt>
      <trkpt lat="50.58491" lon="5.33485">
        <ele>151.60000610352</ele>
        <time>2019-06-20T07:47:39.000Z</time>
      </trkpt>
      <trkpt lat="50.58484" lon="5.33481">
        <ele>151.39999389648</ele>
        <time>2019-06-20T07:47:40.000Z</time>
      </trkpt>
      <trkpt lat="50.58445" lon="5.33461">
        <ele>150.19999694824</ele>
        <time>2019-06-20T07:47:45.000Z</time>
      </trkpt>
      <trkpt lat="50.58415" lon="5.33445">
        <ele>149.60000610352</ele>
        <time>2019-06-20T07:47:49.000Z</time>
      </trkpt>
      <trkpt lat="50.58407" lon="5.33441">
        <ele>149.19999694824</ele>
        <time>2019-06-20T07:47:50.000Z</time>
      </trkpt>
      <trkpt lat="50.58357" lon="5.33416">
        <ele>148.39999389648</ele>
        <time>2019-06-20T07:47:57.000Z</time>
      </trkpt>
      <trkpt lat="50.58323" lon="5.33398">
        <ele>148.19999694824</ele>
        <time>2019-06-20T07:48:02.000Z</time>
      </trkpt>
      <trkpt lat="50.58297" lon="5.33385">
        <ele>148.19999694824</ele>
        <time>2019-06-20T07:48:06.000Z</time>
      </trkpt>
      <trkpt lat="50.58257" lon="5.33364">
        <ele>148.60000610352</ele>
        <time>2019-06-20T07:48:12.000Z</time>
      </trkpt>
      <trkpt lat="50.58231" lon="5.33351">
        <ele>149.60000610352</ele>
        <time>2019-06-20T07:48:16.000Z</time>
      </trkpt>
      <trkpt lat="50.58218" lon="5.33344">
        <ele>149.80000305176</ele>
        <time>2019-06-20T07:48:18.000Z</time>
      </trkpt>
      <trkpt lat="50.58199" lon="5.33334">
        <ele>150</ele>
        <time>2019-06-20T07:48:21.000Z</time>
      </trkpt>
      <trkpt lat="50.5818" lon="5.33324">
        <ele>150.39999389648</ele>
        <time>2019-06-20T07:48:24.000Z</time>
      </trkpt>
      <trkpt lat="50.58155" lon="5.33311">
        <ele>150.80000305176</ele>
        <time>2019-06-20T07:48:28.000Z</time>
      </trkpt>
      <trkpt lat="50.58149" lon="5.33308">
        <ele>151</ele>
        <time>2019-06-20T07:48:29.000Z</time>
      </trkpt>
      <trkpt lat="50.58131" lon="5.33298">
        <ele>151.60000610352</ele>
        <time>2019-06-20T07:48:32.000Z</time>
      </trkpt>
      <trkpt lat="50.58112" lon="5.33289">
        <ele>152.19999694824</ele>
        <time>2019-06-20T07:48:35.000Z</time>
      </trkpt>
      <trkpt lat="50.58088" lon="5.33276">
        <ele>153.19999694824</ele>
        <time>2019-06-20T07:48:39.000Z</time>
      </trkpt>
      <trkpt lat="50.58082" lon="5.33273">
        <ele>153.19999694824</ele>
        <time>2019-06-20T07:48:40.000Z</time>
      </trkpt>
      <trkpt lat="50.58034" lon="5.33248">
        <ele>154.19999694824</ele>
        <time>2019-06-20T07:48:48.000Z</time>
      </trkpt>
      <trkpt lat="50.58016" lon="5.33239">
        <ele>154.80000305176</ele>
        <time>2019-06-20T07:48:51.000Z</time>
      </trkpt>
      <trkpt lat="50.57999" lon="5.33227">
        <ele>155</ele>
        <time>2019-06-20T07:48:54.000Z</time>
      </trkpt>
      <trkpt lat="50.57975" lon="5.33208">
        <ele>155</ele>
        <time>2019-06-20T07:48:58.000Z</time>
      </trkpt>
      <trkpt lat="50.57939" lon="5.33179">
        <ele>155</ele>
        <time>2019-06-20T07:49:04.000Z</time>
      </trkpt>
      <trkpt lat="50.57906" lon="5.33153">
        <ele>154.60000610352</ele>
        <time>2019-06-20T07:49:09.000Z</time>
      </trkpt>
      <trkpt lat="50.57879" lon="5.33131">
        <ele>154.19999694824</ele>
        <time>2019-06-20T07:49:13.000Z</time>
      </trkpt>
      <trkpt lat="50.57857" lon="5.33114">
        <ele>153.19999694824</ele>
        <time>2019-06-20T07:49:16.000Z</time>
      </trkpt>
      <trkpt lat="50.5785" lon="5.33108">
        <ele>153</ele>
        <time>2019-06-20T07:49:17.000Z</time>
      </trkpt>
      <trkpt lat="50.57842" lon="5.33103">
        <ele>152.80000305176</ele>
        <time>2019-06-20T07:49:18.000Z</time>
      </trkpt>
      <trkpt lat="50.57827" lon="5.33091">
        <ele>152.39999389648</ele>
        <time>2019-06-20T07:49:20.000Z</time>
      </trkpt>
      <trkpt lat="50.57811" lon="5.33079">
        <ele>152</ele>
        <time>2019-06-20T07:49:22.000Z</time>
      </trkpt>
      <trkpt lat="50.57803" lon="5.33072">
        <ele>151.80000305176</ele>
        <time>2019-06-20T07:49:23.000Z</time>
      </trkpt>
      <trkpt lat="50.57788" lon="5.3306">
        <ele>151.39999389648</ele>
        <time>2019-06-20T07:49:25.000Z</time>
      </trkpt>
      <trkpt lat="50.5778" lon="5.33054">
        <ele>151</ele>
        <time>2019-06-20T07:49:26.000Z</time>
      </trkpt>
      <trkpt lat="50.57771" lon="5.33047">
        <ele>150.60000610352</ele>
        <time>2019-06-20T07:49:27.000Z</time>
      </trkpt>
      <trkpt lat="50.57747" lon="5.33028">
        <ele>149.60000610352</ele>
        <time>2019-06-20T07:49:30.000Z</time>
      </trkpt>
      <trkpt lat="50.57721" lon="5.33008">
        <ele>148.60000610352</ele>
        <time>2019-06-20T07:49:33.000Z</time>
      </trkpt>
      <trkpt lat="50.57713" lon="5.33002">
        <ele>147.19999694824</ele>
        <time>2019-06-20T07:49:35.000Z</time>
      </trkpt>
      <trkpt lat="50.5768" lon="5.32975">
        <ele>146.19999694824</ele>
        <time>2019-06-20T07:49:38.000Z</time>
      </trkpt>
      <trkpt lat="50.57671" lon="5.32969">
        <ele>146</ele>
        <time>2019-06-20T07:49:39.000Z</time>
      </trkpt>
      <trkpt lat="50.57647" lon="5.3295">
        <ele>144.80000305176</ele>
        <time>2019-06-20T07:49:42.000Z</time>
      </trkpt>
      <trkpt lat="50.57614" lon="5.32924">
        <ele>144</ele>
        <time>2019-06-20T07:49:46.000Z</time>
      </trkpt>
      <trkpt lat="50.57598" lon="5.32912">
        <ele>143.60000610352</ele>
        <time>2019-06-20T07:49:48.000Z</time>
      </trkpt>
      <trkpt lat="50.57567" lon="5.32887">
        <ele>143</ele>
        <time>2019-06-20T07:49:52.000Z</time>
      </trkpt>
      <trkpt lat="50.57552" lon="5.32875">
        <ele>143</ele>
        <time>2019-06-20T07:49:54.000Z</time>
      </trkpt>
      <trkpt lat="50.5753" lon="5.32858">
        <ele>142.80000305176</ele>
        <time>2019-06-20T07:49:57.000Z</time>
      </trkpt>
      <trkpt lat="50.57515" lon="5.32847">
        <ele>142.80000305176</ele>
        <time>2019-06-20T07:49:59.000Z</time>
      </trkpt>
      <trkpt lat="50.57501" lon="5.32836">
        <ele>142.80000305176</ele>
        <time>2019-06-20T07:50:01.000Z</time>
      </trkpt>
      <trkpt lat="50.57494" lon="5.3283">
        <ele>142.80000305176</ele>
        <time>2019-06-20T07:50:02.000Z</time>
      </trkpt>
      <trkpt lat="50.57466" lon="5.32808">
        <ele>143.60000610352</ele>
        <time>2019-06-20T07:50:06.000Z</time>
      </trkpt>
      <trkpt lat="50.57438" lon="5.32787">
        <ele>143.80000305176</ele>
        <time>2019-06-20T07:50:10.000Z</time>
      </trkpt>
      <trkpt lat="50.57425" lon="5.32776">
        <ele>144</ele>
        <time>2019-06-20T07:50:12.000Z</time>
      </trkpt>
      <trkpt lat="50.57404" lon="5.3276">
        <ele>144.39999389648</ele>
        <time>2019-06-20T07:50:15.000Z</time>
      </trkpt>
      <trkpt lat="50.57384" lon="5.32744">
        <ele>145.39999389648</ele>
        <time>2019-06-20T07:50:18.000Z</time>
      </trkpt>
      <trkpt lat="50.57372" lon="5.32731">
        <ele>145.60000610352</ele>
        <time>2019-06-20T07:50:20.000Z</time>
      </trkpt>
      <trkpt lat="50.57372" lon="5.32731">
        <ele>145.60000610352</ele>
        <time>2019-06-20T07:50:21.000Z</time>
      </trkpt>
      <trkpt lat="50.57362" lon="5.32716">
        <ele>145.80000305176</ele>
        <time>2019-06-20T07:50:22.000Z</time>
      </trkpt>
      <trkpt lat="50.57349" lon="5.32689">
        <ele>146.19999694824</ele>
        <time>2019-06-20T07:50:25.000Z</time>
      </trkpt>
      <trkpt lat="50.57337" lon="5.32663">
        <ele>146.60000610352</ele>
        <time>2019-06-20T07:50:28.000Z</time>
      </trkpt>
      <trkpt lat="50.57318" lon="5.32621">
        <ele>147.80000305176</ele>
        <time>2019-06-20T07:50:33.000Z</time>
      </trkpt>
      <trkpt lat="50.57311" lon="5.32604">
        <ele>148.19999694824</ele>
        <time>2019-06-20T07:50:35.000Z</time>
      </trkpt>
      <trkpt lat="50.57298" lon="5.32572">
        <ele>149.19999694824</ele>
        <time>2019-06-20T07:50:39.000Z</time>
      </trkpt>
      <trkpt lat="50.57284" lon="5.32541">
        <ele>150.39999389648</ele>
        <time>2019-06-20T07:50:43.000Z</time>
      </trkpt>
      <trkpt lat="50.5727" lon="5.32512">
        <ele>151.60000610352</ele>
        <time>2019-06-20T07:50:47.000Z</time>
      </trkpt>
      <trkpt lat="50.5726" lon="5.32494">
        <ele>152.39999389648</ele>
        <time>2019-06-20T07:50:50.000Z</time>
      </trkpt>
      <trkpt lat="50.57257" lon="5.32488">
        <ele>152.60000610352</ele>
        <time>2019-06-20T07:50:51.000Z</time>
      </trkpt>
      <trkpt lat="50.57243" lon="5.32462">
        <ele>153.60000610352</ele>
        <time>2019-06-20T07:50:56.000Z</time>
      </trkpt>
      <trkpt lat="50.5724" lon="5.32458">
        <ele>153.60000610352</ele>
        <time>2019-06-20T07:50:57.000Z</time>
      </trkpt>
      <trkpt lat="50.57229" lon="5.32454">
        <ele>153.80000305176</ele>
        <time>2019-06-20T07:51:00.000Z</time>
      </trkpt>
      <trkpt lat="50.57222" lon="5.32466">
        <ele>154</ele>
        <time>2019-06-20T07:51:03.000Z</time>
      </trkpt>
      <trkpt lat="50.5722" lon="5.32471">
        <ele>154.19999694824</ele>
        <time>2019-06-20T07:51:04.000Z</time>
      </trkpt>
      <trkpt lat="50.57205" lon="5.32491">
        <ele>154</ele>
        <time>2019-06-20T07:51:08.000Z</time>
      </trkpt>
      <trkpt lat="50.57178" lon="5.32526">
        <ele>154</ele>
        <time>2019-06-20T07:51:14.000Z</time>
      </trkpt>
      <trkpt lat="50.57168" lon="5.32539">
        <ele>154</ele>
        <time>2019-06-20T07:51:16.000Z</time>
      </trkpt>
      <trkpt lat="50.57157" lon="5.32552">
        <ele>153.80000305176</ele>
        <time>2019-06-20T07:51:18.000Z</time>
      </trkpt>
      <trkpt lat="50.57147" lon="5.32568">
        <ele>153.19999694824</ele>
        <time>2019-06-20T07:51:20.000Z</time>
      </trkpt>
      <trkpt lat="50.57142" lon="5.32577">
        <ele>153</ele>
        <time>2019-06-20T07:51:21.000Z</time>
      </trkpt>
      <trkpt lat="50.57137" lon="5.326">
        <ele>152.60000610352</ele>
        <time>2019-06-20T07:51:23.000Z</time>
      </trkpt>
      <trkpt lat="50.57136" lon="5.32613">
        <ele>152.19999694824</ele>
        <time>2019-06-20T07:51:24.000Z</time>
      </trkpt>
      <trkpt lat="50.57136" lon="5.32628">
        <ele>152</ele>
        <time>2019-06-20T07:51:25.000Z</time>
      </trkpt>
      <trkpt lat="50.57135" lon="5.32658">
        <ele>151.19999694824</ele>
        <time>2019-06-20T07:51:27.000Z</time>
      </trkpt>
      <trkpt lat="50.57135" lon="5.32674">
        <ele>150.60000610352</ele>
        <time>2019-06-20T07:51:28.000Z</time>
      </trkpt>
      <trkpt lat="50.57136" lon="5.32689">
        <ele>150.39999389648</ele>
        <time>2019-06-20T07:51:29.000Z</time>
      </trkpt>
      <trkpt lat="50.57136" lon="5.32722">
        <ele>149.60000610352</ele>
        <time>2019-06-20T07:51:31.000Z</time>
      </trkpt>
      <trkpt lat="50.57136" lon="5.32756">
        <ele>148.19999694824</ele>
        <time>2019-06-20T07:51:33.000Z</time>
      </trkpt>
      <trkpt lat="50.57136" lon="5.32791">
        <ele>147</ele>
        <time>2019-06-20T07:51:35.000Z</time>
      </trkpt>
      <trkpt lat="50.57136" lon="5.32827">
        <ele>145.60000610352</ele>
        <time>2019-06-20T07:51:37.000Z</time>
      </trkpt>
      <trkpt lat="50.57136" lon="5.32864">
        <ele>144.60000610352</ele>
        <time>2019-06-20T07:51:39.000Z</time>
      </trkpt>
      <trkpt lat="50.57136" lon="5.329">
        <ele>143.19999694824</ele>
        <time>2019-06-20T07:51:41.000Z</time>
      </trkpt>
      <trkpt lat="50.57136" lon="5.32917">
        <ele>142.60000610352</ele>
        <time>2019-06-20T07:51:42.000Z</time>
      </trkpt>
      <trkpt lat="50.57135" lon="5.32934">
        <ele>141.80000305176</ele>
        <time>2019-06-20T07:51:43.000Z</time>
      </trkpt>
      <trkpt lat="50.57125" lon="5.32962">
        <ele>140.19999694824</ele>
        <time>2019-06-20T07:51:45.000Z</time>
      </trkpt>
      <trkpt lat="50.57104" lon="5.32974">
        <ele>138.60000610352</ele>
        <time>2019-06-20T07:51:47.000Z</time>
      </trkpt>
      <trkpt lat="50.57093" lon="5.32975">
        <ele>137.80000305176</ele>
        <time>2019-06-20T07:51:48.000Z</time>
      </trkpt>
      <trkpt lat="50.57082" lon="5.32976">
        <ele>136.80000305176</ele>
        <time>2019-06-20T07:51:49.000Z</time>
      </trkpt>
      <trkpt lat="50.57071" lon="5.32978">
        <ele>135.60000610352</ele>
        <time>2019-06-20T07:51:50.000Z</time>
      </trkpt>
      <trkpt lat="50.5706" lon="5.32981">
        <ele>134.60000610352</ele>
        <time>2019-06-20T07:51:51.000Z</time>
      </trkpt>
      <trkpt lat="50.5706" lon="5.32981">
        <ele>133</ele>
        <time>2019-06-20T07:51:52.000Z</time>
      </trkpt>
      <trkpt lat="50.57027" lon="5.3299">
        <ele>131.60000610352</ele>
        <time>2019-06-20T07:51:54.000Z</time>
      </trkpt>
      <trkpt lat="50.57016" lon="5.32989">
        <ele>130.60000610352</ele>
        <time>2019-06-20T07:51:55.000Z</time>
      </trkpt>
      <trkpt lat="50.57004" lon="5.32987">
        <ele>129.60000610352</ele>
        <time>2019-06-20T07:51:56.000Z</time>
      </trkpt>
      <trkpt lat="50.56993" lon="5.32984">
        <ele>128.80000305176</ele>
        <time>2019-06-20T07:51:57.000Z</time>
      </trkpt>
      <trkpt lat="50.56982" lon="5.32985">
        <ele>128</ele>
        <time>2019-06-20T07:51:58.000Z</time>
      </trkpt>
      <trkpt lat="50.56971" lon="5.32988">
        <ele>127</ele>
        <time>2019-06-20T07:51:59.000Z</time>
      </trkpt>
      <trkpt lat="50.5695" lon="5.33001">
        <ele>125.19999694824</ele>
        <time>2019-06-20T07:52:01.000Z</time>
      </trkpt>
      <trkpt lat="50.5694" lon="5.3301">
        <ele>124.59999847412</ele>
        <time>2019-06-20T07:52:02.000Z</time>
      </trkpt>
      <trkpt lat="50.56932" lon="5.33021">
        <ele>123.80000305176</ele>
        <time>2019-06-20T07:52:03.000Z</time>
      </trkpt>
      <trkpt lat="50.5692" lon="5.33049">
        <ele>121.59999847412</ele>
        <time>2019-06-20T07:52:05.000Z</time>
      </trkpt>
      <trkpt lat="50.56917" lon="5.33063">
        <ele>120.19999694824</ele>
        <time>2019-06-20T07:52:06.000Z</time>
      </trkpt>
      <trkpt lat="50.56914" lon="5.3308">
        <ele>119.40000152588</ele>
        <time>2019-06-20T07:52:07.000Z</time>
      </trkpt>
      <trkpt lat="50.56909" lon="5.33114">
        <ele>118.19999694824</ele>
        <time>2019-06-20T07:52:09.000Z</time>
      </trkpt>
      <trkpt lat="50.56907" lon="5.33132">
        <ele>118</ele>
        <time>2019-06-20T07:52:10.000Z</time>
      </trkpt>
      <trkpt lat="50.56907" lon="5.33149">
        <ele>117</ele>
        <time>2019-06-20T07:52:11.000Z</time>
      </trkpt>
      <trkpt lat="50.56907" lon="5.33149">
        <ele>115.80000305176</ele>
        <time>2019-06-20T07:52:12.000Z</time>
      </trkpt>
      <trkpt lat="50.56911" lon="5.33183">
        <ele>115.19999694824</ele>
        <time>2019-06-20T07:52:13.000Z</time>
      </trkpt>
      <trkpt lat="50.56914" lon="5.33199">
        <ele>114</ele>
        <time>2019-06-20T07:52:14.000Z</time>
      </trkpt>
      <trkpt lat="50.56916" lon="5.33213">
        <ele>112.80000305176</ele>
        <time>2019-06-20T07:52:15.000Z</time>
      </trkpt>
      <trkpt lat="50.56917" lon="5.33228">
        <ele>111.80000305176</ele>
        <time>2019-06-20T07:52:16.000Z</time>
      </trkpt>
      <trkpt lat="50.56917" lon="5.33243">
        <ele>111</ele>
        <time>2019-06-20T07:52:17.000Z</time>
      </trkpt>
      <trkpt lat="50.56914" lon="5.33254">
        <ele>110</ele>
        <time>2019-06-20T07:52:18.000Z</time>
      </trkpt>
      <trkpt lat="50.56909" lon="5.33264">
        <ele>109.40000152588</ele>
        <time>2019-06-20T07:52:19.000Z</time>
      </trkpt>
      <trkpt lat="50.56901" lon="5.33271">
        <ele>108</ele>
        <time>2019-06-20T07:52:20.000Z</time>
      </trkpt>
      <trkpt lat="50.56893" lon="5.33276">
        <ele>107.19999694824</ele>
        <time>2019-06-20T07:52:21.000Z</time>
      </trkpt>
      <trkpt lat="50.56884" lon="5.33278">
        <ele>106.59999847412</ele>
        <time>2019-06-20T07:52:22.000Z</time>
      </trkpt>
      <trkpt lat="50.56875" lon="5.33279">
        <ele>106</ele>
        <time>2019-06-20T07:52:23.000Z</time>
      </trkpt>
      <trkpt lat="50.56865" lon="5.33279">
        <ele>105.59999847412</ele>
        <time>2019-06-20T07:52:24.000Z</time>
      </trkpt>
      <trkpt lat="50.56856" lon="5.33277">
        <ele>104.80000305176</ele>
        <time>2019-06-20T07:52:25.000Z</time>
      </trkpt>
      <trkpt lat="50.56837" lon="5.33266">
        <ele>103</ele>
        <time>2019-06-20T07:52:27.000Z</time>
      </trkpt>
      <trkpt lat="50.56819" lon="5.33247">
        <ele>101.59999847412</ele>
        <time>2019-06-20T07:52:29.000Z</time>
      </trkpt>
      <trkpt lat="50.568" lon="5.33227">
        <ele>100.40000152588</ele>
        <time>2019-06-20T07:52:31.000Z</time>
      </trkpt>
      <trkpt lat="50.56782" lon="5.33206">
        <ele>99.199996948242</ele>
        <time>2019-06-20T07:52:33.000Z</time>
      </trkpt>
      <trkpt lat="50.56782" lon="5.33206">
        <ele>98</ele>
        <time>2019-06-20T07:52:34.000Z</time>
      </trkpt>
      <trkpt lat="50.56754" lon="5.33175">
        <ele>96.199996948242</ele>
        <time>2019-06-20T07:52:36.000Z</time>
      </trkpt>
      <trkpt lat="50.56735" lon="5.33154">
        <ele>95</ele>
        <time>2019-06-20T07:52:38.000Z</time>
      </trkpt>
      <trkpt lat="50.56715" lon="5.33135">
        <ele>93.599998474121</ele>
        <time>2019-06-20T07:52:40.000Z</time>
      </trkpt>
      <trkpt lat="50.56703" lon="5.33129">
        <ele>92.199996948242</ele>
        <time>2019-06-20T07:52:41.000Z</time>
      </trkpt>
      <trkpt lat="50.5668" lon="5.33122">
        <ele>90.800003051758</ele>
        <time>2019-06-20T07:52:43.000Z</time>
      </trkpt>
      <trkpt lat="50.56669" lon="5.33122">
        <ele>90</ele>
        <time>2019-06-20T07:52:44.000Z</time>
      </trkpt>
      <trkpt lat="50.56657" lon="5.33123">
        <ele>89</ele>
        <time>2019-06-20T07:52:45.000Z</time>
      </trkpt>
      <trkpt lat="50.56633" lon="5.33132">
        <ele>87</ele>
        <time>2019-06-20T07:52:47.000Z</time>
      </trkpt>
      <trkpt lat="50.56621" lon="5.33138">
        <ele>85.599998474121</ele>
        <time>2019-06-20T07:52:48.000Z</time>
      </trkpt>
      <trkpt lat="50.5661" lon="5.33146">
        <ele>84.400001525879</ele>
        <time>2019-06-20T07:52:49.000Z</time>
      </trkpt>
      <trkpt lat="50.56599" lon="5.33154">
        <ele>83.599998474121</ele>
        <time>2019-06-20T07:52:50.000Z</time>
      </trkpt>
      <trkpt lat="50.56588" lon="5.33163">
        <ele>83.199996948242</ele>
        <time>2019-06-20T07:52:51.000Z</time>
      </trkpt>
      <trkpt lat="50.56556" lon="5.33183">
        <ele>81</ele>
        <time>2019-06-20T07:52:54.000Z</time>
      </trkpt>
      <trkpt lat="50.56547" lon="5.33189">
        <ele>79.800003051758</ele>
        <time>2019-06-20T07:52:55.000Z</time>
      </trkpt>
      <trkpt lat="50.56537" lon="5.33195">
        <ele>79.199996948242</ele>
        <time>2019-06-20T07:52:56.000Z</time>
      </trkpt>
      <trkpt lat="50.56522" lon="5.33205">
        <ele>78.800003051758</ele>
        <time>2019-06-20T07:52:58.000Z</time>
      </trkpt>
      <trkpt lat="50.565" lon="5.3322">
        <ele>78.599998474121</ele>
        <time>2019-06-20T07:53:01.000Z</time>
      </trkpt>
      <trkpt lat="50.56462" lon="5.33237">
        <ele>78</ele>
        <time>2019-06-20T07:53:06.000Z</time>
      </trkpt>
      <trkpt lat="50.5641" lon="5.33246">
        <ele>77.599998474121</ele>
        <time>2019-06-20T07:53:12.000Z</time>
      </trkpt>
      <trkpt lat="50.56391" lon="5.33249">
        <ele>77.599998474121</ele>
        <time>2019-06-20T07:53:14.000Z</time>
      </trkpt>
      <trkpt lat="50.56354" lon="5.33257">
        <ele>76</ele>
        <time>2019-06-20T07:53:18.000Z</time>
      </trkpt>
      <trkpt lat="50.56335" lon="5.33262">
        <ele>75.199996948242</ele>
        <time>2019-06-20T07:53:20.000Z</time>
      </trkpt>
      <trkpt lat="50.56327" lon="5.33264">
        <ele>74.800003051758</ele>
        <time>2019-06-20T07:53:21.000Z</time>
      </trkpt>
      <trkpt lat="50.5631" lon="5.3327">
        <ele>74</ele>
        <time>2019-06-20T07:53:23.000Z</time>
      </trkpt>
      <trkpt lat="50.56295" lon="5.33283">
        <ele>73.599998474121</ele>
        <time>2019-06-20T07:53:25.000Z</time>
      </trkpt>
      <trkpt lat="50.56287" lon="5.33299">
        <ele>73</ele>
        <time>2019-06-20T07:53:27.000Z</time>
      </trkpt>
      <trkpt lat="50.56279" lon="5.33315">
        <ele>72.800003051758</ele>
        <time>2019-06-20T07:53:29.000Z</time>
      </trkpt>
      <trkpt lat="50.56263" lon="5.3334">
        <ele>72.800003051758</ele>
        <time>2019-06-20T07:53:32.000Z</time>
      </trkpt>
      <trkpt lat="50.56256" lon="5.33347">
        <ele>72.800003051758</ele>
        <time>2019-06-20T07:53:33.000Z</time>
      </trkpt>
      <trkpt lat="50.56222" lon="5.33373">
        <ele>72.400001525879</ele>
        <time>2019-06-20T07:53:37.000Z</time>
      </trkpt>
      <trkpt lat="50.56189" lon="5.33388">
        <ele>72</ele>
        <time>2019-06-20T07:53:41.000Z</time>
      </trkpt>
      <trkpt lat="50.56182" lon="5.3339">
        <ele>71.599998474121</ele>
        <time>2019-06-20T07:53:42.000Z</time>
      </trkpt>
      <trkpt lat="50.56175" lon="5.3339">
        <ele>69.800003051758</ele>
        <time>2019-06-20T07:53:43.000Z</time>
      </trkpt>
      <trkpt lat="50.56168" lon="5.33389">
        <ele>69.599998474121</ele>
        <time>2019-06-20T07:53:44.000Z</time>
      </trkpt>
      <trkpt lat="50.56145" lon="5.33379">
        <ele>68.800003051758</ele>
        <time>2019-06-20T07:53:47.000Z</time>
      </trkpt>
      <trkpt lat="50.56138" lon="5.33374">
        <ele>68.599998474121</ele>
        <time>2019-06-20T07:53:48.000Z</time>
      </trkpt>
      <trkpt lat="50.56106" lon="5.33346">
        <ele>68.400001525879</ele>
        <time>2019-06-20T07:53:53.000Z</time>
      </trkpt>
      <trkpt lat="50.56082" lon="5.33323">
        <ele>68</ele>
        <time>2019-06-20T07:53:57.000Z</time>
      </trkpt>
      <trkpt lat="50.56076" lon="5.33318">
        <ele>67.599998474121</ele>
        <time>2019-06-20T07:53:58.000Z</time>
      </trkpt>
      <trkpt lat="50.56069" lon="5.33313">
        <ele>67.199996948242</ele>
        <time>2019-06-20T07:53:59.000Z</time>
      </trkpt>
      <trkpt lat="50.56053" lon="5.33297">
        <ele>66.599998474121</ele>
        <time>2019-06-20T07:54:02.000Z</time>
      </trkpt>
      <trkpt lat="50.56048" lon="5.33291">
        <ele>66.199996948242</ele>
        <time>2019-06-20T07:54:03.000Z</time>
      </trkpt>
      <trkpt lat="50.56035" lon="5.33281">
        <ele>65.599998474121</ele>
        <time>2019-06-20T07:54:05.000Z</time>
      </trkpt>
      <trkpt lat="50.56023" lon="5.33274">
        <ele>65</ele>
        <time>2019-06-20T07:54:07.000Z</time>
      </trkpt>
      <trkpt lat="50.56017" lon="5.33269">
        <ele>64.400001525879</ele>
        <time>2019-06-20T07:54:08.000Z</time>
      </trkpt>
      <trkpt lat="50.56011" lon="5.33265">
        <ele>63.799999237061</ele>
        <time>2019-06-20T07:54:09.000Z</time>
      </trkpt>
      <trkpt lat="50.55997" lon="5.33257">
        <ele>61.799999237061</ele>
        <time>2019-06-20T07:54:11.000Z</time>
      </trkpt>
      <trkpt lat="50.55984" lon="5.3325">
        <ele>60.400001525879</ele>
        <time>2019-06-20T07:54:13.000Z</time>
      </trkpt>
      <trkpt lat="50.55978" lon="5.33249">
        <ele>59.799999237061</ele>
        <time>2019-06-20T07:54:14.000Z</time>
      </trkpt>
      <trkpt lat="50.5597" lon="5.33247">
        <ele>58.799999237061</ele>
        <time>2019-06-20T07:54:15.000Z</time>
      </trkpt>
      <trkpt lat="50.55955" lon="5.33245">
        <ele>57.599998474121</ele>
        <time>2019-06-20T07:54:17.000Z</time>
      </trkpt>
      <trkpt lat="50.55939" lon="5.33245">
        <ele>56.400001525879</ele>
        <time>2019-06-20T07:54:19.000Z</time>
      </trkpt>
      <trkpt lat="50.55925" lon="5.33249">
        <ele>55.400001525879</ele>
        <time>2019-06-20T07:54:21.000Z</time>
      </trkpt>
      <trkpt lat="50.55917" lon="5.33252">
        <ele>55</ele>
        <time>2019-06-20T07:54:22.000Z</time>
      </trkpt>
      <trkpt lat="50.55906" lon="5.33264">
        <ele>53.799999237061</ele>
        <time>2019-06-20T07:54:24.000Z</time>
      </trkpt>
      <trkpt lat="50.55903" lon="5.33273">
        <ele>53</ele>
        <time>2019-06-20T07:54:25.000Z</time>
      </trkpt>
      <trkpt lat="50.55902" lon="5.33285">
        <ele>52.400001525879</ele>
        <time>2019-06-20T07:54:26.000Z</time>
      </trkpt>
      <trkpt lat="50.559" lon="5.33297">
        <ele>51.799999237061</ele>
        <time>2019-06-20T07:54:27.000Z</time>
      </trkpt>
      <trkpt lat="50.55881" lon="5.33302">
        <ele>111.1</ele>
        <time>2019-06-20T07:54:35.000Z</time>
      </trkpt>
      <trkpt lat="50.55882" lon="5.33345">
        <ele>106.6</ele>
        <time>2019-06-20T07:55:21.000Z</time>
      </trkpt>
      <trkpt lat="50.55883" lon="5.3336">
        <ele>106.4</ele>
        <time>2019-06-20T07:55:25.000Z</time>
      </trkpt>
      <trkpt lat="50.55878" lon="5.3338">
        <ele>106</ele>
        <time>2019-06-20T07:55:29.000Z</time>
      </trkpt>
      <trkpt lat="50.55869" lon="5.33411">
        <ele>47.400001525879</ele>
        <time>2019-06-20T07:55:32.000Z</time>
      </trkpt>
      <trkpt lat="50.55858" lon="5.3343">
        <ele>99.6</ele>
        <time>2019-06-20T07:56:15.000Z</time>
      </trkpt>
      <trkpt lat="50.5585" lon="5.33448">
        <ele>98.2</ele>
        <time>2019-06-20T07:56:18.000Z</time>
      </trkpt>
      <trkpt lat="50.5583" lon="5.33484">
        <ele>88.3</ele>
        <time>2019-06-20T07:56:27.000Z</time>
      </trkpt>
      <trkpt lat="50.55817" lon="5.33513">
        <ele>80.1</ele>
        <time>2019-06-20T07:56:35.000Z</time>
      </trkpt>
      <trkpt lat="50.55803" lon="5.33534">
        <ele>77.8</ele>
        <time>2019-06-20T07:56:39.000Z</time>
      </trkpt>
      <trkpt lat="50.5579" lon="5.33552">
        <ele>76.4</ele>
        <time>2019-06-20T07:56:42.000Z</time>
      </trkpt>
      <trkpt lat="50.55775" lon="5.33571">
        <ele>74.6</ele>
        <time>2019-06-20T07:56:47.000Z</time>
      </trkpt>
      <trkpt lat="50.55758" lon="5.33597">
        <ele>71</ele>
        <time>2019-06-20T07:56:56.000Z</time>
      </trkpt>
      <trkpt lat="50.5574" lon="5.33557">
        <ele>70.3</ele>
        <time>2019-06-20T07:56:57.000Z</time>
      </trkpt>
      <trkpt lat="50.55718" lon="5.33513">
        <ele>71.3</ele>
        <time>2019-06-20T07:57:04.000Z</time>
      </trkpt>
      <trkpt lat="50.55692" lon="5.33459">
        <ele>79.8</ele>
        <time>2019-06-20T07:57:12.000Z</time>
      </trkpt>
      <trkpt lat="50.55677" lon="5.33423">
        <ele>29.60000038147</ele>
        <time>2019-06-20T07:57:17.000Z</time>
      </trkpt>
      <trkpt lat="50.55662" lon="5.33393">
        <ele>30</ele>
        <time>2019-06-20T07:57:19.000Z</time>
      </trkpt>
      <trkpt lat="50.55648" lon="5.33364">
        <ele>30.39999961853</ele>
        <time>2019-06-20T07:57:21.000Z</time>
      </trkpt>
      <trkpt lat="50.55637" lon="5.3334">
        <ele>30.60000038147</ele>
        <time>2019-06-20T07:57:26.000Z</time>
      </trkpt>
      <trkpt lat="50.55615" lon="5.33304">
        <ele>89.7</ele>
        <time>2019-06-20T07:57:30.000Z</time>
      </trkpt>
      <trkpt lat="50.55605" lon="5.33291">
        <ele>89.3</ele>
        <time>2019-06-20T07:57:39.000Z</time>
      </trkpt>
      <trkpt lat="50.55589" lon="5.33272">
        <ele>87.9</ele>
        <time>2019-06-20T07:57:41.000Z</time>
      </trkpt>
      <trkpt lat="50.55554" lon="5.33233">
        <ele>83.3</ele>
        <time>2019-06-20T07:57:48.000Z</time>
      </trkpt>
      <trkpt lat="50.55534" lon="5.33209">
        <ele>83</ele>
        <time>2019-06-20T07:57:59.000Z</time>
      </trkpt>
      <trkpt lat="50.55513" lon="5.33174">
        <ele>80.1</ele>
        <time>2019-06-20T07:58:27.000Z</time>
      </trkpt>
      <trkpt lat="50.55475" lon="5.33106">
        <ele>80.6</ele>
        <time>2019-06-20T07:58:32.000Z</time>
      </trkpt>
      <trkpt lat="50.55435" lon="5.33032">
        <ele>31</ele>
        <time>2019-06-20T07:58:36.000Z</time>
      </trkpt>
      <trkpt lat="50.55422" lon="5.33009">
        <ele>31.200000762939</ele>
        <time>2019-06-20T07:58:41.000Z</time>
      </trkpt>
      <trkpt lat="50.55394" lon="5.3296">
        <ele>79.2</ele>
        <time>2019-06-20T07:58:44.000Z</time>
      </trkpt>
      <trkpt lat="50.55383" lon="5.32937">
        <ele>31.39999961853</ele>
        <time>2019-06-20T07:58:48.000Z</time>
      </trkpt>
      <trkpt lat="50.55364" lon="5.329">
        <ele>85</ele>
        <time>2019-06-20T07:58:51.000Z</time>
      </trkpt>
      <trkpt lat="50.55355" lon="5.32876">
        <ele>31.39999961853</ele>
        <time>2019-06-20T07:58:57.000Z</time>
      </trkpt>
      <trkpt lat="50.55342" lon="5.32844">
        <ele>31.60000038147</ele>
        <time>2019-06-20T07:58:59.000Z</time>
      </trkpt>
      <trkpt lat="50.55333" lon="5.3282">
        <ele>32.200000762939</ele>
        <time>2019-06-20T07:59:02.000Z</time>
      </trkpt>
      <trkpt lat="50.55319" lon="5.32781">
        <ele>32.400001525879</ele>
        <time>2019-06-20T07:59:04.000Z</time>
      </trkpt>
      <trkpt lat="50.55293" lon="5.3271">
        <ele>33</ele>
        <time>2019-06-20T07:59:07.000Z</time>
      </trkpt>
      <trkpt lat="50.5529" lon="5.32702">
        <ele>33</ele>
        <time>2019-06-20T07:59:11.000Z</time>
      </trkpt>
      <trkpt lat="50.55264" lon="5.32649">
        <ele>33.400001525879</ele>
        <time>2019-06-20T07:59:14.000Z</time>
      </trkpt>
      <trkpt lat="50.55227" lon="5.32586">
        <ele>33.400001525879</ele>
        <time>2019-06-20T07:59:15.000Z</time>
      </trkpt>
      <trkpt lat="50.55204" lon="5.32543">
        <ele>32.400001525879</ele>
        <time>2019-06-20T07:59:18.000Z</time>
      </trkpt>
      <trkpt lat="50.55195" lon="5.32527">
        <ele>31.799999237061</ele>
        <time>2019-06-20T07:59:20.000Z</time>
      </trkpt>
      <trkpt lat="50.55185" lon="5.3251">
        <ele>31.60000038147</ele>
        <time>2019-06-20T07:59:21.000Z</time>
      </trkpt>
      <trkpt lat="50.55162" lon="5.3247">
        <ele>30.60000038147</ele>
        <time>2019-06-20T07:59:22.000Z</time>
      </trkpt>
      <trkpt lat="50.55144" lon="5.32438">
        <ele>30</ele>
        <time>2019-06-20T07:59:24.000Z</time>
      </trkpt>
      <trkpt lat="50.55103" lon="5.32369">
        <ele>29.60000038147</ele>
        <time>2019-06-20T07:59:25.000Z</time>
      </trkpt>
      <trkpt lat="50.55094" lon="5.32353">
        <ele>29.60000038147</ele>
        <time>2019-06-20T07:59:27.000Z</time>
      </trkpt>
      <trkpt lat="50.55063" lon="5.32298">
        <ele>29.60000038147</ele>
        <time>2019-06-20T07:59:28.000Z</time>
      </trkpt>
      <trkpt lat="50.55046" lon="5.32271">
        <ele>71.2</ele>
        <time>2019-06-20T07:59:32.000Z</time>
      </trkpt>
      <trkpt lat="50.55018" lon="5.32223">
        <ele>29.39999961853</ele>
        <time>2019-06-20T07:59:37.000Z</time>
      </trkpt>
      <trkpt lat="50.55006" lon="5.32204">
        <ele>73.3</ele>
        <time>2019-06-20T07:59:40.000Z</time>
      </trkpt>
      <trkpt lat="50.54995" lon="5.32219">
        <ele>69.8</ele>
        <time>2019-06-20T07:59:50.000Z</time>
      </trkpt>
      <trkpt lat="50.54979" lon="5.32243">
        <ele>69.6</ele>
        <time>2019-06-20T07:59:52.000Z</time>
      </trkpt>
      <trkpt lat="50.54941" lon="5.32302">
        <ele>30.200000762939</ele>
        <time>2019-06-20T08:00:14.000Z</time>
      </trkpt>
      <trkpt lat="50.5492" lon="5.32332">
        <ele>30.39999961853</ele>
        <time>2019-06-20T08:00:16.000Z</time>
      </trkpt>
      <trkpt lat="50.54905" lon="5.32355">
        <ele>30.60000038147</ele>
        <time>2019-06-20T08:00:17.000Z</time>
      </trkpt>
      <trkpt lat="50.54887" lon="5.32381">
        <ele>31.39999961853</ele>
        <time>2019-06-20T08:00:21.000Z</time>
      </trkpt>
      <trkpt lat="50.54876" lon="5.32396">
        <ele>32.599998474121</ele>
        <time>2019-06-20T08:00:25.000Z</time>
      </trkpt>
      <trkpt lat="50.54863" lon="5.32417">
        <ele>33.599998474121</ele>
        <time>2019-06-20T08:00:27.000Z</time>
      </trkpt>
      <trkpt lat="50.54853" lon="5.32432">
        <ele>35</ele>
        <time>2019-06-20T08:00:30.000Z</time>
      </trkpt>
      <trkpt lat="50.5483" lon="5.32465">
        <ele>35.599998474121</ele>
        <time>2019-06-20T08:00:31.000Z</time>
      </trkpt>
      <trkpt lat="50.54821" lon="5.32476">
        <ele>35.599998474121</ele>
        <time>2019-06-20T08:00:33.000Z</time>
      </trkpt>
      <trkpt lat="50.54803" lon="5.32489">
        <ele>35.599998474121</ele>
        <time>2019-06-20T08:00:35.000Z</time>
      </trkpt>
      <trkpt lat="50.5479" lon="5.32495">
        <ele>35.599998474121</ele>
        <time>2019-06-20T08:00:40.000Z</time>
      </trkpt>
      <trkpt lat="50.54768" lon="5.32504">
        <ele>35.200000762939</ele>
        <time>2019-06-20T08:00:42.000Z</time>
      </trkpt>
      <trkpt lat="50.54737" lon="5.32515">
        <ele>33.400001525879</ele>
        <time>2019-06-20T08:00:46.000Z</time>
      </trkpt>
      <trkpt lat="50.54712" lon="5.32524">
        <ele>32</ele>
        <time>2019-06-20T08:00:51.000Z</time>
      </trkpt>
      <trkpt lat="50.54704" lon="5.32527">
        <ele>31.799999237061</ele>
        <time>2019-06-20T08:00:52.000Z</time>
      </trkpt>
      <trkpt lat="50.54678" lon="5.32536">
        <ele>31</ele>
        <time>2019-06-20T08:00:55.000Z</time>
      </trkpt>
      <trkpt lat="50.54661" lon="5.32542">
        <ele>30</ele>
        <time>2019-06-20T08:01:01.000Z</time>
      </trkpt>
      <trkpt lat="50.54654" lon="5.32545">
        <ele>29.60000038147</ele>
        <time>2019-06-20T08:01:06.000Z</time>
      </trkpt>
      <trkpt lat="50.54646" lon="5.32548">
        <ele>29.200000762939</ele>
        <time>2019-06-20T08:01:07.000Z</time>
      </trkpt>
      <trkpt lat="50.54632" lon="5.32556">
        <ele>28.39999961853</ele>
        <time>2019-06-20T08:01:09.000Z</time>
      </trkpt>
      <trkpt lat="50.54626" lon="5.32561">
        <ele>28.200000762939</ele>
        <time>2019-06-20T08:01:10.000Z</time>
      </trkpt>
      <trkpt lat="50.54615" lon="5.32571">
        <ele>28</ele>
        <time>2019-06-20T08:01:13.000Z</time>
      </trkpt>
      <trkpt lat="50.5461" lon="5.32576">
        <ele>28</ele>
        <time>2019-06-20T08:01:16.000Z</time>
      </trkpt>
      <trkpt lat="50.54592" lon="5.32606">
        <ele>27.799999237061</ele>
        <time>2019-06-20T08:01:17.000Z</time>
      </trkpt>
      <trkpt lat="50.54579" lon="5.32652">
        <ele>27.799999237061</ele>
        <time>2019-06-20T08:01:19.000Z</time>
      </trkpt>
      <trkpt lat="50.54575" lon="5.32684">
        <ele>28.39999961853</ele>
        <time>2019-06-20T08:01:25.000Z</time>
      </trkpt>
      <trkpt lat="50.54572" lon="5.32714">
        <ele>67.8</ele>
        <time>2019-06-20T08:01:48.000Z</time>
      </trkpt>
      <trkpt lat="50.54568" lon="5.32794">
        <ele>28.799999237061</ele>
        <time>2019-06-20T08:01:56.000Z</time>
      </trkpt>
      <trkpt lat="50.54567" lon="5.32816">
        <ele>28.799999237061</ele>
        <time>2019-06-20T08:01:58.000Z</time>
      </trkpt>
      <trkpt lat="50.54562" lon="5.32879">
        <ele>68.6</ele>
        <time>2019-06-20T08:02:00.000Z</time>
      </trkpt>
      <trkpt lat="50.54559" lon="5.32916">
        <ele>68.7</ele>
        <time>2019-06-20T08:02:04.000Z</time>
      </trkpt>
      <trkpt lat="50.54555" lon="5.32962">
        <ele>68.3</ele>
        <time>2019-06-20T08:02:07.000Z</time>
      </trkpt>
      <trkpt lat="50.54546" lon="5.32988">
        <ele>68.2</ele>
        <time>2019-06-20T08:02:08.000Z</time>
      </trkpt>
      <trkpt lat="50.54534" lon="5.32997">
        <ele>68</ele>
        <time>2019-06-20T08:02:12.000Z</time>
      </trkpt>
      <trkpt lat="50.54529" lon="5.33006">
        <ele>68.2</ele>
        <time>2019-06-20T08:02:16.000Z</time>
      </trkpt>
      <trkpt lat="50.54526" lon="5.33025">
        <ele>28.799999237061</ele>
        <time>2019-06-20T08:02:17.000Z</time>
      </trkpt>
      <trkpt lat="50.5452" lon="5.33042">
        <ele>29</ele>
        <time>2019-06-20T08:02:21.000Z</time>
      </trkpt>
      <trkpt lat="50.54517" lon="5.3305">
        <ele>29</ele>
        <time>2019-06-20T08:03:16.000Z</time>
      </trkpt>
      <trkpt lat="50.54501" lon="5.33077">
        <ele>29.39999961853</ele>
        <time>2019-06-20T08:03:20.000Z</time>
      </trkpt>
      <trkpt lat="50.54486" lon="5.33101">
        <ele>30</ele>
        <time>2019-06-20T08:03:23.000Z</time>
      </trkpt>
      <trkpt lat="50.54478" lon="5.33112">
        <ele>30.799999237061</ele>
        <time>2019-06-20T08:03:26.000Z</time>
      </trkpt>
      <trkpt lat="50.54466" lon="5.33129">
        <ele>31.60000038147</ele>
        <time>2019-06-20T08:03:28.000Z</time>
      </trkpt>
      <trkpt lat="50.54462" lon="5.33135">
        <ele>31.799999237061</ele>
        <time>2019-06-20T08:03:31.000Z</time>
      </trkpt>
      <trkpt lat="50.54454" lon="5.33147">
        <ele>32.200000762939</ele>
        <time>2019-06-20T08:03:34.000Z</time>
      </trkpt>
      <trkpt lat="50.54445" lon="5.33159">
        <ele>32.799999237061</ele>
        <time>2019-06-20T08:03:36.000Z</time>
      </trkpt>
      <trkpt lat="50.54424" lon="5.33188">
        <ele>34</ele>
        <time>2019-06-20T08:03:42.000Z</time>
      </trkpt>
      <trkpt lat="50.54416" lon="5.33201">
        <ele>34.200000762939</ele>
        <time>2019-06-20T08:03:46.000Z</time>
      </trkpt>
      <trkpt lat="50.544" lon="5.33224">
        <ele>35</ele>
        <time>2019-06-20T08:03:52.000Z</time>
      </trkpt>
      <trkpt lat="50.54379" lon="5.33254">
        <ele>36</ele>
        <time>2019-06-20T08:06:05.000Z</time>
      </trkpt>
      <trkpt lat="50.54375" lon="5.3326">
        <ele>36.400001525879</ele>
        <time>2019-06-20T08:06:12.000Z</time>
      </trkpt>
      <trkpt lat="50.54361" lon="5.33279">
        <ele>37.400001525879</ele>
        <time>2019-06-20T08:06:15.000Z</time>
      </trkpt>
      <trkpt lat="50.54334" lon="5.33319">
        <ele>37.599998474121</ele>
        <time>2019-06-20T08:06:42.000Z</time>
      </trkpt>
      <trkpt lat="50.5431" lon="5.3336">
        <ele>67.1</ele>
        <time>2019-06-20T08:06:44.000Z</time>
      </trkpt>
      <trkpt lat="50.54305" lon="5.33382">
        <ele>67.7</ele>
        <time>2019-06-20T08:06:50.000Z</time>
      </trkpt>
      <trkpt lat="50.54304" lon="5.33402">
        <ele>68</ele>
        <time>2019-06-20T08:06:53.000Z</time>
      </trkpt>
      <trkpt lat="50.54309" lon="5.33433">
        <ele>69.3</ele>
        <time>2019-06-20T08:07:43.000Z</time>
      </trkpt>
      <trkpt lat="50.54323" lon="5.33453">
        <ele>69.3</ele>
        <time>2019-06-20T08:07:49.000Z</time>
      </trkpt>
      <trkpt lat="50.5434" lon="5.33478">
        <ele>67.4</ele>
        <time>2019-06-20T08:07:56.000Z</time>
      </trkpt>
      <trkpt lat="50.54347" lon="5.33492">
        <ele>67.5</ele>
        <time>2019-06-20T08:08:00.000Z</time>
      </trkpt>
      <trkpt lat="50.54349" lon="5.33513">
        <ele>68.7</ele>
        <time>2019-06-20T08:08:06.000Z</time>
      </trkpt>
      <trkpt lat="50.54342" lon="5.33534">
        <ele>33</ele>
        <time>2019-06-20T08:08:13.000Z</time>
      </trkpt>
      <trkpt lat="50.54331" lon="5.33548">
        <ele>72.6</ele>
        <time>2019-06-20T08:08:15.000Z</time>
      </trkpt>
      <trkpt lat="50.54323" lon="5.33559">
        <ele>73</ele>
        <time>2019-06-20T08:08:19.000Z</time>
      </trkpt>
      <trkpt lat="50.5433" lon="5.33585">
        <ele>30.60000038147</ele>
        <time>2019-06-20T08:08:20.000Z</time>
      </trkpt>
      <trkpt lat="50.54335" lon="5.33617">
        <ele>72.9</ele>
        <time>2019-06-20T08:08:21.000Z</time>
      </trkpt>
      <trkpt lat="50.54338" lon="5.3364">
        <ele>30.799999237061</ele>
        <time>2019-06-20T08:08:28.000Z</time>
      </trkpt>
      <trkpt lat="50.54342" lon="5.33652">
        <ele>31</ele>
        <time>2019-06-20T08:08:45.000Z</time>
      </trkpt>
      <trkpt lat="50.54349" lon="5.33662">
        <ele>31.200000762939</ele>
        <time>2019-06-20T08:10:23.000Z</time>
      </trkpt>
      <trkpt lat="50.5436" lon="5.33682">
        <ele>31.799999237061</ele>
        <time>2019-06-20T08:10:24.000Z</time>
      </trkpt>
      <trkpt lat="50.5437" lon="5.33697">
        <ele>32.799999237061</ele>
        <time>2019-06-20T08:10:26.000Z</time>
      </trkpt>
      <trkpt lat="50.54373" lon="5.33701">
        <ele>33</ele>
        <time>2019-06-20T08:10:29.000Z</time>
      </trkpt>
      <trkpt lat="50.54386" lon="5.3372">
        <ele>34</ele>
        <time>2019-06-20T08:10:40.000Z</time>
      </trkpt>
      <trkpt lat="50.54398" lon="5.33739">
        <ele>35.200000762939</ele>
        <time>2019-06-20T08:10:41.000Z</time>
      </trkpt>
      <trkpt lat="50.54401" lon="5.33744">
        <ele>35.400001525879</ele>
        <time>2019-06-20T08:10:42.000Z</time>
      </trkpt>
      <trkpt lat="50.54413" lon="5.33763">
        <ele>36.200000762939</ele>
        <time>2019-06-20T08:10:46.000Z</time>
      </trkpt>
      <trkpt lat="50.54426" lon="5.33787">
        <ele>78.9</ele>
        <time>2019-06-20T08:10:51.000Z</time>
      </trkpt>
      <trkpt lat="50.54435" lon="5.33812">
        <ele>80.7</ele>
        <time>2019-06-20T08:10:53.000Z</time>
      </trkpt>
      <trkpt lat="50.54444" lon="5.33839">
        <ele>84.1</ele>
        <time>2019-06-20T08:10:56.000Z</time>
      </trkpt>
      <trkpt lat="50.54456" lon="5.33873">
        <ele>84</ele>
        <time>2019-06-20T08:11:50.000Z</time>
      </trkpt>
      <trkpt lat="50.5447" lon="5.33919">
        <ele>85</ele>
        <time>2019-06-20T08:13:00.000Z</time>
      </trkpt>
      <trkpt lat="50.54479" lon="5.33955">
        <ele>85.1</ele>
        <time>2019-06-20T08:13:08.000Z</time>
      </trkpt>
      <trkpt lat="50.54492" lon="5.34">
        <ele>85.7</ele>
        <time>2019-06-20T08:13:11.000Z</time>
      </trkpt>
      <trkpt lat="50.54501" lon="5.34035">
        <ele>85.7</ele>
        <time>2019-06-20T08:13:26.000Z</time>
      </trkpt>
      <trkpt lat="50.54481" lon="5.34052">
        <ele>85.1</ele>
        <time>2019-06-20T08:14:54.000Z</time>
      </trkpt>
      <trkpt lat="50.5445" lon="5.34078">
        <ele>45</ele>
        <time>2019-06-20T08:14:56.000Z</time>
      </trkpt>
      <trkpt lat="50.54433" lon="5.34093">
        <ele>45</ele>
        <time>2019-06-20T08:15:00.000Z</time>
      </trkpt>
      <trkpt lat="50.54422" lon="5.34103">
        <ele>45.200000762939</ele>
        <time>2019-06-20T08:15:01.000Z</time>
      </trkpt>
      <trkpt lat="50.54411" lon="5.34113">
        <ele>45.400001525879</ele>
        <time>2019-06-20T08:15:07.000Z</time>
      </trkpt>
      <trkpt lat="50.54403" lon="5.3412">
        <ele>45.400001525879</ele>
        <time>2019-06-20T08:15:24.000Z</time>
      </trkpt>
      <trkpt lat="50.54393" lon="5.3413">
        <ele>45.599998474121</ele>
        <time>2019-06-20T08:15:55.000Z</time>
      </trkpt>
      <trkpt lat="50.54382" lon="5.3414">
        <ele>45.599998474121</ele>
        <time>2019-06-20T08:15:59.000Z</time>
      </trkpt>
      <trkpt lat="50.54374" lon="5.34146">
        <ele>45.799999237061</ele>
        <time>2019-06-20T08:16:04.000Z</time>
      </trkpt>
      <trkpt lat="50.54348" lon="5.3417">
        <ele>46</ele>
        <time>2019-06-20T08:16:06.000Z</time>
      </trkpt>
      <trkpt lat="50.54332" lon="5.34185">
        <ele>46.200000762939</ele>
        <time>2019-06-20T08:16:13.000Z</time>
      </trkpt>
      <trkpt lat="50.54312" lon="5.34203">
        <ele>46.599998474121</ele>
        <time>2019-06-20T08:16:14.000Z</time>
      </trkpt>
      <trkpt lat="50.54273" lon="5.3424">
        <ele>86.2</ele>
        <time>2019-06-20T08:16:19.000Z</time>
      </trkpt>
      <trkpt lat="50.54244" lon="5.34266">
        <ele>47.400001525879</ele>
        <time>2019-06-20T08:21:33.000Z</time>
      </trkpt>
      <trkpt lat="50.54218" lon="5.3429">
        <ele>47.400001525879</ele>
        <time>2019-06-20T08:25:03.000Z</time>
      </trkpt>
      <trkpt lat="50.54207" lon="5.34301">
        <ele>47.599998474121</ele>
        <time>2019-06-20T08:25:04.000Z</time>
      </trkpt>
      <trkpt lat="50.54194" lon="5.3431">
        <ele>48</ele>
        <time>2019-06-20T08:26:04.000Z</time>
      </trkpt>
      <trkpt lat="50.54177" lon="5.3432">
        <ele>48.400001525879</ele>
        <time>2019-06-20T08:26:07.000Z</time>
      </trkpt>
      <trkpt lat="50.54152" lon="5.34328">
        <ele>48.799999237061</ele>
        <time>2019-06-20T08:26:08.000Z</time>
      </trkpt>
      <trkpt lat="50.54147" lon="5.34329">
        <ele>49.200000762939</ele>
        <time>2019-06-20T08:26:48.000Z</time>
      </trkpt>
      <trkpt lat="50.54137" lon="5.34331">
        <ele>49.400001525879</ele>
        <time>2019-06-20T08:26:51.000Z</time>
      </trkpt>
      <trkpt lat="50.54118" lon="5.34337">
        <ele>50.200000762939</ele>
        <time>2019-06-20T08:26:55.000Z</time>
      </trkpt>
      <trkpt lat="50.54105" lon="5.34342">
        <ele>51.200000762939</ele>
        <time>2019-06-20T08:26:56.000Z</time>
      </trkpt>
      <trkpt lat="50.541" lon="5.34344">
        <ele>51.400001525879</ele>
        <time>2019-06-20T08:27:00.000Z</time>
      </trkpt>
      <trkpt lat="50.54081" lon="5.34352">
        <ele>51.599998474121</ele>
        <time>2019-06-20T08:27:01.000Z</time>
      </trkpt>
      <trkpt lat="50.54071" lon="5.34355">
        <ele>51.799999237061</ele>
        <time>2019-06-20T08:28:14.000Z</time>
      </trkpt>
      <trkpt lat="50.54045" lon="5.34371">
        <ele>52.400001525879</ele>
        <time>2019-06-20T08:28:16.000Z</time>
      </trkpt>
      <trkpt lat="50.54037" lon="5.34386">
        <ele>52.400001525879</ele>
        <time>2019-06-20T08:28:21.000Z</time>
      </trkpt>
      <trkpt lat="50.54032" lon="5.34393">
        <ele>102.5</ele>
        <time>2019-06-20T08:28:22.000Z</time>
      </trkpt>
      <trkpt lat="50.5402" lon="5.34422">
        <ele>108.9</ele>
        <time>2019-06-20T08:28:29.000Z</time>
      </trkpt>
      <trkpt lat="50.54006" lon="5.34459">
        <ele>112.4</ele>
        <time>2019-06-20T08:28:30.000Z</time>
      </trkpt>
      <trkpt lat="50.53991" lon="5.34511">
        <ele>106.8</ele>
        <time>2019-06-20T08:28:36.000Z</time>
      </trkpt>
      <trkpt lat="50.53973" lon="5.34561">
        <ele>109.4</ele>
        <time>2019-06-20T08:28:37.000Z</time>
      </trkpt>
      <trkpt lat="50.53949" lon="5.34627">
        <ele>112.9</ele>
        <time>2019-06-20T08:28:40.000Z</time>
      </trkpt>
      <trkpt lat="50.53922" lon="5.34702">
        <ele>116.3</ele>
        <time>2019-06-20T08:28:45.000Z</time>
      </trkpt>
      <trkpt lat="50.53905" lon="5.34743">
        <ele>112.7</ele>
        <time>2019-06-20T08:28:48.000Z</time>
      </trkpt>
      <trkpt lat="50.53894" lon="5.34771">
        <ele>114.3</ele>
        <time>2019-06-20T08:28:51.000Z</time>
      </trkpt>
      <trkpt lat="50.53881" lon="5.34798">
        <ele>56.400001525879</ele>
        <time>2019-06-20T08:28:58.000Z</time>
      </trkpt>
      <trkpt lat="50.53859" lon="5.34844">
        <ele>57.200000762939</ele>
        <time>2019-06-20T08:29:06.000Z</time>
      </trkpt>
      <trkpt lat="50.53834" lon="5.34895">
        <ele>58.400001525879</ele>
        <time>2019-06-20T08:29:10.000Z</time>
      </trkpt>
      <trkpt lat="50.53821" lon="5.34923">
        <ele>58.799999237061</ele>
        <time>2019-06-20T08:29:13.000Z</time>
      </trkpt>
      <trkpt lat="50.53797" lon="5.3496">
        <ele>59.400001525879</ele>
        <time>2019-06-20T08:29:17.000Z</time>
      </trkpt>
      <trkpt lat="50.53767" lon="5.35003">
        <ele>60.599998474121</ele>
        <time>2019-06-20T08:29:30.000Z</time>
      </trkpt>
      <trkpt lat="50.53759" lon="5.35014">
        <ele>60.799999237061</ele>
        <time>2019-06-20T08:29:33.000Z</time>
      </trkpt>
      <trkpt lat="50.53742" lon="5.35037">
        <ele>61.400001525879</ele>
        <time>2019-06-20T08:29:37.000Z</time>
      </trkpt>
      <trkpt lat="50.53737" lon="5.35043">
        <ele>61.599998474121</ele>
        <time>2019-06-20T08:29:45.000Z</time>
      </trkpt>
      <trkpt lat="50.53732" lon="5.35047">
        <ele>61.799999237061</ele>
        <time>2019-06-20T08:29:50.000Z</time>
      </trkpt>
      <trkpt lat="50.53705" lon="5.35068">
        <ele>108.2</ele>
        <time>2019-06-20T08:29:58.000Z</time>
      </trkpt>
      <trkpt lat="50.53693" lon="5.35078">
        <ele>62.599998474121</ele>
        <time>2019-06-20T08:30:17.000Z</time>
      </trkpt>
      <trkpt lat="50.5367" lon="5.35093">
        <ele>108.2</ele>
        <time>2019-06-20T08:30:22.000Z</time>
      </trkpt>
      <trkpt lat="50.53658" lon="5.35104">
        <ele>108.4</ele>
        <time>2019-06-20T08:30:23.000Z</time>
      </trkpt>
      <trkpt lat="50.53652" lon="5.35107">
        <ele>109</ele>
        <time>2019-06-20T08:30:27.000Z</time>
      </trkpt>
      <trkpt lat="50.53642" lon="5.351">
        <ele>109.1</ele>
        <time>2019-06-20T08:30:31.000Z</time>
      </trkpt>
      <trkpt lat="50.53633" lon="5.35096">
        <ele>109.6</ele>
        <time>2019-06-20T08:30:34.000Z</time>
      </trkpt>
      <trkpt lat="50.53618" lon="5.35078">
        <ele>65</ele>
        <time>2019-06-20T08:30:35.000Z</time>
      </trkpt>
      <trkpt lat="50.53606" lon="5.35062">
        <ele>108.3</ele>
        <time>2019-06-20T08:30:37.000Z</time>
      </trkpt>
      <trkpt lat="50.53598" lon="5.35047">
        <ele>108.2</ele>
        <time>2019-06-20T08:30:41.000Z</time>
      </trkpt>
      <trkpt lat="50.5359" lon="5.35032">
        <ele>108</ele>
        <time>2019-06-20T08:30:43.000Z</time>
      </trkpt>
      <trkpt lat="50.53578" lon="5.35008">
        <ele>111.4</ele>
        <time>2019-06-20T08:30:44.000Z</time>
      </trkpt>
      <trkpt lat="50.53569" lon="5.34986">
        <ele>112</ele>
        <time>2019-06-20T08:30:48.000Z</time>
      </trkpt>
      <trkpt lat="50.53556" lon="5.34963">
        <ele>113.4</ele>
        <time>2019-06-20T08:30:52.000Z</time>
      </trkpt>
      <trkpt lat="50.53542" lon="5.34934">
        <ele>114.4</ele>
        <time>2019-06-20T08:31:02.000Z</time>
      </trkpt>
      <trkpt lat="50.53524" lon="5.34895">
        <ele>115.6</ele>
        <time>2019-06-20T08:31:04.000Z</time>
      </trkpt>
      <trkpt lat="50.5351" lon="5.3486">
        <ele>116.5</ele>
        <time>2019-06-20T08:31:05.000Z</time>
      </trkpt>
      <trkpt lat="50.535" lon="5.34821">
        <ele>127.2</ele>
        <time>2019-06-20T08:31:09.000Z</time>
      </trkpt>
      <trkpt lat="50.53496" lon="5.34796">
        <ele>131.8</ele>
        <time>2019-06-20T08:31:12.000Z</time>
      </trkpt>
      <trkpt lat="50.53491" lon="5.34768">
        <ele>129.5</ele>
        <time>2019-06-20T08:31:16.000Z</time>
      </trkpt>
      <trkpt lat="50.53487" lon="5.34726">
        <ele>131.1</ele>
        <time>2019-06-20T08:31:26.000Z</time>
      </trkpt>
      <trkpt lat="50.53482" lon="5.34681">
        <ele>130.3</ele>
        <time>2019-06-20T08:31:33.000Z</time>
      </trkpt>
      <trkpt lat="50.53477" lon="5.34621">
        <ele>132.3</ele>
        <time>2019-06-20T08:31:35.000Z</time>
      </trkpt>
      <trkpt lat="50.53475" lon="5.34587">
        <ele>130.4</ele>
        <time>2019-06-20T08:31:42.000Z</time>
      </trkpt>
      <trkpt lat="50.53471" lon="5.34531">
        <ele>130.5</ele>
        <time>2019-06-20T08:31:46.000Z</time>
      </trkpt>
      <trkpt lat="50.53466" lon="5.34485">
        <ele>127.5</ele>
        <time>2019-06-20T08:31:49.000Z</time>
      </trkpt>
      <trkpt lat="50.53463" lon="5.34453">
        <ele>79.599998474121</ele>
        <time>2019-06-20T08:31:54.000Z</time>
      </trkpt>
      <trkpt lat="50.53461" lon="5.34445">
        <ele>79.599998474121</ele>
        <time>2019-06-20T08:32:01.000Z</time>
      </trkpt>
      <trkpt lat="50.53458" lon="5.34429">
        <ele>79.599998474121</ele>
        <time>2019-06-20T08:32:03.000Z</time>
      </trkpt>
      <trkpt lat="50.5345" lon="5.34407">
        <ele>79.199996948242</ele>
        <time>2019-06-20T08:32:05.000Z</time>
      </trkpt>
      <trkpt lat="50.53437" lon="5.3437">
        <ele>124.6</ele>
        <time>2019-06-20T08:32:09.000Z</time>
      </trkpt>
      <trkpt lat="50.53426" lon="5.34346">
        <ele>124.9</ele>
        <time>2019-06-20T08:32:13.000Z</time>
      </trkpt>
      <trkpt lat="50.53413" lon="5.34319">
        <ele>77.599998474121</ele>
        <time>2019-06-20T08:32:18.000Z</time>
      </trkpt>
      <trkpt lat="50.5341" lon="5.34312">
        <ele>77.400001525879</ele>
        <time>2019-06-20T08:32:19.000Z</time>
      </trkpt>
      <trkpt lat="50.53406" lon="5.34304">
        <ele>77.199996948242</ele>
        <time>2019-06-20T08:32:26.000Z</time>
      </trkpt>
      <trkpt lat="50.53391" lon="5.34274">
        <ele>76.599998474121</ele>
        <time>2019-06-20T08:32:27.000Z</time>
      </trkpt>
      <trkpt lat="50.5337" lon="5.3423">
        <ele>76.199996948242</ele>
        <time>2019-06-20T08:32:34.000Z</time>
      </trkpt>
      <trkpt lat="50.53363" lon="5.34213">
        <ele>76</ele>
        <time>2019-06-20T08:32:40.000Z</time>
      </trkpt>
      <trkpt lat="50.53352" lon="5.34193">
        <ele>75.599998474121</ele>
        <time>2019-06-20T08:32:48.000Z</time>
      </trkpt>
      <trkpt lat="50.53325" lon="5.34136">
        <ele>135</ele>
        <time>2019-06-20T08:32:57.000Z</time>
      </trkpt>
      <trkpt lat="50.53303" lon="5.341">
        <ele>135.4</ele>
        <time>2019-06-20T08:33:14.000Z</time>
      </trkpt>
      <trkpt lat="50.53262" lon="5.34037">
        <ele>131.3</ele>
        <time>2019-06-20T08:33:16.000Z</time>
      </trkpt>
      <trkpt lat="50.53229" lon="5.33999">
        <ele>130.7</ele>
        <time>2019-06-20T08:33:19.000Z</time>
      </trkpt>
      <trkpt lat="50.53208" lon="5.33977">
        <ele>132.6</ele>
        <time>2019-06-20T08:33:47.000Z</time>
      </trkpt>
      <trkpt lat="50.53188" lon="5.33957">
        <ele>132.2</ele>
        <time>2019-06-20T08:33:54.000Z</time>
      </trkpt>
      <trkpt lat="50.53176" lon="5.33936">
        <ele>129.6</ele>
        <time>2019-06-20T08:33:58.000Z</time>
      </trkpt>
      <trkpt lat="50.53169" lon="5.33907">
        <ele>126</ele>
        <time>2019-06-20T08:34:01.000Z</time>
      </trkpt>
      <trkpt lat="50.53164" lon="5.33867">
        <ele>130</ele>
        <time>2019-06-20T08:34:10.000Z</time>
      </trkpt>
      <trkpt lat="50.5316" lon="5.3384">
        <ele>128.9</ele>
        <time>2019-06-20T08:34:51.000Z</time>
      </trkpt>
      <trkpt lat="50.53153" lon="5.33811">
        <ele>134.6</ele>
        <time>2019-06-20T08:35:09.000Z</time>
      </trkpt>
      <trkpt lat="50.53143" lon="5.33802">
        <ele>78.800003051758</ele>
        <time>2019-06-20T08:35:16.000Z</time>
      </trkpt>
      <trkpt lat="50.53128" lon="5.33795">
        <ele>137.2</ele>
        <time>2019-06-20T08:37:00.000Z</time>
      </trkpt>
      <trkpt lat="50.53106" lon="5.3379">
        <ele>137.7</ele>
        <time>2019-06-20T08:37:02.000Z</time>
      </trkpt>
      <trkpt lat="50.53079" lon="5.33782">
        <ele>138.5</ele>
        <time>2019-06-20T08:37:38.000Z</time>
      </trkpt>
      <trkpt lat="50.53051" lon="5.33774">
        <ele>138.4</ele>
        <time>2019-06-20T08:37:40.000Z</time>
      </trkpt>
      <trkpt lat="50.53032" lon="5.33767">
        <ele>138</ele>
        <time>2019-06-20T08:37:41.000Z</time>
      </trkpt>
      <trkpt lat="50.53006" lon="5.33754">
        <ele>137.3</ele>
        <time>2019-06-20T08:37:45.000Z</time>
      </trkpt>
      <trkpt lat="50.52989" lon="5.33745">
        <ele>138.2</ele>
        <time>2019-06-20T08:37:48.000Z</time>
      </trkpt>
      <trkpt lat="50.52962" lon="5.33721">
        <ele>139.3</ele>
        <time>2019-06-20T08:37:50.000Z</time>
      </trkpt>
      <trkpt lat="50.52942" lon="5.33695">
        <ele>139.6</ele>
        <time>2019-06-20T08:37:56.000Z</time>
      </trkpt>
      <trkpt lat="50.52926" lon="5.33674">
        <ele>138.3</ele>
        <time>2019-06-20T08:38:16.000Z</time>
      </trkpt>
      <trkpt lat="50.52896" lon="5.33654">
        <ele>140.5</ele>
        <time>2019-06-20T08:38:18.000Z</time>
      </trkpt>
      <trkpt lat="50.52857" lon="5.33634">
        <ele>141</ele>
        <time>2019-06-20T08:38:20.000Z</time>
      </trkpt>
      <trkpt lat="50.52838" lon="5.33622">
        <ele>141.8</ele>
        <time>2019-06-20T08:38:22.000Z</time>
      </trkpt>
      <trkpt lat="50.52808" lon="5.33602">
        <ele>141.3</ele>
        <time>2019-06-20T08:38:23.000Z</time>
      </trkpt>
      <trkpt lat="50.52797" lon="5.33599">
        <ele>141.2</ele>
        <time>2019-06-20T08:38:25.000Z</time>
      </trkpt>
      <trkpt lat="50.52781" lon="5.33597">
        <ele>85.599998474121</ele>
        <time>2019-06-20T08:38:27.000Z</time>
      </trkpt>
      <trkpt lat="50.52735" lon="5.33616">
        <ele>85.800003051758</ele>
        <time>2019-06-20T08:38:30.000Z</time>
      </trkpt>
      <trkpt lat="50.52718" lon="5.33623">
        <ele>86</ele>
        <time>2019-06-20T08:38:32.000Z</time>
      </trkpt>
      <trkpt lat="50.52678" lon="5.33641">
        <ele>142.3</ele>
        <time>2019-06-20T08:38:34.000Z</time>
      </trkpt>
      <trkpt lat="50.52665" lon="5.33648">
        <ele>147</ele>
        <time>2019-06-20T08:38:36.000Z</time>
      </trkpt>
      <trkpt lat="50.52642" lon="5.33659">
        <ele>87.800003051758</ele>
        <time>2019-06-20T08:38:37.000Z</time>
      </trkpt>
      <trkpt lat="50.52619" lon="5.33685">
        <ele>150.1</ele>
        <time>2019-06-20T08:38:39.000Z</time>
      </trkpt>
      <trkpt lat="50.52608" lon="5.33706">
        <ele>150.5</ele>
        <time>2019-06-20T08:38:42.000Z</time>
      </trkpt>
      <trkpt lat="50.5259" lon="5.33746">
        <ele>151.4</ele>
        <time>2019-06-20T08:38:43.000Z</time>
      </trkpt>
      <trkpt lat="50.52573" lon="5.33788">
        <ele>154.9</ele>
        <time>2019-06-20T08:40:01.000Z</time>
      </trkpt>
      <trkpt lat="50.52567" lon="5.33802">
        <ele>154.5</ele>
        <time>2019-06-20T08:40:03.000Z</time>
      </trkpt>
      <trkpt lat="50.52556" lon="5.33832">
        <ele>153.8</ele>
        <time>2019-06-20T08:40:09.000Z</time>
      </trkpt>
      <trkpt lat="50.52549" lon="5.33851">
        <ele>150.6</ele>
        <time>2019-06-20T08:40:12.000Z</time>
      </trkpt>
      <trkpt lat="50.52535" lon="5.33873">
        <ele>150.8</ele>
        <time>2019-06-20T08:40:34.000Z</time>
      </trkpt>
      <trkpt lat="50.52511" lon="5.33886">
        <ele>150.4</ele>
        <time>2019-06-20T08:40:35.000Z</time>
      </trkpt>
      <trkpt lat="50.52493" lon="5.33898">
        <ele>152</ele>
        <time>2019-06-20T08:42:29.000Z</time>
      </trkpt>
      <trkpt lat="50.52467" lon="5.33914">
        <ele>153.1</ele>
        <time>2019-06-20T08:43:04.000Z</time>
      </trkpt>
      <trkpt lat="50.5243" lon="5.33937">
        <ele>150.3</ele>
        <time>2019-06-20T08:43:10.000Z</time>
      </trkpt>
      <trkpt lat="50.52386" lon="5.33963">
        <ele>155.3</ele>
        <time>2019-06-20T08:43:18.000Z</time>
      </trkpt>
      <trkpt lat="50.52356" lon="5.33981">
        <ele>156.5</ele>
        <time>2019-06-20T08:43:33.000Z</time>
      </trkpt>
      <trkpt lat="50.5234" lon="5.33992">
        <ele>156.9</ele>
        <time>2019-06-20T08:43:41.000Z</time>
      </trkpt>
      <trkpt lat="50.52314" lon="5.34007">
        <ele>158.4</ele>
        <time>2019-06-20T08:45:16.000Z</time>
      </trkpt>
      <trkpt lat="50.52293" lon="5.3402">
        <ele>159.7</ele>
        <time>2019-06-20T08:45:25.000Z</time>
      </trkpt>
      <trkpt lat="50.52264" lon="5.34036">
        <ele>100.59999847412</ele>
        <time>2019-06-20T08:45:32.000Z</time>
      </trkpt>
      <trkpt lat="50.52253" lon="5.34043">
        <ele>100.80000305176</ele>
        <time>2019-06-20T08:45:48.000Z</time>
      </trkpt>
      <trkpt lat="50.52232" lon="5.34054">
        <ele>101</ele>
        <time>2019-06-20T08:45:49.000Z</time>
      </trkpt>
      <trkpt lat="50.52227" lon="5.34056">
        <ele>101.19999694824</ele>
        <time>2019-06-20T08:45:55.000Z</time>
      </trkpt>
      <trkpt lat="50.52197" lon="5.34073">
        <ele>101.59999847412</ele>
        <time>2019-06-20T08:45:56.000Z</time>
      </trkpt>
      <trkpt lat="50.52171" lon="5.34093">
        <ele>152.9</ele>
        <time>2019-06-20T08:46:00.000Z</time>
      </trkpt>
      <trkpt lat="50.52158" lon="5.34105">
        <ele>152.4</ele>
        <time>2019-06-20T08:46:02.000Z</time>
      </trkpt>
      <trkpt lat="50.52141" lon="5.34119">
        <ele>152.7</ele>
        <time>2019-06-20T08:46:03.000Z</time>
      </trkpt>
      <trkpt lat="50.52127" lon="5.34136">
        <ele>153.3</ele>
        <time>2019-06-20T08:46:04.000Z</time>
      </trkpt>
      <trkpt lat="50.52116" lon="5.34149">
        <ele>101.80000305176</ele>
        <time>2019-06-20T08:46:05.000Z</time>
      </trkpt>
      <trkpt lat="50.52107" lon="5.34157">
        <ele>154.9</ele>
        <time>2019-06-20T08:46:06.000Z</time>
      </trkpt>
      <trkpt lat="50.52098" lon="5.3416">
        <ele>156.1</ele>
        <time>2019-06-20T08:46:14.000Z</time>
      </trkpt>
      <trkpt lat="50.52084" lon="5.3416">
        <ele>157.4</ele>
        <time>2019-06-20T08:46:21.000Z</time>
      </trkpt>
      <trkpt lat="50.52069" lon="5.34143">
        <ele>161.1</ele>
        <time>2019-06-20T08:46:23.000Z</time>
      </trkpt>
      <trkpt lat="50.52055" lon="5.34124">
        <ele>161.1</ele>
        <time>2019-06-20T08:46:26.000Z</time>
      </trkpt>
      <trkpt lat="50.52039" lon="5.34098">
        <ele>160.6</ele>
        <time>2019-06-20T08:46:28.000Z</time>
      </trkpt>
      <trkpt lat="50.52014" lon="5.34061">
        <ele>155.6</ele>
        <time>2019-06-20T08:46:31.000Z</time>
      </trkpt>
      <trkpt lat="50.51996" lon="5.34034">
        <ele>161.3</ele>
        <time>2019-06-20T08:50:46.000Z</time>
      </trkpt>
      <trkpt lat="50.51974" lon="5.34001">
        <ele>104.40000152588</ele>
        <time>2019-06-20T08:50:48.000Z</time>
      </trkpt>
      <trkpt lat="50.51958" lon="5.33978">
        <ele>105</ele>
        <time>2019-06-20T08:50:51.000Z</time>
      </trkpt>
      <trkpt lat="50.51938" lon="5.33948">
        <ele>105.80000305176</ele>
        <time>2019-06-20T08:50:56.000Z</time>
      </trkpt>
      <trkpt lat="50.5193" lon="5.33936">
        <ele>106</ele>
        <time>2019-06-20T08:50:58.000Z</time>
      </trkpt>
      <trkpt lat="50.51901" lon="5.33894">
        <ele>107</ele>
        <time>2019-06-20T08:51:04.000Z</time>
      </trkpt>
      <trkpt lat="50.51897" lon="5.33888">
        <ele>107.19999694824</ele>
        <time>2019-06-20T08:51:08.000Z</time>
      </trkpt>
      <trkpt lat="50.51877" lon="5.3386">
        <ele>108</ele>
        <time>2019-06-20T08:51:13.000Z</time>
      </trkpt>
      <trkpt lat="50.51854" lon="5.33826">
        <ele>163.2</ele>
        <time>2019-06-20T08:51:18.000Z</time>
      </trkpt>
      <trkpt lat="50.5183" lon="5.33792">
        <ele>170.7</ele>
        <time>2019-06-20T08:51:25.000Z</time>
      </trkpt>
      <trkpt lat="50.51806" lon="5.3376">
        <ele>170.6</ele>
        <time>2019-06-20T08:51:29.000Z</time>
      </trkpt>
      <trkpt lat="50.51786" lon="5.33735">
        <ele>168.8</ele>
        <time>2019-06-20T08:51:34.000Z</time>
      </trkpt>
      <trkpt lat="50.51768" lon="5.33711">
        <ele>168.8</ele>
        <time>2019-06-20T08:51:42.000Z</time>
      </trkpt>
      <trkpt lat="50.51756" lon="5.33694">
        <ele>167.8</ele>
        <time>2019-06-20T08:51:50.000Z</time>
      </trkpt>
      <trkpt lat="50.51738" lon="5.33664">
        <ele>168</ele>
        <time>2019-06-20T08:52:01.000Z</time>
      </trkpt>
      <trkpt lat="50.51729" lon="5.33649">
        <ele>169.3</ele>
        <time>2019-06-20T08:52:06.000Z</time>
      </trkpt>
      <trkpt lat="50.51716" lon="5.33627">
        <ele>169.7</ele>
        <time>2019-06-20T08:52:17.000Z</time>
      </trkpt>
      <trkpt lat="50.51695" lon="5.33599">
        <ele>169.6</ele>
        <time>2019-06-20T08:52:18.000Z</time>
      </trkpt>
      <trkpt lat="50.51684" lon="5.33581">
        <ele>167.7</ele>
        <time>2019-06-20T08:52:21.000Z</time>
      </trkpt>
      <trkpt lat="50.5167" lon="5.33568">
        <ele>168</ele>
        <time>2019-06-20T08:52:25.000Z</time>
      </trkpt>
      <trkpt lat="50.51655" lon="5.33561">
        <ele>169.6</ele>
        <time>2019-06-20T08:52:33.000Z</time>
      </trkpt>
      <trkpt lat="50.51644" lon="5.33562">
        <ele>169.7</ele>
        <time>2019-06-20T08:52:38.000Z</time>
      </trkpt>
      <trkpt lat="50.51625" lon="5.33565">
        <ele>169.9</ele>
        <time>2019-06-20T08:52:42.000Z</time>
      </trkpt>
      <trkpt lat="50.51612" lon="5.33582">
        <ele>169.9</ele>
        <time>2019-06-20T08:53:12.000Z</time>
      </trkpt>
      <trkpt lat="50.51602" lon="5.33608">
        <ele>172.8</ele>
        <time>2019-06-20T08:53:16.000Z</time>
      </trkpt>
      <trkpt lat="50.51596" lon="5.33639">
        <ele>173.8</ele>
        <time>2019-06-20T08:53:19.000Z</time>
      </trkpt>
      <trkpt lat="50.51592" lon="5.33656">
        <ele>173.7</ele>
        <time>2019-06-20T08:53:24.000Z</time>
      </trkpt>
      <trkpt lat="50.51579" lon="5.33688">
        <ele>176.6</ele>
        <time>2019-06-20T08:53:27.000Z</time>
      </trkpt>
      <trkpt lat="50.51566" lon="5.33717">
        <ele>178.9</ele>
        <time>2019-06-20T08:53:30.000Z</time>
      </trkpt>
      <trkpt lat="50.51555" lon="5.33742">
        <ele>179.5</ele>
        <time>2019-06-20T08:53:35.000Z</time>
      </trkpt>
      <trkpt lat="50.5154" lon="5.3377">
        <ele>182.2</ele>
        <time>2019-06-20T08:53:43.000Z</time>
      </trkpt>
      <trkpt lat="50.51527" lon="5.33796">
        <ele>182</ele>
        <time>2019-06-20T08:53:45.000Z</time>
      </trkpt>
      <trkpt lat="50.51515" lon="5.33817">
        <ele>180.2</ele>
        <time>2019-06-20T08:53:52.000Z</time>
      </trkpt>
      <trkpt lat="50.51504" lon="5.33836">
        <ele>178.6</ele>
        <time>2019-06-20T08:53:54.000Z</time>
      </trkpt>
      <trkpt lat="50.51492" lon="5.33857">
        <ele>179.3</ele>
        <time>2019-06-20T08:54:01.000Z</time>
      </trkpt>
      <trkpt lat="50.51479" lon="5.3387">
        <ele>180.7</ele>
        <time>2019-06-20T08:54:06.000Z</time>
      </trkpt>
      <trkpt lat="50.51468" lon="5.33882">
        <ele>181.3</ele>
        <time>2019-06-20T08:54:07.000Z</time>
      </trkpt>
      <trkpt lat="50.51451" lon="5.33896">
        <ele>181.1</ele>
        <time>2019-06-20T08:54:13.000Z</time>
      </trkpt>
      <trkpt lat="50.51435" lon="5.33909">
        <ele>180.4</ele>
        <time>2019-06-20T08:54:21.000Z</time>
      </trkpt>
      <trkpt lat="50.51421" lon="5.33918">
        <ele>181.4</ele>
        <time>2019-06-20T08:54:26.000Z</time>
      </trkpt>
      <trkpt lat="50.514" lon="5.33929">
        <ele>181.9</ele>
        <time>2019-06-20T08:54:27.000Z</time>
      </trkpt>
      <trkpt lat="50.51385" lon="5.33921">
        <ele>182.5</ele>
        <time>2019-06-20T08:54:35.000Z</time>
      </trkpt>
      <trkpt lat="50.51362" lon="5.33911">
        <ele>182</ele>
        <time>2019-06-20T08:54:36.000Z</time>
      </trkpt>
      <trkpt lat="50.51339" lon="5.33906">
        <ele>183</ele>
        <time>2019-06-20T08:54:46.000Z</time>
      </trkpt>
      <trkpt lat="50.51323" lon="5.33902">
        <ele>186.8</ele>
        <time>2019-06-20T08:54:54.000Z</time>
      </trkpt>
      <trkpt lat="50.51301" lon="5.33901">
        <ele>188.5</ele>
        <time>2019-06-20T08:54:57.000Z</time>
      </trkpt>
      <trkpt lat="50.51278" lon="5.339">
        <ele>190.1</ele>
        <time>2019-06-20T08:55:00.000Z</time>
      </trkpt>
      <trkpt lat="50.51249" lon="5.33901">
        <ele>195</ele>
        <time>2019-06-20T08:55:08.000Z</time>
      </trkpt>
      <trkpt lat="50.51226" lon="5.339">
        <ele>196.4</ele>
        <time>2019-06-20T08:55:09.000Z</time>
      </trkpt>
      <trkpt lat="50.51196" lon="5.339">
        <ele>197.8</ele>
        <time>2019-06-20T08:55:17.000Z</time>
      </trkpt>
      <trkpt lat="50.51173" lon="5.339">
        <ele>198.3</ele>
        <time>2019-06-20T08:55:18.000Z</time>
      </trkpt>
      <trkpt lat="50.51161" lon="5.339">
        <ele>201.4</ele>
        <time>2019-06-20T08:55:21.000Z</time>
      </trkpt>
      <trkpt lat="50.51134" lon="5.33899">
        <ele>203.2</ele>
        <time>2019-06-20T08:55:25.000Z</time>
      </trkpt>
      <trkpt lat="50.51097" lon="5.33902">
        <ele>204</ele>
        <time>2019-06-20T08:55:32.000Z</time>
      </trkpt>
      <trkpt lat="50.51061" lon="5.33903">
        <ele>204.6</ele>
        <time>2019-06-20T08:55:33.000Z</time>
      </trkpt>
      <trkpt lat="50.51033" lon="5.33911">
        <ele>203.9</ele>
        <time>2019-06-20T08:55:38.000Z</time>
      </trkpt>
      <trkpt lat="50.51012" lon="5.33913">
        <ele>202.2</ele>
        <time>2019-06-20T08:55:41.000Z</time>
      </trkpt>
      <trkpt lat="50.50993" lon="5.33913">
        <ele>200.8</ele>
        <time>2019-06-20T08:55:49.000Z</time>
      </trkpt>
      <trkpt lat="50.50975" lon="5.33908">
        <ele>201.8</ele>
        <time>2019-06-20T08:55:57.000Z</time>
      </trkpt>
      <trkpt lat="50.50965" lon="5.33902">
        <ele>202.1</ele>
        <time>2019-06-20T08:55:58.000Z</time>
      </trkpt>
      <trkpt lat="50.50951" lon="5.33887">
        <ele>202.4</ele>
        <time>2019-06-20T08:56:06.000Z</time>
      </trkpt>
      <trkpt lat="50.50942" lon="5.33873">
        <ele>202.6</ele>
        <time>2019-06-20T08:56:08.000Z</time>
      </trkpt>
      <trkpt lat="50.5093" lon="5.33849">
        <ele>202.6</ele>
        <time>2019-06-20T08:56:16.000Z</time>
      </trkpt>
      <trkpt lat="50.50917" lon="5.33815">
        <ele>206</ele>
        <time>2019-06-20T08:56:17.000Z</time>
      </trkpt>
      <trkpt lat="50.50907" lon="5.33787">
        <ele>203.7</ele>
        <time>2019-06-20T08:56:22.000Z</time>
      </trkpt>
      <trkpt lat="50.50895" lon="5.33759">
        <ele>204.7</ele>
        <time>2019-06-20T08:56:25.000Z</time>
      </trkpt>
      <trkpt lat="50.50875" lon="5.33717">
        <ele>207</ele>
        <time>2019-06-20T08:56:31.000Z</time>
      </trkpt>
      <trkpt lat="50.50864" lon="5.33691">
        <ele>206.5</ele>
        <time>2019-06-20T08:56:35.000Z</time>
      </trkpt>
      <trkpt lat="50.50852" lon="5.33664">
        <ele>207.4</ele>
        <time>2019-06-20T08:56:36.000Z</time>
      </trkpt>
      <trkpt lat="50.50845" lon="5.33646">
        <ele>208.3</ele>
        <time>2019-06-20T08:56:39.000Z</time>
      </trkpt>
      <trkpt lat="50.50838" lon="5.33629">
        <ele>210</ele>
        <time>2019-06-20T08:56:41.000Z</time>
      </trkpt>
      <trkpt lat="50.50827" lon="5.33599">
        <ele>203.7</ele>
        <time>2019-06-20T08:56:43.000Z</time>
      </trkpt>
      <trkpt lat="50.50818" lon="5.33578">
        <ele>205.3</ele>
        <time>2019-06-20T08:56:47.000Z</time>
      </trkpt>
      <trkpt lat="50.50812" lon="5.3356">
        <ele>204.6</ele>
        <time>2019-06-20T08:56:50.000Z</time>
      </trkpt>
      <trkpt lat="50.50806" lon="5.33541">
        <ele>204.6</ele>
        <time>2019-06-20T08:56:54.000Z</time>
      </trkpt>
      <trkpt lat="50.50796" lon="5.33507">
        <ele>205</ele>
        <time>2019-06-20T08:57:00.000Z</time>
      </trkpt>
      <trkpt lat="50.50783" lon="5.3346">
        <ele>208.4</ele>
        <time>2019-06-20T08:57:06.000Z</time>
      </trkpt>
      <trkpt lat="50.50775" lon="5.3343">
        <ele>208</ele>
        <time>2019-06-20T08:57:10.000Z</time>
      </trkpt>
      <trkpt lat="50.50767" lon="5.33405">
        <ele>210.6</ele>
        <time>2019-06-20T08:57:11.000Z</time>
      </trkpt>
      <trkpt lat="50.50755" lon="5.33367">
        <ele>161.60000610352</ele>
        <time>2019-06-20T08:57:16.000Z</time>
      </trkpt>
      <trkpt lat="50.50746" lon="5.33346">
        <ele>211.1</ele>
        <time>2019-06-20T08:57:19.000Z</time>
      </trkpt>
      <trkpt lat="50.50738" lon="5.3332">
        <ele>213.4</ele>
        <time>2019-06-20T08:57:22.000Z</time>
      </trkpt>
      <trkpt lat="50.50731" lon="5.33307">
        <ele>214.1</ele>
        <time>2019-06-20T08:57:26.000Z</time>
      </trkpt>
      <trkpt lat="50.50716" lon="5.33284">
        <ele>214.8</ele>
        <time>2019-06-20T08:57:27.000Z</time>
      </trkpt>
      <trkpt lat="50.50704" lon="5.33273">
        <ele>214.5</ele>
        <time>2019-06-20T08:57:38.000Z</time>
      </trkpt>
      <trkpt lat="50.50677" lon="5.33251">
        <ele>212.3</ele>
        <time>2019-06-20T08:57:39.000Z</time>
      </trkpt>
      <trkpt lat="50.50653" lon="5.33236">
        <ele>213.5</ele>
        <time>2019-06-20T08:57:41.000Z</time>
      </trkpt>
      <trkpt lat="50.5064" lon="5.33224">
        <ele>214.7</ele>
        <time>2019-06-20T08:57:48.000Z</time>
      </trkpt>
      <trkpt lat="50.50623" lon="5.33208">
        <ele>215.6</ele>
        <time>2019-06-20T08:57:55.000Z</time>
      </trkpt>
      <trkpt lat="50.50609" lon="5.33196">
        <ele>215.9</ele>
        <time>2019-06-20T08:58:12.000Z</time>
      </trkpt>
      <trkpt lat="50.50591" lon="5.33146">
        <ele>216.8</ele>
        <time>2019-06-20T08:58:20.000Z</time>
      </trkpt>
      <trkpt lat="50.5058" lon="5.33108">
        <ele>219.4</ele>
        <time>2019-06-20T08:58:28.000Z</time>
      </trkpt>
      <trkpt lat="50.50557" lon="5.33038">
        <ele>220.6</ele>
        <time>2019-06-20T08:58:49.000Z</time>
      </trkpt>
      <trkpt lat="50.50539" lon="5.32981">
        <ele>221.9</ele>
        <time>2019-06-20T08:58:52.000Z</time>
      </trkpt>
      <trkpt lat="50.50525" lon="5.3294">
        <ele>222.6</ele>
        <time>2019-06-20T08:58:58.000Z</time>
      </trkpt>
      <trkpt lat="50.50505" lon="5.32879">
        <ele>223.4</ele>
        <time>2019-06-20T08:59:04.000Z</time>
      </trkpt>
      <trkpt lat="50.50497" lon="5.32845">
        <ele>225.4</ele>
        <time>2019-06-20T08:59:09.000Z</time>
      </trkpt>
      <trkpt lat="50.50495" lon="5.32806">
        <ele>224.7</ele>
        <time>2019-06-20T08:59:14.000Z</time>
      </trkpt>
      <trkpt lat="50.50494" lon="5.32775">
        <ele>224</ele>
        <time>2019-06-20T08:59:17.000Z</time>
      </trkpt>
      <trkpt lat="50.50498" lon="5.32741">
        <ele>222.4</ele>
        <time>2019-06-20T08:59:20.000Z</time>
      </trkpt>
      <trkpt lat="50.50501" lon="5.32709">
        <ele>222</ele>
        <time>2019-06-20T08:59:21.000Z</time>
      </trkpt>
      <trkpt lat="50.50505" lon="5.32683">
        <ele>221.4</ele>
        <time>2019-06-20T08:59:23.000Z</time>
      </trkpt>
      <trkpt lat="50.50514" lon="5.32653">
        <ele>222</ele>
        <time>2019-06-20T08:59:24.000Z</time>
      </trkpt>
      <trkpt lat="50.50518" lon="5.3263">
        <ele>222.1</ele>
        <time>2019-06-20T08:59:25.000Z</time>
      </trkpt>
      <trkpt lat="50.50523" lon="5.326">
        <ele>222.2</ele>
        <time>2019-06-20T09:02:13.000Z</time>
      </trkpt>
      <trkpt lat="50.50532" lon="5.32554">
        <ele>224.5</ele>
        <time>2019-06-20T09:02:45.000Z</time>
      </trkpt>
      <trkpt lat="50.5054" lon="5.32519">
        <ele>225.5</ele>
        <time>2019-06-20T09:02:48.000Z</time>
      </trkpt>
      <trkpt lat="50.50548" lon="5.3249">
        <ele>228.4</ele>
        <time>2019-06-20T09:03:08.000Z</time>
      </trkpt>
      <trkpt lat="50.50556" lon="5.32462">
        <ele>229.1</ele>
        <time>2019-06-20T09:03:15.000Z</time>
      </trkpt>
      <trkpt lat="50.50547" lon="5.32438">
        <ele>229.6</ele>
        <time>2019-06-20T09:04:04.000Z</time>
      </trkpt>
      <trkpt lat="50.50543" lon="5.32418">
        <ele>229.8</ele>
        <time>2019-06-20T09:04:11.000Z</time>
      </trkpt>
      <trkpt lat="50.50539" lon="5.32397">
        <ele>231.9</ele>
        <time>2019-06-20T09:04:12.000Z</time>
      </trkpt>
      <trkpt lat="50.50534" lon="5.32369">
        <ele>232.2</ele>
        <time>2019-06-20T09:04:17.000Z</time>
      </trkpt>
      <trkpt lat="50.50529" lon="5.32338">
        <ele>232.4</ele>
        <time>2019-06-20T09:04:22.000Z</time>
      </trkpt>
      <trkpt lat="50.50523" lon="5.32303">
        <ele>233.9</ele>
        <time>2019-06-20T09:04:28.000Z</time>
      </trkpt>
      <trkpt lat="50.50515" lon="5.32265">
        <ele>234.5</ele>
        <time>2019-06-20T09:04:30.000Z</time>
      </trkpt>
      <trkpt lat="50.50506" lon="5.32211">
        <ele>236.1</ele>
        <time>2019-06-20T09:04:32.000Z</time>
      </trkpt>
      <trkpt lat="50.50494" lon="5.32147">
        <ele>236.7</ele>
        <time>2019-06-20T09:04:37.000Z</time>
      </trkpt>
      <trkpt lat="50.50488" lon="5.32112">
        <ele>237.1</ele>
        <time>2019-06-20T09:04:45.000Z</time>
      </trkpt>
      <trkpt lat="50.50481" lon="5.32073">
        <ele>238.8</ele>
        <time>2019-06-20T09:04:47.000Z</time>
      </trkpt>
      <trkpt lat="50.50473" lon="5.32032">
        <ele>239.1</ele>
        <time>2019-06-20T09:04:54.000Z</time>
      </trkpt>
      <trkpt lat="50.50463" lon="5.3198">
        <ele>197.80000305176</ele>
        <time>2019-06-20T09:05:02.000Z</time>
      </trkpt>
      <trkpt lat="50.50461" lon="5.31973">
        <ele>197.80000305176</ele>
        <time>2019-06-20T09:05:11.000Z</time>
      </trkpt>
      <trkpt lat="50.50447" lon="5.3193">
        <ele>240.7</ele>
        <time>2019-06-20T09:05:59.000Z</time>
      </trkpt>
      <trkpt lat="50.50438" lon="5.31895">
        <ele>241.6</ele>
        <time>2019-06-20T09:06:13.000Z</time>
      </trkpt>
      <trkpt lat="50.50423" lon="5.3184">
        <ele>241.4</ele>
        <time>2019-06-20T09:06:14.000Z</time>
      </trkpt>
      <trkpt lat="50.50402" lon="5.31769">
        <ele>241.6</ele>
        <time>2019-06-20T09:06:17.000Z</time>
      </trkpt>
      <trkpt lat="50.50379" lon="5.31687">
        <ele>243</ele>
        <time>2019-06-20T09:06:29.000Z</time>
      </trkpt>
      <trkpt lat="50.5037" lon="5.31652">
        <ele>243.8</ele>
        <time>2019-06-20T09:06:31.000Z</time>
      </trkpt>
      <trkpt lat="50.50361" lon="5.31618">
        <ele>244</ele>
        <time>2019-06-20T09:06:34.000Z</time>
      </trkpt>
      <trkpt lat="50.50343" lon="5.31556">
        <ele>244.2</ele>
        <time>2019-06-20T09:06:39.000Z</time>
      </trkpt>
      <trkpt lat="50.50329" lon="5.315">
        <ele>203.60000610352</ele>
        <time>2019-06-20T09:07:30.000Z</time>
      </trkpt>
      <trkpt lat="50.50324" lon="5.31484">
        <ele>203.80000305176</ele>
        <time>2019-06-20T09:07:51.000Z</time>
      </trkpt>
      <trkpt lat="50.5032" lon="5.31481">
        <ele>203.80000305176</ele>
        <time>2019-06-20T09:07:52.000Z</time>
      </trkpt>
      <trkpt lat="50.50312" lon="5.31483">
        <ele>243.3</ele>
        <time>2019-06-20T09:07:54.000Z</time>
      </trkpt>
      <trkpt lat="50.50308" lon="5.31492">
        <ele>243</ele>
        <time>2019-06-20T09:07:55.000Z</time>
      </trkpt>
      <trkpt lat="50.50305" lon="5.31502">
        <ele>243.1</ele>
        <time>2019-06-20T09:07:56.000Z</time>
      </trkpt>
      <trkpt lat="50.50292" lon="5.31513">
        <ele>242.8</ele>
        <time>2019-06-20T09:07:59.000Z</time>
      </trkpt>
      <trkpt lat="50.50259" lon="5.31527">
        <ele>242.4</ele>
        <time>2019-06-20T09:08:00.000Z</time>
      </trkpt>
      <trkpt lat="50.50231" lon="5.31538">
        <ele>242</ele>
        <time>2019-06-20T09:08:02.000Z</time>
      </trkpt>
      <trkpt lat="50.50208" lon="5.31556">
        <ele>241.7</ele>
        <time>2019-06-20T09:08:03.000Z</time>
      </trkpt>
      <trkpt lat="50.50179" lon="5.31578">
        <ele>241.9</ele>
        <time>2019-06-20T09:08:04.000Z</time>
      </trkpt>
      <trkpt lat="50.50161" lon="5.31591">
        <ele>242.5</ele>
        <time>2019-06-20T09:08:05.000Z</time>
      </trkpt>
      <trkpt lat="50.50138" lon="5.31607">
        <ele>243.4</ele>
        <time>2019-06-20T09:08:07.000Z</time>
      </trkpt>
      <trkpt lat="50.50113" lon="5.31624">
        <ele>243.8</ele>
        <time>2019-06-20T09:08:08.000Z</time>
      </trkpt>
      <trkpt lat="50.50088" lon="5.31641">
        <ele>201.80000305176</ele>
        <time>2019-06-20T09:08:09.000Z</time>
      </trkpt>
      <trkpt lat="50.50072" lon="5.31652">
        <ele>203</ele>
        <time>2019-06-20T09:08:10.000Z</time>
      </trkpt>
      <trkpt lat="50.50052" lon="5.31665">
        <ele>204.19999694824</ele>
        <time>2019-06-20T09:08:13.000Z</time>
      </trkpt>
      <trkpt lat="50.50048" lon="5.31668">
        <ele>204.39999389648</ele>
        <time>2019-06-20T09:08:15.000Z</time>
      </trkpt>
      <trkpt lat="50.50027" lon="5.31682">
        <ele>205.19999694824</ele>
        <time>2019-06-20T09:08:16.000Z</time>
      </trkpt>
      <trkpt lat="50.50022" lon="5.31683">
        <ele>205.19999694824</ele>
        <time>2019-06-20T09:08:18.000Z</time>
      </trkpt>
      <trkpt lat="50.50017" lon="5.31685">
        <ele>247.2</ele>
        <time>2019-06-20T09:08:20.000Z</time>
      </trkpt>
      <trkpt lat="50.50009" lon="5.31679">
        <ele>247.4</ele>
        <time>2019-06-20T09:08:21.000Z</time>
      </trkpt>
      <trkpt lat="50.50003" lon="5.31668">
        <ele>247.8</ele>
        <time>2019-06-20T09:08:22.000Z</time>
      </trkpt>
      <trkpt lat="50.4999" lon="5.31619">
        <ele>245.9</ele>
        <time>2019-06-20T09:08:24.000Z</time>
      </trkpt>
      <trkpt lat="50.49971" lon="5.31536">
        <ele>245</ele>
        <time>2019-06-20T09:08:26.000Z</time>
      </trkpt>
      <trkpt lat="50.49964" lon="5.31505">
        <ele>245</ele>
        <time>2019-06-20T09:08:27.000Z</time>
      </trkpt>
      <trkpt lat="50.49952" lon="5.31458">
        <ele>244.8</ele>
        <time>2019-06-20T09:08:29.000Z</time>
      </trkpt>
      <trkpt lat="50.4994" lon="5.31409">
        <ele>244.7</ele>
        <time>2019-06-20T09:08:32.000Z</time>
      </trkpt>
      <trkpt lat="50.49931" lon="5.31371">
        <ele>244.7</ele>
        <time>2019-06-20T09:08:34.000Z</time>
      </trkpt>
      <trkpt lat="50.49923" lon="5.31338">
        <ele>244.9</ele>
        <time>2019-06-20T09:08:35.000Z</time>
      </trkpt>
      <trkpt lat="50.49914" lon="5.31295">
        <ele>245</ele>
        <time>2019-06-20T09:08:39.000Z</time>
      </trkpt>
      <trkpt lat="50.49904" lon="5.31262">
        <ele>245.4</ele>
        <time>2019-06-20T09:08:40.000Z</time>
      </trkpt>
      <trkpt lat="50.49893" lon="5.31226">
        <ele>245.6</ele>
        <time>2019-06-20T09:08:43.000Z</time>
      </trkpt>
      <trkpt lat="50.49882" lon="5.31198">
        <ele>245.5</ele>
        <time>2019-06-20T09:08:45.000Z</time>
      </trkpt>
      <trkpt lat="50.49875" lon="5.31184">
        <ele>245.5</ele>
        <time>2019-06-20T09:08:49.000Z</time>
      </trkpt>
      <trkpt lat="50.49867" lon="5.31166">
        <ele>245</ele>
        <time>2019-06-20T09:08:53.000Z</time>
      </trkpt>
      <trkpt lat="50.49857" lon="5.31185">
        <ele>204.60000610352</ele>
        <time>2019-06-20T09:08:56.000Z</time>
      </trkpt>
      <trkpt lat="50.49851" lon="5.31197">
        <ele>204.60000610352</ele>
        <time>2019-06-20T09:08:57.000Z</time>
      </trkpt>
      <trkpt lat="50.49832" lon="5.31233">
        <ele>204.39999389648</ele>
        <time>2019-06-20T09:09:00.000Z</time>
      </trkpt>
      <trkpt lat="50.49828" lon="5.31242">
        <ele>204.39999389648</ele>
        <time>2019-06-20T09:09:02.000Z</time>
      </trkpt>
      <trkpt lat="50.49809" lon="5.31279">
        <ele>243</ele>
        <time>2019-06-20T09:09:03.000Z</time>
      </trkpt>
      <trkpt lat="50.49791" lon="5.31305">
        <ele>203.39999389648</ele>
        <time>2019-06-20T09:09:06.000Z</time>
      </trkpt>
      <trkpt lat="50.49785" lon="5.31315">
        <ele>203.39999389648</ele>
        <time>2019-06-20T09:09:08.000Z</time>
      </trkpt>
      <trkpt lat="50.49749" lon="5.31376">
        <ele>202</ele>
        <time>2019-06-20T09:09:10.000Z</time>
      </trkpt>
      <trkpt lat="50.49743" lon="5.31387">
        <ele>201.60000610352</ele>
        <time>2019-06-20T09:09:13.000Z</time>
      </trkpt>
      <trkpt lat="50.49723" lon="5.31418">
        <ele>200.80000305176</ele>
        <time>2019-06-20T09:09:16.000Z</time>
      </trkpt>
      <trkpt lat="50.49703" lon="5.31448">
        <ele>199.60000610352</ele>
        <time>2019-06-20T09:09:18.000Z</time>
      </trkpt>
      <trkpt lat="50.4969" lon="5.31467">
        <ele>199.19999694824</ele>
        <time>2019-06-20T09:09:19.000Z</time>
      </trkpt>
      <trkpt lat="50.49671" lon="5.31496">
        <ele>198.19999694824</ele>
        <time>2019-06-20T09:09:21.000Z</time>
      </trkpt>
      <trkpt lat="50.49653" lon="5.31522">
        <ele>197.80000305176</ele>
        <time>2019-06-20T09:09:24.000Z</time>
      </trkpt>
      <trkpt lat="50.49617" lon="5.31575">
        <ele>197.80000305176</ele>
        <time>2019-06-20T09:09:25.000Z</time>
      </trkpt>
      <trkpt lat="50.4958" lon="5.3163">
        <ele>199.39999389648</ele>
        <time>2019-06-20T09:09:27.000Z</time>
      </trkpt>
      <trkpt lat="50.49562" lon="5.31655">
        <ele>200.60000610352</ele>
        <time>2019-06-20T09:09:31.000Z</time>
      </trkpt>
      <trkpt lat="50.4955" lon="5.31673">
        <ele>201.60000610352</ele>
        <time>2019-06-20T09:09:36.000Z</time>
      </trkpt>
      <trkpt lat="50.49531" lon="5.31697">
        <ele>202.80000305176</ele>
        <time>2019-06-20T09:09:37.000Z</time>
      </trkpt>
      <trkpt lat="50.49511" lon="5.31719">
        <ele>204.60000610352</ele>
        <time>2019-06-20T09:09:44.000Z</time>
      </trkpt>
      <trkpt lat="50.49496" lon="5.31733">
        <ele>205.80000305176</ele>
        <time>2019-06-20T09:09:45.000Z</time>
      </trkpt>
      <trkpt lat="50.49482" lon="5.31746">
        <ele>207</ele>
        <time>2019-06-20T09:09:51.000Z</time>
      </trkpt>
      <trkpt lat="50.49471" lon="5.31755">
        <ele>207.80000305176</ele>
        <time>2019-06-20T09:09:52.000Z</time>
      </trkpt>
      <trkpt lat="50.49466" lon="5.31759">
        <ele>208.19999694824</ele>
        <time>2019-06-20T09:09:57.000Z</time>
      </trkpt>
      <trkpt lat="50.49449" lon="5.3177">
        <ele>209.19999694824</ele>
        <time>2019-06-20T09:10:00.000Z</time>
      </trkpt>
      <trkpt lat="50.49426" lon="5.31781">
        <ele>209.60000610352</ele>
        <time>2019-06-20T09:10:08.000Z</time>
      </trkpt>
      <trkpt lat="50.49399" lon="5.31793">
        <ele>249</ele>
        <time>2019-06-20T09:10:09.000Z</time>
      </trkpt>
      <trkpt lat="50.49377" lon="5.31807">
        <ele>210</ele>
        <time>2019-06-20T09:10:16.000Z</time>
      </trkpt>
      <trkpt lat="50.49348" lon="5.31838">
        <ele>210</ele>
        <time>2019-06-20T09:10:17.000Z</time>
      </trkpt>
      <trkpt lat="50.49307" lon="5.31892">
        <ele>209.60000610352</ele>
        <time>2019-06-20T09:10:23.000Z</time>
      </trkpt>
      <trkpt lat="50.49264" lon="5.31945">
        <ele>209.60000610352</ele>
        <time>2019-06-20T09:10:32.000Z</time>
      </trkpt>
      <trkpt lat="50.49229" lon="5.31987">
        <ele>209.60000610352</ele>
        <time>2019-06-20T09:10:40.000Z</time>
      </trkpt>
      <trkpt lat="50.49213" lon="5.32008">
        <ele>210.19999694824</ele>
        <time>2019-06-20T09:10:41.000Z</time>
      </trkpt>
      <trkpt lat="50.49192" lon="5.32034">
        <ele>211.19999694824</ele>
        <time>2019-06-20T09:10:46.000Z</time>
      </trkpt>
      <trkpt lat="50.49187" lon="5.32039">
        <ele>211.60000610352</ele>
        <time>2019-06-20T09:10:51.000Z</time>
      </trkpt>
      <trkpt lat="50.49171" lon="5.3206">
        <ele>212.80000305176</ele>
        <time>2019-06-20T09:10:57.000Z</time>
      </trkpt>
      <trkpt lat="50.49154" lon="5.32081">
        <ele>214.19999694824</ele>
        <time>2019-06-20T09:10:59.000Z</time>
      </trkpt>
      <trkpt lat="50.49143" lon="5.32096">
        <ele>215</ele>
        <time>2019-06-20T09:11:02.000Z</time>
      </trkpt>
      <trkpt lat="50.49131" lon="5.32111">
        <ele>216.60000610352</ele>
        <time>2019-06-20T09:11:05.000Z</time>
      </trkpt>
      <trkpt lat="50.49118" lon="5.32132">
        <ele>217.60000610352</ele>
        <time>2019-06-20T09:11:06.000Z</time>
      </trkpt>
      <trkpt lat="50.49108" lon="5.32149">
        <ele>218.60000610352</ele>
        <time>2019-06-20T09:11:14.000Z</time>
      </trkpt>
      <trkpt lat="50.49097" lon="5.32171">
        <ele>219.60000610352</ele>
        <time>2019-06-20T09:11:21.000Z</time>
      </trkpt>
      <trkpt lat="50.49089" lon="5.32193">
        <ele>220.60000610352</ele>
        <time>2019-06-20T09:11:27.000Z</time>
      </trkpt>
      <trkpt lat="50.49082" lon="5.32213">
        <ele>267</ele>
        <time>2019-06-20T09:11:29.000Z</time>
      </trkpt>
      <trkpt lat="50.4907" lon="5.32202">
        <ele>266.9</ele>
        <time>2019-06-20T09:11:31.000Z</time>
      </trkpt>
      <trkpt lat="50.49052" lon="5.3218">
        <ele>267</ele>
        <time>2019-06-20T09:11:32.000Z</time>
      </trkpt>
      <trkpt lat="50.49023" lon="5.32128">
        <ele>266.8</ele>
        <time>2019-06-20T09:11:35.000Z</time>
      </trkpt>
      <trkpt lat="50.49007" lon="5.32096">
        <ele>267.2</ele>
        <time>2019-06-20T09:11:37.000Z</time>
      </trkpt>
      <trkpt lat="50.48999" lon="5.32075">
        <ele>268.2</ele>
        <time>2019-06-20T09:11:40.000Z</time>
      </trkpt>
      <trkpt lat="50.48973" lon="5.32008">
        <ele>267.7</ele>
        <time>2019-06-20T09:11:43.000Z</time>
      </trkpt>
      <trkpt lat="50.48952" lon="5.31942">
        <ele>268.6</ele>
        <time>2019-06-20T09:11:48.000Z</time>
      </trkpt>
      <trkpt lat="50.48939" lon="5.3189">
        <ele>268.8</ele>
        <time>2019-06-20T09:11:50.000Z</time>
      </trkpt>
      <trkpt lat="50.48928" lon="5.31844">
        <ele>269.4</ele>
        <time>2019-06-20T09:11:53.000Z</time>
      </trkpt>
      <trkpt lat="50.48919" lon="5.31804">
        <ele>227.19999694824</ele>
        <time>2019-06-20T09:11:55.000Z</time>
      </trkpt>
      <trkpt lat="50.48912" lon="5.31777">
        <ele>227</ele>
        <time>2019-06-20T09:12:00.000Z</time>
      </trkpt>
      <trkpt lat="50.489" lon="5.31729">
        <ele>227</ele>
        <time>2019-06-20T09:12:02.000Z</time>
      </trkpt>
      <trkpt lat="50.48893" lon="5.317">
        <ele>226.80000305176</ele>
        <time>2019-06-20T09:12:05.000Z</time>
      </trkpt>
      <trkpt lat="50.48883" lon="5.31663">
        <ele>226.80000305176</ele>
        <time>2019-06-20T09:12:10.000Z</time>
      </trkpt>
      <trkpt lat="50.48878" lon="5.31644">
        <ele>226.80000305176</ele>
        <time>2019-06-20T09:12:13.000Z</time>
      </trkpt>
      <trkpt lat="50.48872" lon="5.31626">
        <ele>226.80000305176</ele>
        <time>2019-06-20T09:12:16.000Z</time>
      </trkpt>
      <trkpt lat="50.4886" lon="5.31588">
        <ele>226.60000610352</ele>
        <time>2019-06-20T09:12:18.000Z</time>
      </trkpt>
      <trkpt lat="50.48847" lon="5.31552">
        <ele>226.60000610352</ele>
        <time>2019-06-20T09:12:19.000Z</time>
      </trkpt>
      <trkpt lat="50.48827" lon="5.31515">
        <ele>226.19999694824</ele>
        <time>2019-06-20T09:12:23.000Z</time>
      </trkpt>
      <trkpt lat="50.48822" lon="5.31509">
        <ele>226</ele>
        <time>2019-06-20T09:12:25.000Z</time>
      </trkpt>
      <trkpt lat="50.4879" lon="5.31466">
        <ele>225.80000305176</ele>
        <time>2019-06-20T09:12:26.000Z</time>
      </trkpt>
      <trkpt lat="50.48785" lon="5.31459">
        <ele>225.80000305176</ele>
        <time>2019-06-20T09:12:31.000Z</time>
      </trkpt>
      <trkpt lat="50.4877" lon="5.3144">
        <ele>267</ele>
        <time>2019-06-20T09:12:34.000Z</time>
      </trkpt>
      <trkpt lat="50.48754" lon="5.3141">
        <ele>225.80000305176</ele>
        <time>2019-06-20T09:12:35.000Z</time>
      </trkpt>
      <trkpt lat="50.48737" lon="5.3136">
        <ele>264.3</ele>
        <time>2019-06-20T09:12:38.000Z</time>
      </trkpt>
      <trkpt lat="50.48713" lon="5.31288">
        <ele>263.8</ele>
        <time>2019-06-20T09:12:40.000Z</time>
      </trkpt>
      <trkpt lat="50.48683" lon="5.31208">
        <ele>263.8</ele>
        <time>2019-06-20T09:12:43.000Z</time>
      </trkpt>
      <trkpt lat="50.48655" lon="5.31131">
        <ele>263.2</ele>
        <time>2019-06-20T09:12:46.000Z</time>
      </trkpt>
      <trkpt lat="50.48627" lon="5.31059">
        <ele>263.2</ele>
        <time>2019-06-20T09:12:47.000Z</time>
      </trkpt>
      <trkpt lat="50.48611" lon="5.31014">
        <ele>263.6</ele>
        <time>2019-06-20T09:12:48.000Z</time>
      </trkpt>
      <trkpt lat="50.48582" lon="5.30939">
        <ele>264.1</ele>
        <time>2019-06-20T09:12:54.000Z</time>
      </trkpt>
      <trkpt lat="50.4855" lon="5.30848">
        <ele>263.6</ele>
        <time>2019-06-20T09:12:55.000Z</time>
      </trkpt>
      <trkpt lat="50.48539" lon="5.30801">
        <ele>264</ele>
        <time>2019-06-20T09:13:03.000Z</time>
      </trkpt>
      <trkpt lat="50.48534" lon="5.30753">
        <ele>224.80000305176</ele>
        <time>2019-06-20T09:13:04.000Z</time>
      </trkpt>
      <trkpt lat="50.48534" lon="5.30681">
        <ele>224.60000610352</ele>
        <time>2019-06-20T09:13:09.000Z</time>
      </trkpt>
      <trkpt lat="50.48533" lon="5.30641">
        <ele>224.39999389648</ele>
        <time>2019-06-20T09:13:11.000Z</time>
      </trkpt>
      <trkpt lat="50.4853" lon="5.3061">
        <ele>224.19999694824</ele>
        <time>2019-06-20T09:13:15.000Z</time>
      </trkpt>
      <trkpt lat="50.48518" lon="5.3052">
        <ele>224.19999694824</ele>
        <time>2019-06-20T09:13:23.000Z</time>
      </trkpt>
      <trkpt lat="50.48508" lon="5.30467">
        <ele>263.3</ele>
        <time>2019-06-20T09:13:24.000Z</time>
      </trkpt>
      <trkpt lat="50.48499" lon="5.30416">
        <ele>265.1</ele>
        <time>2019-06-20T09:13:30.000Z</time>
      </trkpt>
      <trkpt lat="50.48487" lon="5.3036">
        <ele>265.5</ele>
        <time>2019-06-20T09:13:31.000Z</time>
      </trkpt>
      <trkpt lat="50.48472" lon="5.30282">
        <ele>266.5</ele>
        <time>2019-06-20T09:13:34.000Z</time>
      </trkpt>
      <trkpt lat="50.48465" lon="5.30247">
        <ele>266.5</ele>
        <time>2019-06-20T09:13:37.000Z</time>
      </trkpt>
      <trkpt lat="50.48456" lon="5.30197">
        <ele>266.4</ele>
        <time>2019-06-20T09:13:41.000Z</time>
      </trkpt>
      <trkpt lat="50.48451" lon="5.30164">
        <ele>264.9</ele>
        <time>2019-06-20T09:13:44.000Z</time>
      </trkpt>
      <trkpt lat="50.48447" lon="5.30145">
        <ele>264.8</ele>
        <time>2019-06-20T09:13:45.000Z</time>
      </trkpt>
      <trkpt lat="50.48423" lon="5.30165">
        <ele>266.4</ele>
        <time>2019-06-20T09:13:49.000Z</time>
      </trkpt>
      <trkpt lat="50.48395" lon="5.3019">
        <ele>267.1</ele>
        <time>2019-06-20T09:13:52.000Z</time>
      </trkpt>
      <trkpt lat="50.48341" lon="5.30234">
        <ele>223.19999694824</ele>
        <time>2019-06-20T09:13:55.000Z</time>
      </trkpt>
      <trkpt lat="50.48295" lon="5.30274">
        <ele>222.19999694824</ele>
        <time>2019-06-20T09:13:58.000Z</time>
      </trkpt>
      <trkpt lat="50.48277" lon="5.3029">
        <ele>261</ele>
        <time>2019-06-20T09:14:02.000Z</time>
      </trkpt>
      <trkpt lat="50.48262" lon="5.30302">
        <ele>260.3</ele>
        <time>2019-06-20T09:14:03.000Z</time>
      </trkpt>
      <trkpt lat="50.48257" lon="5.30282">
        <ele>260.6</ele>
        <time>2019-06-20T09:14:04.000Z</time>
      </trkpt>
      <trkpt lat="50.48251" lon="5.30263">
        <ele>260.5</ele>
        <time>2019-06-20T09:14:09.000Z</time>
      </trkpt>
      <trkpt lat="50.48243" lon="5.30232">
        <ele>258.7</ele>
        <time>2019-06-20T09:14:10.000Z</time>
      </trkpt>
      <trkpt lat="50.48229" lon="5.30184">
        <ele>258.3</ele>
        <time>2019-06-20T09:14:16.000Z</time>
      </trkpt>
      <trkpt lat="50.48209" lon="5.30107">
        <ele>257.8</ele>
        <time>2019-06-20T09:14:19.000Z</time>
      </trkpt>
      <trkpt lat="50.48196" lon="5.30062">
        <ele>257.7</ele>
        <time>2019-06-20T09:14:26.000Z</time>
      </trkpt>
      <trkpt lat="50.48182" lon="5.30012">
        <ele>257.1</ele>
        <time>2019-06-20T09:14:28.000Z</time>
      </trkpt>
      <trkpt lat="50.48169" lon="5.29962">
        <ele>257.9</ele>
        <time>2019-06-20T09:14:36.000Z</time>
      </trkpt>
      <trkpt lat="50.48163" lon="5.29939">
        <ele>256</ele>
        <time>2019-06-20T09:14:37.000Z</time>
      </trkpt>
      <trkpt lat="50.48145" lon="5.29906">
        <ele>257.1</ele>
        <time>2019-06-20T09:14:42.000Z</time>
      </trkpt>
      <trkpt lat="50.48121" lon="5.29862">
        <ele>257.4</ele>
        <time>2019-06-20T09:14:45.000Z</time>
      </trkpt>
      <trkpt lat="50.48095" lon="5.2981">
        <ele>258.8</ele>
        <time>2019-06-20T09:14:46.000Z</time>
      </trkpt>
      <trkpt lat="50.48061" lon="5.29744">
        <ele>258.1</ele>
        <time>2019-06-20T09:14:51.000Z</time>
      </trkpt>
      <trkpt lat="50.48024" lon="5.29676">
        <ele>257.9</ele>
        <time>2019-06-20T09:14:57.000Z</time>
      </trkpt>
      <trkpt lat="50.48" lon="5.29628">
        <ele>256.5</ele>
        <time>2019-06-20T09:15:05.000Z</time>
      </trkpt>
      <trkpt lat="50.47972" lon="5.29573">
        <ele>256.5</ele>
        <time>2019-06-20T09:15:06.000Z</time>
      </trkpt>
      <trkpt lat="50.47942" lon="5.29508">
        <ele>255.2</ele>
        <time>2019-06-20T09:15:10.000Z</time>
      </trkpt>
      <trkpt lat="50.47917" lon="5.29453">
        <ele>255</ele>
        <time>2019-06-20T09:15:13.000Z</time>
      </trkpt>
      <trkpt lat="50.47896" lon="5.2941">
        <ele>251.9</ele>
        <time>2019-06-20T09:15:16.000Z</time>
      </trkpt>
      <trkpt lat="50.47887" lon="5.29388">
        <ele>251.5</ele>
        <time>2019-06-20T09:15:17.000Z</time>
      </trkpt>
      <trkpt lat="50.47868" lon="5.29337">
        <ele>251</ele>
        <time>2019-06-20T09:15:21.000Z</time>
      </trkpt>
      <trkpt lat="50.47846" lon="5.29279">
        <ele>251.4</ele>
        <time>2019-06-20T09:15:25.000Z</time>
      </trkpt>
      <trkpt lat="50.47838" lon="5.29256">
        <ele>250.6</ele>
        <time>2019-06-20T09:15:30.000Z</time>
      </trkpt>
      <trkpt lat="50.47811" lon="5.29186">
        <ele>248.5</ele>
        <time>2019-06-20T09:15:35.000Z</time>
      </trkpt>
      <trkpt lat="50.47792" lon="5.2912">
        <ele>248.3</ele>
        <time>2019-06-20T09:15:36.000Z</time>
      </trkpt>
      <trkpt lat="50.47781" lon="5.29084">
        <ele>247.7</ele>
        <time>2019-06-20T09:15:41.000Z</time>
      </trkpt>
      <trkpt lat="50.47772" lon="5.29049">
        <ele>248.6</ele>
        <time>2019-06-20T09:15:47.000Z</time>
      </trkpt>
      <trkpt lat="50.47768" lon="5.29036">
        <ele>248.7</ele>
        <time>2019-06-20T09:15:48.000Z</time>
      </trkpt>
      <trkpt lat="50.47761" lon="5.29021">
        <ele>207.60000610352</ele>
        <time>2019-06-20T09:15:52.000Z</time>
      </trkpt>
      <trkpt lat="50.47748" lon="5.29025">
        <ele>207.60000610352</ele>
        <time>2019-06-20T09:15:55.000Z</time>
      </trkpt>
      <trkpt lat="50.47741" lon="5.2903">
        <ele>207.60000610352</ele>
        <time>2019-06-20T09:15:56.000Z</time>
      </trkpt>
      <trkpt lat="50.47708" lon="5.29054">
        <ele>207</ele>
        <time>2019-06-20T09:16:05.000Z</time>
      </trkpt>
      <trkpt lat="50.47684" lon="5.29072">
        <ele>205.80000305176</ele>
        <time>2019-06-20T09:16:09.000Z</time>
      </trkpt>
      <trkpt lat="50.47671" lon="5.2908">
        <ele>204.60000610352</ele>
        <time>2019-06-20T09:16:14.000Z</time>
      </trkpt>
      <trkpt lat="50.47656" lon="5.29089">
        <ele>235.2</ele>
        <time>2019-06-20T09:16:21.000Z</time>
      </trkpt>
      <trkpt lat="50.47645" lon="5.29079">
        <ele>234.9</ele>
        <time>2019-06-20T09:16:25.000Z</time>
      </trkpt>
      <trkpt lat="50.47629" lon="5.2907">
        <ele>234.2</ele>
        <time>2019-06-20T09:16:27.000Z</time>
      </trkpt>
      <trkpt lat="50.4761" lon="5.29055">
        <ele>233.7</ele>
        <time>2019-06-20T09:16:28.000Z</time>
      </trkpt>
      <trkpt lat="50.47583" lon="5.29032">
        <ele>196.19999694824</ele>
        <time>2019-06-20T09:16:32.000Z</time>
      </trkpt>
      <trkpt lat="50.47564" lon="5.29015">
        <ele>195.19999694824</ele>
        <time>2019-06-20T09:16:38.000Z</time>
      </trkpt>
      <trkpt lat="50.47553" lon="5.29003">
        <ele>194.19999694824</ele>
        <time>2019-06-20T09:16:46.000Z</time>
      </trkpt>
      <trkpt lat="50.47546" lon="5.28996">
        <ele>194</ele>
        <time>2019-06-20T09:16:55.000Z</time>
      </trkpt>
      <trkpt lat="50.47519" lon="5.28964">
        <ele>192.80000305176</ele>
        <time>2019-06-20T09:16:56.000Z</time>
      </trkpt>
      <trkpt lat="50.47504" lon="5.28946">
        <ele>191.60000610352</ele>
        <time>2019-06-20T09:17:01.000Z</time>
      </trkpt>
      <trkpt lat="50.47489" lon="5.28927">
        <ele>190.39999389648</ele>
        <time>2019-06-20T09:17:08.000Z</time>
      </trkpt>
      <trkpt lat="50.47473" lon="5.28907">
        <ele>189.60000610352</ele>
        <time>2019-06-20T09:17:09.000Z</time>
      </trkpt>
      <trkpt lat="50.47465" lon="5.28898">
        <ele>189.19999694824</ele>
        <time>2019-06-20T09:17:15.000Z</time>
      </trkpt>
      <trkpt lat="50.4745" lon="5.28879">
        <ele>187.60000610352</ele>
        <time>2019-06-20T09:17:16.000Z</time>
      </trkpt>
      <trkpt lat="50.47435" lon="5.28861">
        <ele>186</ele>
        <time>2019-06-20T09:17:18.000Z</time>
      </trkpt>
      <trkpt lat="50.47413" lon="5.28835">
        <ele>184.19999694824</ele>
        <time>2019-06-20T09:17:23.000Z</time>
      </trkpt>
      <trkpt lat="50.47398" lon="5.28817">
        <ele>183</ele>
        <time>2019-06-20T09:17:24.000Z</time>
      </trkpt>
      <trkpt lat="50.47384" lon="5.28799">
        <ele>181.80000305176</ele>
        <time>2019-06-20T09:17:27.000Z</time>
      </trkpt>
      <trkpt lat="50.47371" lon="5.28782">
        <ele>180.80000305176</ele>
        <time>2019-06-20T09:17:30.000Z</time>
      </trkpt>
      <trkpt lat="50.47364" lon="5.28773">
        <ele>180.39999389648</ele>
        <time>2019-06-20T09:17:31.000Z</time>
      </trkpt>
      <trkpt lat="50.47353" lon="5.28757">
        <ele>179.60000610352</ele>
        <time>2019-06-20T09:17:32.000Z</time>
      </trkpt>
      <trkpt lat="50.47337" lon="5.28732">
        <ele>177.80000305176</ele>
        <time>2019-06-20T09:17:33.000Z</time>
      </trkpt>
      <trkpt lat="50.47331" lon="5.28723">
        <ele>177.39999389648</ele>
        <time>2019-06-20T09:17:36.000Z</time>
      </trkpt>
      <trkpt lat="50.47314" lon="5.28703">
        <ele>217.7</ele>
        <time>2019-06-20T09:17:38.000Z</time>
      </trkpt>
      <trkpt lat="50.47296" lon="5.2868">
        <ele>217.1</ele>
        <time>2019-06-20T09:17:41.000Z</time>
      </trkpt>
      <trkpt lat="50.47278" lon="5.2866">
        <ele>215.2</ele>
        <time>2019-06-20T09:17:45.000Z</time>
      </trkpt>
      <trkpt lat="50.47251" lon="5.28631">
        <ele>214.7</ele>
        <time>2019-06-20T09:17:46.000Z</time>
      </trkpt>
      <trkpt lat="50.47222" lon="5.28603">
        <ele>211.9</ele>
        <time>2019-06-20T09:17:48.000Z</time>
      </trkpt>
      <trkpt lat="50.47191" lon="5.28572">
        <ele>211.1</ele>
        <time>2019-06-20T09:17:50.000Z</time>
      </trkpt>
      <trkpt lat="50.47175" lon="5.28554">
        <ele>211.1</ele>
        <time>2019-06-20T09:17:52.000Z</time>
      </trkpt>
      <trkpt lat="50.47149" lon="5.28533">
        <ele>209.6</ele>
        <time>2019-06-20T09:17:53.000Z</time>
      </trkpt>
      <trkpt lat="50.47131" lon="5.28521">
        <ele>209.5</ele>
        <time>2019-06-20T09:17:54.000Z</time>
      </trkpt>
      <trkpt lat="50.47112" lon="5.28505">
        <ele>209.4</ele>
        <time>2019-06-20T09:17:56.000Z</time>
      </trkpt>
      <trkpt lat="50.47089" lon="5.28485">
        <ele>209.6</ele>
        <time>2019-06-20T09:17:58.000Z</time>
      </trkpt>
      <trkpt lat="50.47073" lon="5.28472">
        <ele>211.6</ele>
        <time>2019-06-20T09:18:00.000Z</time>
      </trkpt>
      <trkpt lat="50.47054" lon="5.28445">
        <ele>212.6</ele>
        <time>2019-06-20T09:18:04.000Z</time>
      </trkpt>
      <trkpt lat="50.47037" lon="5.2842">
        <ele>213.4</ele>
        <time>2019-06-20T09:18:10.000Z</time>
      </trkpt>
      <trkpt lat="50.47022" lon="5.28398">
        <ele>214.7</ele>
        <time>2019-06-20T09:18:11.000Z</time>
      </trkpt>
      <trkpt lat="50.47011" lon="5.28377">
        <ele>214.8</ele>
        <time>2019-06-20T09:18:13.000Z</time>
      </trkpt>
      <trkpt lat="50.47001" lon="5.28359">
        <ele>215</ele>
        <time>2019-06-20T09:18:15.000Z</time>
      </trkpt>
      <trkpt lat="50.46993" lon="5.28339">
        <ele>216</ele>
        <time>2019-06-20T09:18:18.000Z</time>
      </trkpt>
      <trkpt lat="50.46979" lon="5.2831">
        <ele>216.1</ele>
        <time>2019-06-20T09:18:20.000Z</time>
      </trkpt>
      <trkpt lat="50.46969" lon="5.28284">
        <ele>216</ele>
        <time>2019-06-20T09:18:22.000Z</time>
      </trkpt>
      <trkpt lat="50.46961" lon="5.28257">
        <ele>216.1</ele>
        <time>2019-06-20T09:18:23.000Z</time>
      </trkpt>
      <trkpt lat="50.46946" lon="5.28213">
        <ele>214.6</ele>
        <time>2019-06-20T09:18:26.000Z</time>
      </trkpt>
      <trkpt lat="50.46934" lon="5.28173">
        <ele>214.1</ele>
        <time>2019-06-20T09:18:27.000Z</time>
      </trkpt>
      <trkpt lat="50.46921" lon="5.28135">
        <ele>159.39999389648</ele>
        <time>2019-06-20T09:18:30.000Z</time>
      </trkpt>
      <trkpt lat="50.46909" lon="5.28114">
        <ele>159</ele>
        <time>2019-06-20T09:18:33.000Z</time>
      </trkpt>
      <trkpt lat="50.46898" lon="5.28092">
        <ele>211.7</ele>
        <time>2019-06-20T09:18:36.000Z</time>
      </trkpt>
      <trkpt lat="50.46876" lon="5.28061">
        <ele>157.19999694824</ele>
        <time>2019-06-20T09:18:37.000Z</time>
      </trkpt>
      <trkpt lat="50.46863" lon="5.28039">
        <ele>156</ele>
        <time>2019-06-20T09:18:41.000Z</time>
      </trkpt>
      <trkpt lat="50.46852" lon="5.28021">
        <ele>210.6</ele>
        <time>2019-06-20T09:18:42.000Z</time>
      </trkpt>
      <trkpt lat="50.46843" lon="5.28001">
        <ele>209.7</ele>
        <time>2019-06-20T09:18:44.000Z</time>
      </trkpt>
      <trkpt lat="50.46835" lon="5.27975">
        <ele>209.2</ele>
        <time>2019-06-20T09:18:49.000Z</time>
      </trkpt>
      <trkpt lat="50.46827" lon="5.27953">
        <ele>208.4</ele>
        <time>2019-06-20T09:18:55.000Z</time>
      </trkpt>
      <trkpt lat="50.46817" lon="5.27923">
        <ele>207</ele>
        <time>2019-06-20T09:19:00.000Z</time>
      </trkpt>
      <trkpt lat="50.46804" lon="5.27896">
        <ele>206.2</ele>
        <time>2019-06-20T09:19:03.000Z</time>
      </trkpt>
      <trkpt lat="50.46792" lon="5.27876">
        <ele>206.3</ele>
        <time>2019-06-20T09:19:04.000Z</time>
      </trkpt>
      <trkpt lat="50.46779" lon="5.27859">
        <ele>205.9</ele>
        <time>2019-06-20T09:19:05.000Z</time>
      </trkpt>
      <trkpt lat="50.46769" lon="5.27847">
        <ele>205.2</ele>
        <time>2019-06-20T09:19:07.000Z</time>
      </trkpt>
      <trkpt lat="50.46762" lon="5.27828">
        <ele>145.80000305176</ele>
        <time>2019-06-20T09:19:13.000Z</time>
      </trkpt>
      <trkpt lat="50.46757" lon="5.27817">
        <ele>145.19999694824</ele>
        <time>2019-06-20T09:19:18.000Z</time>
      </trkpt>
      <trkpt lat="50.46749" lon="5.27797">
        <ele>143.60000610352</ele>
        <time>2019-06-20T09:19:20.000Z</time>
      </trkpt>
      <trkpt lat="50.46737" lon="5.27765">
        <ele>202</ele>
        <time>2019-06-20T09:19:23.000Z</time>
      </trkpt>
      <trkpt lat="50.4673" lon="5.27739">
        <ele>200.1</ele>
        <time>2019-06-20T09:19:24.000Z</time>
      </trkpt>
      <trkpt lat="50.46718" lon="5.27709">
        <ele>201.3</ele>
        <time>2019-06-20T09:19:28.000Z</time>
      </trkpt>
      <trkpt lat="50.46711" lon="5.27656">
        <ele>196.8</ele>
        <time>2019-06-20T09:19:31.000Z</time>
      </trkpt>
      <trkpt lat="50.46725" lon="5.27584">
        <ele>192</ele>
        <time>2019-06-20T09:19:33.000Z</time>
      </trkpt>
      <trkpt lat="50.46724" lon="5.27563">
        <ele>188.2</ele>
        <time>2019-06-20T09:19:35.000Z</time>
      </trkpt>
      <trkpt lat="50.46714" lon="5.27541">
        <ele>188.1</ele>
        <time>2019-06-20T09:19:37.000Z</time>
      </trkpt>
      <trkpt lat="50.46649" lon="5.27461">
        <ele>180</ele>
        <time>2019-06-20T09:19:39.000Z</time>
      </trkpt>
      <trkpt lat="50.46628" lon="5.27435">
        <ele>116.59999847412</ele>
        <time>2019-06-20T09:19:41.000Z</time>
      </trkpt>
      <trkpt lat="50.46618" lon="5.27413">
        <ele>170.6</ele>
        <time>2019-06-20T09:19:42.000Z</time>
      </trkpt>
      <trkpt lat="50.46595" lon="5.27365">
        <ele>168.1</ele>
        <time>2019-06-20T09:19:47.000Z</time>
      </trkpt>
      <trkpt lat="50.46566" lon="5.27408">
        <ele>169.5</ele>
        <time>2019-06-20T09:19:52.000Z</time>
      </trkpt>
      <trkpt lat="50.4654" lon="5.27446">
        <ele>115.40000152588</ele>
        <time>2019-06-20T09:19:54.000Z</time>
      </trkpt>
      <trkpt lat="50.4653" lon="5.27461">
        <ele>172.8</ele>
        <time>2019-06-20T09:19:56.000Z</time>
      </trkpt>
      <trkpt lat="50.46513" lon="5.2748">
        <ele>171.9</ele>
        <time>2019-06-20T09:19:59.000Z</time>
      </trkpt>
      <trkpt lat="50.4648" lon="5.27511">
        <ele>115.40000152588</ele>
        <time>2019-06-20T09:20:00.000Z</time>
      </trkpt>
      <trkpt lat="50.46458" lon="5.27533">
        <ele>115.40000152588</ele>
        <time>2019-06-20T09:20:01.000Z</time>
      </trkpt>
      <trkpt lat="50.46418" lon="5.2757">
        <ele>115.40000152588</ele>
        <time>2019-06-20T09:20:02.000Z</time>
      </trkpt>
      <trkpt lat="50.46368" lon="5.27619">
        <ele>176.9</ele>
        <time>2019-06-20T09:20:05.000Z</time>
      </trkpt>
      <trkpt lat="50.46332" lon="5.27652">
        <ele>174.1</ele>
        <time>2019-06-20T09:20:07.000Z</time>
      </trkpt>
      <trkpt lat="50.46294" lon="5.27677">
        <ele>173.8</ele>
        <time>2019-06-20T09:20:08.000Z</time>
      </trkpt>
      <trkpt lat="50.46259" lon="5.27698">
        <ele>115.80000305176</ele>
        <time>2019-06-20T09:20:12.000Z</time>
      </trkpt>
      <trkpt lat="50.46242" lon="5.27717">
        <ele>169.2</ele>
        <time>2019-06-20T09:20:13.000Z</time>
      </trkpt>
      <trkpt lat="50.46231" lon="5.27745">
        <ele>169</ele>
        <time>2019-06-20T09:20:14.000Z</time>
      </trkpt>
      <trkpt lat="50.46226" lon="5.27773">
        <ele>169.3</ele>
        <time>2019-06-20T09:20:17.000Z</time>
      </trkpt>
      <trkpt lat="50.46225" lon="5.27825">
        <ele>170.4</ele>
        <time>2019-06-20T09:20:20.000Z</time>
      </trkpt>
      <trkpt lat="50.46226" lon="5.27867">
        <ele>170</ele>
        <time>2019-06-20T09:20:21.000Z</time>
      </trkpt>
      <trkpt lat="50.46224" lon="5.27914">
        <ele>169.4</ele>
        <time>2019-06-20T09:20:22.000Z</time>
      </trkpt>
      <trkpt lat="50.4622" lon="5.27946">
        <ele>167.9</ele>
        <time>2019-06-20T09:20:25.000Z</time>
      </trkpt>
      <trkpt lat="50.46208" lon="5.27996">
        <ele>167.1</ele>
        <time>2019-06-20T09:20:28.000Z</time>
      </trkpt>
      <trkpt lat="50.46184" lon="5.2806">
        <ele>116.80000305176</ele>
        <time>2019-06-20T09:20:30.000Z</time>
      </trkpt>
      <trkpt lat="50.46157" lon="5.2811">
        <ele>117</ele>
        <time>2019-06-20T09:20:31.000Z</time>
      </trkpt>
      <trkpt lat="50.46118" lon="5.28171">
        <ele>117</ele>
        <time>2019-06-20T09:20:32.000Z</time>
      </trkpt>
      <trkpt lat="50.46083" lon="5.28225">
        <ele>167.4</ele>
        <time>2019-06-20T09:20:35.000Z</time>
      </trkpt>
      <trkpt lat="50.46074" lon="5.28236">
        <ele>168.5</ele>
        <time>2019-06-20T09:20:39.000Z</time>
      </trkpt>
      <trkpt lat="50.46043" lon="5.28276">
        <ele>117.40000152588</ele>
        <time>2019-06-20T09:20:41.000Z</time>
      </trkpt>
      <trkpt lat="50.45996" lon="5.28324">
        <ele>118</ele>
        <time>2019-06-20T09:20:44.000Z</time>
      </trkpt>
      <trkpt lat="50.4595" lon="5.28371">
        <ele>178.1</ele>
        <time>2019-06-20T09:20:49.000Z</time>
      </trkpt>
      <trkpt lat="50.45919" lon="5.28403">
        <ele>176.7</ele>
        <time>2019-06-20T09:20:56.000Z</time>
      </trkpt>
      <trkpt lat="50.45893" lon="5.28429">
        <ele>178.6</ele>
        <time>2019-06-20T09:21:02.000Z</time>
      </trkpt>
      <trkpt lat="50.45869" lon="5.2845">
        <ele>179.8</ele>
        <time>2019-06-20T09:21:03.000Z</time>
      </trkpt>
      <trkpt lat="50.45853" lon="5.28463">
        <ele>180</ele>
        <time>2019-06-20T09:21:05.000Z</time>
      </trkpt>
      <trkpt lat="50.45838" lon="5.28469">
        <ele>180</ele>
        <time>2019-06-20T09:21:08.000Z</time>
      </trkpt>
      <trkpt lat="50.45817" lon="5.28469">
        <ele>173.8</ele>
        <time>2019-06-20T09:21:09.000Z</time>
      </trkpt>
      <trkpt lat="50.45797" lon="5.28468">
        <ele>172.4</ele>
        <time>2019-06-20T09:21:11.000Z</time>
      </trkpt>
      <trkpt lat="50.45752" lon="5.28459">
        <ele>170</ele>
        <time>2019-06-20T09:21:12.000Z</time>
      </trkpt>
      <trkpt lat="50.45711" lon="5.28453">
        <ele>170.4</ele>
        <time>2019-06-20T09:21:14.000Z</time>
      </trkpt>
      <trkpt lat="50.45695" lon="5.28447">
        <ele>170.8</ele>
        <time>2019-06-20T09:21:15.000Z</time>
      </trkpt>
      <trkpt lat="50.4566" lon="5.28429">
        <ele>175.4</ele>
        <time>2019-06-20T09:21:17.000Z</time>
      </trkpt>
      <trkpt lat="50.45608" lon="5.28388">
        <ele>174.1</ele>
        <time>2019-06-20T09:21:19.000Z</time>
      </trkpt>
      <trkpt lat="50.45572" lon="5.28353">
        <ele>182.7</ele>
        <time>2019-06-20T09:21:21.000Z</time>
      </trkpt>
      <trkpt lat="50.45547" lon="5.28318">
        <ele>181.9</ele>
        <time>2019-06-20T09:21:23.000Z</time>
      </trkpt>
      <trkpt lat="50.45533" lon="5.28289">
        <ele>183.2</ele>
        <time>2019-06-20T09:21:25.000Z</time>
      </trkpt>
      <trkpt lat="50.45521" lon="5.28266">
        <ele>183</ele>
        <time>2019-06-20T09:21:26.000Z</time>
      </trkpt>
      <trkpt lat="50.4551" lon="5.28232">
        <ele>180.7</ele>
        <time>2019-06-20T09:21:28.000Z</time>
      </trkpt>
      <trkpt lat="50.4548" lon="5.28147">
        <ele>122.40000152588</ele>
        <time>2019-06-20T09:21:29.000Z</time>
      </trkpt>
      <trkpt lat="50.45476" lon="5.28139">
        <ele>122.40000152588</ele>
        <time>2019-06-20T09:21:31.000Z</time>
      </trkpt>
      <trkpt lat="50.45443" lon="5.28069">
        <ele>122.59999847412</ele>
        <time>2019-06-20T09:21:32.000Z</time>
      </trkpt>
      <trkpt lat="50.45412" lon="5.28024">
        <ele>123</ele>
        <time>2019-06-20T09:21:33.000Z</time>
      </trkpt>
      <trkpt lat="50.45407" lon="5.28017">
        <ele>123.19999694824</ele>
        <time>2019-06-20T09:21:35.000Z</time>
      </trkpt>
      <trkpt lat="50.45368" lon="5.27961">
        <ele>123.19999694824</ele>
        <time>2019-06-20T09:21:37.000Z</time>
      </trkpt>
      <trkpt lat="50.45328" lon="5.27903">
        <ele>123.40000152588</ele>
        <time>2019-06-20T09:21:40.000Z</time>
      </trkpt>
      <trkpt lat="50.45323" lon="5.27897">
        <ele>123.40000152588</ele>
        <time>2019-06-20T09:21:43.000Z</time>
      </trkpt>
      <trkpt lat="50.45294" lon="5.27859">
        <ele>123.80000305176</ele>
        <time>2019-06-20T09:21:44.000Z</time>
      </trkpt>
      <trkpt lat="50.45288" lon="5.27854">
        <ele>123.80000305176</ele>
        <time>2019-06-20T09:21:47.000Z</time>
      </trkpt>
      <trkpt lat="50.45278" lon="5.27849">
        <ele>175</ele>
        <time>2019-06-20T09:21:49.000Z</time>
      </trkpt>
      <trkpt lat="50.45264" lon="5.27849">
        <ele>124.40000152588</ele>
        <time>2019-06-20T09:21:52.000Z</time>
      </trkpt>
      <trkpt lat="50.45252" lon="5.27856">
        <ele>124.59999847412</ele>
        <time>2019-06-20T09:21:53.000Z</time>
      </trkpt>
      <trkpt lat="50.45247" lon="5.27861">
        <ele>124.59999847412</ele>
        <time>2019-06-20T09:21:58.000Z</time>
      </trkpt>
      <trkpt lat="50.45242" lon="5.27868">
        <ele>124.80000305176</ele>
        <time>2019-06-20T09:21:59.000Z</time>
      </trkpt>
      <trkpt lat="50.45237" lon="5.27876">
        <ele>125</ele>
        <time>2019-06-20T09:22:02.000Z</time>
      </trkpt>
      <trkpt lat="50.45233" lon="5.27884">
        <ele>125</ele>
        <time>2019-06-20T09:22:03.000Z</time>
      </trkpt>
      <trkpt lat="50.45201" lon="5.27954">
        <ele>125.19999694824</ele>
        <time>2019-06-20T09:22:07.000Z</time>
      </trkpt>
      <trkpt lat="50.45189" lon="5.27981">
        <ele>178</ele>
        <time>2019-06-20T09:22:10.000Z</time>
      </trkpt>
      <trkpt lat="50.45178" lon="5.28014">
        <ele>125.19999694824</ele>
        <time>2019-06-20T09:22:13.000Z</time>
      </trkpt>
      <trkpt lat="50.45172" lon="5.28031">
        <ele>125.19999694824</ele>
        <time>2019-06-20T09:22:14.000Z</time>
      </trkpt>
      <trkpt lat="50.45165" lon="5.28056">
        <ele>125.19999694824</ele>
        <time>2019-06-20T09:22:15.000Z</time>
      </trkpt>
      <trkpt lat="50.45161" lon="5.28071">
        <ele>125.40000152588</ele>
        <time>2019-06-20T09:22:17.000Z</time>
      </trkpt>
      <trkpt lat="50.45154" lon="5.28095">
        <ele>126</ele>
        <time>2019-06-20T09:22:19.000Z</time>
      </trkpt>
      <trkpt lat="50.45148" lon="5.28124">
        <ele>182.6</ele>
        <time>2019-06-20T09:22:25.000Z</time>
      </trkpt>
      <trkpt lat="50.45142" lon="5.28154">
        <ele>183.9</ele>
        <time>2019-06-20T09:22:30.000Z</time>
      </trkpt>
      <trkpt lat="50.45137" lon="5.28185">
        <ele>183.9</ele>
        <time>2019-06-20T09:22:31.000Z</time>
      </trkpt>
      <trkpt lat="50.45136" lon="5.28204">
        <ele>183.5</ele>
        <time>2019-06-20T09:22:32.000Z</time>
      </trkpt>
      <trkpt lat="50.45137" lon="5.2822">
        <ele>183.5</ele>
        <time>2019-06-20T09:22:35.000Z</time>
      </trkpt>
      <trkpt lat="50.45142" lon="5.28239">
        <ele>184.3</ele>
        <time>2019-06-20T09:22:39.000Z</time>
      </trkpt>
      <trkpt lat="50.4516" lon="5.28273">
        <ele>184.4</ele>
        <time>2019-06-20T09:22:40.000Z</time>
      </trkpt>
      <trkpt lat="50.45169" lon="5.28286">
        <ele>193.6</ele>
        <time>2019-06-20T09:22:42.000Z</time>
      </trkpt>
      <trkpt lat="50.4519" lon="5.28313">
        <ele>193.7</ele>
        <time>2019-06-20T09:22:45.000Z</time>
      </trkpt>
      <trkpt lat="50.452" lon="5.28329">
        <ele>194.5</ele>
        <time>2019-06-20T09:22:48.000Z</time>
      </trkpt>
      <trkpt lat="50.45209" lon="5.28353">
        <ele>191.7</ele>
        <time>2019-06-20T09:22:50.000Z</time>
      </trkpt>
      <trkpt lat="50.45213" lon="5.28373">
        <ele>191.5</ele>
        <time>2019-06-20T09:22:54.000Z</time>
      </trkpt>
      <trkpt lat="50.45212" lon="5.28396">
        <ele>190.7</ele>
        <time>2019-06-20T09:22:55.000Z</time>
      </trkpt>
      <trkpt lat="50.45207" lon="5.28421">
        <ele>187.6</ele>
        <time>2019-06-20T09:22:58.000Z</time>
      </trkpt>
      <trkpt lat="50.45197" lon="5.2845">
        <ele>186.8</ele>
        <time>2019-06-20T09:23:03.000Z</time>
      </trkpt>
      <trkpt lat="50.45182" lon="5.28486">
        <ele>185.3</ele>
        <time>2019-06-20T09:23:04.000Z</time>
      </trkpt>
      <trkpt lat="50.45159" lon="5.28466">
        <ele>182.7</ele>
        <time>2019-06-20T09:23:07.000Z</time>
      </trkpt>
      <trkpt lat="50.45154" lon="5.28459">
        <ele>182.6</ele>
        <time>2019-06-20T09:23:11.000Z</time>
      </trkpt>
      <trkpt lat="50.45141" lon="5.28447">
        <ele>182.5</ele>
        <time>2019-06-20T09:23:16.000Z</time>
      </trkpt>
      <trkpt lat="50.45122" lon="5.28486">
        <ele>182.5</ele>
        <time>2019-06-20T09:23:19.000Z</time>
      </trkpt>
      <trkpt lat="50.4511" lon="5.28519">
        <ele>184.7</ele>
        <time>2019-06-20T09:23:20.000Z</time>
      </trkpt>
      <trkpt lat="50.451" lon="5.28551">
        <ele>186.1</ele>
        <time>2019-06-20T09:23:23.000Z</time>
      </trkpt>
      <trkpt lat="50.45091" lon="5.28591">
        <ele>190.5</ele>
        <time>2019-06-20T09:23:25.000Z</time>
      </trkpt>
      <trkpt lat="50.45086" lon="5.28635">
        <ele>193.8</ele>
        <time>2019-06-20T09:23:26.000Z</time>
      </trkpt>
      <trkpt lat="50.45086" lon="5.28666">
        <ele>199.9</ele>
        <time>2019-06-20T09:23:27.000Z</time>
      </trkpt>
      <trkpt lat="50.45087" lon="5.287">
        <ele>197.7</ele>
        <time>2019-06-20T09:23:29.000Z</time>
      </trkpt>
      <trkpt lat="50.45086" lon="5.28765">
        <ele>200.2</ele>
        <time>2019-06-20T09:23:31.000Z</time>
      </trkpt>
      <trkpt lat="50.45084" lon="5.28829">
        <ele>203.5</ele>
        <time>2019-06-20T09:23:33.000Z</time>
      </trkpt>
      <trkpt lat="50.45083" lon="5.28946">
        <ele>211.1</ele>
        <time>2019-06-20T09:23:35.000Z</time>
      </trkpt>
      <trkpt lat="50.45081" lon="5.29038">
        <ele>212.4</ele>
        <time>2019-06-20T09:23:36.000Z</time>
      </trkpt>
      <trkpt lat="50.45076" lon="5.29107">
        <ele>211.2</ele>
        <time>2019-06-20T09:23:37.000Z</time>
      </trkpt>
      <trkpt lat="50.4507" lon="5.29133">
        <ele>212.3</ele>
        <time>2019-06-20T09:23:38.000Z</time>
      </trkpt>
      <trkpt lat="50.45053" lon="5.29173">
        <ele>211</ele>
        <time>2019-06-20T09:23:40.000Z</time>
      </trkpt>
      <trkpt lat="50.4504" lon="5.29189">
        <ele>212.3</ele>
        <time>2019-06-20T09:23:43.000Z</time>
      </trkpt>
      <trkpt lat="50.45024" lon="5.29205">
        <ele>213</ele>
        <time>2019-06-20T09:23:46.000Z</time>
      </trkpt>
      <trkpt lat="50.4501" lon="5.29215">
        <ele>213.2</ele>
        <time>2019-06-20T09:23:47.000Z</time>
      </trkpt>
      <trkpt lat="50.44997" lon="5.29225">
        <ele>218.5</ele>
        <time>2019-06-20T09:23:48.000Z</time>
      </trkpt>
      <trkpt lat="50.44979" lon="5.29235">
        <ele>218.5</ele>
        <time>2019-06-20T09:23:51.000Z</time>
      </trkpt>
      <trkpt lat="50.4496" lon="5.29246">
        <ele>219.9</ele>
        <time>2019-06-20T09:23:52.000Z</time>
      </trkpt>
      <trkpt lat="50.44931" lon="5.29263">
        <ele>218.3</ele>
        <time>2019-06-20T09:23:54.000Z</time>
      </trkpt>
      <trkpt lat="50.44907" lon="5.29277">
        <ele>224.1</ele>
        <time>2019-06-20T09:23:55.000Z</time>
      </trkpt>
      <trkpt lat="50.44868" lon="5.29299">
        <ele>226.1</ele>
        <time>2019-06-20T09:23:56.000Z</time>
      </trkpt>
      <trkpt lat="50.44831" lon="5.29321">
        <ele>230.1</ele>
        <time>2019-06-20T09:23:57.000Z</time>
      </trkpt>
      <trkpt lat="50.44811" lon="5.29332">
        <ele>230</ele>
        <time>2019-06-20T09:23:58.000Z</time>
      </trkpt>
      <trkpt lat="50.44794" lon="5.29344">
        <ele>227.4</ele>
        <time>2019-06-20T09:24:03.000Z</time>
      </trkpt>
      <trkpt lat="50.44773" lon="5.29358">
        <ele>226.9</ele>
        <time>2019-06-20T09:24:05.000Z</time>
      </trkpt>
      <trkpt lat="50.44756" lon="5.29367">
        <ele>183</ele>
        <time>2019-06-20T09:24:07.000Z</time>
      </trkpt>
      <trkpt lat="50.44747" lon="5.29374">
        <ele>183.60000610352</ele>
        <time>2019-06-20T09:24:10.000Z</time>
      </trkpt>
      <trkpt lat="50.44733" lon="5.29385">
        <ele>184.19999694824</ele>
        <time>2019-06-20T09:24:11.000Z</time>
      </trkpt>
      <trkpt lat="50.44711" lon="5.29404">
        <ele>185.39999389648</ele>
        <time>2019-06-20T09:24:16.000Z</time>
      </trkpt>
      <trkpt lat="50.44701" lon="5.29412">
        <ele>186</ele>
        <time>2019-06-20T09:24:23.000Z</time>
      </trkpt>
      <trkpt lat="50.44672" lon="5.29436">
        <ele>186.60000610352</ele>
        <time>2019-06-20T09:24:25.000Z</time>
      </trkpt>
      <trkpt lat="50.44653" lon="5.29452">
        <ele>187</ele>
        <time>2019-06-20T09:24:32.000Z</time>
      </trkpt>
      <trkpt lat="50.44629" lon="5.29472">
        <ele>187.80000305176</ele>
        <time>2019-06-20T09:24:38.000Z</time>
      </trkpt>
      <trkpt lat="50.44605" lon="5.29494">
        <ele>188</ele>
        <time>2019-06-20T09:24:42.000Z</time>
      </trkpt>
      <trkpt lat="50.44571" lon="5.29522">
        <ele>188.80000305176</ele>
        <time>2019-06-20T09:24:45.000Z</time>
      </trkpt>
      <trkpt lat="50.44551" lon="5.29538">
        <ele>189.19999694824</ele>
        <time>2019-06-20T09:24:46.000Z</time>
      </trkpt>
      <trkpt lat="50.44526" lon="5.29559">
        <ele>189.80000305176</ele>
        <time>2019-06-20T09:24:49.000Z</time>
      </trkpt>
      <trkpt lat="50.44486" lon="5.29594">
        <ele>191</ele>
        <time>2019-06-20T09:24:50.000Z</time>
      </trkpt>
      <trkpt lat="50.44446" lon="5.29626">
        <ele>192.19999694824</ele>
        <time>2019-06-20T09:24:58.000Z</time>
      </trkpt>
      <trkpt lat="50.44441" lon="5.29631">
        <ele>192.39999389648</ele>
        <time>2019-06-20T09:25:06.000Z</time>
      </trkpt>
      <trkpt lat="50.44403" lon="5.29663">
        <ele>192.80000305176</ele>
        <time>2019-06-20T09:25:15.000Z</time>
      </trkpt>
      <trkpt lat="50.44386" lon="5.29678">
        <ele>192.80000305176</ele>
        <time>2019-06-20T09:25:17.000Z</time>
      </trkpt>
      <trkpt lat="50.44354" lon="5.29705">
        <ele>192.80000305176</ele>
        <time>2019-06-20T09:25:18.000Z</time>
      </trkpt>
      <trkpt lat="50.44327" lon="5.29728">
        <ele>192.39999389648</ele>
        <time>2019-06-20T09:25:24.000Z</time>
      </trkpt>
      <trkpt lat="50.44277" lon="5.2977">
        <ele>191.19999694824</ele>
        <time>2019-06-20T09:25:26.000Z</time>
      </trkpt>
      <trkpt lat="50.4427" lon="5.29776">
        <ele>191.19999694824</ele>
        <time>2019-06-20T09:25:30.000Z</time>
      </trkpt>
      <trkpt lat="50.44263" lon="5.29782">
        <ele>191</ele>
        <time>2019-06-20T09:25:33.000Z</time>
      </trkpt>
      <trkpt lat="50.4425" lon="5.29794">
        <ele>190.60000610352</ele>
        <time>2019-06-20T09:25:41.000Z</time>
      </trkpt>
      <trkpt lat="50.44225" lon="5.29814">
        <ele>190.39999389648</ele>
        <time>2019-06-20T09:25:44.000Z</time>
      </trkpt>
      <trkpt lat="50.4418" lon="5.29852">
        <ele>190.80000305176</ele>
        <time>2019-06-20T09:25:47.000Z</time>
      </trkpt>
      <trkpt lat="50.44155" lon="5.29874">
        <ele>192.39999389648</ele>
        <time>2019-06-20T09:25:50.000Z</time>
      </trkpt>
      <trkpt lat="50.44134" lon="5.29891">
        <ele>193.60000610352</ele>
        <time>2019-06-20T09:25:53.000Z</time>
      </trkpt>
      <trkpt lat="50.44101" lon="5.29919">
        <ele>194.80000305176</ele>
        <time>2019-06-20T09:25:54.000Z</time>
      </trkpt>
      <trkpt lat="50.4409" lon="5.29929">
        <ele>195.39999389648</ele>
        <time>2019-06-20T09:25:57.000Z</time>
      </trkpt>
      <trkpt lat="50.44084" lon="5.29935">
        <ele>195.39999389648</ele>
        <time>2019-06-20T09:26:00.000Z</time>
      </trkpt>
      <trkpt lat="50.44056" lon="5.2997">
        <ele>195.60000610352</ele>
        <time>2019-06-20T09:26:01.000Z</time>
      </trkpt>
      <trkpt lat="50.44028" lon="5.30022">
        <ele>195.60000610352</ele>
        <time>2019-06-20T09:26:08.000Z</time>
      </trkpt>
      <trkpt lat="50.44007" lon="5.3008">
        <ele>195.39999389648</ele>
        <time>2019-06-20T09:26:14.000Z</time>
      </trkpt>
      <trkpt lat="50.43997" lon="5.30124">
        <ele>195</ele>
        <time>2019-06-20T09:26:16.000Z</time>
      </trkpt>
      <trkpt lat="50.43986" lon="5.3017">
        <ele>194.80000305176</ele>
        <time>2019-06-20T09:26:24.000Z</time>
      </trkpt>
      <trkpt lat="50.43977" lon="5.30205">
        <ele>194.60000610352</ele>
        <time>2019-06-20T09:26:31.000Z</time>
      </trkpt>
      <trkpt lat="50.43964" lon="5.3026">
        <ele>194.19999694824</ele>
        <time>2019-06-20T09:26:34.000Z</time>
      </trkpt>
      <trkpt lat="50.43956" lon="5.30293">
        <ele>194</ele>
        <time>2019-06-20T09:26:37.000Z</time>
      </trkpt>
      <trkpt lat="50.43948" lon="5.30327">
        <ele>193.80000305176</ele>
        <time>2019-06-20T09:26:39.000Z</time>
      </trkpt>
      <trkpt lat="50.43934" lon="5.30381">
        <ele>193.80000305176</ele>
        <time>2019-06-20T09:26:40.000Z</time>
      </trkpt>
      <trkpt lat="50.43913" lon="5.3047">
        <ele>193.80000305176</ele>
        <time>2019-06-20T09:26:43.000Z</time>
      </trkpt>
      <trkpt lat="50.43907" lon="5.30492">
        <ele>193.60000610352</ele>
        <time>2019-06-20T09:26:44.000Z</time>
      </trkpt>
      <trkpt lat="50.43888" lon="5.30572">
        <ele>193.39999389648</ele>
        <time>2019-06-20T09:26:47.000Z</time>
      </trkpt>
      <trkpt lat="50.43883" lon="5.30595">
        <ele>193.60000610352</ele>
        <time>2019-06-20T09:26:48.000Z</time>
      </trkpt>
      <trkpt lat="50.43863" lon="5.30677">
        <ele>193.39999389648</ele>
        <time>2019-06-20T09:26:51.000Z</time>
      </trkpt>
      <trkpt lat="50.43852" lon="5.30724">
        <ele>193.19999694824</ele>
        <time>2019-06-20T09:26:53.000Z</time>
      </trkpt>
      <trkpt lat="50.43846" lon="5.30746">
        <ele>193</ele>
        <time>2019-06-20T09:26:54.000Z</time>
      </trkpt>
      <trkpt lat="50.43831" lon="5.3081">
        <ele>193</ele>
        <time>2019-06-20T09:26:58.000Z</time>
      </trkpt>
      <trkpt lat="50.43811" lon="5.30893">
        <ele>193.39999389648</ele>
        <time>2019-06-20T09:27:00.000Z</time>
      </trkpt>
      <trkpt lat="50.43799" lon="5.30946">
        <ele>194</ele>
        <time>2019-06-20T09:27:06.000Z</time>
      </trkpt>
      <trkpt lat="50.43796" lon="5.30956">
        <ele>194.19999694824</ele>
        <time>2019-06-20T09:27:12.000Z</time>
      </trkpt>
      <trkpt lat="50.43777" lon="5.31038">
        <ele>194.80000305176</ele>
        <time>2019-06-20T09:27:13.000Z</time>
      </trkpt>
      <trkpt lat="50.43774" lon="5.31049">
        <ele>195</ele>
        <time>2019-06-20T09:27:17.000Z</time>
      </trkpt>
      <trkpt lat="50.43766" lon="5.31081">
        <ele>195.19999694824</ele>
        <time>2019-06-20T09:27:18.000Z</time>
      </trkpt>
      <trkpt lat="50.43748" lon="5.31157">
        <ele>195.60000610352</ele>
        <time>2019-06-20T09:27:20.000Z</time>
      </trkpt>
      <trkpt lat="50.43727" lon="5.31243">
        <ele>196.19999694824</ele>
        <time>2019-06-20T09:27:21.000Z</time>
      </trkpt>
      <trkpt lat="50.43719" lon="5.31274">
        <ele>196.19999694824</ele>
        <time>2019-06-20T09:27:24.000Z</time>
      </trkpt>
      <trkpt lat="50.43712" lon="5.31305">
        <ele>196.39999389648</ele>
        <time>2019-06-20T09:27:28.000Z</time>
      </trkpt>
      <trkpt lat="50.43692" lon="5.31388">
        <ele>197.19999694824</ele>
        <time>2019-06-20T09:27:29.000Z</time>
      </trkpt>
      <trkpt lat="50.4369" lon="5.31398">
        <ele>197.19999694824</ele>
        <time>2019-06-20T09:27:35.000Z</time>
      </trkpt>
      <trkpt lat="50.4367" lon="5.31481">
        <ele>198.19999694824</ele>
        <time>2019-06-20T09:27:40.000Z</time>
      </trkpt>
      <trkpt lat="50.43667" lon="5.31492">
        <ele>198.39999389648</ele>
        <time>2019-06-20T09:27:41.000Z</time>
      </trkpt>
      <trkpt lat="50.4366" lon="5.31522">
        <ele>198.80000305176</ele>
        <time>2019-06-20T09:27:45.000Z</time>
      </trkpt>
      <trkpt lat="50.4365" lon="5.31563">
        <ele>199.39999389648</ele>
        <time>2019-06-20T09:27:47.000Z</time>
      </trkpt>
      <trkpt lat="50.43632" lon="5.31634">
        <ele>200.39999389648</ele>
        <time>2019-06-20T09:27:49.000Z</time>
      </trkpt>
      <trkpt lat="50.4363" lon="5.31644">
        <ele>200.60000610352</ele>
        <time>2019-06-20T09:27:52.000Z</time>
      </trkpt>
      <trkpt lat="50.43618" lon="5.31694">
        <ele>201.19999694824</ele>
        <time>2019-06-20T09:27:54.000Z</time>
      </trkpt>
      <trkpt lat="50.4361" lon="5.31726">
        <ele>201.60000610352</ele>
        <time>2019-06-20T09:27:58.000Z</time>
      </trkpt>
      <trkpt lat="50.4359" lon="5.3181">
        <ele>202.60000610352</ele>
        <time>2019-06-20T09:27:59.000Z</time>
      </trkpt>
      <trkpt lat="50.4357" lon="5.31895">
        <ele>202.60000610352</ele>
        <time>2019-06-20T09:28:05.000Z</time>
      </trkpt>
      <trkpt lat="50.43567" lon="5.31906">
        <ele>202.60000610352</ele>
        <time>2019-06-20T09:28:07.000Z</time>
      </trkpt>
      <trkpt lat="50.43546" lon="5.31993">
        <ele>203</ele>
        <time>2019-06-20T09:28:13.000Z</time>
      </trkpt>
      <trkpt lat="50.43544" lon="5.32004">
        <ele>203</ele>
        <time>2019-06-20T09:28:18.000Z</time>
      </trkpt>
      <trkpt lat="50.4352" lon="5.32101">
        <ele>203</ele>
        <time>2019-06-20T09:28:20.000Z</time>
      </trkpt>
      <trkpt lat="50.43517" lon="5.32113">
        <ele>203</ele>
        <time>2019-06-20T09:28:21.000Z</time>
      </trkpt>
      <trkpt lat="50.43503" lon="5.32172">
        <ele>203</ele>
        <time>2019-06-20T09:28:24.000Z</time>
      </trkpt>
      <trkpt lat="50.43493" lon="5.32209">
        <ele>202.80000305176</ele>
        <time>2019-06-20T09:28:27.000Z</time>
      </trkpt>
      <trkpt lat="50.43475" lon="5.32287">
        <ele>201.60000610352</ele>
        <time>2019-06-20T09:28:30.000Z</time>
      </trkpt>
      <trkpt lat="50.43462" lon="5.32339">
        <ele>200.80000305176</ele>
        <time>2019-06-20T09:28:34.000Z</time>
      </trkpt>
      <trkpt lat="50.43459" lon="5.32351">
        <ele>200.39999389648</ele>
        <time>2019-06-20T09:28:37.000Z</time>
      </trkpt>
      <trkpt lat="50.43449" lon="5.32391">
        <ele>199.60000610352</ele>
        <time>2019-06-20T09:28:42.000Z</time>
      </trkpt>
      <trkpt lat="50.43443" lon="5.32418">
        <ele>199.19999694824</ele>
        <time>2019-06-20T09:28:50.000Z</time>
      </trkpt>
      <trkpt lat="50.43436" lon="5.32446">
        <ele>199.19999694824</ele>
        <time>2019-06-20T09:28:51.000Z</time>
      </trkpt>
      <trkpt lat="50.43422" lon="5.325">
        <ele>198.19999694824</ele>
        <time>2019-06-20T09:28:59.000Z</time>
      </trkpt>
      <trkpt lat="50.43413" lon="5.32536">
        <ele>197.39999389648</ele>
        <time>2019-06-20T09:29:01.000Z</time>
      </trkpt>
      <trkpt lat="50.43403" lon="5.32582">
        <ele>197.39999389648</ele>
        <time>2019-06-20T09:29:02.000Z</time>
      </trkpt>
      <trkpt lat="50.43387" lon="5.32647">
        <ele>197.80000305176</ele>
        <time>2019-06-20T09:29:09.000Z</time>
      </trkpt>
      <trkpt lat="50.43372" lon="5.3271">
        <ele>198.60000610352</ele>
        <time>2019-06-20T09:29:15.000Z</time>
      </trkpt>
      <trkpt lat="50.43362" lon="5.32751">
        <ele>199.39999389648</ele>
        <time>2019-06-20T09:29:20.000Z</time>
      </trkpt>
      <trkpt lat="50.43359" lon="5.3276">
        <ele>199.60000610352</ele>
        <time>2019-06-20T09:29:25.000Z</time>
      </trkpt>
      <trkpt lat="50.43347" lon="5.32811">
        <ele>200.80000305176</ele>
        <time>2019-06-20T09:29:34.000Z</time>
      </trkpt>
      <trkpt lat="50.4334" lon="5.3284">
        <ele>201.19999694824</ele>
        <time>2019-06-20T09:29:42.000Z</time>
      </trkpt>
      <trkpt lat="50.43333" lon="5.32869">
        <ele>201.80000305176</ele>
        <time>2019-06-20T09:29:46.000Z</time>
      </trkpt>
      <trkpt lat="50.43324" lon="5.32905">
        <ele>202.60000610352</ele>
        <time>2019-06-20T09:29:50.000Z</time>
      </trkpt>
      <trkpt lat="50.43322" lon="5.32914">
        <ele>202.80000305176</ele>
        <time>2019-06-20T09:29:58.000Z</time>
      </trkpt>
      <trkpt lat="50.4331" lon="5.32962">
        <ele>247.2</ele>
        <time>2019-06-20T09:30:05.000Z</time>
      </trkpt>
      <trkpt lat="50.433" lon="5.32947">
        <ele>247.2</ele>
        <time>2019-06-20T09:30:11.000Z</time>
      </trkpt>
      <trkpt lat="50.43292" lon="5.32929">
        <ele>204.60000610352</ele>
        <time>2019-06-20T09:30:15.000Z</time>
      </trkpt>
      <trkpt lat="50.43289" lon="5.32922">
        <ele>204.80000305176</ele>
        <time>2019-06-20T09:30:16.000Z</time>
      </trkpt>
      <trkpt lat="50.43283" lon="5.32908">
        <ele>205</ele>
        <time>2019-06-20T09:30:23.000Z</time>
      </trkpt>
      <trkpt lat="50.43261" lon="5.32855">
        <ele>206</ele>
        <time>2019-06-20T09:30:24.000Z</time>
      </trkpt>
      <trkpt lat="50.43235" lon="5.32803">
        <ele>207</ele>
        <time>2019-06-20T09:30:28.000Z</time>
      </trkpt>
      <trkpt lat="50.43197" lon="5.32731">
        <ele>247.7</ele>
        <time>2019-06-20T09:30:31.000Z</time>
      </trkpt>
      <trkpt lat="50.43167" lon="5.32673">
        <ele>207.80000305176</ele>
        <time>2019-06-20T09:30:32.000Z</time>
      </trkpt>
      <trkpt lat="50.43134" lon="5.32608">
        <ele>207.80000305176</ele>
        <time>2019-06-20T09:30:35.000Z</time>
      </trkpt>
      <trkpt lat="50.43099" lon="5.32543">
        <ele>207.60000610352</ele>
        <time>2019-06-20T09:30:39.000Z</time>
      </trkpt>
      <trkpt lat="50.43069" lon="5.3249">
        <ele>248.4</ele>
        <time>2019-06-20T09:30:41.000Z</time>
      </trkpt>
      <trkpt lat="50.43045" lon="5.32446">
        <ele>248.7</ele>
        <time>2019-06-20T09:30:44.000Z</time>
      </trkpt>
      <trkpt lat="50.43007" lon="5.32371">
        <ele>207.60000610352</ele>
        <time>2019-06-20T09:30:49.000Z</time>
      </trkpt>
      <trkpt lat="50.42992" lon="5.32345">
        <ele>207.60000610352</ele>
        <time>2019-06-20T09:30:53.000Z</time>
      </trkpt>
      <trkpt lat="50.42962" lon="5.32296">
        <ele>207.19999694824</ele>
        <time>2019-06-20T09:30:57.000Z</time>
      </trkpt>
      <trkpt lat="50.42944" lon="5.32269">
        <ele>247.6</ele>
        <time>2019-06-20T09:31:01.000Z</time>
      </trkpt>
      <trkpt lat="50.42921" lon="5.32275">
        <ele>206.19999694824</ele>
        <time>2019-06-20T09:31:03.000Z</time>
      </trkpt>
      <trkpt lat="50.42904" lon="5.3228">
        <ele>246.2</ele>
        <time>2019-06-20T09:31:06.000Z</time>
      </trkpt>
      <trkpt lat="50.42884" lon="5.32284">
        <ele>205</ele>
        <time>2019-06-20T09:31:12.000Z</time>
      </trkpt>
      <trkpt lat="50.42848" lon="5.32296">
        <ele>204.39999389648</ele>
        <time>2019-06-20T09:31:13.000Z</time>
      </trkpt>
      <trkpt lat="50.42827" lon="5.32303">
        <ele>204</ele>
        <time>2019-06-20T09:31:16.000Z</time>
      </trkpt>
      <trkpt lat="50.42805" lon="5.32308">
        <ele>203.80000305176</ele>
        <time>2019-06-20T09:31:20.000Z</time>
      </trkpt>
      <trkpt lat="50.42798" lon="5.32307">
        <ele>203.80000305176</ele>
        <time>2019-06-20T09:31:22.000Z</time>
      </trkpt>
      <trkpt lat="50.42784" lon="5.32302">
        <ele>203.60000610352</ele>
        <time>2019-06-20T09:31:25.000Z</time>
      </trkpt>
      <trkpt lat="50.42777" lon="5.32299">
        <ele>203.60000610352</ele>
        <time>2019-06-20T09:31:29.000Z</time>
      </trkpt>
      <trkpt lat="50.4277" lon="5.32295">
        <ele>203.60000610352</ele>
        <time>2019-06-20T09:31:30.000Z</time>
      </trkpt>
      <trkpt lat="50.42752" lon="5.32288">
        <ele>245.7</ele>
        <time>2019-06-20T09:31:34.000Z</time>
      </trkpt>
      <trkpt lat="50.42731" lon="5.32278">
        <ele>246.4</ele>
        <time>2019-06-20T09:31:35.000Z</time>
      </trkpt>
      <trkpt lat="50.42718" lon="5.32269">
        <ele>246.4</ele>
        <time>2019-06-20T09:31:39.000Z</time>
      </trkpt>
      <trkpt lat="50.42706" lon="5.32253">
        <ele>246.5</ele>
        <time>2019-06-20T09:31:43.000Z</time>
      </trkpt>
      <trkpt lat="50.42697" lon="5.32232">
        <ele>245.9</ele>
        <time>2019-06-20T09:31:46.000Z</time>
      </trkpt>
      <trkpt lat="50.4269" lon="5.32212">
        <ele>245.7</ele>
        <time>2019-06-20T09:31:51.000Z</time>
      </trkpt>
      <trkpt lat="50.4268" lon="5.32198">
        <ele>245.5</ele>
        <time>2019-06-20T09:31:55.000Z</time>
      </trkpt>
      <trkpt lat="50.42664" lon="5.32189">
        <ele>245.8</ele>
        <time>2019-06-20T09:32:00.000Z</time>
      </trkpt>
      <trkpt lat="50.4264" lon="5.32179">
        <ele>245.9</ele>
        <time>2019-06-20T09:32:05.000Z</time>
      </trkpt>
      <trkpt lat="50.42635" lon="5.32166">
        <ele>244.7</ele>
        <time>2019-06-20T09:32:08.000Z</time>
      </trkpt>
      <trkpt lat="50.42624" lon="5.32162">
        <ele>245</ele>
        <time>2019-06-20T09:32:12.000Z</time>
      </trkpt>
      <trkpt lat="50.42615" lon="5.32145">
        <ele>244.6</ele>
        <time>2019-06-20T09:32:14.000Z</time>
      </trkpt>
      <trkpt lat="50.42602" lon="5.32129">
        <ele>203.60000610352</ele>
        <time>2019-06-20T09:32:16.000Z</time>
      </trkpt>
      <trkpt lat="50.42564" lon="5.32092">
        <ele>203.60000610352</ele>
        <time>2019-06-20T09:32:17.000Z</time>
      </trkpt>
      <trkpt lat="50.42546" lon="5.32074">
        <ele>203.19999694824</ele>
        <time>2019-06-20T09:32:20.000Z</time>
      </trkpt>
      <trkpt lat="50.4254" lon="5.32067">
        <ele>203.19999694824</ele>
        <time>2019-06-20T09:32:24.000Z</time>
      </trkpt>
      <trkpt lat="50.42486" lon="5.32006">
        <ele>241.7</ele>
        <time>2019-06-20T09:32:29.000Z</time>
      </trkpt>
      <trkpt lat="50.42452" lon="5.3196">
        <ele>242.6</ele>
        <time>2019-06-20T09:32:31.000Z</time>
      </trkpt>
      <trkpt lat="50.42412" lon="5.31899">
        <ele>245.3</ele>
        <time>2019-06-20T09:32:33.000Z</time>
      </trkpt>
      <trkpt lat="50.42384" lon="5.31842">
        <ele>245.8</ele>
        <time>2019-06-20T09:32:38.000Z</time>
      </trkpt>
      <trkpt lat="50.42369" lon="5.31806">
        <ele>246</ele>
        <time>2019-06-20T09:32:39.000Z</time>
      </trkpt>
      <trkpt lat="50.42348" lon="5.31767">
        <ele>246.2</ele>
        <time>2019-06-20T09:32:41.000Z</time>
      </trkpt>
      <trkpt lat="50.42333" lon="5.31753">
        <ele>247.1</ele>
        <time>2019-06-20T09:32:42.000Z</time>
      </trkpt>
      <trkpt lat="50.42313" lon="5.31733">
        <ele>246.6</ele>
        <time>2019-06-20T09:32:43.000Z</time>
      </trkpt>
      <trkpt lat="50.42295" lon="5.31705">
        <ele>246.4</ele>
        <time>2019-06-20T09:32:45.000Z</time>
      </trkpt>
      <trkpt lat="50.42278" lon="5.31682">
        <ele>246</ele>
        <time>2019-06-20T09:32:46.000Z</time>
      </trkpt>
      <trkpt lat="50.4226" lon="5.3165">
        <ele>245.7</ele>
        <time>2019-06-20T09:32:48.000Z</time>
      </trkpt>
      <trkpt lat="50.42234" lon="5.31581">
        <ele>246.2</ele>
        <time>2019-06-20T09:32:55.000Z</time>
      </trkpt>
      <trkpt lat="50.42209" lon="5.31524">
        <ele>246.5</ele>
        <time>2019-06-20T09:33:02.000Z</time>
      </trkpt>
      <trkpt lat="50.42178" lon="5.3146">
        <ele>247.3</ele>
        <time>2019-06-20T09:33:10.000Z</time>
      </trkpt>
      <trkpt lat="50.42138" lon="5.31376">
        <ele>248.1</ele>
        <time>2019-06-20T09:33:11.000Z</time>
      </trkpt>
      <trkpt lat="50.42106" lon="5.31303">
        <ele>247.6</ele>
        <time>2019-06-20T09:33:15.000Z</time>
      </trkpt>
      <trkpt lat="50.4207" lon="5.31222">
        <ele>248.2</ele>
        <time>2019-06-20T09:33:19.000Z</time>
      </trkpt>
      <trkpt lat="50.42044" lon="5.31146">
        <ele>247.8</ele>
        <time>2019-06-20T09:33:20.000Z</time>
      </trkpt>
      <trkpt lat="50.42027" lon="5.31097">
        <ele>247.8</ele>
        <time>2019-06-20T09:33:23.000Z</time>
      </trkpt>
      <trkpt lat="50.42021" lon="5.3107">
        <ele>247.2</ele>
        <time>2019-06-20T09:33:26.000Z</time>
      </trkpt>
      <trkpt lat="50.42028" lon="5.31056">
        <ele>206.80000305176</ele>
        <time>2019-06-20T09:33:28.000Z</time>
      </trkpt>
      <trkpt lat="50.42043" lon="5.3103">
        <ele>206.60000610352</ele>
        <time>2019-06-20T09:33:34.000Z</time>
      </trkpt>
      <trkpt lat="50.42045" lon="5.31017">
        <ele>246</ele>
        <time>2019-06-20T09:33:40.000Z</time>
      </trkpt>
      <trkpt lat="50.42038" lon="5.31007">
        <ele>246.5</ele>
        <time>2019-06-20T09:33:42.000Z</time>
      </trkpt>
      <trkpt lat="50.42029" lon="5.30998">
        <ele>245.8</ele>
        <time>2019-06-20T09:33:47.000Z</time>
      </trkpt>
      <trkpt lat="50.42014" lon="5.30974">
        <ele>245.8</ele>
        <time>2019-06-20T09:33:53.000Z</time>
      </trkpt>
      <trkpt lat="50.42004" lon="5.30958">
        <ele>245.7</ele>
        <time>2019-06-20T09:33:59.000Z</time>
      </trkpt>
      <trkpt lat="50.4196" lon="5.3089">
        <ele>245.7</ele>
        <time>2019-06-20T09:34:07.000Z</time>
      </trkpt>
      <trkpt lat="50.41951" lon="5.3087">
        <ele>245.5</ele>
        <time>2019-06-20T09:34:08.000Z</time>
      </trkpt>
      <trkpt lat="50.41925" lon="5.30791">
        <ele>244.8</ele>
        <time>2019-06-20T09:34:09.000Z</time>
      </trkpt>
      <trkpt lat="50.41911" lon="5.30745">
        <ele>203.39999389648</ele>
        <time>2019-06-20T09:34:17.000Z</time>
      </trkpt>
      <trkpt lat="50.419" lon="5.30714">
        <ele>202.80000305176</ele>
        <time>2019-06-20T09:34:18.000Z</time>
      </trkpt>
      <trkpt lat="50.41892" lon="5.30698">
        <ele>243.9</ele>
        <time>2019-06-20T09:34:26.000Z</time>
      </trkpt>
      <trkpt lat="50.41877" lon="5.30672">
        <ele>243.6</ele>
        <time>2019-06-20T09:34:28.000Z</time>
      </trkpt>
      <trkpt lat="50.41857" lon="5.30656">
        <ele>242.3</ele>
        <time>2019-06-20T09:34:34.000Z</time>
      </trkpt>
      <trkpt lat="50.41798" lon="5.30612">
        <ele>241.6</ele>
        <time>2019-06-20T09:34:42.000Z</time>
      </trkpt>
      <trkpt lat="50.41776" lon="5.30595">
        <ele>201.60000610352</ele>
        <time>2019-06-20T09:34:46.000Z</time>
      </trkpt>
      <trkpt lat="50.41728" lon="5.30559">
        <ele>201</ele>
        <time>2019-06-20T09:34:47.000Z</time>
      </trkpt>
      <trkpt lat="50.41704" lon="5.30543">
        <ele>241.3</ele>
        <time>2019-06-20T09:34:51.000Z</time>
      </trkpt>
      <trkpt lat="50.41683" lon="5.30527">
        <ele>241.2</ele>
        <time>2019-06-20T09:34:53.000Z</time>
      </trkpt>
      <trkpt lat="50.41632" lon="5.30479">
        <ele>240.9</ele>
        <time>2019-06-20T09:34:58.000Z</time>
      </trkpt>
      <trkpt lat="50.41578" lon="5.30429">
        <ele>241.6</ele>
        <time>2019-06-20T09:35:06.000Z</time>
      </trkpt>
      <trkpt lat="50.4153" lon="5.30383">
        <ele>241.9</ele>
        <time>2019-06-20T09:35:13.000Z</time>
      </trkpt>
      <trkpt lat="50.41511" lon="5.30366">
        <ele>241.9</ele>
        <time>2019-06-20T09:35:18.000Z</time>
      </trkpt>
      <trkpt lat="50.41488" lon="5.30343">
        <ele>242.2</ele>
        <time>2019-06-20T09:35:21.000Z</time>
      </trkpt>
      <trkpt lat="50.41475" lon="5.30327">
        <ele>241.4</ele>
        <time>2019-06-20T09:35:26.000Z</time>
      </trkpt>
      <trkpt lat="50.41433" lon="5.30279">
        <ele>201</ele>
        <time>2019-06-20T09:35:29.000Z</time>
      </trkpt>
      <trkpt lat="50.41394" lon="5.30237">
        <ele>201</ele>
        <time>2019-06-20T09:35:31.000Z</time>
      </trkpt>
      <trkpt lat="50.41389" lon="5.30231">
        <ele>201</ele>
        <time>2019-06-20T09:35:32.000Z</time>
      </trkpt>
      <trkpt lat="50.41361" lon="5.302">
        <ele>201</ele>
        <time>2019-06-20T09:35:34.000Z</time>
      </trkpt>
      <trkpt lat="50.41332" lon="5.30169">
        <ele>201</ele>
        <time>2019-06-20T09:35:35.000Z</time>
      </trkpt>
      <trkpt lat="50.41315" lon="5.30151">
        <ele>242</ele>
        <time>2019-06-20T09:35:37.000Z</time>
      </trkpt>
      <trkpt lat="50.41302" lon="5.30125">
        <ele>201.60000610352</ele>
        <time>2019-06-20T09:35:38.000Z</time>
      </trkpt>
      <trkpt lat="50.41294" lon="5.30107">
        <ele>201.60000610352</ele>
        <time>2019-06-20T09:35:39.000Z</time>
      </trkpt>
      <trkpt lat="50.41288" lon="5.30087">
        <ele>201.60000610352</ele>
        <time>2019-06-20T09:35:42.000Z</time>
      </trkpt>
      <trkpt lat="50.41268" lon="5.30044">
        <ele>201.60000610352</ele>
        <time>2019-06-20T09:35:46.000Z</time>
      </trkpt>
      <trkpt lat="50.41235" lon="5.29975">
        <ele>201.39999389648</ele>
        <time>2019-06-20T09:35:51.000Z</time>
      </trkpt>
      <trkpt lat="50.41226" lon="5.29958">
        <ele>201.39999389648</ele>
        <time>2019-06-20T09:35:55.000Z</time>
      </trkpt>
      <trkpt lat="50.41214" lon="5.29933">
        <ele>241</ele>
        <time>2019-06-20T09:35:58.000Z</time>
      </trkpt>
      <trkpt lat="50.412" lon="5.2989">
        <ele>201.39999389648</ele>
        <time>2019-06-20T09:36:00.000Z</time>
      </trkpt>
      <trkpt lat="50.4117" lon="5.29816">
        <ele>200.60000610352</ele>
        <time>2019-06-20T09:36:01.000Z</time>
      </trkpt>
      <trkpt lat="50.41133" lon="5.29742">
        <ele>200.60000610352</ele>
        <time>2019-06-20T09:36:02.000Z</time>
      </trkpt>
      <trkpt lat="50.41097" lon="5.29681">
        <ele>242.3</ele>
        <time>2019-06-20T09:36:04.000Z</time>
      </trkpt>
      <trkpt lat="50.41058" lon="5.29617">
        <ele>244</ele>
        <time>2019-06-20T09:36:07.000Z</time>
      </trkpt>
      <trkpt lat="50.41031" lon="5.29577">
        <ele>243</ele>
        <time>2019-06-20T09:36:08.000Z</time>
      </trkpt>
      <trkpt lat="50.41014" lon="5.29551">
        <ele>243.1</ele>
        <time>2019-06-20T09:36:10.000Z</time>
      </trkpt>
      <trkpt lat="50.40987" lon="5.29499">
        <ele>243.1</ele>
        <time>2019-06-20T09:36:11.000Z</time>
      </trkpt>
      <trkpt lat="50.40956" lon="5.29432">
        <ele>243</ele>
        <time>2019-06-20T09:36:12.000Z</time>
      </trkpt>
      <trkpt lat="50.4092" lon="5.29364">
        <ele>201.80000305176</ele>
        <time>2019-06-20T09:36:13.000Z</time>
      </trkpt>
      <trkpt lat="50.40872" lon="5.29294">
        <ele>243.3</ele>
        <time>2019-06-20T09:36:16.000Z</time>
      </trkpt>
      <trkpt lat="50.40856" lon="5.2927">
        <ele>243</ele>
        <time>2019-06-20T09:36:17.000Z</time>
      </trkpt>
      <trkpt lat="50.40849" lon="5.29253">
        <ele>202</ele>
        <time>2019-06-20T09:36:21.000Z</time>
      </trkpt>
      <trkpt lat="50.40845" lon="5.29244">
        <ele>202</ele>
        <time>2019-06-20T09:36:23.000Z</time>
      </trkpt>
      <trkpt lat="50.40834" lon="5.2922">
        <ele>201.39999389648</ele>
        <time>2019-06-20T09:36:24.000Z</time>
      </trkpt>
      <trkpt lat="50.40823" lon="5.29211">
        <ele>242.2</ele>
        <time>2019-06-20T09:36:26.000Z</time>
      </trkpt>
      <trkpt lat="50.40807" lon="5.29211">
        <ele>242.5</ele>
        <time>2019-06-20T09:36:28.000Z</time>
      </trkpt>
      <trkpt lat="50.40795" lon="5.29218">
        <ele>242.9</ele>
        <time>2019-06-20T09:36:30.000Z</time>
      </trkpt>
      <trkpt lat="50.40785" lon="5.29215">
        <ele>243.1</ele>
        <time>2019-06-20T09:36:32.000Z</time>
      </trkpt>
      <trkpt lat="50.40777" lon="5.29201">
        <ele>243</ele>
        <time>2019-06-20T09:36:38.000Z</time>
      </trkpt>
      <trkpt lat="50.40772" lon="5.29185">
        <ele>202.60000610352</ele>
        <time>2019-06-20T09:36:39.000Z</time>
      </trkpt>
      <trkpt lat="50.40766" lon="5.29165">
        <ele>202.80000305176</ele>
        <time>2019-06-20T09:36:42.000Z</time>
      </trkpt>
      <trkpt lat="50.40756" lon="5.29134">
        <ele>202.80000305176</ele>
        <time>2019-06-20T09:36:44.000Z</time>
      </trkpt>
      <trkpt lat="50.40733" lon="5.29087">
        <ele>202.60000610352</ele>
        <time>2019-06-20T09:36:46.000Z</time>
      </trkpt>
      <trkpt lat="50.40709" lon="5.29051">
        <ele>241.4</ele>
        <time>2019-06-20T09:36:50.000Z</time>
      </trkpt>
      <trkpt lat="50.40658" lon="5.2897">
        <ele>244.1</ele>
        <time>2019-06-20T09:36:58.000Z</time>
      </trkpt>
      <trkpt lat="50.40608" lon="5.28897">
        <ele>241.8</ele>
        <time>2019-06-20T09:37:00.000Z</time>
      </trkpt>
      <trkpt lat="50.40592" lon="5.28876">
        <ele>241.5</ele>
        <time>2019-06-20T09:37:02.000Z</time>
      </trkpt>
      <trkpt lat="50.40566" lon="5.28853">
        <ele>241.8</ele>
        <time>2019-06-20T09:37:04.000Z</time>
      </trkpt>
      <trkpt lat="50.40547" lon="5.28847">
        <ele>241.9</ele>
        <time>2019-06-20T09:37:08.000Z</time>
      </trkpt>
      <trkpt lat="50.40525" lon="5.28847">
        <ele>241.8</ele>
        <time>2019-06-20T09:37:10.000Z</time>
      </trkpt>
      <trkpt lat="50.40517" lon="5.28847">
        <ele>200.39999389648</ele>
        <time>2019-06-20T09:37:11.000Z</time>
      </trkpt>
      <trkpt lat="50.40502" lon="5.28848">
        <ele>241.6</ele>
        <time>2019-06-20T09:37:14.000Z</time>
      </trkpt>
      <trkpt lat="50.40471" lon="5.28837">
        <ele>240.4</ele>
        <time>2019-06-20T09:37:15.000Z</time>
      </trkpt>
      <trkpt lat="50.40452" lon="5.28832">
        <ele>237.2</ele>
        <time>2019-06-20T09:37:17.000Z</time>
      </trkpt>
      <trkpt lat="50.40436" lon="5.28823">
        <ele>236.8</ele>
        <time>2019-06-20T09:37:18.000Z</time>
      </trkpt>
      <trkpt lat="50.40419" lon="5.28804">
        <ele>236.2</ele>
        <time>2019-06-20T09:37:20.000Z</time>
      </trkpt>
      <trkpt lat="50.40405" lon="5.28788">
        <ele>233.7</ele>
        <time>2019-06-20T09:37:21.000Z</time>
      </trkpt>
      <trkpt lat="50.40389" lon="5.28783">
        <ele>197.19999694824</ele>
        <time>2019-06-20T09:37:22.000Z</time>
      </trkpt>
      <trkpt lat="50.40382" lon="5.28786">
        <ele>196.80000305176</ele>
        <time>2019-06-20T09:37:24.000Z</time>
      </trkpt>
      <trkpt lat="50.40366" lon="5.2879">
        <ele>195.80000305176</ele>
        <time>2019-06-20T09:37:26.000Z</time>
      </trkpt>
      <trkpt lat="50.40357" lon="5.28791">
        <ele>195.39999389648</ele>
        <time>2019-06-20T09:37:27.000Z</time>
      </trkpt>
      <trkpt lat="50.40349" lon="5.28791">
        <ele>194.80000305176</ele>
        <time>2019-06-20T09:37:28.000Z</time>
      </trkpt>
      <trkpt lat="50.40324" lon="5.28791">
        <ele>193.39999389648</ele>
        <time>2019-06-20T09:37:30.000Z</time>
      </trkpt>
      <trkpt lat="50.40318" lon="5.28789">
        <ele>193</ele>
        <time>2019-06-20T09:37:32.000Z</time>
      </trkpt>
      <trkpt lat="50.40311" lon="5.28777">
        <ele>192</ele>
        <time>2019-06-20T09:37:33.000Z</time>
      </trkpt>
      <trkpt lat="50.4031" lon="5.28769">
        <ele>191.39999389648</ele>
        <time>2019-06-20T09:37:34.000Z</time>
      </trkpt>
      <trkpt lat="50.40311" lon="5.2876">
        <ele>190.80000305176</ele>
        <time>2019-06-20T09:37:37.000Z</time>
      </trkpt>
      <trkpt lat="50.40315" lon="5.28753">
        <ele>190.60000610352</ele>
        <time>2019-06-20T09:37:38.000Z</time>
      </trkpt>
      <trkpt lat="50.40326" lon="5.28742">
        <ele>189.19999694824</ele>
        <time>2019-06-20T09:37:41.000Z</time>
      </trkpt>
      <trkpt lat="50.40332" lon="5.28735">
        <ele>188.60000610352</ele>
        <time>2019-06-20T09:37:43.000Z</time>
      </trkpt>
      <trkpt lat="50.40336" lon="5.28727">
        <ele>188.19999694824</ele>
        <time>2019-06-20T09:37:44.000Z</time>
      </trkpt>
      <trkpt lat="50.40339" lon="5.28717">
        <ele>188</ele>
        <time>2019-06-20T09:37:47.000Z</time>
      </trkpt>
      <trkpt lat="50.40345" lon="5.2868">
        <ele>187.39999389648</ele>
        <time>2019-06-20T09:37:51.000Z</time>
      </trkpt>
      <trkpt lat="50.40342" lon="5.28654">
        <ele>187</ele>
        <time>2019-06-20T09:37:53.000Z</time>
      </trkpt>
      <trkpt lat="50.40338" lon="5.28641">
        <ele>186.80000305176</ele>
        <time>2019-06-20T09:38:00.000Z</time>
      </trkpt>
      <trkpt lat="50.40328" lon="5.28619">
        <ele>185.80000305176</ele>
        <time>2019-06-20T09:38:01.000Z</time>
      </trkpt>
      <trkpt lat="50.4032" lon="5.286">
        <ele>184.60000610352</ele>
        <time>2019-06-20T09:38:07.000Z</time>
      </trkpt>
      <trkpt lat="50.40316" lon="5.28591">
        <ele>184.39999389648</ele>
        <time>2019-06-20T09:38:08.000Z</time>
      </trkpt>
      <trkpt lat="50.40313" lon="5.28583">
        <ele>184.19999694824</ele>
        <time>2019-06-20T09:38:11.000Z</time>
      </trkpt>
      <trkpt lat="50.40312" lon="5.28565">
        <ele>183.60000610352</ele>
        <time>2019-06-20T09:38:14.000Z</time>
      </trkpt>
      <trkpt lat="50.40321" lon="5.28551">
        <ele>183.19999694824</ele>
        <time>2019-06-20T09:38:15.000Z</time>
      </trkpt>
      <trkpt lat="50.40327" lon="5.28545">
        <ele>183</ele>
        <time>2019-06-20T09:38:18.000Z</time>
      </trkpt>
      <trkpt lat="50.40341" lon="5.28534">
        <ele>183</ele>
        <time>2019-06-20T09:38:20.000Z</time>
      </trkpt>
      <trkpt lat="50.40362" lon="5.28517">
        <ele>182.80000305176</ele>
        <time>2019-06-20T09:38:21.000Z</time>
      </trkpt>
      <trkpt lat="50.40372" lon="5.28499">
        <ele>182.80000305176</ele>
        <time>2019-06-20T09:38:23.000Z</time>
      </trkpt>
      <trkpt lat="50.40375" lon="5.28489">
        <ele>182.60000610352</ele>
        <time>2019-06-20T09:38:24.000Z</time>
      </trkpt>
      <trkpt lat="50.40377" lon="5.2845">
        <ele>181.80000305176</ele>
        <time>2019-06-20T09:38:26.000Z</time>
      </trkpt>
      <trkpt lat="50.40376" lon="5.2844">
        <ele>181.60000610352</ele>
        <time>2019-06-20T09:38:28.000Z</time>
      </trkpt>
      <trkpt lat="50.40369" lon="5.28411">
        <ele>181.39999389648</ele>
        <time>2019-06-20T09:38:30.000Z</time>
      </trkpt>
      <trkpt lat="50.40363" lon="5.28396">
        <ele>181.19999694824</ele>
        <time>2019-06-20T09:38:32.000Z</time>
      </trkpt>
      <trkpt lat="50.40351" lon="5.28366">
        <ele>181.39999389648</ele>
        <time>2019-06-20T09:38:37.000Z</time>
      </trkpt>
      <trkpt lat="50.40341" lon="5.28342">
        <ele>182</ele>
        <time>2019-06-20T09:38:39.000Z</time>
      </trkpt>
      <trkpt lat="50.40334" lon="5.28326">
        <ele>182.60000610352</ele>
        <time>2019-06-20T09:38:45.000Z</time>
      </trkpt>
      <trkpt lat="50.40332" lon="5.2832">
        <ele>182.80000305176</ele>
        <time>2019-06-20T09:38:46.000Z</time>
      </trkpt>
      <trkpt lat="50.40325" lon="5.28302">
        <ele>183.80000305176</ele>
        <time>2019-06-20T09:38:52.000Z</time>
      </trkpt>
      <trkpt lat="50.4032" lon="5.28291">
        <ele>184.80000305176</ele>
        <time>2019-06-20T09:38:55.000Z</time>
      </trkpt>
      <trkpt lat="50.40318" lon="5.28285">
        <ele>185.19999694824</ele>
        <time>2019-06-20T09:39:02.000Z</time>
      </trkpt>
      <trkpt lat="50.40312" lon="5.28269">
        <ele>186.39999389648</ele>
        <time>2019-06-20T09:39:03.000Z</time>
      </trkpt>
      <trkpt lat="50.40309" lon="5.28258">
        <ele>187</ele>
        <time>2019-06-20T09:39:04.000Z</time>
      </trkpt>
      <trkpt lat="50.40307" lon="5.28248">
        <ele>187.60000610352</ele>
        <time>2019-06-20T09:39:11.000Z</time>
      </trkpt>
      <trkpt lat="50.40308" lon="5.28232">
        <ele>188.60000610352</ele>
        <time>2019-06-20T09:39:12.000Z</time>
      </trkpt>
      <trkpt lat="50.40312" lon="5.28219">
        <ele>189.80000305176</ele>
        <time>2019-06-20T09:39:18.000Z</time>
      </trkpt>
      <trkpt lat="50.40317" lon="5.28212">
        <ele>190.80000305176</ele>
        <time>2019-06-20T09:39:21.000Z</time>
      </trkpt>
      <trkpt lat="50.40319" lon="5.28208">
        <ele>191.39999389648</ele>
        <time>2019-06-20T09:39:25.000Z</time>
      </trkpt>
      <trkpt lat="50.40324" lon="5.282">
        <ele>192.39999389648</ele>
        <time>2019-06-20T09:39:27.000Z</time>
      </trkpt>
      <trkpt lat="50.40328" lon="5.2819">
        <ele>194</ele>
        <time>2019-06-20T09:39:28.000Z</time>
      </trkpt>
      <trkpt lat="50.40329" lon="5.28185">
        <ele>194.39999389648</ele>
        <time>2019-06-20T09:39:30.000Z</time>
      </trkpt>
      <trkpt lat="50.40331" lon="5.28175">
        <ele>195</ele>
        <time>2019-06-20T09:39:37.000Z</time>
      </trkpt>
      <trkpt lat="50.40332" lon="5.2815">
        <ele>196</ele>
        <time>2019-06-20T09:39:38.000Z</time>
      </trkpt>
      <trkpt lat="50.40328" lon="5.28117">
        <ele>196.39999389648</ele>
        <time>2019-06-20T09:39:46.000Z</time>
      </trkpt>
      <trkpt lat="50.40328" lon="5.28117">
        <ele>196.60000610352</ele>
        <time>2019-06-20T09:39:55.000Z</time>
      </trkpt>
      <trkpt lat="50.40316" lon="5.2807">
        <ele>197</ele>
        <time>2019-06-20T09:39:57.000Z</time>
      </trkpt>
      <trkpt lat="50.40315" lon="5.28064">
        <ele>197.19999694824</ele>
        <time>2019-06-20T09:40:05.000Z</time>
      </trkpt>
      <trkpt lat="50.40298" lon="5.2803">
        <ele>198</ele>
        <time>2019-06-20T09:40:11.000Z</time>
      </trkpt>
      <trkpt lat="50.40295" lon="5.28024">
        <ele>198</ele>
        <time>2019-06-20T09:40:17.000Z</time>
      </trkpt>
      <trkpt lat="50.4028" lon="5.27997">
        <ele>198.80000305176</ele>
        <time>2019-06-20T09:40:20.000Z</time>
      </trkpt>
      <trkpt lat="50.40266" lon="5.27971">
        <ele>199</ele>
        <time>2019-06-20T09:40:24.000Z</time>
      </trkpt>
      <trkpt lat="50.40237" lon="5.27917">
        <ele>200</ele>
        <time>2019-06-20T09:40:25.000Z</time>
      </trkpt>
      <trkpt lat="50.40233" lon="5.27911">
        <ele>200.19999694824</ele>
        <time>2019-06-20T09:40:28.000Z</time>
      </trkpt>
      <trkpt lat="50.40209" lon="5.27862">
        <ele>201.19999694824</ele>
        <time>2019-06-20T09:40:29.000Z</time>
      </trkpt>
      <trkpt lat="50.40206" lon="5.27854">
        <ele>201.19999694824</ele>
        <time>2019-06-20T09:41:01.000Z</time>
      </trkpt>
      <trkpt lat="50.40186" lon="5.27807">
        <ele>201.60000610352</ele>
        <time>2019-06-20T09:41:02.000Z</time>
      </trkpt>
      <trkpt lat="50.4016" lon="5.27741">
        <ele>202</ele>
        <time>2019-06-20T09:41:06.000Z</time>
      </trkpt>
      <trkpt lat="50.40136" lon="5.27682">
        <ele>202.19999694824</ele>
        <time>2019-06-20T09:41:13.000Z</time>
      </trkpt>
      <trkpt lat="50.40133" lon="5.27675">
        <ele>202.39999389648</ele>
        <time>2019-06-20T09:41:19.000Z</time>
      </trkpt>
      <trkpt lat="50.40118" lon="5.27635">
        <ele>202.80000305176</ele>
        <time>2019-06-20T09:41:20.000Z</time>
      </trkpt>
      <trkpt lat="50.40102" lon="5.27592">
        <ele>203.19999694824</ele>
        <time>2019-06-20T09:41:26.000Z</time>
      </trkpt>
      <trkpt lat="50.40084" lon="5.2754">
        <ele>203.39999389648</ele>
        <time>2019-06-20T09:41:34.000Z</time>
      </trkpt>
      <trkpt lat="50.40079" lon="5.27525">
        <ele>203.39999389648</ele>
        <time>2019-06-20T09:41:35.000Z</time>
      </trkpt>
      <trkpt lat="50.4007" lon="5.27501">
        <ele>203.39999389648</ele>
        <time>2019-06-20T09:41:41.000Z</time>
      </trkpt>
      <trkpt lat="50.40061" lon="5.27476">
        <ele>203.39999389648</ele>
        <time>2019-06-20T09:41:45.000Z</time>
      </trkpt>
      <trkpt lat="50.40058" lon="5.27468">
        <ele>203.39999389648</ele>
        <time>2019-06-20T09:41:53.000Z</time>
      </trkpt>
      <trkpt lat="50.4003" lon="5.27401">
        <ele>203.39999389648</ele>
        <time>2019-06-20T09:41:56.000Z</time>
      </trkpt>
      <trkpt lat="50.40001" lon="5.27347">
        <ele>203.19999694824</ele>
        <time>2019-06-20T09:42:00.000Z</time>
      </trkpt>
      <trkpt lat="50.39971" lon="5.27297">
        <ele>203</ele>
        <time>2019-06-20T09:42:07.000Z</time>
      </trkpt>
      <trkpt lat="50.39961" lon="5.27281">
        <ele>202.80000305176</ele>
        <time>2019-06-20T09:42:11.000Z</time>
      </trkpt>
      <trkpt lat="50.39952" lon="5.27263">
        <ele>202.60000610352</ele>
        <time>2019-06-20T09:42:13.000Z</time>
      </trkpt>
      <trkpt lat="50.39948" lon="5.27254">
        <ele>202.39999389648</ele>
        <time>2019-06-20T09:42:18.000Z</time>
      </trkpt>
      <trkpt lat="50.39937" lon="5.2723">
        <ele>201.60000610352</ele>
        <time>2019-06-20T09:42:20.000Z</time>
      </trkpt>
      <trkpt lat="50.39929" lon="5.27214">
        <ele>201.19999694824</ele>
        <time>2019-06-20T09:42:23.000Z</time>
      </trkpt>
      <trkpt lat="50.39918" lon="5.27189">
        <ele>201</ele>
        <time>2019-06-20T09:42:24.000Z</time>
      </trkpt>
      <trkpt lat="50.39907" lon="5.27164">
        <ele>200.80000305176</ele>
        <time>2019-06-20T09:42:26.000Z</time>
      </trkpt>
      <trkpt lat="50.39886" lon="5.2712">
        <ele>200.60000610352</ele>
        <time>2019-06-20T09:42:31.000Z</time>
      </trkpt>
      <trkpt lat="50.39879" lon="5.27098">
        <ele>200.60000610352</ele>
        <time>2019-06-20T09:42:32.000Z</time>
      </trkpt>
      <trkpt lat="50.39872" lon="5.27064">
        <ele>200.19999694824</ele>
        <time>2019-06-20T09:42:36.000Z</time>
      </trkpt>
      <trkpt lat="50.39868" lon="5.27042">
        <ele>200</ele>
        <time>2019-06-20T09:49:50.000Z</time>
      </trkpt>
      <trkpt lat="50.3986" lon="5.2699">
        <ele>199.19999694824</ele>
        <time>2019-06-20T09:49:51.000Z</time>
      </trkpt>
      <trkpt lat="50.39857" lon="5.26969">
        <ele>199</ele>
        <time>2019-06-20T09:49:56.000Z</time>
      </trkpt>
      <trkpt lat="50.39852" lon="5.26939">
        <ele>199</ele>
        <time>2019-06-20T09:49:58.000Z</time>
      </trkpt>
      <trkpt lat="50.39844" lon="5.26893">
        <ele>199</ele>
        <time>2019-06-20T09:50:04.000Z</time>
      </trkpt>
      <trkpt lat="50.39837" lon="5.26864">
        <ele>199</ele>
        <time>2019-06-20T09:50:12.000Z</time>
      </trkpt>
      <trkpt lat="50.39829" lon="5.26837">
        <ele>199.60000610352</ele>
        <time>2019-06-20T09:50:18.000Z</time>
      </trkpt>
      <trkpt lat="50.39823" lon="5.26819">
        <ele>199.80000305176</ele>
        <time>2019-06-20T09:50:20.000Z</time>
      </trkpt>
      <trkpt lat="50.39819" lon="5.26811">
        <ele>200</ele>
        <time>2019-06-20T09:50:25.000Z</time>
      </trkpt>
      <trkpt lat="50.39806" lon="5.26779">
        <ele>200.60000610352</ele>
        <time>2019-06-20T09:50:30.000Z</time>
      </trkpt>
      <trkpt lat="50.398" lon="5.26763">
        <ele>201</ele>
        <time>2019-06-20T09:50:33.000Z</time>
      </trkpt>
      <trkpt lat="50.39796" lon="5.26754">
        <ele>201</ele>
        <time>2019-06-20T09:50:37.000Z</time>
      </trkpt>
      <trkpt lat="50.3978" lon="5.26714">
        <ele>201.80000305176</ele>
        <time>2019-06-20T09:50:44.000Z</time>
      </trkpt>
      <trkpt lat="50.3977" lon="5.2669">
        <ele>202</ele>
        <time>2019-06-20T09:50:49.000Z</time>
      </trkpt>
      <trkpt lat="50.39767" lon="5.26682">
        <ele>202.19999694824</ele>
        <time>2019-06-20T09:50:50.000Z</time>
      </trkpt>
      <trkpt lat="50.39758" lon="5.26659">
        <ele>202.80000305176</ele>
        <time>2019-06-20T09:50:56.000Z</time>
      </trkpt>
      <trkpt lat="50.39752" lon="5.26644">
        <ele>203.39999389648</ele>
        <time>2019-06-20T09:50:58.000Z</time>
      </trkpt>
      <trkpt lat="50.39744" lon="5.2662">
        <ele>203.80000305176</ele>
        <time>2019-06-20T09:51:02.000Z</time>
      </trkpt>
      <trkpt lat="50.39738" lon="5.26595">
        <ele>204.19999694824</ele>
        <time>2019-06-20T09:51:03.000Z</time>
      </trkpt>
      <trkpt lat="50.39737" lon="5.26588">
        <ele>204.19999694824</ele>
        <time>2019-06-20T09:51:07.000Z</time>
      </trkpt>
      <trkpt lat="50.39736" lon="5.26581">
        <ele>204.39999389648</ele>
        <time>2019-06-20T09:51:10.000Z</time>
      </trkpt>
      <trkpt lat="50.39729" lon="5.26528">
        <ele>205.19999694824</ele>
        <time>2019-06-20T09:51:11.000Z</time>
      </trkpt>
      <trkpt lat="50.39727" lon="5.26519">
        <ele>205.19999694824</ele>
        <time>2019-06-20T09:51:18.000Z</time>
      </trkpt>
      <trkpt lat="50.39717" lon="5.2645">
        <ele>206</ele>
        <time>2019-06-20T09:51:19.000Z</time>
      </trkpt>
      <trkpt lat="50.39715" lon="5.26442">
        <ele>206.19999694824</ele>
        <time>2019-06-20T09:51:21.000Z</time>
      </trkpt>
      <trkpt lat="50.39709" lon="5.26398">
        <ele>207.39999389648</ele>
        <time>2019-06-20T09:51:27.000Z</time>
      </trkpt>
      <trkpt lat="50.39706" lon="5.26381">
        <ele>207.60000610352</ele>
        <time>2019-06-20T09:51:30.000Z</time>
      </trkpt>
      <trkpt lat="50.397" lon="5.26346">
        <ele>208.39999389648</ele>
        <time>2019-06-20T09:51:34.000Z</time>
      </trkpt>
      <trkpt lat="50.3969" lon="5.26277">
        <ele>209.39999389648</ele>
        <time>2019-06-20T09:51:35.000Z</time>
      </trkpt>
      <trkpt lat="50.3969" lon="5.26277">
        <ele>209.60000610352</ele>
        <time>2019-06-20T09:51:38.000Z</time>
      </trkpt>
      <trkpt lat="50.39682" lon="5.26218">
        <ele>210.60000610352</ele>
        <time>2019-06-20T09:51:40.000Z</time>
      </trkpt>
      <trkpt lat="50.3968" lon="5.2621">
        <ele>211</ele>
        <time>2019-06-20T09:51:41.000Z</time>
      </trkpt>
      <trkpt lat="50.39677" lon="5.26185">
        <ele>211.60000610352</ele>
        <time>2019-06-20T09:51:44.000Z</time>
      </trkpt>
      <trkpt lat="50.39672" lon="5.26161">
        <ele>212.80000305176</ele>
        <time>2019-06-20T09:51:45.000Z</time>
      </trkpt>
      <trkpt lat="50.39668" lon="5.26129">
        <ele>213.80000305176</ele>
        <time>2019-06-20T09:51:47.000Z</time>
      </trkpt>
      <trkpt lat="50.39664" lon="5.26106">
        <ele>214.60000610352</ele>
        <time>2019-06-20T09:51:48.000Z</time>
      </trkpt>
      <trkpt lat="50.39663" lon="5.26098">
        <ele>214.80000305176</ele>
        <time>2019-06-20T09:51:50.000Z</time>
      </trkpt>
      <trkpt lat="50.39658" lon="5.26067">
        <ele>216</ele>
        <time>2019-06-20T09:51:53.000Z</time>
      </trkpt>
      <trkpt lat="50.39654" lon="5.26044">
        <ele>217.19999694824</ele>
        <time>2019-06-20T09:51:54.000Z</time>
      </trkpt>
      <trkpt lat="50.39651" lon="5.26021">
        <ele>218.19999694824</ele>
        <time>2019-06-20T09:51:55.000Z</time>
      </trkpt>
      <trkpt lat="50.39646" lon="5.25999">
        <ele>219.39999389648</ele>
        <time>2019-06-20T09:51:59.000Z</time>
      </trkpt>
      <trkpt lat="50.39636" lon="5.25971">
        <ele>220.39999389648</ele>
        <time>2019-06-20T09:52:00.000Z</time>
      </trkpt>
      <trkpt lat="50.39634" lon="5.25964">
        <ele>220.39999389648</ele>
        <time>2019-06-20T09:52:03.000Z</time>
      </trkpt>
      <trkpt lat="50.39631" lon="5.25958">
        <ele>221.39999389648</ele>
        <time>2019-06-20T09:52:06.000Z</time>
      </trkpt>
      <trkpt lat="50.39613" lon="5.25928">
        <ele>222.39999389648</ele>
        <time>2019-06-20T09:52:09.000Z</time>
      </trkpt>
      <trkpt lat="50.39609" lon="5.25922">
        <ele>222.60000610352</ele>
        <time>2019-06-20T09:52:11.000Z</time>
      </trkpt>
      <trkpt lat="50.39583" lon="5.25887">
        <ele>223.39999389648</ele>
        <time>2019-06-20T09:52:13.000Z</time>
      </trkpt>
      <trkpt lat="50.39569" lon="5.25871">
        <ele>223.80000305176</ele>
        <time>2019-06-20T09:52:15.000Z</time>
      </trkpt>
      <trkpt lat="50.39536" lon="5.2583">
        <ele>224.60000610352</ele>
        <time>2019-06-20T09:52:19.000Z</time>
      </trkpt>
      <trkpt lat="50.39526" lon="5.25818">
        <ele>224.80000305176</ele>
        <time>2019-06-20T09:52:23.000Z</time>
      </trkpt>
      <trkpt lat="50.39487" lon="5.2577">
        <ele>224.60000610352</ele>
        <time>2019-06-20T09:52:25.000Z</time>
      </trkpt>
      <trkpt lat="50.39476" lon="5.25756">
        <ele>224.60000610352</ele>
        <time>2019-06-20T09:52:27.000Z</time>
      </trkpt>
      <trkpt lat="50.39447" lon="5.25721">
        <ele>223.60000610352</ele>
        <time>2019-06-20T09:52:30.000Z</time>
      </trkpt>
      <trkpt lat="50.39431" lon="5.25701">
        <ele>222.60000610352</ele>
        <time>2019-06-20T09:52:32.000Z</time>
      </trkpt>
      <trkpt lat="50.39426" lon="5.25695">
        <ele>222.39999389648</ele>
        <time>2019-06-20T09:52:35.000Z</time>
      </trkpt>
      <trkpt lat="50.394" lon="5.25662">
        <ele>222</ele>
        <time>2019-06-20T09:52:36.000Z</time>
      </trkpt>
      <trkpt lat="50.39369" lon="5.25625">
        <ele>222.19999694824</ele>
        <time>2019-06-20T09:52:39.000Z</time>
      </trkpt>
      <trkpt lat="50.39334" lon="5.25581">
        <ele>223.39999389648</ele>
        <time>2019-06-20T09:52:40.000Z</time>
      </trkpt>
      <trkpt lat="50.3933" lon="5.25577">
        <ele>223.80000305176</ele>
        <time>2019-06-20T09:52:44.000Z</time>
      </trkpt>
      <trkpt lat="50.39315" lon="5.25558">
        <ele>224.80000305176</ele>
        <time>2019-06-20T09:52:46.000Z</time>
      </trkpt>
      <trkpt lat="50.39304" lon="5.25544">
        <ele>225.80000305176</ele>
        <time>2019-06-20T09:52:48.000Z</time>
      </trkpt>
      <trkpt lat="50.39293" lon="5.2553">
        <ele>226.60000610352</ele>
        <time>2019-06-20T09:52:52.000Z</time>
      </trkpt>
      <trkpt lat="50.39289" lon="5.25525">
        <ele>227</ele>
        <time>2019-06-20T09:52:57.000Z</time>
      </trkpt>
      <trkpt lat="50.39275" lon="5.25503">
        <ele>228.19999694824</ele>
        <time>2019-06-20T09:52:58.000Z</time>
      </trkpt>
      <trkpt lat="50.39261" lon="5.2548">
        <ele>229.19999694824</ele>
        <time>2019-06-20T09:52:59.000Z</time>
      </trkpt>
      <trkpt lat="50.39246" lon="5.2545">
        <ele>230.39999389648</ele>
        <time>2019-06-20T09:53:05.000Z</time>
      </trkpt>
      <trkpt lat="50.3923" lon="5.25419">
        <ele>231.60000610352</ele>
        <time>2019-06-20T09:53:11.000Z</time>
      </trkpt>
      <trkpt lat="50.39227" lon="5.25412">
        <ele>231.80000305176</ele>
        <time>2019-06-20T09:53:18.000Z</time>
      </trkpt>
      <trkpt lat="50.39212" lon="5.25382">
        <ele>232.80000305176</ele>
        <time>2019-06-20T09:53:21.000Z</time>
      </trkpt>
      <trkpt lat="50.39194" lon="5.25345">
        <ele>233.60000610352</ele>
        <time>2019-06-20T09:53:24.000Z</time>
      </trkpt>
      <trkpt lat="50.39191" lon="5.25338">
        <ele>234</ele>
        <time>2019-06-20T09:53:26.000Z</time>
      </trkpt>
      <trkpt lat="50.39178" lon="5.25313">
        <ele>235</ele>
        <time>2019-06-20T09:53:28.000Z</time>
      </trkpt>
      <trkpt lat="50.39168" lon="5.25292">
        <ele>235.80000305176</ele>
        <time>2019-06-20T09:53:30.000Z</time>
      </trkpt>
      <trkpt lat="50.39165" lon="5.25286">
        <ele>236</ele>
        <time>2019-06-20T09:53:34.000Z</time>
      </trkpt>
      <trkpt lat="50.39134" lon="5.25221">
        <ele>236.80000305176</ele>
        <time>2019-06-20T09:53:36.000Z</time>
      </trkpt>
      <trkpt lat="50.3912" lon="5.25192">
        <ele>237</ele>
        <time>2019-06-20T09:53:38.000Z</time>
      </trkpt>
      <trkpt lat="50.39101" lon="5.25153">
        <ele>237.19999694824</ele>
        <time>2019-06-20T09:53:41.000Z</time>
      </trkpt>
      <trkpt lat="50.39074" lon="5.2509">
        <ele>237.19999694824</ele>
        <time>2019-06-20T09:53:44.000Z</time>
      </trkpt>
      <trkpt lat="50.39062" lon="5.25049">
        <ele>236</ele>
        <time>2019-06-20T09:53:46.000Z</time>
      </trkpt>
      <trkpt lat="50.39057" lon="5.2503">
        <ele>235.19999694824</ele>
        <time>2019-06-20T09:53:47.000Z</time>
      </trkpt>
      <trkpt lat="50.39055" lon="5.25019">
        <ele>234.80000305176</ele>
        <time>2019-06-20T10:00:54.000Z</time>
      </trkpt>
      <trkpt lat="50.39048" lon="5.2498">
        <ele>234</ele>
        <time>2019-06-20T10:00:56.000Z</time>
      </trkpt>
      <trkpt lat="50.39036" lon="5.24922">
        <ele>233.80000305176</ele>
        <time>2019-06-20T10:01:09.000Z</time>
      </trkpt>
      <trkpt lat="50.39012" lon="5.24851">
        <ele>234.19999694824</ele>
        <time>2019-06-20T10:01:12.000Z</time>
      </trkpt>
      <trkpt lat="50.3898" lon="5.24776">
        <ele>235</ele>
        <time>2019-06-20T10:01:18.000Z</time>
      </trkpt>
      <trkpt lat="50.38977" lon="5.24768">
        <ele>235.19999694824</ele>
        <time>2019-06-20T10:01:20.000Z</time>
      </trkpt>
      <trkpt lat="50.38959" lon="5.24728">
        <ele>236</ele>
        <time>2019-06-20T10:01:22.000Z</time>
      </trkpt>
      <trkpt lat="50.38936" lon="5.24672">
        <ele>237</ele>
        <time>2019-06-20T10:01:23.000Z</time>
      </trkpt>
      <trkpt lat="50.38933" lon="5.24663">
        <ele>237</ele>
        <time>2019-06-20T10:01:27.000Z</time>
      </trkpt>
      <trkpt lat="50.38919" lon="5.2461">
        <ele>237.60000610352</ele>
        <time>2019-06-20T10:01:31.000Z</time>
      </trkpt>
      <trkpt lat="50.38917" lon="5.24602">
        <ele>237.80000305176</ele>
        <time>2019-06-20T10:01:34.000Z</time>
      </trkpt>
      <trkpt lat="50.38914" lon="5.24585">
        <ele>238.19999694824</ele>
        <time>2019-06-20T10:01:35.000Z</time>
      </trkpt>
      <trkpt lat="50.38907" lon="5.24545">
        <ele>239</ele>
        <time>2019-06-20T10:01:38.000Z</time>
      </trkpt>
      <trkpt lat="50.38905" lon="5.24538">
        <ele>239.19999694824</ele>
        <time>2019-06-20T10:01:42.000Z</time>
      </trkpt>
      <trkpt lat="50.38901" lon="5.24518">
        <ele>240.19999694824</ele>
        <time>2019-06-20T10:01:45.000Z</time>
      </trkpt>
      <trkpt lat="50.38896" lon="5.24504">
        <ele>241</ele>
        <time>2019-06-20T10:01:48.000Z</time>
      </trkpt>
      <trkpt lat="50.38893" lon="5.24501">
        <ele>241.19999694824</ele>
        <time>2019-06-20T10:01:51.000Z</time>
      </trkpt>
      <trkpt lat="50.3889" lon="5.245">
        <ele>241.60000610352</ele>
        <time>2019-06-20T10:01:53.000Z</time>
      </trkpt>
      <trkpt lat="50.38886" lon="5.245">
        <ele>242</ele>
        <time>2019-06-20T10:01:55.000Z</time>
      </trkpt>
      <trkpt lat="50.38868" lon="5.24508">
        <ele>242.60000610352</ele>
        <time>2019-06-20T10:01:56.000Z</time>
      </trkpt>
      <trkpt lat="50.38857" lon="5.24516">
        <ele>242.60000610352</ele>
        <time>2019-06-20T10:02:00.000Z</time>
      </trkpt>
      <trkpt lat="50.38838" lon="5.24531">
        <ele>242.60000610352</ele>
        <time>2019-06-20T10:02:03.000Z</time>
      </trkpt>
      <trkpt lat="50.38811" lon="5.24563">
        <ele>241.80000305176</ele>
        <time>2019-06-20T10:02:04.000Z</time>
      </trkpt>
      <trkpt lat="50.38805" lon="5.24571">
        <ele>241.19999694824</ele>
        <time>2019-06-20T10:02:07.000Z</time>
      </trkpt>
      <trkpt lat="50.38794" lon="5.24583">
        <ele>239.80000305176</ele>
        <time>2019-06-20T10:02:10.000Z</time>
      </trkpt>
      <trkpt lat="50.38786" lon="5.24593">
        <ele>238.60000610352</ele>
        <time>2019-06-20T10:02:11.000Z</time>
      </trkpt>
      <trkpt lat="50.38776" lon="5.24605">
        <ele>237.39999389648</ele>
        <time>2019-06-20T10:02:12.000Z</time>
      </trkpt>
      <trkpt lat="50.3877" lon="5.24611">
        <ele>236.39999389648</ele>
        <time>2019-06-20T10:02:14.000Z</time>
      </trkpt>
      <trkpt lat="50.38764" lon="5.24618">
        <ele>235.39999389648</ele>
        <time>2019-06-20T10:02:20.000Z</time>
      </trkpt>
      <trkpt lat="50.38753" lon="5.24631">
        <ele>234.19999694824</ele>
        <time>2019-06-20T10:02:21.000Z</time>
      </trkpt>
      <trkpt lat="50.38743" lon="5.24641">
        <ele>232.39999389648</ele>
        <time>2019-06-20T10:02:25.000Z</time>
      </trkpt>
      <trkpt lat="50.38734" lon="5.24637">
        <ele>231.19999694824</ele>
        <time>2019-06-20T10:02:28.000Z</time>
      </trkpt>
      <trkpt lat="50.38722" lon="5.24612">
        <ele>230.39999389648</ele>
        <time>2019-06-20T10:02:31.000Z</time>
      </trkpt>
      <trkpt lat="50.38705" lon="5.24571">
        <ele>230.39999389648</ele>
        <time>2019-06-20T10:02:32.000Z</time>
      </trkpt>
      <trkpt lat="50.38702" lon="5.24564">
        <ele>230.60000610352</ele>
        <time>2019-06-20T10:02:35.000Z</time>
      </trkpt>
      <trkpt lat="50.38697" lon="5.24553">
        <ele>231</ele>
        <time>2019-06-20T10:02:38.000Z</time>
      </trkpt>
      <trkpt lat="50.3869" lon="5.24545">
        <ele>231.19999694824</ele>
        <time>2019-06-20T10:02:40.000Z</time>
      </trkpt>
      <trkpt lat="50.38677" lon="5.24547">
        <ele>231.80000305176</ele>
        <time>2019-06-20T10:02:46.000Z</time>
      </trkpt>
      <trkpt lat="50.3867" lon="5.24553">
        <ele>232.19999694824</ele>
        <time>2019-06-20T10:02:49.000Z</time>
      </trkpt>
      <trkpt lat="50.38663" lon="5.2456">
        <ele>232.39999389648</ele>
        <time>2019-06-20T10:02:51.000Z</time>
      </trkpt>
      <trkpt lat="50.3866" lon="5.24564">
        <ele>232.60000610352</ele>
        <time>2019-06-20T10:02:58.000Z</time>
      </trkpt>
      <trkpt lat="50.38649" lon="5.24575">
        <ele>233.60000610352</ele>
        <time>2019-06-20T10:03:02.000Z</time>
      </trkpt>
      <trkpt lat="50.38645" lon="5.24579">
        <ele>234</ele>
        <time>2019-06-20T10:03:03.000Z</time>
      </trkpt>
      <trkpt lat="50.38634" lon="5.2459">
        <ele>235.19999694824</ele>
        <time>2019-06-20T10:03:07.000Z</time>
      </trkpt>
      <trkpt lat="50.38623" lon="5.24602">
        <ele>236.39999389648</ele>
        <time>2019-06-20T10:03:08.000Z</time>
      </trkpt>
      <trkpt lat="50.38611" lon="5.24613">
        <ele>237.19999694824</ele>
        <time>2019-06-20T10:03:14.000Z</time>
      </trkpt>
      <trkpt lat="50.38607" lon="5.24617">
        <ele>237.39999389648</ele>
        <time>2019-06-20T10:03:15.000Z</time>
      </trkpt>
      <trkpt lat="50.38593" lon="5.24629">
        <ele>238</ele>
        <time>2019-06-20T10:03:17.000Z</time>
      </trkpt>
      <trkpt lat="50.38591" lon="5.24628">
        <ele>238</ele>
        <time>2019-06-20T10:03:19.000Z</time>
      </trkpt>
      <trkpt lat="50.38588" lon="5.24623">
        <ele>238</ele>
        <time>2019-06-20T10:03:21.000Z</time>
      </trkpt>
      <trkpt lat="50.38579" lon="5.24598">
        <ele>238</ele>
        <time>2019-06-20T10:03:22.000Z</time>
      </trkpt>
      <trkpt lat="50.38569" lon="5.24569">
        <ele>238</ele>
        <time>2019-06-20T10:03:26.000Z</time>
      </trkpt>
      <trkpt lat="50.38565" lon="5.24558">
        <ele>238.19999694824</ele>
        <time>2019-06-20T10:03:27.000Z</time>
      </trkpt>
      <trkpt lat="50.38564" lon="5.24555">
        <ele>238.60000610352</ele>
        <time>2019-06-20T10:03:32.000Z</time>
      </trkpt>
      <trkpt lat="50.38564" lon="5.24555">
        <ele>238.60000610352</ele>
        <time>2019-06-20T10:03:33.000Z</time>
      </trkpt>
      <trkpt lat="50.38562" lon="5.24558">
        <ele>238.60000610352</ele>
        <time>2019-06-20T10:03:35.000Z</time>
      </trkpt>
      <trkpt lat="50.38558" lon="5.24565">
        <ele>238.60000610352</ele>
        <time>2019-06-20T10:03:38.000Z</time>
      </trkpt>
      <trkpt lat="50.38541" lon="5.24594">
        <ele>238.39999389648</ele>
        <time>2019-06-20T10:03:39.000Z</time>
      </trkpt>
      <trkpt lat="50.38521" lon="5.24627">
        <ele>238.19999694824</ele>
        <time>2019-06-20T10:03:41.000Z</time>
      </trkpt>
      <trkpt lat="50.38512" lon="5.24642">
        <ele>238</ele>
        <time>2019-06-20T10:03:44.000Z</time>
      </trkpt>
      <trkpt lat="50.38497" lon="5.24669">
        <ele>237.60000610352</ele>
        <time>2019-06-20T10:03:45.000Z</time>
      </trkpt>
      <trkpt lat="50.38491" lon="5.24679">
        <ele>237.39999389648</ele>
        <time>2019-06-20T10:03:49.000Z</time>
      </trkpt>
      <trkpt lat="50.38466" lon="5.2472">
        <ele>236.19999694824</ele>
        <time>2019-06-20T10:03:52.000Z</time>
      </trkpt>
      <trkpt lat="50.38446" lon="5.24755">
        <ele>235</ele>
        <time>2019-06-20T10:03:59.000Z</time>
      </trkpt>
      <trkpt lat="50.38432" lon="5.2478">
        <ele>233.60000610352</ele>
        <time>2019-06-20T10:04:00.000Z</time>
      </trkpt>
      <trkpt lat="50.38419" lon="5.24803">
        <ele>232.60000610352</ele>
        <time>2019-06-20T10:04:04.000Z</time>
      </trkpt>
      <trkpt lat="50.38406" lon="5.24825">
        <ele>231.19999694824</ele>
        <time>2019-06-20T10:04:05.000Z</time>
      </trkpt>
      <trkpt lat="50.38394" lon="5.24846">
        <ele>229.80000305176</ele>
        <time>2019-06-20T10:04:11.000Z</time>
      </trkpt>
      <trkpt lat="50.38383" lon="5.24865">
        <ele>229</ele>
        <time>2019-06-20T10:04:16.000Z</time>
      </trkpt>
      <trkpt lat="50.38378" lon="5.24874">
        <ele>228.80000305176</ele>
        <time>2019-06-20T10:04:21.000Z</time>
      </trkpt>
      <trkpt lat="50.38356" lon="5.24913">
        <ele>228.60000610352</ele>
        <time>2019-06-20T10:04:26.000Z</time>
      </trkpt>
      <trkpt lat="50.38337" lon="5.24946">
        <ele>228.80000305176</ele>
        <time>2019-06-20T10:04:27.000Z</time>
      </trkpt>
      <trkpt lat="50.3833" lon="5.24959">
        <ele>229.39999389648</ele>
        <time>2019-06-20T10:04:30.000Z</time>
      </trkpt>
      <trkpt lat="50.38322" lon="5.24972">
        <ele>230</ele>
        <time>2019-06-20T10:04:31.000Z</time>
      </trkpt>
      <trkpt lat="50.38311" lon="5.24991">
        <ele>230.80000305176</ele>
        <time>2019-06-20T10:04:36.000Z</time>
      </trkpt>
      <trkpt lat="50.38307" lon="5.24998">
        <ele>231</ele>
        <time>2019-06-20T10:04:41.000Z</time>
      </trkpt>
      <trkpt lat="50.38303" lon="5.25005">
        <ele>231.80000305176</ele>
        <time>2019-06-20T10:04:46.000Z</time>
      </trkpt>
      <trkpt lat="50.38298" lon="5.25012">
        <ele>232.19999694824</ele>
        <time>2019-06-20T10:04:49.000Z</time>
      </trkpt>
      <trkpt lat="50.38286" lon="5.25032">
        <ele>233</ele>
        <time>2019-06-20T10:04:51.000Z</time>
      </trkpt>
      <trkpt lat="50.38279" lon="5.25044">
        <ele>233.19999694824</ele>
        <time>2019-06-20T10:04:57.000Z</time>
      </trkpt>
      <trkpt lat="50.38276" lon="5.2505">
        <ele>233.39999389648</ele>
        <time>2019-06-20T10:05:01.000Z</time>
      </trkpt>
      <trkpt lat="50.38262" lon="5.25074">
        <ele>234</ele>
        <time>2019-06-20T10:05:04.000Z</time>
      </trkpt>
      <trkpt lat="50.38259" lon="5.2508">
        <ele>234.39999389648</ele>
        <time>2019-06-20T10:05:05.000Z</time>
      </trkpt>
      <trkpt lat="50.38255" lon="5.25086">
        <ele>234.60000610352</ele>
        <time>2019-06-20T10:05:08.000Z</time>
      </trkpt>
      <trkpt lat="50.38245" lon="5.25104">
        <ele>235.39999389648</ele>
        <time>2019-06-20T10:05:09.000Z</time>
      </trkpt>
      <trkpt lat="50.38235" lon="5.2512">
        <ele>236.19999694824</ele>
        <time>2019-06-20T10:05:10.000Z</time>
      </trkpt>
      <trkpt lat="50.38231" lon="5.25125">
        <ele>236.39999389648</ele>
        <time>2019-06-20T10:05:14.000Z</time>
      </trkpt>
      <trkpt lat="50.38228" lon="5.2513">
        <ele>236.80000305176</ele>
        <time>2019-06-20T10:05:17.000Z</time>
      </trkpt>
      <trkpt lat="50.38217" lon="5.25148">
        <ele>237.39999389648</ele>
        <time>2019-06-20T10:05:19.000Z</time>
      </trkpt>
      <trkpt lat="50.38207" lon="5.25165">
        <ele>238.60000610352</ele>
        <time>2019-06-20T10:05:21.000Z</time>
      </trkpt>
      <trkpt lat="50.382" lon="5.25177">
        <ele>239</ele>
        <time>2019-06-20T10:05:24.000Z</time>
      </trkpt>
      <trkpt lat="50.38196" lon="5.25183">
        <ele>239.19999694824</ele>
        <time>2019-06-20T10:05:25.000Z</time>
      </trkpt>
      <trkpt lat="50.38193" lon="5.25188">
        <ele>239.60000610352</ele>
        <time>2019-06-20T10:05:28.000Z</time>
      </trkpt>
      <trkpt lat="50.38182" lon="5.25204">
        <ele>240.39999389648</ele>
        <time>2019-06-20T10:05:31.000Z</time>
      </trkpt>
      <trkpt lat="50.38169" lon="5.25225">
        <ele>240.80000305176</ele>
        <time>2019-06-20T10:05:32.000Z</time>
      </trkpt>
      <trkpt lat="50.38163" lon="5.25233">
        <ele>241</ele>
        <time>2019-06-20T10:05:33.000Z</time>
      </trkpt>
      <trkpt lat="50.3815" lon="5.25235">
        <ele>241.39999389648</ele>
        <time>2019-06-20T10:05:36.000Z</time>
      </trkpt>
      <trkpt lat="50.3812" lon="5.25228">
        <ele>241.60000610352</ele>
        <time>2019-06-20T10:05:39.000Z</time>
      </trkpt>
      <trkpt lat="50.38071" lon="5.2522">
        <ele>241.19999694824</ele>
        <time>2019-06-20T10:05:44.000Z</time>
      </trkpt>
      <trkpt lat="50.3802" lon="5.25208">
        <ele>239.60000610352</ele>
        <time>2019-06-20T10:05:47.000Z</time>
      </trkpt>
      <trkpt lat="50.38011" lon="5.25206">
        <ele>239.19999694824</ele>
        <time>2019-06-20T10:05:51.000Z</time>
      </trkpt>
      <trkpt lat="50.37993" lon="5.25202">
        <ele>238.39999389648</ele>
        <time>2019-06-20T10:05:57.000Z</time>
      </trkpt>
      <trkpt lat="50.37964" lon="5.25194">
        <ele>237.39999389648</ele>
        <time>2019-06-20T10:05:59.000Z</time>
      </trkpt>
      <trkpt lat="50.37954" lon="5.25192">
        <ele>236.80000305176</ele>
        <time>2019-06-20T10:06:01.000Z</time>
      </trkpt>
      <trkpt lat="50.37935" lon="5.25187">
        <ele>236.19999694824</ele>
        <time>2019-06-20T10:06:04.000Z</time>
      </trkpt>
      <trkpt lat="50.37925" lon="5.25184">
        <ele>235.80000305176</ele>
        <time>2019-06-20T10:06:05.000Z</time>
      </trkpt>
      <trkpt lat="50.37906" lon="5.25178">
        <ele>235.19999694824</ele>
        <time>2019-06-20T10:06:07.000Z</time>
      </trkpt>
      <trkpt lat="50.37896" lon="5.25176">
        <ele>234.60000610352</ele>
        <time>2019-06-20T10:06:09.000Z</time>
      </trkpt>
      <trkpt lat="50.37878" lon="5.25171">
        <ele>233.39999389648</ele>
        <time>2019-06-20T10:06:11.000Z</time>
      </trkpt>
      <trkpt lat="50.3786" lon="5.25166">
        <ele>232.80000305176</ele>
        <time>2019-06-20T10:06:14.000Z</time>
      </trkpt>
      <trkpt lat="50.37841" lon="5.25161">
        <ele>232.19999694824</ele>
        <time>2019-06-20T10:06:19.000Z</time>
      </trkpt>
      <trkpt lat="50.37823" lon="5.25156">
        <ele>231.19999694824</ele>
        <time>2019-06-20T10:06:26.000Z</time>
      </trkpt>
      <trkpt lat="50.37804" lon="5.25153">
        <ele>230.60000610352</ele>
        <time>2019-06-20T10:06:28.000Z</time>
      </trkpt>
      <trkpt lat="50.37794" lon="5.25152">
        <ele>230.19999694824</ele>
        <time>2019-06-20T10:06:29.000Z</time>
      </trkpt>
      <trkpt lat="50.37775" lon="5.25156">
        <ele>229.39999389648</ele>
        <time>2019-06-20T10:06:36.000Z</time>
      </trkpt>
      <trkpt lat="50.37766" lon="5.25161">
        <ele>229</ele>
        <time>2019-06-20T10:06:42.000Z</time>
      </trkpt>
      <trkpt lat="50.3775" lon="5.25174">
        <ele>228.19999694824</ele>
        <time>2019-06-20T10:06:49.000Z</time>
      </trkpt>
      <trkpt lat="50.37743" lon="5.25181">
        <ele>228</ele>
        <time>2019-06-20T10:06:55.000Z</time>
      </trkpt>
      <trkpt lat="50.37737" lon="5.25189">
        <ele>227.80000305176</ele>
        <time>2019-06-20T10:07:00.000Z</time>
      </trkpt>
      <trkpt lat="50.37723" lon="5.25204">
        <ele>227.80000305176</ele>
        <time>2019-06-20T10:07:06.000Z</time>
      </trkpt>
      <trkpt lat="50.37711" lon="5.25219">
        <ele>227.80000305176</ele>
        <time>2019-06-20T10:07:07.000Z</time>
      </trkpt>
      <trkpt lat="50.37693" lon="5.25241">
        <ele>227.80000305176</ele>
        <time>2019-06-20T10:07:09.000Z</time>
      </trkpt>
      <trkpt lat="50.37676" lon="5.25262">
        <ele>227.80000305176</ele>
        <time>2019-06-20T10:07:13.000Z</time>
      </trkpt>
      <trkpt lat="50.37671" lon="5.25269">
        <ele>228</ele>
        <time>2019-06-20T10:07:14.000Z</time>
      </trkpt>
      <trkpt lat="50.37654" lon="5.25289">
        <ele>229</ele>
        <time>2019-06-20T10:07:19.000Z</time>
      </trkpt>
      <trkpt lat="50.37643" lon="5.25302">
        <ele>230</ele>
        <time>2019-06-20T10:07:20.000Z</time>
      </trkpt>
      <trkpt lat="50.37627" lon="5.25322">
        <ele>231</ele>
        <time>2019-06-20T10:07:27.000Z</time>
      </trkpt>
      <trkpt lat="50.37621" lon="5.25329">
        <ele>231.19999694824</ele>
        <time>2019-06-20T10:07:29.000Z</time>
      </trkpt>
      <trkpt lat="50.37591" lon="5.25357">
        <ele>232.19999694824</ele>
        <time>2019-06-20T10:07:36.000Z</time>
      </trkpt>
      <trkpt lat="50.37584" lon="5.25361">
        <ele>232.19999694824</ele>
        <time>2019-06-20T10:07:37.000Z</time>
      </trkpt>
      <trkpt lat="50.3756" lon="5.25366">
        <ele>232.39999389648</ele>
        <time>2019-06-20T10:07:39.000Z</time>
      </trkpt>
      <trkpt lat="50.37551" lon="5.25366">
        <ele>232.39999389648</ele>
        <time>2019-06-20T10:07:41.000Z</time>
      </trkpt>
      <trkpt lat="50.37514" lon="5.25362">
        <ele>232.19999694824</ele>
        <time>2019-06-20T10:07:43.000Z</time>
      </trkpt>
      <trkpt lat="50.37486" lon="5.25357">
        <ele>231.19999694824</ele>
        <time>2019-06-20T10:07:46.000Z</time>
      </trkpt>
      <trkpt lat="50.37459" lon="5.25352">
        <ele>230</ele>
        <time>2019-06-20T10:07:49.000Z</time>
      </trkpt>
      <trkpt lat="50.3745" lon="5.25351">
        <ele>229.39999389648</ele>
        <time>2019-06-20T10:07:50.000Z</time>
      </trkpt>
      <trkpt lat="50.37442" lon="5.25349">
        <ele>229</ele>
        <time>2019-06-20T10:07:51.000Z</time>
      </trkpt>
      <trkpt lat="50.37427" lon="5.25347">
        <ele>228.80000305176</ele>
        <time>2019-06-20T10:07:55.000Z</time>
      </trkpt>
      <trkpt lat="50.37413" lon="5.25344">
        <ele>228.39999389648</ele>
        <time>2019-06-20T10:07:58.000Z</time>
      </trkpt>
      <trkpt lat="50.37373" lon="5.25336">
        <ele>228.60000610352</ele>
        <time>2019-06-20T10:08:03.000Z</time>
      </trkpt>
      <trkpt lat="50.37342" lon="5.25331">
        <ele>230</ele>
        <time>2019-06-20T10:08:10.000Z</time>
      </trkpt>
      <trkpt lat="50.37336" lon="5.2533">
        <ele>230.60000610352</ele>
        <time>2019-06-20T10:08:13.000Z</time>
      </trkpt>
      <trkpt lat="50.37331" lon="5.25329">
        <ele>230.60000610352</ele>
        <time>2019-06-20T10:08:17.000Z</time>
      </trkpt>
      <trkpt lat="50.37314" lon="5.25326">
        <ele>231.60000610352</ele>
        <time>2019-06-20T10:08:19.000Z</time>
      </trkpt>
      <trkpt lat="50.37292" lon="5.25323">
        <ele>233</ele>
        <time>2019-06-20T10:08:21.000Z</time>
      </trkpt>
      <trkpt lat="50.37287" lon="5.25322">
        <ele>233.19999694824</ele>
        <time>2019-06-20T10:08:22.000Z</time>
      </trkpt>
      <trkpt lat="50.37277" lon="5.25321">
        <ele>234</ele>
        <time>2019-06-20T10:08:25.000Z</time>
      </trkpt>
      <trkpt lat="50.37261" lon="5.25319">
        <ele>235.19999694824</ele>
        <time>2019-06-20T10:08:27.000Z</time>
      </trkpt>
      <trkpt lat="50.37245" lon="5.25316">
        <ele>236</ele>
        <time>2019-06-20T10:08:29.000Z</time>
      </trkpt>
      <trkpt lat="50.37235" lon="5.25313">
        <ele>236.39999389648</ele>
        <time>2019-06-20T10:08:31.000Z</time>
      </trkpt>
      <trkpt lat="50.37213" lon="5.25305">
        <ele>237.39999389648</ele>
        <time>2019-06-20T10:08:32.000Z</time>
      </trkpt>
      <trkpt lat="50.37208" lon="5.25303">
        <ele>237.80000305176</ele>
        <time>2019-06-20T10:08:33.000Z</time>
      </trkpt>
      <trkpt lat="50.37193" lon="5.25296">
        <ele>238.60000610352</ele>
        <time>2019-06-20T10:08:36.000Z</time>
      </trkpt>
      <trkpt lat="50.37168" lon="5.25284">
        <ele>239.60000610352</ele>
        <time>2019-06-20T10:08:40.000Z</time>
      </trkpt>
      <trkpt lat="50.37163" lon="5.25281">
        <ele>239.60000610352</ele>
        <time>2019-06-20T10:08:43.000Z</time>
      </trkpt>
      <trkpt lat="50.37147" lon="5.25273">
        <ele>240.60000610352</ele>
        <time>2019-06-20T10:08:45.000Z</time>
      </trkpt>
      <trkpt lat="50.37122" lon="5.25261">
        <ele>241.19999694824</ele>
        <time>2019-06-20T10:08:48.000Z</time>
      </trkpt>
      <trkpt lat="50.37085" lon="5.25241">
        <ele>241.19999694824</ele>
        <time>2019-06-20T10:08:49.000Z</time>
      </trkpt>
      <trkpt lat="50.37061" lon="5.25231">
        <ele>240.60000610352</ele>
        <time>2019-06-20T10:08:53.000Z</time>
      </trkpt>
      <trkpt lat="50.37052" lon="5.25231">
        <ele>240.39999389648</ele>
        <time>2019-06-20T10:08:55.000Z</time>
      </trkpt>
      <trkpt lat="50.37026" lon="5.25242">
        <ele>239.19999694824</ele>
        <time>2019-06-20T10:09:01.000Z</time>
      </trkpt>
      <trkpt lat="50.37009" lon="5.25255">
        <ele>238.19999694824</ele>
        <time>2019-06-20T10:09:09.000Z</time>
      </trkpt>
      <trkpt lat="50.37001" lon="5.25262">
        <ele>237.80000305176</ele>
        <time>2019-06-20T10:09:15.000Z</time>
      </trkpt>
      <trkpt lat="50.36993" lon="5.25268">
        <ele>237.39999389648</ele>
        <time>2019-06-20T10:09:23.000Z</time>
      </trkpt>
      <trkpt lat="50.36977" lon="5.25282">
        <ele>236.39999389648</ele>
        <time>2019-06-20T10:09:24.000Z</time>
      </trkpt>
      <trkpt lat="50.36962" lon="5.25295">
        <ele>235.19999694824</ele>
        <time>2019-06-20T10:09:28.000Z</time>
      </trkpt>
      <trkpt lat="50.36948" lon="5.25307">
        <ele>234</ele>
        <time>2019-06-20T10:09:29.000Z</time>
      </trkpt>
      <trkpt lat="50.36935" lon="5.25318">
        <ele>232.80000305176</ele>
        <time>2019-06-20T10:09:35.000Z</time>
      </trkpt>
      <trkpt lat="50.36929" lon="5.25321">
        <ele>232.39999389648</ele>
        <time>2019-06-20T10:09:37.000Z</time>
      </trkpt>
      <trkpt lat="50.36923" lon="5.25321">
        <ele>232</ele>
        <time>2019-06-20T10:09:43.000Z</time>
      </trkpt>
      <trkpt lat="50.36917" lon="5.25319">
        <ele>231.39999389648</ele>
        <time>2019-06-20T10:09:49.000Z</time>
      </trkpt>
      <trkpt lat="50.36902" lon="5.2531">
        <ele>230</ele>
        <time>2019-06-20T10:12:12.000Z</time>
      </trkpt>
      <trkpt lat="50.36879" lon="5.25294">
        <ele>228.80000305176</ele>
        <time>2019-06-20T10:12:15.000Z</time>
      </trkpt>
      <trkpt lat="50.36856" lon="5.25277">
        <ele>227.39999389648</ele>
        <time>2019-06-20T10:12:19.000Z</time>
      </trkpt>
      <trkpt lat="50.36849" lon="5.25271">
        <ele>226.80000305176</ele>
        <time>2019-06-20T10:12:21.000Z</time>
      </trkpt>
      <trkpt lat="50.36841" lon="5.25262">
        <ele>226.39999389648</ele>
        <time>2019-06-20T10:12:22.000Z</time>
      </trkpt>
      <trkpt lat="50.36821" lon="5.25237">
        <ele>225.39999389648</ele>
        <time>2019-06-20T10:12:26.000Z</time>
      </trkpt>
      <trkpt lat="50.36814" lon="5.25232">
        <ele>225.19999694824</ele>
        <time>2019-06-20T10:12:33.000Z</time>
      </trkpt>
      <trkpt lat="50.36798" lon="5.25227">
        <ele>224.60000610352</ele>
        <time>2019-06-20T10:12:39.000Z</time>
      </trkpt>
      <trkpt lat="50.36798" lon="5.25227">
        <ele>224.39999389648</ele>
        <time>2019-06-20T10:12:42.000Z</time>
      </trkpt>
      <trkpt lat="50.36783" lon="5.25232">
        <ele>224.19999694824</ele>
        <time>2019-06-20T10:12:47.000Z</time>
      </trkpt>
      <trkpt lat="50.36777" lon="5.25237">
        <ele>224.19999694824</ele>
        <time>2019-06-20T10:12:50.000Z</time>
      </trkpt>
      <trkpt lat="50.3677" lon="5.25242">
        <ele>224</ele>
        <time>2019-06-20T10:12:53.000Z</time>
      </trkpt>
      <trkpt lat="50.36736" lon="5.25267">
        <ele>223.80000305176</ele>
        <time>2019-06-20T10:12:56.000Z</time>
      </trkpt>
      <trkpt lat="50.36722" lon="5.25274">
        <ele>223.80000305176</ele>
        <time>2019-06-20T10:12:58.000Z</time>
      </trkpt>
      <trkpt lat="50.36708" lon="5.25272">
        <ele>223.80000305176</ele>
        <time>2019-06-20T10:13:01.000Z</time>
      </trkpt>
      <trkpt lat="50.36691" lon="5.25252">
        <ele>223.80000305176</ele>
        <time>2019-06-20T10:13:02.000Z</time>
      </trkpt>
      <trkpt lat="50.36691" lon="5.25252">
        <ele>223.80000305176</ele>
        <time>2019-06-20T10:13:03.000Z</time>
      </trkpt>
      <trkpt lat="50.36666" lon="5.25198">
        <ele>223.80000305176</ele>
        <time>2019-06-20T10:13:06.000Z</time>
      </trkpt>
      <trkpt lat="50.36643" lon="5.25139">
        <ele>225</ele>
        <time>2019-06-20T10:13:10.000Z</time>
      </trkpt>
      <trkpt lat="50.36637" lon="5.25122">
        <ele>225.39999389648</ele>
        <time>2019-06-20T10:13:11.000Z</time>
      </trkpt>
      <trkpt lat="50.36619" lon="5.25061">
        <ele>226.19999694824</ele>
        <time>2019-06-20T10:14:34.000Z</time>
      </trkpt>
      <trkpt lat="50.36606" lon="5.25007">
        <ele>227</ele>
        <time>2019-06-20T10:14:36.000Z</time>
      </trkpt>
      <trkpt lat="50.36601" lon="5.24969">
        <ele>227.19999694824</ele>
        <time>2019-06-20T10:14:37.000Z</time>
      </trkpt>
      <trkpt lat="50.36596" lon="5.24941">
        <ele>227.80000305176</ele>
        <time>2019-06-20T10:14:43.000Z</time>
      </trkpt>
      <trkpt lat="50.36594" lon="5.24932">
        <ele>227.80000305176</ele>
        <time>2019-06-20T10:14:44.000Z</time>
      </trkpt>
      <trkpt lat="50.36586" lon="5.24907">
        <ele>228.19999694824</ele>
        <time>2019-06-20T10:14:45.000Z</time>
      </trkpt>
      <trkpt lat="50.36583" lon="5.24899">
        <ele>228.39999389648</ele>
        <time>2019-06-20T10:14:48.000Z</time>
      </trkpt>
      <trkpt lat="50.3656" lon="5.24834">
        <ele>228.60000610352</ele>
        <time>2019-06-20T10:14:50.000Z</time>
      </trkpt>
      <trkpt lat="50.36536" lon="5.24769">
        <ele>229.39999389648</ele>
        <time>2019-06-20T10:14:55.000Z</time>
      </trkpt>
      <trkpt lat="50.36509" lon="5.24694">
        <ele>230</ele>
        <time>2019-06-20T10:14:56.000Z</time>
      </trkpt>
      <trkpt lat="50.36502" lon="5.24679">
        <ele>230.39999389648</ele>
        <time>2019-06-20T10:14:57.000Z</time>
      </trkpt>
      <trkpt lat="50.36499" lon="5.24671">
        <ele>230.60000610352</ele>
        <time>2019-06-20T10:15:00.000Z</time>
      </trkpt>
      <trkpt lat="50.36479" lon="5.24627">
        <ele>231.60000610352</ele>
        <time>2019-06-20T10:15:03.000Z</time>
      </trkpt>
      <trkpt lat="50.36473" lon="5.24613">
        <ele>231.80000305176</ele>
        <time>2019-06-20T10:15:05.000Z</time>
      </trkpt>
      <trkpt lat="50.36459" lon="5.24586">
        <ele>232.60000610352</ele>
        <time>2019-06-20T10:15:07.000Z</time>
      </trkpt>
      <trkpt lat="50.36446" lon="5.24564">
        <ele>232.80000305176</ele>
        <time>2019-06-20T10:15:10.000Z</time>
      </trkpt>
      <trkpt lat="50.3641" lon="5.24509">
        <ele>233.39999389648</ele>
        <time>2019-06-20T10:15:14.000Z</time>
      </trkpt>
      <trkpt lat="50.36396" lon="5.24495">
        <ele>233.60000610352</ele>
        <time>2019-06-20T10:15:15.000Z</time>
      </trkpt>
      <trkpt lat="50.36381" lon="5.24484">
        <ele>234.19999694824</ele>
        <time>2019-06-20T10:15:18.000Z</time>
      </trkpt>
      <trkpt lat="50.36366" lon="5.24476">
        <ele>234.60000610352</ele>
        <time>2019-06-20T10:15:22.000Z</time>
      </trkpt>
      <trkpt lat="50.36351" lon="5.2447">
        <ele>235.39999389648</ele>
        <time>2019-06-20T10:15:27.000Z</time>
      </trkpt>
      <trkpt lat="50.36346" lon="5.24468">
        <ele>235.80000305176</ele>
        <time>2019-06-20T10:15:29.000Z</time>
      </trkpt>
      <trkpt lat="50.36329" lon="5.24464">
        <ele>237</ele>
        <time>2019-06-20T10:15:30.000Z</time>
      </trkpt>
      <trkpt lat="50.36312" lon="5.24461">
        <ele>237.80000305176</ele>
        <time>2019-06-20T10:15:36.000Z</time>
      </trkpt>
      <trkpt lat="50.36306" lon="5.2446">
        <ele>238</ele>
        <time>2019-06-20T10:15:40.000Z</time>
      </trkpt>
      <trkpt lat="50.36264" lon="5.24455">
        <ele>238.60000610352</ele>
        <time>2019-06-20T10:15:41.000Z</time>
      </trkpt>
      <trkpt lat="50.36228" lon="5.24449">
        <ele>239</ele>
        <time>2019-06-20T10:15:44.000Z</time>
      </trkpt>
      <trkpt lat="50.36216" lon="5.24448">
        <ele>239.19999694824</ele>
        <time>2019-06-20T10:15:45.000Z</time>
      </trkpt>
      <trkpt lat="50.3617" lon="5.24441">
        <ele>239.19999694824</ele>
        <time>2019-06-20T10:15:49.000Z</time>
      </trkpt>
      <trkpt lat="50.36111" lon="5.24432">
        <ele>238.39999389648</ele>
        <time>2019-06-20T10:15:52.000Z</time>
      </trkpt>
      <trkpt lat="50.36088" lon="5.24429">
        <ele>238</ele>
        <time>2019-06-20T10:15:57.000Z</time>
      </trkpt>
      <trkpt lat="50.36064" lon="5.24425">
        <ele>237.19999694824</ele>
        <time>2019-06-20T10:15:59.000Z</time>
      </trkpt>
      <trkpt lat="50.36048" lon="5.24422">
        <ele>236.80000305176</ele>
        <time>2019-06-20T10:16:00.000Z</time>
      </trkpt>
      <trkpt lat="50.36039" lon="5.24421">
        <ele>236.60000610352</ele>
        <time>2019-06-20T10:16:03.000Z</time>
      </trkpt>
      <trkpt lat="50.36014" lon="5.24417">
        <ele>235.80000305176</ele>
        <time>2019-06-20T10:16:04.000Z</time>
      </trkpt>
      <trkpt lat="50.36006" lon="5.24415">
        <ele>235.60000610352</ele>
        <time>2019-06-20T10:16:06.000Z</time>
      </trkpt>
      <trkpt lat="50.35981" lon="5.24411">
        <ele>234.39999389648</ele>
        <time>2019-06-20T10:16:11.000Z</time>
      </trkpt>
      <trkpt lat="50.35972" lon="5.2441">
        <ele>234.19999694824</ele>
        <time>2019-06-20T10:16:12.000Z</time>
      </trkpt>
      <trkpt lat="50.35947" lon="5.24408">
        <ele>233.39999389648</ele>
        <time>2019-06-20T10:16:15.000Z</time>
      </trkpt>
      <trkpt lat="50.35932" lon="5.24409">
        <ele>232.19999694824</ele>
        <time>2019-06-20T10:16:18.000Z</time>
      </trkpt>
      <trkpt lat="50.35924" lon="5.24409">
        <ele>232</ele>
        <time>2019-06-20T10:16:21.000Z</time>
      </trkpt>
      <trkpt lat="50.35893" lon="5.24413">
        <ele>231.19999694824</ele>
        <time>2019-06-20T10:16:22.000Z</time>
      </trkpt>
      <trkpt lat="50.35878" lon="5.24416">
        <ele>231.19999694824</ele>
        <time>2019-06-20T10:16:27.000Z</time>
      </trkpt>
      <trkpt lat="50.35836" lon="5.2442">
        <ele>231</ele>
        <time>2019-06-20T10:16:30.000Z</time>
      </trkpt>
      <trkpt lat="50.358" lon="5.24423">
        <ele>232.19999694824</ele>
        <time>2019-06-20T10:16:33.000Z</time>
      </trkpt>
      <trkpt lat="50.35794" lon="5.24424">
        <ele>232.39999389648</ele>
        <time>2019-06-20T10:16:38.000Z</time>
      </trkpt>
      <trkpt lat="50.3577" lon="5.24427">
        <ele>233.19999694824</ele>
        <time>2019-06-20T10:16:42.000Z</time>
      </trkpt>
      <trkpt lat="50.35764" lon="5.24427">
        <ele>233.60000610352</ele>
        <time>2019-06-20T10:16:45.000Z</time>
      </trkpt>
      <trkpt lat="50.35752" lon="5.24429">
        <ele>234.60000610352</ele>
        <time>2019-06-20T10:16:46.000Z</time>
      </trkpt>
      <trkpt lat="50.35746" lon="5.2443">
        <ele>234.80000305176</ele>
        <time>2019-06-20T10:16:51.000Z</time>
      </trkpt>
      <trkpt lat="50.35728" lon="5.24433">
        <ele>235.80000305176</ele>
        <time>2019-06-20T10:16:52.000Z</time>
      </trkpt>
      <trkpt lat="50.35704" lon="5.24435">
        <ele>236.80000305176</ele>
        <time>2019-06-20T10:16:53.000Z</time>
      </trkpt>
      <trkpt lat="50.35698" lon="5.24436">
        <ele>237</ele>
        <time>2019-06-20T10:16:54.000Z</time>
      </trkpt>
      <trkpt lat="50.35662" lon="5.24441">
        <ele>238.19999694824</ele>
        <time>2019-06-20T10:17:57.000Z</time>
      </trkpt>
      <trkpt lat="50.35633" lon="5.24453">
        <ele>239.39999389648</ele>
        <time>2019-06-20T10:17:59.000Z</time>
      </trkpt>
      <trkpt lat="50.35627" lon="5.24456">
        <ele>239.39999389648</ele>
        <time>2019-06-20T10:18:00.000Z</time>
      </trkpt>
      <trkpt lat="50.35606" lon="5.24469">
        <ele>240.39999389648</ele>
        <time>2019-06-20T10:18:04.000Z</time>
      </trkpt>
      <trkpt lat="50.35596" lon="5.24475">
        <ele>241</ele>
        <time>2019-06-20T10:18:05.000Z</time>
      </trkpt>
      <trkpt lat="50.35586" lon="5.24481">
        <ele>241.60000610352</ele>
        <time>2019-06-20T10:18:08.000Z</time>
      </trkpt>
      <trkpt lat="50.35571" lon="5.24488">
        <ele>241.80000305176</ele>
        <time>2019-06-20T10:18:09.000Z</time>
      </trkpt>
      <trkpt lat="50.35561" lon="5.2449">
        <ele>242.60000610352</ele>
        <time>2019-06-20T10:18:11.000Z</time>
      </trkpt>
      <trkpt lat="50.35542" lon="5.24494">
        <ele>243.39999389648</ele>
        <time>2019-06-20T10:18:14.000Z</time>
      </trkpt>
      <trkpt lat="50.35537" lon="5.24494">
        <ele>243.60000610352</ele>
        <time>2019-06-20T10:18:18.000Z</time>
      </trkpt>
      <trkpt lat="50.35506" lon="5.24492">
        <ele>244.80000305176</ele>
        <time>2019-06-20T10:18:21.000Z</time>
      </trkpt>
      <trkpt lat="50.35495" lon="5.24495">
        <ele>245</ele>
        <time>2019-06-20T10:18:23.000Z</time>
      </trkpt>
      <trkpt lat="50.35459" lon="5.24511">
        <ele>245.19999694824</ele>
        <time>2019-06-20T10:18:26.000Z</time>
      </trkpt>
      <trkpt lat="50.35422" lon="5.24519">
        <ele>245.19999694824</ele>
        <time>2019-06-20T10:18:27.000Z</time>
      </trkpt>
      <trkpt lat="50.35405" lon="5.2452">
        <ele>244.80000305176</ele>
        <time>2019-06-20T10:18:28.000Z</time>
      </trkpt>
      <trkpt lat="50.35396" lon="5.24517">
        <ele>244.60000610352</ele>
        <time>2019-06-20T10:18:31.000Z</time>
      </trkpt>
      <trkpt lat="50.3537" lon="5.24506">
        <ele>243.39999389648</ele>
        <time>2019-06-20T10:18:34.000Z</time>
      </trkpt>
      <trkpt lat="50.35345" lon="5.24493">
        <ele>242.39999389648</ele>
        <time>2019-06-20T10:18:40.000Z</time>
      </trkpt>
      <trkpt lat="50.3532" lon="5.24483">
        <ele>241</ele>
        <time>2019-06-20T10:18:41.000Z</time>
      </trkpt>
      <trkpt lat="50.35288" lon="5.24474">
        <ele>240</ele>
        <time>2019-06-20T10:18:45.000Z</time>
      </trkpt>
      <trkpt lat="50.35266" lon="5.24469">
        <ele>239.60000610352</ele>
        <time>2019-06-20T10:18:47.000Z</time>
      </trkpt>
      <trkpt lat="50.35229" lon="5.24459">
        <ele>239.39999389648</ele>
        <time>2019-06-20T10:18:59.000Z</time>
      </trkpt>
      <trkpt lat="50.35173" lon="5.24442">
        <ele>239.80000305176</ele>
        <time>2019-06-20T10:19:05.000Z</time>
      </trkpt>
      <trkpt lat="50.35166" lon="5.2444">
        <ele>239.80000305176</ele>
        <time>2019-06-20T10:19:14.000Z</time>
      </trkpt>
      <trkpt lat="50.35112" lon="5.24424">
        <ele>240.80000305176</ele>
        <time>2019-06-20T10:19:16.000Z</time>
      </trkpt>
      <trkpt lat="50.35098" lon="5.24421">
        <ele>241</ele>
        <time>2019-06-20T10:19:20.000Z</time>
      </trkpt>
      <trkpt lat="50.35091" lon="5.24419">
        <ele>241.19999694824</ele>
        <time>2019-06-20T10:19:21.000Z</time>
      </trkpt>
      <trkpt lat="50.35043" lon="5.24405">
        <ele>242</ele>
        <time>2019-06-20T10:19:24.000Z</time>
      </trkpt>
      <trkpt lat="50.35002" lon="5.24394">
        <ele>242.80000305176</ele>
        <time>2019-06-20T10:19:25.000Z</time>
      </trkpt>
      <trkpt lat="50.34968" lon="5.24385">
        <ele>243.19999694824</ele>
        <time>2019-06-20T10:19:29.000Z</time>
      </trkpt>
      <trkpt lat="50.34934" lon="5.24378">
        <ele>243.60000610352</ele>
        <time>2019-06-20T10:19:32.000Z</time>
      </trkpt>
      <trkpt lat="50.34874" lon="5.24367">
        <ele>244.19999694824</ele>
        <time>2019-06-20T10:19:33.000Z</time>
      </trkpt>
      <trkpt lat="50.3482" lon="5.24368">
        <ele>245</ele>
        <time>2019-06-20T10:19:37.000Z</time>
      </trkpt>
      <trkpt lat="50.34796" lon="5.2437">
        <ele>245.19999694824</ele>
        <time>2019-06-20T10:19:40.000Z</time>
      </trkpt>
      <trkpt lat="50.34771" lon="5.24372">
        <ele>245.60000610352</ele>
        <time>2019-06-20T10:19:41.000Z</time>
      </trkpt>
      <trkpt lat="50.3472" lon="5.24383">
        <ele>246</ele>
        <time>2019-06-20T10:19:44.000Z</time>
      </trkpt>
      <trkpt lat="50.34674" lon="5.24407">
        <ele>246.19999694824</ele>
        <time>2019-06-20T10:19:48.000Z</time>
      </trkpt>
      <trkpt lat="50.34637" lon="5.24417">
        <ele>246.19999694824</ele>
        <time>2019-06-20T10:19:49.000Z</time>
      </trkpt>
      <trkpt lat="50.34613" lon="5.24415">
        <ele>246.39999389648</ele>
        <time>2019-06-20T10:19:53.000Z</time>
      </trkpt>
      <trkpt lat="50.34607" lon="5.24413">
        <ele>246.60000610352</ele>
        <time>2019-06-20T10:19:58.000Z</time>
      </trkpt>
      <trkpt lat="50.34572" lon="5.24394">
        <ele>247.60000610352</ele>
        <time>2019-06-20T10:19:59.000Z</time>
      </trkpt>
      <trkpt lat="50.34568" lon="5.24391">
        <ele>248</ele>
        <time>2019-06-20T10:20:04.000Z</time>
      </trkpt>
      <trkpt lat="50.3455" lon="5.24381">
        <ele>248.60000610352</ele>
        <time>2019-06-20T10:20:06.000Z</time>
      </trkpt>
      <trkpt lat="50.34536" lon="5.24374">
        <ele>249.60000610352</ele>
        <time>2019-06-20T10:20:07.000Z</time>
      </trkpt>
      <trkpt lat="50.34532" lon="5.24371">
        <ele>249.80000305176</ele>
        <time>2019-06-20T10:20:12.000Z</time>
      </trkpt>
      <trkpt lat="50.34519" lon="5.24364">
        <ele>251</ele>
        <time>2019-06-20T10:20:54.000Z</time>
      </trkpt>
      <trkpt lat="50.34501" lon="5.24354">
        <ele>252</ele>
        <time>2019-06-20T10:21:09.000Z</time>
      </trkpt>
      <trkpt lat="50.34493" lon="5.24349">
        <ele>252.60000610352</ele>
        <time>2019-06-20T10:21:10.000Z</time>
      </trkpt>
      <trkpt lat="50.3448" lon="5.24341">
        <ele>253.19999694824</ele>
        <time>2019-06-20T10:21:17.000Z</time>
      </trkpt>
      <trkpt lat="50.34459" lon="5.24329">
        <ele>254.39999389648</ele>
        <time>2019-06-20T10:21:23.000Z</time>
      </trkpt>
      <trkpt lat="50.34442" lon="5.2432">
        <ele>255.39999389648</ele>
        <time>2019-06-20T10:21:25.000Z</time>
      </trkpt>
      <trkpt lat="50.34424" lon="5.2431">
        <ele>256.60000610352</ele>
        <time>2019-06-20T10:21:31.000Z</time>
      </trkpt>
      <trkpt lat="50.34407" lon="5.24301">
        <ele>257.60000610352</ele>
        <time>2019-06-20T10:21:34.000Z</time>
      </trkpt>
      <trkpt lat="50.34398" lon="5.24296">
        <ele>258</ele>
        <time>2019-06-20T10:21:36.000Z</time>
      </trkpt>
      <trkpt lat="50.34386" lon="5.24289">
        <ele>258.60000610352</ele>
        <time>2019-06-20T10:21:38.000Z</time>
      </trkpt>
      <trkpt lat="50.3436" lon="5.24275">
        <ele>259.79998779297</ele>
        <time>2019-06-20T10:21:39.000Z</time>
      </trkpt>
      <trkpt lat="50.34356" lon="5.24272">
        <ele>260</ele>
        <time>2019-06-20T10:21:40.000Z</time>
      </trkpt>
      <trkpt lat="50.34344" lon="5.24263">
        <ele>260.79998779297</ele>
        <time>2019-06-20T10:21:41.000Z</time>
      </trkpt>
      <trkpt lat="50.3433" lon="5.2425">
        <ele>261.60000610352</ele>
        <time>2019-06-20T10:21:43.000Z</time>
      </trkpt>
      <trkpt lat="50.34322" lon="5.24242">
        <ele>262.20001220703</ele>
        <time>2019-06-20T10:21:44.000Z</time>
      </trkpt>
      <trkpt lat="50.34312" lon="5.2423">
        <ele>263.39999389648</ele>
        <time>2019-06-20T10:21:45.000Z</time>
      </trkpt>
      <trkpt lat="50.34299" lon="5.24214">
        <ele>264.39999389648</ele>
        <time>2019-06-20T10:21:47.000Z</time>
      </trkpt>
      <trkpt lat="50.34296" lon="5.2421">
        <ele>264.60000610352</ele>
        <time>2019-06-20T10:21:49.000Z</time>
      </trkpt>
      <trkpt lat="50.3428" lon="5.242">
        <ele>265.60000610352</ele>
        <time>2019-06-20T10:21:51.000Z</time>
      </trkpt>
      <trkpt lat="50.34276" lon="5.24198">
        <ele>265.79998779297</ele>
        <time>2019-06-20T10:21:52.000Z</time>
      </trkpt>
      <trkpt lat="50.34259" lon="5.24192">
        <ele>266.79998779297</ele>
        <time>2019-06-20T10:21:55.000Z</time>
      </trkpt>
      <trkpt lat="50.34242" lon="5.24182">
        <ele>267.39999389648</ele>
        <time>2019-06-20T10:21:58.000Z</time>
      </trkpt>
      <trkpt lat="50.3423" lon="5.24171">
        <ele>267.79998779297</ele>
        <time>2019-06-20T10:22:00.000Z</time>
      </trkpt>
      <trkpt lat="50.34209" lon="5.2415">
        <ele>268.39999389648</ele>
        <time>2019-06-20T10:22:02.000Z</time>
      </trkpt>
      <trkpt lat="50.34193" lon="5.24132">
        <ele>268.79998779297</ele>
        <time>2019-06-20T10:22:06.000Z</time>
      </trkpt>
      <trkpt lat="50.34171" lon="5.2411">
        <ele>269.20001220703</ele>
        <time>2019-06-20T10:22:09.000Z</time>
      </trkpt>
      <trkpt lat="50.34149" lon="5.24091">
        <ele>269.60000610352</ele>
        <time>2019-06-20T10:22:10.000Z</time>
      </trkpt>
      <trkpt lat="50.34136" lon="5.24084">
        <ele>270</ele>
        <time>2019-06-20T10:22:11.000Z</time>
      </trkpt>
      <trkpt lat="50.34117" lon="5.24087">
        <ele>270.79998779297</ele>
        <time>2019-06-20T10:22:13.000Z</time>
      </trkpt>
      <trkpt lat="50.34108" lon="5.24092">
        <ele>271.20001220703</ele>
        <time>2019-06-20T10:22:19.000Z</time>
      </trkpt>
      <trkpt lat="50.34101" lon="5.24099">
        <ele>271.60000610352</ele>
        <time>2019-06-20T10:22:23.000Z</time>
      </trkpt>
      <trkpt lat="50.34097" lon="5.24103">
        <ele>271.79998779297</ele>
        <time>2019-06-20T10:22:25.000Z</time>
      </trkpt>
      <trkpt lat="50.34087" lon="5.24113">
        <ele>272.60000610352</ele>
        <time>2019-06-20T10:23:18.000Z</time>
      </trkpt>
      <trkpt lat="50.34072" lon="5.24129">
        <ele>273.60000610352</ele>
        <time>2019-06-20T10:23:19.000Z</time>
      </trkpt>
      <trkpt lat="50.34055" lon="5.24147">
        <ele>275</ele>
        <time>2019-06-20T10:23:21.000Z</time>
      </trkpt>
      <trkpt lat="50.34047" lon="5.24155">
        <ele>275.60000610352</ele>
        <time>2019-06-20T10:23:26.000Z</time>
      </trkpt>
      <trkpt lat="50.3404" lon="5.24163">
        <ele>276.20001220703</ele>
        <time>2019-06-20T10:23:31.000Z</time>
      </trkpt>
      <trkpt lat="50.34023" lon="5.24183">
        <ele>277.39999389648</ele>
        <time>2019-06-20T10:23:41.000Z</time>
      </trkpt>
      <trkpt lat="50.3402" lon="5.24187">
        <ele>277.79998779297</ele>
        <time>2019-06-20T10:23:42.000Z</time>
      </trkpt>
      <trkpt lat="50.34013" lon="5.24193">
        <ele>278.39999389648</ele>
        <time>2019-06-20T10:26:28.000Z</time>
      </trkpt>
      <trkpt lat="50.34009" lon="5.24193">
        <ele>278.60000610352</ele>
        <time>2019-06-20T10:26:29.000Z</time>
      </trkpt>
      <trkpt lat="50.34005" lon="5.24191">
        <ele>278.79998779297</ele>
        <time>2019-06-20T10:26:31.000Z</time>
      </trkpt>
      <trkpt lat="50.33999" lon="5.2418">
        <ele>279.39999389648</ele>
        <time>2019-06-20T10:26:36.000Z</time>
      </trkpt>
      <trkpt lat="50.33996" lon="5.24174">
        <ele>279.79998779297</ele>
        <time>2019-06-20T10:26:39.000Z</time>
      </trkpt>
      <trkpt lat="50.3399" lon="5.24162">
        <ele>281</ele>
        <time>2019-06-20T10:26:47.000Z</time>
      </trkpt>
      <trkpt lat="50.33964" lon="5.2412">
        <ele>281.60000610352</ele>
        <time>2019-06-20T10:26:49.000Z</time>
      </trkpt>
      <trkpt lat="50.33933" lon="5.24075">
        <ele>281.60000610352</ele>
        <time>2019-06-20T10:27:04.000Z</time>
      </trkpt>
      <trkpt lat="50.33893" lon="5.24021">
        <ele>281</ele>
        <time>2019-06-20T10:27:05.000Z</time>
      </trkpt>
      <trkpt lat="50.33887" lon="5.24013">
        <ele>280.79998779297</ele>
        <time>2019-06-20T10:27:11.000Z</time>
      </trkpt>
      <trkpt lat="50.33866" lon="5.23985">
        <ele>280.20001220703</ele>
        <time>2019-06-20T10:27:12.000Z</time>
      </trkpt>
      <trkpt lat="50.33843" lon="5.23955">
        <ele>279.79998779297</ele>
        <time>2019-06-20T10:27:14.000Z</time>
      </trkpt>
      <trkpt lat="50.33837" lon="5.23948">
        <ele>279.60000610352</ele>
        <time>2019-06-20T10:27:16.000Z</time>
      </trkpt>
      <trkpt lat="50.3382" lon="5.23924">
        <ele>279.39999389648</ele>
        <time>2019-06-20T10:27:22.000Z</time>
      </trkpt>
      <trkpt lat="50.33804" lon="5.23899">
        <ele>279.20001220703</ele>
        <time>2019-06-20T10:27:27.000Z</time>
      </trkpt>
      <trkpt lat="50.33794" lon="5.23881">
        <ele>278.79998779297</ele>
        <time>2019-06-20T10:27:31.000Z</time>
      </trkpt>
      <trkpt lat="50.33764" lon="5.23825">
        <ele>278</ele>
        <time>2019-06-20T10:29:38.000Z</time>
      </trkpt>
      <trkpt lat="50.33738" lon="5.23766">
        <ele>277.79998779297</ele>
        <time>2019-06-20T10:29:39.000Z</time>
      </trkpt>
      <trkpt lat="50.33729" lon="5.23746">
        <ele>277.60000610352</ele>
        <time>2019-06-20T10:29:43.000Z</time>
      </trkpt>
      <trkpt lat="50.33702" lon="5.23701">
        <ele>277.20001220703</ele>
        <time>2019-06-20T10:29:47.000Z</time>
      </trkpt>
      <trkpt lat="50.33669" lon="5.23649">
        <ele>276.60000610352</ele>
        <time>2019-06-20T10:29:52.000Z</time>
      </trkpt>
      <trkpt lat="50.33634" lon="5.23604">
        <ele>276</ele>
        <time>2019-06-20T10:29:57.000Z</time>
      </trkpt>
      <trkpt lat="50.33585" lon="5.23546">
        <ele>275.39999389648</ele>
        <time>2019-06-20T10:29:59.000Z</time>
      </trkpt>
      <trkpt lat="50.33579" lon="5.23538">
        <ele>275.60000610352</ele>
        <time>2019-06-20T10:30:03.000Z</time>
      </trkpt>
      <trkpt lat="50.33573" lon="5.23531">
        <ele>275.39999389648</ele>
        <time>2019-06-20T10:30:04.000Z</time>
      </trkpt>
      <trkpt lat="50.33525" lon="5.23474">
        <ele>275.20001220703</ele>
        <time>2019-06-20T10:30:15.000Z</time>
      </trkpt>
      <trkpt lat="50.3352" lon="5.23467">
        <ele>275.20001220703</ele>
        <time>2019-06-20T10:30:32.000Z</time>
      </trkpt>
      <trkpt lat="50.33473" lon="5.23407">
        <ele>275.20001220703</ele>
        <time>2019-06-20T10:30:33.000Z</time>
      </trkpt>
      <trkpt lat="50.33462" lon="5.23389">
        <ele>275.20001220703</ele>
        <time>2019-06-20T10:30:36.000Z</time>
      </trkpt>
      <trkpt lat="50.33427" lon="5.23339">
        <ele>275</ele>
        <time>2019-06-20T10:30:40.000Z</time>
      </trkpt>
      <trkpt lat="50.33377" lon="5.23289">
        <ele>274.60000610352</ele>
        <time>2019-06-20T10:30:47.000Z</time>
      </trkpt>
      <trkpt lat="50.33355" lon="5.23263">
        <ele>274.79998779297</ele>
        <time>2019-06-20T10:30:54.000Z</time>
      </trkpt>
      <trkpt lat="50.3335" lon="5.23255">
        <ele>275.20001220703</ele>
        <time>2019-06-20T10:30:55.000Z</time>
      </trkpt>
      <trkpt lat="50.33339" lon="5.23216">
        <ele>276.20001220703</ele>
        <time>2019-06-20T10:30:57.000Z</time>
      </trkpt>
      <trkpt lat="50.33335" lon="5.23195">
        <ele>276.79998779297</ele>
        <time>2019-06-20T10:31:00.000Z</time>
      </trkpt>
      <trkpt lat="50.33323" lon="5.2314">
        <ele>277.79998779297</ele>
        <time>2019-06-20T10:31:06.000Z</time>
      </trkpt>
      <trkpt lat="50.33304" lon="5.23053">
        <ele>277.79998779297</ele>
        <time>2019-06-20T10:31:07.000Z</time>
      </trkpt>
      <trkpt lat="50.33295" lon="5.22971">
        <ele>277.39999389648</ele>
        <time>2019-06-20T10:31:10.000Z</time>
      </trkpt>
      <trkpt lat="50.33292" lon="5.22907">
        <ele>276.79998779297</ele>
        <time>2019-06-20T10:31:12.000Z</time>
      </trkpt>
      <trkpt lat="50.3329" lon="5.22869">
        <ele>276.20001220703</ele>
        <time>2019-06-20T10:31:21.000Z</time>
      </trkpt>
      <trkpt lat="50.3329" lon="5.22807">
        <ele>275.60000610352</ele>
        <time>2019-06-20T10:31:35.000Z</time>
      </trkpt>
      <trkpt lat="50.3329" lon="5.22775">
        <ele>275</ele>
        <time>2019-06-20T10:31:39.000Z</time>
      </trkpt>
      <trkpt lat="50.33288" lon="5.22755">
        <ele>274.79998779297</ele>
        <time>2019-06-20T10:31:40.000Z</time>
      </trkpt>
      <trkpt lat="50.33286" lon="5.22746">
        <ele>274.79998779297</ele>
        <time>2019-06-20T10:31:47.000Z</time>
      </trkpt>
      <trkpt lat="50.33278" lon="5.22733">
        <ele>274.79998779297</ele>
        <time>2019-06-20T10:31:49.000Z</time>
      </trkpt>
      <trkpt lat="50.33273" lon="5.22729">
        <ele>274.79998779297</ele>
        <time>2019-06-20T10:31:53.000Z</time>
      </trkpt>
      <trkpt lat="50.33263" lon="5.22729">
        <ele>274.60000610352</ele>
        <time>2019-06-20T10:32:23.000Z</time>
      </trkpt>
      <trkpt lat="50.33256" lon="5.22738">
        <ele>274.60000610352</ele>
        <time>2019-06-20T10:32:28.000Z</time>
      </trkpt>
      <trkpt lat="50.33249" lon="5.22747">
        <ele>274.60000610352</ele>
        <time>2019-06-20T10:32:32.000Z</time>
      </trkpt>
      <trkpt lat="50.33226" lon="5.22768">
        <ele>274.39999389648</ele>
        <time>2019-06-20T10:32:33.000Z</time>
      </trkpt>
      <trkpt lat="50.33198" lon="5.22783">
        <ele>273.60000610352</ele>
        <time>2019-06-20T10:32:39.000Z</time>
      </trkpt>
      <trkpt lat="50.33169" lon="5.22793">
        <ele>273.20001220703</ele>
        <time>2019-06-20T10:32:40.000Z</time>
      </trkpt>
      <trkpt lat="50.33145" lon="5.22803">
        <ele>273.20001220703</ele>
        <time>2019-06-20T10:32:44.000Z</time>
      </trkpt>
      <trkpt lat="50.33129" lon="5.2281">
        <ele>273.60000610352</ele>
        <time>2019-06-20T10:32:46.000Z</time>
      </trkpt>
      <trkpt lat="50.33118" lon="5.22815">
        <ele>274.20001220703</ele>
        <time>2019-06-20T10:32:55.000Z</time>
      </trkpt>
      <trkpt lat="50.33113" lon="5.22818">
        <ele>274.39999389648</ele>
        <time>2019-06-20T10:32:56.000Z</time>
      </trkpt>
      <trkpt lat="50.33109" lon="5.22821">
        <ele>274.79998779297</ele>
        <time>2019-06-20T10:32:59.000Z</time>
      </trkpt>
      <trkpt lat="50.33101" lon="5.22825">
        <ele>275.39999389648</ele>
        <time>2019-06-20T10:33:01.000Z</time>
      </trkpt>
      <trkpt lat="50.33089" lon="5.22835">
        <ele>276</ele>
        <time>2019-06-20T10:33:05.000Z</time>
      </trkpt>
      <trkpt lat="50.33086" lon="5.22837">
        <ele>276.20001220703</ele>
        <time>2019-06-20T10:33:06.000Z</time>
      </trkpt>
      <trkpt lat="50.33081" lon="5.22838">
        <ele>277</ele>
        <time>2019-06-20T10:33:10.000Z</time>
      </trkpt>
      <trkpt lat="50.33076" lon="5.2284">
        <ele>277.60000610352</ele>
        <time>2019-06-20T10:33:16.000Z</time>
      </trkpt>
      <trkpt lat="50.3307" lon="5.22841">
        <ele>278</ele>
        <time>2019-06-20T10:33:17.000Z</time>
      </trkpt>
      <trkpt lat="50.33065" lon="5.22842">
        <ele>278.20001220703</ele>
        <time>2019-06-20T10:33:18.000Z</time>
      </trkpt>
      <trkpt lat="50.33047" lon="5.22845">
        <ele>279</ele>
        <time>2019-06-20T10:33:22.000Z</time>
      </trkpt>
      <trkpt lat="50.33042" lon="5.22846">
        <ele>279.39999389648</ele>
        <time>2019-06-20T10:33:25.000Z</time>
      </trkpt>
      <trkpt lat="50.33018" lon="5.22849">
        <ele>280.20001220703</ele>
        <time>2019-06-20T10:33:34.000Z</time>
      </trkpt>
      <trkpt lat="50.33006" lon="5.22851">
        <ele>281.20001220703</ele>
        <time>2019-06-20T10:33:36.000Z</time>
      </trkpt>
      <trkpt lat="50.33001" lon="5.22851">
        <ele>281.60000610352</ele>
        <time>2019-06-20T10:42:21.000Z</time>
      </trkpt>
      <trkpt lat="50.32992" lon="5.22854">
        <ele>282.20001220703</ele>
        <time>2019-06-20T10:42:22.000Z</time>
      </trkpt>
      <trkpt lat="50.32981" lon="5.22858">
        <ele>283.39999389648</ele>
        <time>2019-06-20T10:42:29.000Z</time>
      </trkpt>
      <trkpt lat="50.32971" lon="5.22862">
        <ele>284</ele>
        <time>2019-06-20T10:43:14.000Z</time>
      </trkpt>
      <trkpt lat="50.3296" lon="5.22866">
        <ele>284.60000610352</ele>
        <time>2019-06-20T10:43:30.000Z</time>
      </trkpt>
      <trkpt lat="50.32923" lon="5.22882">
        <ele>285.60000610352</ele>
        <time>2019-06-20T10:43:40.000Z</time>
      </trkpt>
      <trkpt lat="50.32916" lon="5.22885">
        <ele>285.79998779297</ele>
        <time>2019-06-20T10:43:45.000Z</time>
      </trkpt>
      <trkpt lat="50.32895" lon="5.22892">
        <ele>286.20001220703</ele>
        <time>2019-06-20T10:43:52.000Z</time>
      </trkpt>
      <trkpt lat="50.3288" lon="5.22894">
        <ele>286.20001220703</ele>
        <time>2019-06-20T10:44:01.000Z</time>
      </trkpt>
      <trkpt lat="50.32862" lon="5.22902">
        <ele>286.60000610352</ele>
        <time>2019-06-20T10:44:09.000Z</time>
      </trkpt>
      <trkpt lat="50.32831" lon="5.22914">
        <ele>286.79998779297</ele>
        <time>2019-06-20T10:44:10.000Z</time>
      </trkpt>
      <trkpt lat="50.32769" lon="5.22933">
        <ele>286.60000610352</ele>
        <time>2019-06-20T10:44:17.000Z</time>
      </trkpt>
      <trkpt lat="50.32753" lon="5.22934">
        <ele>286.39999389648</ele>
        <time>2019-06-20T10:44:18.000Z</time>
      </trkpt>
      <trkpt lat="50.32736" lon="5.22929">
        <ele>285.79998779297</ele>
        <time>2019-06-20T10:44:31.000Z</time>
      </trkpt>
      <trkpt lat="50.3272" lon="5.22923">
        <ele>285.39999389648</ele>
        <time>2019-06-20T10:44:33.000Z</time>
      </trkpt>
      <trkpt lat="50.32688" lon="5.22908">
        <ele>284.20001220703</ele>
        <time>2019-06-20T10:44:37.000Z</time>
      </trkpt>
      <trkpt lat="50.32671" lon="5.22899">
        <ele>283.20001220703</ele>
        <time>2019-06-20T10:44:45.000Z</time>
      </trkpt>
      <trkpt lat="50.32663" lon="5.22893">
        <ele>282.79998779297</ele>
        <time>2019-06-20T10:44:53.000Z</time>
      </trkpt>
      <trkpt lat="50.32639" lon="5.22878">
        <ele>281.79998779297</ele>
        <time>2019-06-20T10:44:57.000Z</time>
      </trkpt>
      <trkpt lat="50.32631" lon="5.22875">
        <ele>281.39999389648</ele>
        <time>2019-06-20T10:44:58.000Z</time>
      </trkpt>
      <trkpt lat="50.32615" lon="5.22881">
        <ele>280.60000610352</ele>
        <time>2019-06-20T10:45:05.000Z</time>
      </trkpt>
      <trkpt lat="50.32608" lon="5.22887">
        <ele>280.39999389648</ele>
        <time>2019-06-20T10:45:14.000Z</time>
      </trkpt>
      <trkpt lat="50.32597" lon="5.22904">
        <ele>279.39999389648</ele>
        <time>2019-06-20T10:45:21.000Z</time>
      </trkpt>
      <trkpt lat="50.32592" lon="5.22913">
        <ele>278.79998779297</ele>
        <time>2019-06-20T10:45:26.000Z</time>
      </trkpt>
      <trkpt lat="50.32587" lon="5.2292">
        <ele>277.79998779297</ele>
        <time>2019-06-20T10:45:31.000Z</time>
      </trkpt>
      <trkpt lat="50.32575" lon="5.22923">
        <ele>276.39999389648</ele>
        <time>2019-06-20T10:45:33.000Z</time>
      </trkpt>
      <trkpt lat="50.32558" lon="5.22914">
        <ele>275.20001220703</ele>
        <time>2019-06-20T10:45:37.000Z</time>
      </trkpt>
      <trkpt lat="50.3255" lon="5.22909">
        <ele>274</ele>
        <time>2019-06-20T10:45:38.000Z</time>
      </trkpt>
      <trkpt lat="50.32542" lon="5.22904">
        <ele>273.20001220703</ele>
        <time>2019-06-20T10:45:42.000Z</time>
      </trkpt>
      <trkpt lat="50.32527" lon="5.22895">
        <ele>271.39999389648</ele>
        <time>2019-06-20T10:45:58.000Z</time>
      </trkpt>
      <trkpt lat="50.3251" lon="5.22886">
        <ele>269.79998779297</ele>
        <time>2019-06-20T10:46:04.000Z</time>
      </trkpt>
      <trkpt lat="50.32502" lon="5.22881">
        <ele>269</ele>
        <time>2019-06-20T10:46:05.000Z</time>
      </trkpt>
      <trkpt lat="50.32493" lon="5.22876">
        <ele>268.39999389648</ele>
        <time>2019-06-20T10:46:09.000Z</time>
      </trkpt>
      <trkpt lat="50.32468" lon="5.22859">
        <ele>267.39999389648</ele>
        <time>2019-06-20T10:46:18.000Z</time>
      </trkpt>
      <trkpt lat="50.32459" lon="5.22851">
        <ele>267.20001220703</ele>
        <time>2019-06-20T10:46:19.000Z</time>
      </trkpt>
      <trkpt lat="50.32435" lon="5.22824">
        <ele>266.60000610352</ele>
        <time>2019-06-20T10:46:23.000Z</time>
      </trkpt>
      <trkpt lat="50.3242" lon="5.22807">
        <ele>265.79998779297</ele>
        <time>2019-06-20T10:46:25.000Z</time>
      </trkpt>
      <trkpt lat="50.32413" lon="5.22799">
        <ele>265.39999389648</ele>
        <time>2019-06-20T10:46:28.000Z</time>
      </trkpt>
      <trkpt lat="50.32393" lon="5.22777">
        <ele>264.60000610352</ele>
        <time>2019-06-20T10:46:31.000Z</time>
      </trkpt>
      <trkpt lat="50.32369" lon="5.22748">
        <ele>264.39999389648</ele>
        <time>2019-06-20T10:46:33.000Z</time>
      </trkpt>
      <trkpt lat="50.32356" lon="5.22734">
        <ele>264.39999389648</ele>
        <time>2019-06-20T10:46:35.000Z</time>
      </trkpt>
      <trkpt lat="50.32308" lon="5.22684">
        <ele>264.60000610352</ele>
        <time>2019-06-20T10:46:36.000Z</time>
      </trkpt>
      <trkpt lat="50.32301" lon="5.22677">
        <ele>264.60000610352</ele>
        <time>2019-06-20T10:46:37.000Z</time>
      </trkpt>
      <trkpt lat="50.32253" lon="5.22641">
        <ele>264</ele>
        <time>2019-06-20T10:46:41.000Z</time>
      </trkpt>
      <trkpt lat="50.32246" lon="5.22634">
        <ele>263</ele>
        <time>2019-06-20T10:46:44.000Z</time>
      </trkpt>
      <trkpt lat="50.32222" lon="5.22613">
        <ele>262.20001220703</ele>
        <time>2019-06-20T10:46:45.000Z</time>
      </trkpt>
      <trkpt lat="50.32198" lon="5.2259">
        <ele>261.20001220703</ele>
        <time>2019-06-20T10:46:50.000Z</time>
      </trkpt>
      <trkpt lat="50.3219" lon="5.22583">
        <ele>261</ele>
        <time>2019-06-20T10:46:51.000Z</time>
      </trkpt>
      <trkpt lat="50.32166" lon="5.22558">
        <ele>259.20001220703</ele>
        <time>2019-06-20T10:46:56.000Z</time>
      </trkpt>
      <trkpt lat="50.32151" lon="5.2254">
        <ele>258.39999389648</ele>
        <time>2019-06-20T10:46:58.000Z</time>
      </trkpt>
      <trkpt lat="50.32144" lon="5.2253">
        <ele>258.20001220703</ele>
        <time>2019-06-20T10:47:00.000Z</time>
      </trkpt>
      <trkpt lat="50.32129" lon="5.22511">
        <ele>257</ele>
        <time>2019-06-20T10:47:02.000Z</time>
      </trkpt>
      <trkpt lat="50.32122" lon="5.225">
        <ele>256</ele>
        <time>2019-06-20T10:47:03.000Z</time>
      </trkpt>
      <trkpt lat="50.32107" lon="5.22477">
        <ele>254.60000610352</ele>
        <time>2019-06-20T10:47:05.000Z</time>
      </trkpt>
      <trkpt lat="50.32091" lon="5.22456">
        <ele>253</ele>
        <time>2019-06-20T10:47:08.000Z</time>
      </trkpt>
      <trkpt lat="50.32076" lon="5.22436">
        <ele>251.60000610352</ele>
        <time>2019-06-20T10:47:10.000Z</time>
      </trkpt>
      <trkpt lat="50.32062" lon="5.22417">
        <ele>250.39999389648</ele>
        <time>2019-06-20T10:47:11.000Z</time>
      </trkpt>
      <trkpt lat="50.32026" lon="5.2237">
        <ele>249.80000305176</ele>
        <time>2019-06-20T10:47:12.000Z</time>
      </trkpt>
      <trkpt lat="50.32012" lon="5.22353">
        <ele>249.39999389648</ele>
        <time>2019-06-20T10:47:17.000Z</time>
      </trkpt>
      <trkpt lat="50.31972" lon="5.22298">
        <ele>248.39999389648</ele>
        <time>2019-06-20T10:47:22.000Z</time>
      </trkpt>
      <trkpt lat="50.31965" lon="5.22289">
        <ele>248</ele>
        <time>2019-06-20T10:47:27.000Z</time>
      </trkpt>
      <trkpt lat="50.31922" lon="5.22232">
        <ele>247</ele>
        <time>2019-06-20T10:47:30.000Z</time>
      </trkpt>
      <trkpt lat="50.31901" lon="5.22204">
        <ele>246.80000305176</ele>
        <time>2019-06-20T10:47:32.000Z</time>
      </trkpt>
      <trkpt lat="50.31853" lon="5.22143">
        <ele>246</ele>
        <time>2019-06-20T10:47:39.000Z</time>
      </trkpt>
      <trkpt lat="50.31846" lon="5.22135">
        <ele>245.80000305176</ele>
        <time>2019-06-20T10:47:45.000Z</time>
      </trkpt>
      <trkpt lat="50.31838" lon="5.22127">
        <ele>245.60000610352</ele>
        <time>2019-06-20T10:47:49.000Z</time>
      </trkpt>
      <trkpt lat="50.31786" lon="5.22077">
        <ele>245.19999694824</ele>
        <time>2019-06-20T10:47:52.000Z</time>
      </trkpt>
      <trkpt lat="50.31779" lon="5.2207">
        <ele>245.19999694824</ele>
        <time>2019-06-20T10:47:53.000Z</time>
      </trkpt>
      <trkpt lat="50.31744" lon="5.22025">
        <ele>245.19999694824</ele>
        <time>2019-06-20T10:47:56.000Z</time>
      </trkpt>
      <trkpt lat="50.31728" lon="5.22002">
        <ele>245.19999694824</ele>
        <time>2019-06-20T10:47:59.000Z</time>
      </trkpt>
      <trkpt lat="50.31708" lon="5.21973">
        <ele>246.19999694824</ele>
        <time>2019-06-20T10:48:01.000Z</time>
      </trkpt>
      <trkpt lat="50.31698" lon="5.21959">
        <ele>246.80000305176</ele>
        <time>2019-06-20T10:48:03.000Z</time>
      </trkpt>
      <trkpt lat="50.31693" lon="5.21952">
        <ele>247.39999389648</ele>
        <time>2019-06-20T10:48:06.000Z</time>
      </trkpt>
      <trkpt lat="50.31683" lon="5.21938">
        <ele>248</ele>
        <time>2019-06-20T10:48:09.000Z</time>
      </trkpt>
      <trkpt lat="50.31648" lon="5.21888">
        <ele>249</ele>
        <time>2019-06-20T10:48:13.000Z</time>
      </trkpt>
      <trkpt lat="50.31643" lon="5.21881">
        <ele>249.19999694824</ele>
        <time>2019-06-20T10:48:19.000Z</time>
      </trkpt>
      <trkpt lat="50.31603" lon="5.21825">
        <ele>249.80000305176</ele>
        <time>2019-06-20T10:48:25.000Z</time>
      </trkpt>
      <trkpt lat="50.3156" lon="5.21763">
        <ele>250</ele>
        <time>2019-06-20T10:48:31.000Z</time>
      </trkpt>
      <trkpt lat="50.3155" lon="5.2175">
        <ele>249.80000305176</ele>
        <time>2019-06-20T10:48:37.000Z</time>
      </trkpt>
      <trkpt lat="50.31508" lon="5.21699">
        <ele>249.80000305176</ele>
        <time>2019-06-20T10:48:44.000Z</time>
      </trkpt>
      <trkpt lat="50.31475" lon="5.21675">
        <ele>249.80000305176</ele>
        <time>2019-06-20T10:48:45.000Z</time>
      </trkpt>
      <trkpt lat="50.31444" lon="5.21656">
        <ele>250.39999389648</ele>
        <time>2019-06-20T10:48:53.000Z</time>
      </trkpt>
      <trkpt lat="50.31429" lon="5.21647">
        <ele>251.60000610352</ele>
        <time>2019-06-20T10:49:01.000Z</time>
      </trkpt>
      <trkpt lat="50.3141" lon="5.21637">
        <ele>252.80000305176</ele>
        <time>2019-06-20T10:49:02.000Z</time>
      </trkpt>
      <trkpt lat="50.31407" lon="5.21635">
        <ele>253</ele>
        <time>2019-06-20T10:49:05.000Z</time>
      </trkpt>
      <trkpt lat="50.31401" lon="5.21631">
        <ele>253.80000305176</ele>
        <time>2019-06-20T10:49:06.000Z</time>
      </trkpt>
      <trkpt lat="50.314" lon="5.21631">
        <ele>254.39999389648</ele>
        <time>2019-06-20T10:49:07.000Z</time>
      </trkpt>
      <trkpt lat="50.31396" lon="5.21629">
        <ele>257</ele>
        <time>2019-06-20T10:49:11.000Z</time>
      </trkpt>
      <trkpt lat="50.31394" lon="5.21628">
        <ele>257</ele>
        <time>2019-06-20T10:49:12.000Z</time>
      </trkpt>
      <trkpt lat="50.31382" lon="5.21621">
        <ele>257</ele>
        <time>2019-06-20T10:49:15.000Z</time>
      </trkpt>
      <trkpt lat="50.31356" lon="5.21606">
        <ele>257.20001220703</ele>
        <time>2019-06-20T10:49:17.000Z</time>
      </trkpt>
      <trkpt lat="50.31334" lon="5.21591">
        <ele>258</ele>
        <time>2019-06-20T10:49:20.000Z</time>
      </trkpt>
      <trkpt lat="50.3133" lon="5.21588">
        <ele>258.39999389648</ele>
        <time>2019-06-20T10:49:21.000Z</time>
      </trkpt>
      <trkpt lat="50.31306" lon="5.21568">
        <ele>259.20001220703</ele>
        <time>2019-06-20T10:49:23.000Z</time>
      </trkpt>
      <trkpt lat="50.31272" lon="5.21539">
        <ele>260.20001220703</ele>
        <time>2019-06-20T10:49:27.000Z</time>
      </trkpt>
      <trkpt lat="50.31268" lon="5.21535">
        <ele>260.39999389648</ele>
        <time>2019-06-20T10:49:28.000Z</time>
      </trkpt>
      <trkpt lat="50.31244" lon="5.21514">
        <ele>261.20001220703</ele>
        <time>2019-06-20T10:49:31.000Z</time>
      </trkpt>
      <trkpt lat="50.31228" lon="5.21499">
        <ele>261.60000610352</ele>
        <time>2019-06-20T10:49:33.000Z</time>
      </trkpt>
      <trkpt lat="50.31194" lon="5.21473">
        <ele>262.20001220703</ele>
        <time>2019-06-20T10:49:36.000Z</time>
      </trkpt>
      <trkpt lat="50.31181" lon="5.21464">
        <ele>262.39999389648</ele>
        <time>2019-06-20T10:49:38.000Z</time>
      </trkpt>
      <trkpt lat="50.31163" lon="5.21451">
        <ele>262.60000610352</ele>
        <time>2019-06-20T10:49:40.000Z</time>
      </trkpt>
      <trkpt lat="50.3113" lon="5.21429">
        <ele>262.79998779297</ele>
        <time>2019-06-20T10:49:43.000Z</time>
      </trkpt>
      <trkpt lat="50.31117" lon="5.21419">
        <ele>262.79998779297</ele>
        <time>2019-06-20T10:49:47.000Z</time>
      </trkpt>
      <trkpt lat="50.3111" lon="5.21414">
        <ele>262.79998779297</ele>
        <time>2019-06-20T10:49:49.000Z</time>
      </trkpt>
      <trkpt lat="50.31094" lon="5.21402">
        <ele>262.79998779297</ele>
        <time>2019-06-20T10:49:54.000Z</time>
      </trkpt>
      <trkpt lat="50.3109" lon="5.21399">
        <ele>263</ele>
        <time>2019-06-20T10:49:55.000Z</time>
      </trkpt>
      <trkpt lat="50.31084" lon="5.21395">
        <ele>263.20001220703</ele>
        <time>2019-06-20T10:49:58.000Z</time>
      </trkpt>
      <trkpt lat="50.31084" lon="5.21394">
        <ele>263.20001220703</ele>
        <time>2019-06-20T10:50:02.000Z</time>
      </trkpt>
      <trkpt lat="50.31084" lon="5.21394">
        <ele>263.20001220703</ele>
        <time>2019-06-20T10:50:08.000Z</time>
      </trkpt>
      <trkpt lat="50.3108" lon="5.21392">
        <ele>263.60000610352</ele>
        <time>2019-06-20T10:50:11.000Z</time>
      </trkpt>
      <trkpt lat="50.3108" lon="5.21392">
        <ele>263.60000610352</ele>
        <time>2019-06-20T10:50:19.000Z</time>
      </trkpt>
      <trkpt lat="50.31079" lon="5.21394">
        <ele>263.79998779297</ele>
        <time>2019-06-20T10:50:24.000Z</time>
      </trkpt>
      <trkpt lat="50.31076" lon="5.21387">
        <ele>263.39999389648</ele>
        <time>2019-06-20T10:50:28.000Z</time>
      </trkpt>
      <trkpt lat="50.31074" lon="5.21386">
        <ele>263.39999389648</ele>
        <time>2019-06-20T10:50:36.000Z</time>
      </trkpt>
      <trkpt lat="50.31067" lon="5.21381">
        <ele>263.39999389648</ele>
        <time>2019-06-20T10:50:37.000Z</time>
      </trkpt>
      <trkpt lat="50.31064" lon="5.21379">
        <ele>263.39999389648</ele>
        <time>2019-06-20T10:50:44.000Z</time>
      </trkpt>
      <trkpt lat="50.31052" lon="5.21369">
        <ele>263.60000610352</ele>
        <time>2019-06-20T10:50:50.000Z</time>
      </trkpt>
      <trkpt lat="50.31028" lon="5.21358">
        <ele>263.79998779297</ele>
        <time>2019-06-20T10:50:54.000Z</time>
      </trkpt>
      <trkpt lat="50.31009" lon="5.21353">
        <ele>264</ele>
        <time>2019-06-20T10:50:58.000Z</time>
      </trkpt>
      <trkpt lat="50.31002" lon="5.21354">
        <ele>264</ele>
        <time>2019-06-20T10:50:59.000Z</time>
      </trkpt>
      <trkpt lat="50.30988" lon="5.21368">
        <ele>264.20001220703</ele>
        <time>2019-06-20T10:51:05.000Z</time>
      </trkpt>
      <trkpt lat="50.30975" lon="5.21387">
        <ele>265</ele>
        <time>2019-06-20T10:51:06.000Z</time>
      </trkpt>
      <trkpt lat="50.30967" lon="5.21394">
        <ele>265.79998779297</ele>
        <time>2019-06-20T10:51:13.000Z</time>
      </trkpt>
      <trkpt lat="50.30953" lon="5.21388">
        <ele>266</ele>
        <time>2019-06-20T10:51:15.000Z</time>
      </trkpt>
      <trkpt lat="50.30928" lon="5.21368">
        <ele>266.39999389648</ele>
        <time>2019-06-20T10:51:19.000Z</time>
      </trkpt>
      <trkpt lat="50.30908" lon="5.21355">
        <ele>266.39999389648</ele>
        <time>2019-06-20T10:51:23.000Z</time>
      </trkpt>
      <trkpt lat="50.30904" lon="5.21351">
        <ele>266.39999389648</ele>
        <time>2019-06-20T10:51:26.000Z</time>
      </trkpt>
      <trkpt lat="50.3088" lon="5.21319">
        <ele>266.39999389648</ele>
        <time>2019-06-20T10:51:52.000Z</time>
      </trkpt>
      <trkpt lat="50.30873" lon="5.21306">
        <ele>266</ele>
        <time>2019-06-20T10:51:53.000Z</time>
      </trkpt>
      <trkpt lat="50.3086" lon="5.21278">
        <ele>265.20001220703</ele>
        <time>2019-06-20T10:51:54.000Z</time>
      </trkpt>
      <trkpt lat="50.30856" lon="5.2127">
        <ele>265</ele>
        <time>2019-06-20T10:51:59.000Z</time>
      </trkpt>
      <trkpt lat="50.30843" lon="5.21244">
        <ele>264.39999389648</ele>
        <time>2019-06-20T10:52:03.000Z</time>
      </trkpt>
      <trkpt lat="50.30835" lon="5.21224">
        <ele>264.39999389648</ele>
        <time>2019-06-20T10:52:04.000Z</time>
      </trkpt>
      <trkpt lat="50.30832" lon="5.21218">
        <ele>264.20001220703</ele>
        <time>2019-06-20T10:52:08.000Z</time>
      </trkpt>
      <trkpt lat="50.3081" lon="5.21169">
        <ele>264</ele>
        <time>2019-06-20T10:52:11.000Z</time>
      </trkpt>
      <trkpt lat="50.30807" lon="5.21161">
        <ele>264</ele>
        <time>2019-06-20T10:52:14.000Z</time>
      </trkpt>
      <trkpt lat="50.308" lon="5.21146">
        <ele>263.79998779297</ele>
        <time>2019-06-20T10:52:19.000Z</time>
      </trkpt>
      <trkpt lat="50.30778" lon="5.21096">
        <ele>263.20001220703</ele>
        <time>2019-06-20T10:52:21.000Z</time>
      </trkpt>
      <trkpt lat="50.30768" lon="5.21069">
        <ele>262.79998779297</ele>
        <time>2019-06-20T10:52:25.000Z</time>
      </trkpt>
      <trkpt lat="50.30756" lon="5.21033">
        <ele>261.60000610352</ele>
        <time>2019-06-20T10:52:26.000Z</time>
      </trkpt>
      <trkpt lat="50.30753" lon="5.21024">
        <ele>261.20001220703</ele>
        <time>2019-06-20T10:52:31.000Z</time>
      </trkpt>
      <trkpt lat="50.30748" lon="5.20994">
        <ele>260.20001220703</ele>
        <time>2019-06-20T10:52:33.000Z</time>
      </trkpt>
      <trkpt lat="50.30745" lon="5.20973">
        <ele>259.39999389648</ele>
        <time>2019-06-20T10:52:34.000Z</time>
      </trkpt>
      <trkpt lat="50.30743" lon="5.20963">
        <ele>258.79998779297</ele>
        <time>2019-06-20T10:52:35.000Z</time>
      </trkpt>
      <trkpt lat="50.3074" lon="5.20935">
        <ele>257.39999389648</ele>
        <time>2019-06-20T10:52:37.000Z</time>
      </trkpt>
      <trkpt lat="50.30741" lon="5.20927">
        <ele>256.79998779297</ele>
        <time>2019-06-20T10:52:38.000Z</time>
      </trkpt>
      <trkpt lat="50.30749" lon="5.20914">
        <ele>256</ele>
        <time>2019-06-20T10:52:40.000Z</time>
      </trkpt>
      <trkpt lat="50.30765" lon="5.20897">
        <ele>254.60000610352</ele>
        <time>2019-06-20T10:52:44.000Z</time>
      </trkpt>
      <trkpt lat="50.30782" lon="5.20878">
        <ele>253.39999389648</ele>
        <time>2019-06-20T10:52:47.000Z</time>
      </trkpt>
      <trkpt lat="50.30794" lon="5.20864">
        <ele>252</ele>
        <time>2019-06-20T10:52:48.000Z</time>
      </trkpt>
      <trkpt lat="50.30822" lon="5.20834">
        <ele>250.80000305176</ele>
        <time>2019-06-20T10:52:49.000Z</time>
      </trkpt>
      <trkpt lat="50.30854" lon="5.20795">
        <ele>289.4</ele>
        <time>2019-06-20T10:52:50.000Z</time>
      </trkpt>
      <trkpt lat="50.3088" lon="5.20768">
        <ele>288.1</ele>
        <time>2019-06-20T10:52:51.000Z</time>
      </trkpt>
      <trkpt lat="50.30913" lon="5.20732">
        <ele>286.4</ele>
        <time>2019-06-20T10:52:53.000Z</time>
      </trkpt>
      <trkpt lat="50.30957" lon="5.20697">
        <ele>286.4</ele>
        <time>2019-06-20T10:52:55.000Z</time>
      </trkpt>
      <trkpt lat="50.3099" lon="5.20672">
        <ele>286.8</ele>
        <time>2019-06-20T10:53:00.000Z</time>
      </trkpt>
      <trkpt lat="50.31018" lon="5.20655">
        <ele>287.9</ele>
        <time>2019-06-20T10:53:01.000Z</time>
      </trkpt>
      <trkpt lat="50.31062" lon="5.20626">
        <ele>288.7</ele>
        <time>2019-06-20T10:53:03.000Z</time>
      </trkpt>
      <trkpt lat="50.31112" lon="5.2059">
        <ele>291.4</ele>
        <time>2019-06-20T10:53:05.000Z</time>
      </trkpt>
      <trkpt lat="50.31172" lon="5.20548">
        <ele>293.8</ele>
        <time>2019-06-20T10:53:06.000Z</time>
      </trkpt>
      <trkpt lat="50.31207" lon="5.20522">
        <ele>293.5</ele>
        <time>2019-06-20T10:53:07.000Z</time>
      </trkpt>
      <trkpt lat="50.31227" lon="5.20508">
        <ele>293</ele>
        <time>2019-06-20T10:53:09.000Z</time>
      </trkpt>
      <trkpt lat="50.3126" lon="5.20489">
        <ele>247.39999389648</ele>
        <time>2019-06-20T10:53:11.000Z</time>
      </trkpt>
      <trkpt lat="50.31274" lon="5.20482">
        <ele>247.39999389648</ele>
        <time>2019-06-20T10:53:12.000Z</time>
      </trkpt>
      <trkpt lat="50.31295" lon="5.20467">
        <ele>247.19999694824</ele>
        <time>2019-06-20T10:53:13.000Z</time>
      </trkpt>
      <trkpt lat="50.31318" lon="5.20451">
        <ele>246.60000610352</ele>
        <time>2019-06-20T10:53:14.000Z</time>
      </trkpt>
      <trkpt lat="50.31336" lon="5.20434">
        <ele>246.19999694824</ele>
        <time>2019-06-20T10:53:15.000Z</time>
      </trkpt>
      <trkpt lat="50.31342" lon="5.20427">
        <ele>246</ele>
        <time>2019-06-20T10:53:16.000Z</time>
      </trkpt>
      <trkpt lat="50.31358" lon="5.204">
        <ele>245.39999389648</ele>
        <time>2019-06-20T10:53:17.000Z</time>
      </trkpt>
      <trkpt lat="50.31379" lon="5.20359">
        <ele>244.19999694824</ele>
        <time>2019-06-20T10:53:19.000Z</time>
      </trkpt>
      <trkpt lat="50.31395" lon="5.20327">
        <ele>243.19999694824</ele>
        <time>2019-06-20T10:53:20.000Z</time>
      </trkpt>
      <trkpt lat="50.31412" lon="5.20292">
        <ele>242</ele>
        <time>2019-06-20T10:53:21.000Z</time>
      </trkpt>
      <trkpt lat="50.3143" lon="5.20258">
        <ele>240.60000610352</ele>
        <time>2019-06-20T10:53:23.000Z</time>
      </trkpt>
      <trkpt lat="50.31441" lon="5.20234">
        <ele>239</ele>
        <time>2019-06-20T10:53:25.000Z</time>
      </trkpt>
      <trkpt lat="50.31453" lon="5.20211">
        <ele>238</ele>
        <time>2019-06-20T10:53:26.000Z</time>
      </trkpt>
      <trkpt lat="50.31459" lon="5.20199">
        <ele>237.60000610352</ele>
        <time>2019-06-20T10:53:28.000Z</time>
      </trkpt>
      <trkpt lat="50.31477" lon="5.20144">
        <ele>236.60000610352</ele>
        <time>2019-06-20T10:53:29.000Z</time>
      </trkpt>
      <trkpt lat="50.31483" lon="5.20099">
        <ele>235</ele>
        <time>2019-06-20T10:53:30.000Z</time>
      </trkpt>
      <trkpt lat="50.31484" lon="5.20084">
        <ele>234.80000305176</ele>
        <time>2019-06-20T10:53:31.000Z</time>
      </trkpt>
      <trkpt lat="50.31487" lon="5.20039">
        <ele>233.80000305176</ele>
        <time>2019-06-20T10:53:32.000Z</time>
      </trkpt>
      <trkpt lat="50.3149" lon="5.19995">
        <ele>233</ele>
        <time>2019-06-20T10:53:34.000Z</time>
      </trkpt>
      <trkpt lat="50.31491" lon="5.19981">
        <ele>232.60000610352</ele>
        <time>2019-06-20T10:53:36.000Z</time>
      </trkpt>
      <trkpt lat="50.31492" lon="5.19966">
        <ele>232</ele>
        <time>2019-06-20T10:53:37.000Z</time>
      </trkpt>
      <trkpt lat="50.31494" lon="5.19937">
        <ele>231.39999389648</ele>
        <time>2019-06-20T10:53:39.000Z</time>
      </trkpt>
      <trkpt lat="50.31501" lon="5.19851">
        <ele>230.39999389648</ele>
        <time>2019-06-20T10:53:41.000Z</time>
      </trkpt>
      <trkpt lat="50.31503" lon="5.19837">
        <ele>230.19999694824</ele>
        <time>2019-06-20T10:53:42.000Z</time>
      </trkpt>
      <trkpt lat="50.31518" lon="5.19784">
        <ele>229.80000305176</ele>
        <time>2019-06-20T10:53:43.000Z</time>
      </trkpt>
      <trkpt lat="50.31533" lon="5.19748">
        <ele>229.60000610352</ele>
        <time>2019-06-20T10:53:44.000Z</time>
      </trkpt>
      <trkpt lat="50.31548" lon="5.19712">
        <ele>229.60000610352</ele>
        <time>2019-06-20T10:53:46.000Z</time>
      </trkpt>
      <trkpt lat="50.31553" lon="5.197">
        <ele>229.60000610352</ele>
        <time>2019-06-20T10:53:48.000Z</time>
      </trkpt>
      <trkpt lat="50.31567" lon="5.19667">
        <ele>229.60000610352</ele>
        <time>2019-06-20T10:53:49.000Z</time>
      </trkpt>
      <trkpt lat="50.31581" lon="5.19635">
        <ele>229.60000610352</ele>
        <time>2019-06-20T10:53:50.000Z</time>
      </trkpt>
      <trkpt lat="50.3159" lon="5.19614">
        <ele>229.60000610352</ele>
        <time>2019-06-20T10:53:52.000Z</time>
      </trkpt>
      <trkpt lat="50.31613" lon="5.19561">
        <ele>229.60000610352</ele>
        <time>2019-06-20T10:53:54.000Z</time>
      </trkpt>
      <trkpt lat="50.31627" lon="5.19538">
        <ele>229.60000610352</ele>
        <time>2019-06-20T10:54:38.000Z</time>
      </trkpt>
      <trkpt lat="50.31638" lon="5.19527">
        <ele>229.60000610352</ele>
        <time>2019-06-20T10:54:40.000Z</time>
      </trkpt>
      <trkpt lat="50.31679" lon="5.19498">
        <ele>229.39999389648</ele>
        <time>2019-06-20T10:54:41.000Z</time>
      </trkpt>
      <trkpt lat="50.31699" lon="5.19478">
        <ele>229.39999389648</ele>
        <time>2019-06-20T10:54:44.000Z</time>
      </trkpt>
      <trkpt lat="50.31703" lon="5.19472">
        <ele>229.39999389648</ele>
        <time>2019-06-20T10:54:46.000Z</time>
      </trkpt>
      <trkpt lat="50.31719" lon="5.19442">
        <ele>229.39999389648</ele>
        <time>2019-06-20T10:54:49.000Z</time>
      </trkpt>
      <trkpt lat="50.31724" lon="5.19433">
        <ele>229.39999389648</ele>
        <time>2019-06-20T10:54:53.000Z</time>
      </trkpt>
      <trkpt lat="50.31751" lon="5.19375">
        <ele>229.39999389648</ele>
        <time>2019-06-20T10:55:00.000Z</time>
      </trkpt>
      <trkpt lat="50.31756" lon="5.19364">
        <ele>229.19999694824</ele>
        <time>2019-06-20T10:55:07.000Z</time>
      </trkpt>
      <trkpt lat="50.31765" lon="5.19344">
        <ele>228.80000305176</ele>
        <time>2019-06-20T10:55:22.000Z</time>
      </trkpt>
      <trkpt lat="50.31775" lon="5.19324">
        <ele>228</ele>
        <time>2019-06-20T10:55:24.000Z</time>
      </trkpt>
      <trkpt lat="50.31784" lon="5.19303">
        <ele>227</ele>
        <time>2019-06-20T10:55:27.000Z</time>
      </trkpt>
      <trkpt lat="50.31789" lon="5.19293">
        <ele>226.60000610352</ele>
        <time>2019-06-20T10:55:28.000Z</time>
      </trkpt>
      <trkpt lat="50.3181" lon="5.19255">
        <ele>225.19999694824</ele>
        <time>2019-06-20T10:55:35.000Z</time>
      </trkpt>
      <trkpt lat="50.31815" lon="5.19246">
        <ele>224.60000610352</ele>
        <time>2019-06-20T10:55:42.000Z</time>
      </trkpt>
      <trkpt lat="50.31843" lon="5.19206">
        <ele>224.19999694824</ele>
        <time>2019-06-20T10:55:43.000Z</time>
      </trkpt>
      <trkpt lat="50.31848" lon="5.19198">
        <ele>224</ele>
        <time>2019-06-20T10:55:50.000Z</time>
      </trkpt>
      <trkpt lat="50.31858" lon="5.19182">
        <ele>223.80000305176</ele>
        <time>2019-06-20T10:55:53.000Z</time>
      </trkpt>
      <trkpt lat="50.31873" lon="5.19158">
        <ele>223.60000610352</ele>
        <time>2019-06-20T10:56:00.000Z</time>
      </trkpt>
      <trkpt lat="50.31877" lon="5.1915">
        <ele>223.60000610352</ele>
        <time>2019-06-20T10:56:02.000Z</time>
      </trkpt>
      <trkpt lat="50.31885" lon="5.19133">
        <ele>223.39999389648</ele>
        <time>2019-06-20T10:56:09.000Z</time>
      </trkpt>
      <trkpt lat="50.31892" lon="5.19104">
        <ele>223.19999694824</ele>
        <time>2019-06-20T10:56:10.000Z</time>
      </trkpt>
      <trkpt lat="50.31893" lon="5.19094">
        <ele>223.19999694824</ele>
        <time>2019-06-20T10:56:17.000Z</time>
      </trkpt>
      <trkpt lat="50.31897" lon="5.19052">
        <ele>223.19999694824</ele>
        <time>2019-06-20T10:56:18.000Z</time>
      </trkpt>
      <trkpt lat="50.31899" lon="5.19021">
        <ele>223.19999694824</ele>
        <time>2019-06-20T10:56:25.000Z</time>
      </trkpt>
      <trkpt lat="50.31901" lon="5.1898">
        <ele>272</ele>
        <time>2019-06-20T10:56:39.000Z</time>
      </trkpt>
      <trkpt lat="50.31899" lon="5.18948">
        <ele>223.60000610352</ele>
        <time>2019-06-20T10:56:55.000Z</time>
      </trkpt>
      <trkpt lat="50.31898" lon="5.18938">
        <ele>223.60000610352</ele>
        <time>2019-06-20T10:57:14.000Z</time>
      </trkpt>
      <trkpt lat="50.31891" lon="5.18897">
        <ele>223.80000305176</ele>
        <time>2019-06-20T10:57:15.000Z</time>
      </trkpt>
      <trkpt lat="50.31888" lon="5.18887">
        <ele>223.80000305176</ele>
        <time>2019-06-20T10:57:19.000Z</time>
      </trkpt>
      <trkpt lat="50.31871" lon="5.18829">
        <ele>223.80000305176</ele>
        <time>2019-06-20T10:57:20.000Z</time>
      </trkpt>
      <trkpt lat="50.31858" lon="5.18779">
        <ele>224</ele>
        <time>2019-06-20T10:58:50.000Z</time>
      </trkpt>
      <trkpt lat="50.3185" lon="5.18727">
        <ele>224</ele>
        <time>2019-06-20T10:58:51.000Z</time>
      </trkpt>
      <trkpt lat="50.3185" lon="5.18671">
        <ele>223.80000305176</ele>
        <time>2019-06-20T10:59:02.000Z</time>
      </trkpt>
      <trkpt lat="50.31852" lon="5.18661">
        <ele>223.80000305176</ele>
        <time>2019-06-20T11:02:34.000Z</time>
      </trkpt>
      <trkpt lat="50.31861" lon="5.18631">
        <ele>223.80000305176</ele>
        <time>2019-06-20T11:02:35.000Z</time>
      </trkpt>
      <trkpt lat="50.31865" lon="5.18621">
        <ele>223.60000610352</ele>
        <time>2019-06-20T11:02:39.000Z</time>
      </trkpt>
      <trkpt lat="50.31885" lon="5.18576">
        <ele>223.39999389648</ele>
        <time>2019-06-20T11:02:49.000Z</time>
      </trkpt>
      <trkpt lat="50.31912" lon="5.18537">
        <ele>223.19999694824</ele>
        <time>2019-06-20T11:02:54.000Z</time>
      </trkpt>
      <trkpt lat="50.31941" lon="5.185">
        <ele>222.39999389648</ele>
        <time>2019-06-20T11:02:57.000Z</time>
      </trkpt>
      <trkpt lat="50.31957" lon="5.18476">
        <ele>221.80000305176</ele>
        <time>2019-06-20T11:02:58.000Z</time>
      </trkpt>
      <trkpt lat="50.31966" lon="5.18458">
        <ele>221.60000610352</ele>
        <time>2019-06-20T11:02:59.000Z</time>
      </trkpt>
      <trkpt lat="50.31998" lon="5.184">
        <ele>272.9</ele>
        <time>2019-06-20T11:03:01.000Z</time>
      </trkpt>
      <trkpt lat="50.32016" lon="5.18364">
        <ele>272.4</ele>
        <time>2019-06-20T11:03:02.000Z</time>
      </trkpt>
      <trkpt lat="50.32034" lon="5.18325">
        <ele>269.3</ele>
        <time>2019-06-20T11:03:03.000Z</time>
      </trkpt>
      <trkpt lat="50.32055" lon="5.183">
        <ele>269.2</ele>
        <time>2019-06-20T11:03:05.000Z</time>
      </trkpt>
      <trkpt lat="50.3209" lon="5.18276">
        <ele>269.4</ele>
        <time>2019-06-20T11:03:07.000Z</time>
      </trkpt>
      <trkpt lat="50.32122" lon="5.18234">
        <ele>267.9</ele>
        <time>2019-06-20T11:03:08.000Z</time>
      </trkpt>
      <trkpt lat="50.32155" lon="5.18211">
        <ele>268.5</ele>
        <time>2019-06-20T11:03:10.000Z</time>
      </trkpt>
      <trkpt lat="50.32184" lon="5.18191">
        <ele>271.2</ele>
        <time>2019-06-20T11:03:11.000Z</time>
      </trkpt>
      <trkpt lat="50.32199" lon="5.18181">
        <ele>224</ele>
        <time>2019-06-20T11:03:12.000Z</time>
      </trkpt>
      <trkpt lat="50.32213" lon="5.18167">
        <ele>224.80000305176</ele>
        <time>2019-06-20T11:03:13.000Z</time>
      </trkpt>
      <trkpt lat="50.32236" lon="5.18147">
        <ele>226</ele>
        <time>2019-06-20T11:03:17.000Z</time>
      </trkpt>
      <trkpt lat="50.32249" lon="5.18135">
        <ele>226</ele>
        <time>2019-06-20T11:03:19.000Z</time>
      </trkpt>
      <trkpt lat="50.32261" lon="5.18123">
        <ele>270</ele>
        <time>2019-06-20T11:03:20.000Z</time>
      </trkpt>
      <trkpt lat="50.32266" lon="5.18108">
        <ele>226.19999694824</ele>
        <time>2019-06-20T11:03:22.000Z</time>
      </trkpt>
      <trkpt lat="50.32293" lon="5.18048">
        <ele>225.60000610352</ele>
        <time>2019-06-20T11:03:25.000Z</time>
      </trkpt>
      <trkpt lat="50.32303" lon="5.18025">
        <ele>224.60000610352</ele>
        <time>2019-06-20T11:03:26.000Z</time>
      </trkpt>
      <trkpt lat="50.32314" lon="5.18">
        <ele>223.19999694824</ele>
        <time>2019-06-20T11:03:27.000Z</time>
      </trkpt>
      <trkpt lat="50.3233" lon="5.17963">
        <ele>222.39999389648</ele>
        <time>2019-06-20T11:03:28.000Z</time>
      </trkpt>
      <trkpt lat="50.32336" lon="5.17951">
        <ele>221.60000610352</ele>
        <time>2019-06-20T11:03:29.000Z</time>
      </trkpt>
      <trkpt lat="50.32345" lon="5.17928">
        <ele>220.19999694824</ele>
        <time>2019-06-20T11:03:30.000Z</time>
      </trkpt>
      <trkpt lat="50.32355" lon="5.17905">
        <ele>219.19999694824</ele>
        <time>2019-06-20T11:03:31.000Z</time>
      </trkpt>
      <trkpt lat="50.32364" lon="5.17883">
        <ele>218.60000610352</ele>
        <time>2019-06-20T11:03:32.000Z</time>
      </trkpt>
      <trkpt lat="50.32377" lon="5.1785">
        <ele>218.39999389648</ele>
        <time>2019-06-20T11:03:34.000Z</time>
      </trkpt>
      <trkpt lat="50.324" lon="5.17795">
        <ele>218.39999389648</ele>
        <time>2019-06-20T11:03:35.000Z</time>
      </trkpt>
      <trkpt lat="50.3243" lon="5.1772">
        <ele>218.19999694824</ele>
        <time>2019-06-20T11:03:36.000Z</time>
      </trkpt>
      <trkpt lat="50.32438" lon="5.17699">
        <ele>218.19999694824</ele>
        <time>2019-06-20T11:03:38.000Z</time>
      </trkpt>
      <trkpt lat="50.32442" lon="5.17689">
        <ele>218</ele>
        <time>2019-06-20T11:03:40.000Z</time>
      </trkpt>
      <trkpt lat="50.32471" lon="5.17618">
        <ele>217.80000305176</ele>
        <time>2019-06-20T11:03:41.000Z</time>
      </trkpt>
      <trkpt lat="50.32503" lon="5.17565">
        <ele>217.80000305176</ele>
        <time>2019-06-20T11:03:42.000Z</time>
      </trkpt>
      <trkpt lat="50.32546" lon="5.17517">
        <ele>218</ele>
        <time>2019-06-20T11:03:43.000Z</time>
      </trkpt>
      <trkpt lat="50.32569" lon="5.17498">
        <ele>267</ele>
        <time>2019-06-20T11:03:45.000Z</time>
      </trkpt>
      <trkpt lat="50.3259" lon="5.17488">
        <ele>264.9</ele>
        <time>2019-06-20T11:03:46.000Z</time>
      </trkpt>
      <trkpt lat="50.32627" lon="5.17484">
        <ele>264.2</ele>
        <time>2019-06-20T11:03:47.000Z</time>
      </trkpt>
      <trkpt lat="50.32679" lon="5.17482">
        <ele>263.5</ele>
        <time>2019-06-20T11:03:49.000Z</time>
      </trkpt>
      <trkpt lat="50.32695" lon="5.17482">
        <ele>264.1</ele>
        <time>2019-06-20T11:03:52.000Z</time>
      </trkpt>
      <trkpt lat="50.32741" lon="5.17482">
        <ele>265.5</ele>
        <time>2019-06-20T11:03:53.000Z</time>
      </trkpt>
      <trkpt lat="50.32792" lon="5.1748">
        <ele>264.2</ele>
        <time>2019-06-20T11:03:56.000Z</time>
      </trkpt>
      <trkpt lat="50.32812" lon="5.17478">
        <ele>263.4</ele>
        <time>2019-06-20T11:03:57.000Z</time>
      </trkpt>
      <trkpt lat="50.32865" lon="5.17478">
        <ele>213.60000610352</ele>
        <time>2019-06-20T11:04:01.000Z</time>
      </trkpt>
      <trkpt lat="50.32883" lon="5.17477">
        <ele>213.60000610352</ele>
        <time>2019-06-20T11:04:02.000Z</time>
      </trkpt>
      <trkpt lat="50.32941" lon="5.1748">
        <ele>213</ele>
        <time>2019-06-20T11:04:07.000Z</time>
      </trkpt>
      <trkpt lat="50.32949" lon="5.17482">
        <ele>213</ele>
        <time>2019-06-20T11:04:12.000Z</time>
      </trkpt>
      <trkpt lat="50.32964" lon="5.17488">
        <ele>213</ele>
        <time>2019-06-20T11:04:18.000Z</time>
      </trkpt>
      <trkpt lat="50.32978" lon="5.175">
        <ele>213</ele>
        <time>2019-06-20T11:04:23.000Z</time>
      </trkpt>
      <trkpt lat="50.3299" lon="5.17516">
        <ele>213</ele>
        <time>2019-06-20T11:04:25.000Z</time>
      </trkpt>
      <trkpt lat="50.33007" lon="5.17541">
        <ele>213</ele>
        <time>2019-06-20T11:04:27.000Z</time>
      </trkpt>
      <trkpt lat="50.33024" lon="5.17565">
        <ele>213.19999694824</ele>
        <time>2019-06-20T11:04:30.000Z</time>
      </trkpt>
      <trkpt lat="50.3303" lon="5.17571">
        <ele>213.39999389648</ele>
        <time>2019-06-20T11:04:32.000Z</time>
      </trkpt>
      <trkpt lat="50.33037" lon="5.17576">
        <ele>213.39999389648</ele>
        <time>2019-06-20T11:04:35.000Z</time>
      </trkpt>
      <trkpt lat="50.33067" lon="5.17583">
        <ele>214.19999694824</ele>
        <time>2019-06-20T11:04:39.000Z</time>
      </trkpt>
      <trkpt lat="50.3309" lon="5.17585">
        <ele>214.60000610352</ele>
        <time>2019-06-20T11:04:41.000Z</time>
      </trkpt>
      <trkpt lat="50.33128" lon="5.1759">
        <ele>215</ele>
        <time>2019-06-20T11:04:42.000Z</time>
      </trkpt>
      <trkpt lat="50.33182" lon="5.176">
        <ele>215.19999694824</ele>
        <time>2019-06-20T11:04:46.000Z</time>
      </trkpt>
      <trkpt lat="50.33206" lon="5.17605">
        <ele>215.19999694824</ele>
        <time>2019-06-20T11:04:47.000Z</time>
      </trkpt>
      <trkpt lat="50.33235" lon="5.17604">
        <ele>258.6</ele>
        <time>2019-06-20T11:04:53.000Z</time>
      </trkpt>
      <trkpt lat="50.33248" lon="5.176">
        <ele>258.7</ele>
        <time>2019-06-20T11:05:00.000Z</time>
      </trkpt>
      <trkpt lat="50.33259" lon="5.17589">
        <ele>258.7</ele>
        <time>2019-06-20T11:05:01.000Z</time>
      </trkpt>
      <trkpt lat="50.33274" lon="5.1756">
        <ele>257.7</ele>
        <time>2019-06-20T11:05:04.000Z</time>
      </trkpt>
      <trkpt lat="50.33288" lon="5.17522">
        <ele>257.3</ele>
        <time>2019-06-20T11:05:05.000Z</time>
      </trkpt>
      <trkpt lat="50.33298" lon="5.17495">
        <ele>256.6</ele>
        <time>2019-06-20T11:05:08.000Z</time>
      </trkpt>
      <trkpt lat="50.3329" lon="5.17477">
        <ele>209</ele>
        <time>2019-06-20T11:05:09.000Z</time>
      </trkpt>
      <trkpt lat="50.33276" lon="5.1745">
        <ele>257</ele>
        <time>2019-06-20T11:05:15.000Z</time>
      </trkpt>
      <trkpt lat="50.33284" lon="5.17431">
        <ele>257</ele>
        <time>2019-06-20T11:05:24.000Z</time>
      </trkpt>
      <trkpt lat="50.333" lon="5.17411">
        <ele>257.5</ele>
        <time>2019-06-20T11:05:25.000Z</time>
      </trkpt>
      <trkpt lat="50.33317" lon="5.17394">
        <ele>257.3</ele>
        <time>2019-06-20T11:05:26.000Z</time>
      </trkpt>
      <trkpt lat="50.33332" lon="5.17375">
        <ele>209</ele>
        <time>2019-06-20T11:05:33.000Z</time>
      </trkpt>
      <trkpt lat="50.3334" lon="5.1736">
        <ele>209.19999694824</ele>
        <time>2019-06-20T11:05:41.000Z</time>
      </trkpt>
      <trkpt lat="50.33368" lon="5.17312">
        <ele>209.60000610352</ele>
        <time>2019-06-20T11:05:42.000Z</time>
      </trkpt>
      <trkpt lat="50.33411" lon="5.17247">
        <ele>209.60000610352</ele>
        <time>2019-06-20T11:05:48.000Z</time>
      </trkpt>
      <trkpt lat="50.33437" lon="5.17195">
        <ele>208.80000305176</ele>
        <time>2019-06-20T11:05:52.000Z</time>
      </trkpt>
      <trkpt lat="50.33473" lon="5.17124">
        <ele>208.60000610352</ele>
        <time>2019-06-20T11:05:54.000Z</time>
      </trkpt>
      <trkpt lat="50.33478" lon="5.17116">
        <ele>208.60000610352</ele>
        <time>2019-06-20T11:05:56.000Z</time>
      </trkpt>
      <trkpt lat="50.33491" lon="5.171">
        <ele>258</ele>
        <time>2019-06-20T11:05:58.000Z</time>
      </trkpt>
      <trkpt lat="50.33505" lon="5.17092">
        <ele>208.60000610352</ele>
        <time>2019-06-20T11:06:00.000Z</time>
      </trkpt>
      <trkpt lat="50.33512" lon="5.17088">
        <ele>208.39999389648</ele>
        <time>2019-06-20T11:06:13.000Z</time>
      </trkpt>
      <trkpt lat="50.33551" lon="5.17071">
        <ele>208</ele>
        <time>2019-06-20T11:06:16.000Z</time>
      </trkpt>
      <trkpt lat="50.33559" lon="5.17067">
        <ele>208</ele>
        <time>2019-06-20T11:07:03.000Z</time>
      </trkpt>
      <trkpt lat="50.33574" lon="5.17061">
        <ele>207.80000305176</ele>
        <time>2019-06-20T11:07:05.000Z</time>
      </trkpt>
      <trkpt lat="50.33597" lon="5.17051">
        <ele>207.80000305176</ele>
        <time>2019-06-20T11:07:07.000Z</time>
      </trkpt>
      <trkpt lat="50.33619" lon="5.1704">
        <ele>207.19999694824</ele>
        <time>2019-06-20T11:07:08.000Z</time>
      </trkpt>
      <trkpt lat="50.3366" lon="5.17013">
        <ele>207</ele>
        <time>2019-06-20T11:07:09.000Z</time>
      </trkpt>
      <trkpt lat="50.33703" lon="5.16969">
        <ele>207.19999694824</ele>
        <time>2019-06-20T11:07:14.000Z</time>
      </trkpt>
      <trkpt lat="50.33726" lon="5.16943">
        <ele>207.19999694824</ele>
        <time>2019-06-20T11:07:17.000Z</time>
      </trkpt>
      <trkpt lat="50.33745" lon="5.16921">
        <ele>207.19999694824</ele>
        <time>2019-06-20T11:07:20.000Z</time>
      </trkpt>
      <trkpt lat="50.33789" lon="5.16869">
        <ele>207.19999694824</ele>
        <time>2019-06-20T11:07:23.000Z</time>
      </trkpt>
      <trkpt lat="50.33808" lon="5.16846">
        <ele>207</ele>
        <time>2019-06-20T11:07:29.000Z</time>
      </trkpt>
      <trkpt lat="50.33843" lon="5.16793">
        <ele>206.80000305176</ele>
        <time>2019-06-20T11:07:30.000Z</time>
      </trkpt>
      <trkpt lat="50.33853" lon="5.16774">
        <ele>206.60000610352</ele>
        <time>2019-06-20T11:07:32.000Z</time>
      </trkpt>
      <trkpt lat="50.33893" lon="5.16701">
        <ele>206.19999694824</ele>
        <time>2019-06-20T11:07:34.000Z</time>
      </trkpt>
      <trkpt lat="50.33929" lon="5.16635">
        <ele>206</ele>
        <time>2019-06-20T11:07:39.000Z</time>
      </trkpt>
      <trkpt lat="50.33939" lon="5.16614">
        <ele>253.5</ele>
        <time>2019-06-20T11:07:48.000Z</time>
      </trkpt>
      <trkpt lat="50.33953" lon="5.16584">
        <ele>253.3</ele>
        <time>2019-06-20T11:07:53.000Z</time>
      </trkpt>
      <trkpt lat="50.33976" lon="5.16541">
        <ele>253.7</ele>
        <time>2019-06-20T11:07:54.000Z</time>
      </trkpt>
      <trkpt lat="50.33991" lon="5.16504">
        <ele>253.4</ele>
        <time>2019-06-20T11:07:56.000Z</time>
      </trkpt>
      <trkpt lat="50.34009" lon="5.16479">
        <ele>204.39999389648</ele>
        <time>2019-06-20T11:07:57.000Z</time>
      </trkpt>
      <trkpt lat="50.34014" lon="5.16471">
        <ele>204.39999389648</ele>
        <time>2019-06-20T11:08:01.000Z</time>
      </trkpt>
      <trkpt lat="50.34031" lon="5.16446">
        <ele>204.19999694824</ele>
        <time>2019-06-20T11:11:56.000Z</time>
      </trkpt>
      <trkpt lat="50.34063" lon="5.16395">
        <ele>258.6</ele>
        <time>2019-06-20T11:11:57.000Z</time>
      </trkpt>
      <trkpt lat="50.34075" lon="5.16356">
        <ele>257.7</ele>
        <time>2019-06-20T11:11:58.000Z</time>
      </trkpt>
      <trkpt lat="50.34097" lon="5.1627">
        <ele>256.3</ele>
        <time>2019-06-20T11:12:01.000Z</time>
      </trkpt>
      <trkpt lat="50.3411" lon="5.16216">
        <ele>254.3</ele>
        <time>2019-06-20T11:12:03.000Z</time>
      </trkpt>
      <trkpt lat="50.34122" lon="5.16182">
        <ele>254</ele>
        <time>2019-06-20T11:12:04.000Z</time>
      </trkpt>
      <trkpt lat="50.34125" lon="5.16137">
        <ele>251.9</ele>
        <time>2019-06-20T11:12:08.000Z</time>
      </trkpt>
      <trkpt lat="50.34125" lon="5.16094">
        <ele>251.3</ele>
        <time>2019-06-20T11:12:09.000Z</time>
      </trkpt>
      <trkpt lat="50.3413" lon="5.16035">
        <ele>250.5</ele>
        <time>2019-06-20T11:12:13.000Z</time>
      </trkpt>
      <trkpt lat="50.34145" lon="5.15999">
        <ele>250.2</ele>
        <time>2019-06-20T11:12:49.000Z</time>
      </trkpt>
      <trkpt lat="50.34154" lon="5.15981">
        <ele>250</ele>
        <time>2019-06-20T11:12:50.000Z</time>
      </trkpt>
      <trkpt lat="50.34168" lon="5.1597">
        <ele>205.39999389648</ele>
        <time>2019-06-20T11:12:58.000Z</time>
      </trkpt>
      <trkpt lat="50.34174" lon="5.15967">
        <ele>205.19999694824</ele>
        <time>2019-06-20T11:13:01.000Z</time>
      </trkpt>
      <trkpt lat="50.34189" lon="5.15962">
        <ele>204.39999389648</ele>
        <time>2019-06-20T11:13:02.000Z</time>
      </trkpt>
      <trkpt lat="50.34194" lon="5.15961">
        <ele>204.39999389648</ele>
        <time>2019-06-20T11:13:03.000Z</time>
      </trkpt>
      <trkpt lat="50.34215" lon="5.1595">
        <ele>204.39999389648</ele>
        <time>2019-06-20T11:13:05.000Z</time>
      </trkpt>
      <trkpt lat="50.34231" lon="5.15926">
        <ele>205</ele>
        <time>2019-06-20T11:13:09.000Z</time>
      </trkpt>
      <trkpt lat="50.34236" lon="5.1592">
        <ele>205.60000610352</ele>
        <time>2019-06-20T11:13:10.000Z</time>
      </trkpt>
      <trkpt lat="50.3425" lon="5.15907">
        <ele>254.1</ele>
        <time>2019-06-20T11:13:12.000Z</time>
      </trkpt>
      <trkpt lat="50.34273" lon="5.15923">
        <ele>206.19999694824</ele>
        <time>2019-06-20T11:13:14.000Z</time>
      </trkpt>
      <trkpt lat="50.34286" lon="5.15935">
        <ele>206.60000610352</ele>
        <time>2019-06-20T11:13:15.000Z</time>
      </trkpt>
      <trkpt lat="50.34307" lon="5.15956">
        <ele>207.39999389648</ele>
        <time>2019-06-20T11:13:17.000Z</time>
      </trkpt>
      <trkpt lat="50.3432" lon="5.15968">
        <ele>208.19999694824</ele>
        <time>2019-06-20T11:13:19.000Z</time>
      </trkpt>
      <trkpt lat="50.34329" lon="5.15972">
        <ele>208.80000305176</ele>
        <time>2019-06-20T11:13:20.000Z</time>
      </trkpt>
      <trkpt lat="50.34338" lon="5.1597">
        <ele>209</ele>
        <time>2019-06-20T11:13:21.000Z</time>
      </trkpt>
      <trkpt lat="50.34346" lon="5.15965">
        <ele>209.19999694824</ele>
        <time>2019-06-20T11:13:23.000Z</time>
      </trkpt>
      <trkpt lat="50.34363" lon="5.15957">
        <ele>258.6</ele>
        <time>2019-06-20T11:13:24.000Z</time>
      </trkpt>
      <trkpt lat="50.34379" lon="5.15951">
        <ele>210.80000305176</ele>
        <time>2019-06-20T11:13:25.000Z</time>
      </trkpt>
      <trkpt lat="50.34406" lon="5.15939">
        <ele>212.60000610352</ele>
        <time>2019-06-20T11:13:26.000Z</time>
      </trkpt>
      <trkpt lat="50.34426" lon="5.15929">
        <ele>214</ele>
        <time>2019-06-20T11:13:27.000Z</time>
      </trkpt>
      <trkpt lat="50.34439" lon="5.15923">
        <ele>215.19999694824</ele>
        <time>2019-06-20T11:13:29.000Z</time>
      </trkpt>
      <trkpt lat="50.34452" lon="5.15917">
        <ele>216.19999694824</ele>
        <time>2019-06-20T11:13:30.000Z</time>
      </trkpt>
      <trkpt lat="50.34473" lon="5.15907">
        <ele>217.39999389648</ele>
        <time>2019-06-20T11:13:31.000Z</time>
      </trkpt>
      <trkpt lat="50.34488" lon="5.15895">
        <ele>218.60000610352</ele>
        <time>2019-06-20T11:13:32.000Z</time>
      </trkpt>
      <trkpt lat="50.34503" lon="5.15884">
        <ele>219.39999389648</ele>
        <time>2019-06-20T11:13:33.000Z</time>
      </trkpt>
      <trkpt lat="50.34535" lon="5.1586">
        <ele>269.2</ele>
        <time>2019-06-20T11:13:34.000Z</time>
      </trkpt>
      <trkpt lat="50.34562" lon="5.15846">
        <ele>269.8</ele>
        <time>2019-06-20T11:13:35.000Z</time>
      </trkpt>
      <trkpt lat="50.34574" lon="5.15843">
        <ele>270</ele>
        <time>2019-06-20T11:13:36.000Z</time>
      </trkpt>
      <trkpt lat="50.3459" lon="5.15846">
        <ele>271.1</ele>
        <time>2019-06-20T11:13:37.000Z</time>
      </trkpt>
      <trkpt lat="50.34625" lon="5.15863">
        <ele>271.3</ele>
        <time>2019-06-20T11:13:38.000Z</time>
      </trkpt>
      <trkpt lat="50.34649" lon="5.15875">
        <ele>271</ele>
        <time>2019-06-20T11:13:39.000Z</time>
      </trkpt>
      <trkpt lat="50.34694" lon="5.159">
        <ele>272.3</ele>
        <time>2019-06-20T11:13:40.000Z</time>
      </trkpt>
      <trkpt lat="50.34728" lon="5.1592">
        <ele>272.9</ele>
        <time>2019-06-20T11:13:41.000Z</time>
      </trkpt>
      <trkpt lat="50.3476" lon="5.15937">
        <ele>274.2</ele>
        <time>2019-06-20T11:13:42.000Z</time>
      </trkpt>
      <trkpt lat="50.34805" lon="5.15956">
        <ele>274.6</ele>
        <time>2019-06-20T11:13:43.000Z</time>
      </trkpt>
      <trkpt lat="50.34824" lon="5.15962">
        <ele>274.9</ele>
        <time>2019-06-20T11:13:44.000Z</time>
      </trkpt>
      <trkpt lat="50.34853" lon="5.15971">
        <ele>230.39999389648</ele>
        <time>2019-06-20T11:13:45.000Z</time>
      </trkpt>
      <trkpt lat="50.34873" lon="5.15976">
        <ele>230.60000610352</ele>
        <time>2019-06-20T11:13:46.000Z</time>
      </trkpt>
      <trkpt lat="50.34904" lon="5.15984">
        <ele>230.60000610352</ele>
        <time>2019-06-20T11:13:47.000Z</time>
      </trkpt>
      <trkpt lat="50.34945" lon="5.15993">
        <ele>231.19999694824</ele>
        <time>2019-06-20T11:13:48.000Z</time>
      </trkpt>
      <trkpt lat="50.34975" lon="5.16">
        <ele>232.80000305176</ele>
        <time>2019-06-20T11:13:49.000Z</time>
      </trkpt>
      <trkpt lat="50.34993" lon="5.16004">
        <ele>233.80000305176</ele>
        <time>2019-06-20T11:13:50.000Z</time>
      </trkpt>
      <trkpt lat="50.35011" lon="5.16008">
        <ele>235</ele>
        <time>2019-06-20T11:13:51.000Z</time>
      </trkpt>
      <trkpt lat="50.35028" lon="5.16012">
        <ele>236</ele>
        <time>2019-06-20T11:13:52.000Z</time>
      </trkpt>
      <trkpt lat="50.35045" lon="5.16015">
        <ele>237.19999694824</ele>
        <time>2019-06-20T11:13:55.000Z</time>
      </trkpt>
      <trkpt lat="50.35075" lon="5.16024">
        <ele>239.39999389648</ele>
        <time>2019-06-20T11:13:56.000Z</time>
      </trkpt>
      <trkpt lat="50.35095" lon="5.16028">
        <ele>289.4</ele>
        <time>2019-06-20T11:13:58.000Z</time>
      </trkpt>
      <trkpt lat="50.35138" lon="5.1604">
        <ele>290</ele>
        <time>2019-06-20T11:13:59.000Z</time>
      </trkpt>
      <trkpt lat="50.35163" lon="5.16048">
        <ele>290.2</ele>
        <time>2019-06-20T11:14:01.000Z</time>
      </trkpt>
      <trkpt lat="50.35199" lon="5.16058">
        <ele>293.4</ele>
        <time>2019-06-20T11:14:02.000Z</time>
      </trkpt>
      <trkpt lat="50.35229" lon="5.16067">
        <ele>294.3</ele>
        <time>2019-06-20T11:14:05.000Z</time>
      </trkpt>
      <trkpt lat="50.35262" lon="5.16077">
        <ele>248.60000610352</ele>
        <time>2019-06-20T11:14:06.000Z</time>
      </trkpt>
      <trkpt lat="50.35282" lon="5.16082">
        <ele>249.80000305176</ele>
        <time>2019-06-20T11:14:07.000Z</time>
      </trkpt>
      <trkpt lat="50.35303" lon="5.16087">
        <ele>250.80000305176</ele>
        <time>2019-06-20T11:14:09.000Z</time>
      </trkpt>
      <trkpt lat="50.35319" lon="5.16091">
        <ele>252</ele>
        <time>2019-06-20T11:14:10.000Z</time>
      </trkpt>
      <trkpt lat="50.35334" lon="5.16095">
        <ele>253.19999694824</ele>
        <time>2019-06-20T11:14:11.000Z</time>
      </trkpt>
      <trkpt lat="50.35358" lon="5.16102">
        <ele>254.39999389648</ele>
        <time>2019-06-20T11:14:12.000Z</time>
      </trkpt>
      <trkpt lat="50.35374" lon="5.16108">
        <ele>255.19999694824</ele>
        <time>2019-06-20T11:14:13.000Z</time>
      </trkpt>
      <trkpt lat="50.35398" lon="5.16117">
        <ele>256.79998779297</ele>
        <time>2019-06-20T11:14:14.000Z</time>
      </trkpt>
      <trkpt lat="50.35414" lon="5.16122">
        <ele>258.20001220703</ele>
        <time>2019-06-20T11:14:15.000Z</time>
      </trkpt>
      <trkpt lat="50.35427" lon="5.16125">
        <ele>306.3</ele>
        <time>2019-06-20T11:14:16.000Z</time>
      </trkpt>
      <trkpt lat="50.35442" lon="5.16128">
        <ele>260</ele>
        <time>2019-06-20T11:14:17.000Z</time>
      </trkpt>
      <trkpt lat="50.35473" lon="5.16128">
        <ele>305.9</ele>
        <time>2019-06-20T11:14:18.000Z</time>
      </trkpt>
      <trkpt lat="50.35508" lon="5.16129">
        <ele>304.1</ele>
        <time>2019-06-20T11:14:19.000Z</time>
      </trkpt>
      <trkpt lat="50.35572" lon="5.16131">
        <ele>303.1</ele>
        <time>2019-06-20T11:14:20.000Z</time>
      </trkpt>
      <trkpt lat="50.35601" lon="5.16131">
        <ele>299.7</ele>
        <time>2019-06-20T11:14:21.000Z</time>
      </trkpt>
      <trkpt lat="50.35618" lon="5.16127">
        <ele>299.1</ele>
        <time>2019-06-20T11:14:22.000Z</time>
      </trkpt>
      <trkpt lat="50.3563" lon="5.1611">
        <ele>255.39999389648</ele>
        <time>2019-06-20T11:14:23.000Z</time>
      </trkpt>
      <trkpt lat="50.35634" lon="5.16097">
        <ele>254.80000305176</ele>
        <time>2019-06-20T11:14:24.000Z</time>
      </trkpt>
      <trkpt lat="50.35635" lon="5.16083">
        <ele>254.19999694824</ele>
        <time>2019-06-20T11:14:25.000Z</time>
      </trkpt>
      <trkpt lat="50.35635" lon="5.16069">
        <ele>253.60000610352</ele>
        <time>2019-06-20T11:14:26.000Z</time>
      </trkpt>
      <trkpt lat="50.35632" lon="5.16039">
        <ele>252.39999389648</ele>
        <time>2019-06-20T11:14:27.000Z</time>
      </trkpt>
      <trkpt lat="50.3563" lon="5.16024">
        <ele>252</ele>
        <time>2019-06-20T11:14:28.000Z</time>
      </trkpt>
      <trkpt lat="50.35627" lon="5.16009">
        <ele>251.39999389648</ele>
        <time>2019-06-20T11:14:29.000Z</time>
      </trkpt>
      <trkpt lat="50.35623" lon="5.15979">
        <ele>250.19999694824</ele>
        <time>2019-06-20T11:14:30.000Z</time>
      </trkpt>
      <trkpt lat="50.35618" lon="5.15949">
        <ele>249</ele>
        <time>2019-06-20T11:14:31.000Z</time>
      </trkpt>
      <trkpt lat="50.35613" lon="5.15919">
        <ele>248.39999389648</ele>
        <time>2019-06-20T11:14:33.000Z</time>
      </trkpt>
      <trkpt lat="50.35611" lon="5.15904">
        <ele>247.80000305176</ele>
        <time>2019-06-20T11:14:34.000Z</time>
      </trkpt>
      <trkpt lat="50.35605" lon="5.1586">
        <ele>246.80000305176</ele>
        <time>2019-06-20T11:14:35.000Z</time>
      </trkpt>
      <trkpt lat="50.35599" lon="5.15817">
        <ele>246.60000610352</ele>
        <time>2019-06-20T11:14:38.000Z</time>
      </trkpt>
      <trkpt lat="50.35597" lon="5.1579">
        <ele>246.60000610352</ele>
        <time>2019-06-20T11:14:40.000Z</time>
      </trkpt>
      <trkpt lat="50.35598" lon="5.15762">
        <ele>246.60000610352</ele>
        <time>2019-06-20T11:14:43.000Z</time>
      </trkpt>
      <trkpt lat="50.35604" lon="5.15712">
        <ele>247.39999389648</ele>
        <time>2019-06-20T11:14:44.000Z</time>
      </trkpt>
      <trkpt lat="50.35608" lon="5.1568">
        <ele>247.60000610352</ele>
        <time>2019-06-20T11:14:46.000Z</time>
      </trkpt>
      <trkpt lat="50.3561" lon="5.15671">
        <ele>247.60000610352</ele>
        <time>2019-06-20T11:14:50.000Z</time>
      </trkpt>
      <trkpt lat="50.35614" lon="5.1566">
        <ele>247.80000305176</ele>
        <time>2019-06-20T11:14:51.000Z</time>
      </trkpt>
      <trkpt lat="50.35622" lon="5.15642">
        <ele>247.80000305176</ele>
        <time>2019-06-20T11:14:54.000Z</time>
      </trkpt>
      <trkpt lat="50.35627" lon="5.15633">
        <ele>248</ele>
        <time>2019-06-20T11:14:56.000Z</time>
      </trkpt>
      <trkpt lat="50.3565" lon="5.1559">
        <ele>248.19999694824</ele>
        <time>2019-06-20T11:14:57.000Z</time>
      </trkpt>
      <trkpt lat="50.3567" lon="5.15556">
        <ele>248.60000610352</ele>
        <time>2019-06-20T11:15:01.000Z</time>
      </trkpt>
      <trkpt lat="50.35679" lon="5.15542">
        <ele>284.5</ele>
        <time>2019-06-20T11:15:06.000Z</time>
      </trkpt>
      <trkpt lat="50.35691" lon="5.15528">
        <ele>284.2</ele>
        <time>2019-06-20T11:15:07.000Z</time>
      </trkpt>
      <trkpt lat="50.35699" lon="5.15521">
        <ele>284.1</ele>
        <time>2019-06-20T11:15:10.000Z</time>
      </trkpt>
      <trkpt lat="50.35713" lon="5.15518">
        <ele>284</ele>
        <time>2019-06-20T11:15:12.000Z</time>
      </trkpt>
      <trkpt lat="50.35725" lon="5.15527">
        <ele>249.19999694824</ele>
        <time>2019-06-20T11:15:14.000Z</time>
      </trkpt>
      <trkpt lat="50.35731" lon="5.15532">
        <ele>249.19999694824</ele>
        <time>2019-06-20T11:15:17.000Z</time>
      </trkpt>
      <trkpt lat="50.35765" lon="5.15557">
        <ele>249.39999389648</ele>
        <time>2019-06-20T11:15:22.000Z</time>
      </trkpt>
      <trkpt lat="50.35793" lon="5.15567">
        <ele>249.60000610352</ele>
        <time>2019-06-20T11:15:24.000Z</time>
      </trkpt>
      <trkpt lat="50.358" lon="5.15566">
        <ele>249.60000610352</ele>
        <time>2019-06-20T11:15:28.000Z</time>
      </trkpt>
      <trkpt lat="50.35821" lon="5.15562">
        <ele>250</ele>
        <time>2019-06-20T11:15:32.000Z</time>
      </trkpt>
      <trkpt lat="50.35835" lon="5.15557">
        <ele>250.19999694824</ele>
        <time>2019-06-20T11:15:37.000Z</time>
      </trkpt>
      <trkpt lat="50.35873" lon="5.15544">
        <ele>250.39999389648</ele>
        <time>2019-06-20T11:15:44.000Z</time>
      </trkpt>
      <trkpt lat="50.3588" lon="5.15541">
        <ele>250.39999389648</ele>
        <time>2019-06-20T11:15:49.000Z</time>
      </trkpt>
      <trkpt lat="50.35904" lon="5.15533">
        <ele>250.80000305176</ele>
        <time>2019-06-20T11:15:50.000Z</time>
      </trkpt>
      <trkpt lat="50.35915" lon="5.15529">
        <ele>251.19999694824</ele>
        <time>2019-06-20T11:15:51.000Z</time>
      </trkpt>
      <trkpt lat="50.35929" lon="5.15524">
        <ele>251.39999389648</ele>
        <time>2019-06-20T11:15:55.000Z</time>
      </trkpt>
      <trkpt lat="50.35945" lon="5.15517">
        <ele>252</ele>
        <time>2019-06-20T11:16:00.000Z</time>
      </trkpt>
      <trkpt lat="50.35983" lon="5.15504">
        <ele>251.19999694824</ele>
        <time>2019-06-20T11:16:05.000Z</time>
      </trkpt>
      <trkpt lat="50.36004" lon="5.15493">
        <ele>239.80000305176</ele>
        <time>2019-06-20T11:16:07.000Z</time>
      </trkpt>
      <trkpt lat="50.36044" lon="5.15476">
        <ele>295</ele>
        <time>2019-06-20T11:16:08.000Z</time>
      </trkpt>
      <trkpt lat="50.36062" lon="5.15459">
        <ele>239.60000610352</ele>
        <time>2019-06-20T11:16:09.000Z</time>
      </trkpt>
      <trkpt lat="50.36099" lon="5.15424">
        <ele>292.3</ele>
        <time>2019-06-20T11:16:10.000Z</time>
      </trkpt>
      <trkpt lat="50.36125" lon="5.15402">
        <ele>239.19999694824</ele>
        <time>2019-06-20T11:16:12.000Z</time>
      </trkpt>
      <trkpt lat="50.36134" lon="5.15393">
        <ele>238.60000610352</ele>
        <time>2019-06-20T11:16:14.000Z</time>
      </trkpt>
      <trkpt lat="50.3616" lon="5.15367">
        <ele>237.60000610352</ele>
        <time>2019-06-20T11:16:16.000Z</time>
      </trkpt>
      <trkpt lat="50.36181" lon="5.15347">
        <ele>236.80000305176</ele>
        <time>2019-06-20T11:16:17.000Z</time>
      </trkpt>
      <trkpt lat="50.36188" lon="5.15342">
        <ele>236.80000305176</ele>
        <time>2019-06-20T11:16:20.000Z</time>
      </trkpt>
      <trkpt lat="50.36226" lon="5.15309">
        <ele>236.80000305176</ele>
        <time>2019-06-20T11:16:21.000Z</time>
      </trkpt>
      <trkpt lat="50.36277" lon="5.15266">
        <ele>239.19999694824</ele>
        <time>2019-06-20T11:16:25.000Z</time>
      </trkpt>
      <trkpt lat="50.36297" lon="5.1525">
        <ele>239.80000305176</ele>
        <time>2019-06-20T11:16:26.000Z</time>
      </trkpt>
      <trkpt lat="50.36311" lon="5.15237">
        <ele>241.19999694824</ele>
        <time>2019-06-20T11:16:32.000Z</time>
      </trkpt>
      <trkpt lat="50.36331" lon="5.15221">
        <ele>242.19999694824</ele>
        <time>2019-06-20T11:16:35.000Z</time>
      </trkpt>
      <trkpt lat="50.3635" lon="5.15204">
        <ele>243.19999694824</ele>
        <time>2019-06-20T11:16:38.000Z</time>
      </trkpt>
      <trkpt lat="50.36355" lon="5.152">
        <ele>243.39999389648</ele>
        <time>2019-06-20T11:16:45.000Z</time>
      </trkpt>
      <trkpt lat="50.36369" lon="5.15189">
        <ele>244.39999389648</ele>
        <time>2019-06-20T11:16:48.000Z</time>
      </trkpt>
      <trkpt lat="50.36378" lon="5.15181">
        <ele>244.80000305176</ele>
        <time>2019-06-20T11:16:52.000Z</time>
      </trkpt>
      <trkpt lat="50.36393" lon="5.15169">
        <ele>245.39999389648</ele>
        <time>2019-06-20T11:16:58.000Z</time>
      </trkpt>
      <trkpt lat="50.36425" lon="5.15144">
        <ele>245.80000305176</ele>
        <time>2019-06-20T11:17:04.000Z</time>
      </trkpt>
      <trkpt lat="50.36472" lon="5.15117">
        <ele>245.80000305176</ele>
        <time>2019-06-20T11:17:05.000Z</time>
      </trkpt>
      <trkpt lat="50.36526" lon="5.1509">
        <ele>244.39999389648</ele>
        <time>2019-06-20T11:17:08.000Z</time>
      </trkpt>
      <trkpt lat="50.36542" lon="5.15082">
        <ele>243.80000305176</ele>
        <time>2019-06-20T11:17:09.000Z</time>
      </trkpt>
      <trkpt lat="50.36566" lon="5.15068">
        <ele>243.19999694824</ele>
        <time>2019-06-20T11:17:15.000Z</time>
      </trkpt>
      <trkpt lat="50.3659" lon="5.1505">
        <ele>242.39999389648</ele>
        <time>2019-06-20T11:17:19.000Z</time>
      </trkpt>
      <trkpt lat="50.36605" lon="5.15038">
        <ele>242</ele>
        <time>2019-06-20T11:17:20.000Z</time>
      </trkpt>
      <trkpt lat="50.3662" lon="5.15025">
        <ele>241.60000610352</ele>
        <time>2019-06-20T11:17:21.000Z</time>
      </trkpt>
      <trkpt lat="50.36635" lon="5.15012">
        <ele>241</ele>
        <time>2019-06-20T11:17:24.000Z</time>
      </trkpt>
      <trkpt lat="50.36665" lon="5.14985">
        <ele>240</ele>
        <time>2019-06-20T11:17:25.000Z</time>
      </trkpt>
      <trkpt lat="50.3668" lon="5.14972">
        <ele>239.80000305176</ele>
        <time>2019-06-20T11:17:26.000Z</time>
      </trkpt>
      <trkpt lat="50.36695" lon="5.14958">
        <ele>239.39999389648</ele>
        <time>2019-06-20T11:17:28.000Z</time>
      </trkpt>
      <trkpt lat="50.36717" lon="5.14939">
        <ele>238.80000305176</ele>
        <time>2019-06-20T11:17:30.000Z</time>
      </trkpt>
      <trkpt lat="50.36753" lon="5.14906">
        <ele>238.19999694824</ele>
        <time>2019-06-20T11:17:32.000Z</time>
      </trkpt>
      <trkpt lat="50.36799" lon="5.14869">
        <ele>238</ele>
        <time>2019-06-20T11:17:34.000Z</time>
      </trkpt>
      <trkpt lat="50.36832" lon="5.14853">
        <ele>238.19999694824</ele>
        <time>2019-06-20T11:17:35.000Z</time>
      </trkpt>
      <trkpt lat="50.36845" lon="5.14848">
        <ele>238.60000610352</ele>
        <time>2019-06-20T11:17:38.000Z</time>
      </trkpt>
      <trkpt lat="50.36865" lon="5.14845">
        <ele>239.39999389648</ele>
        <time>2019-06-20T11:17:39.000Z</time>
      </trkpt>
      <trkpt lat="50.36879" lon="5.14846">
        <ele>239.60000610352</ele>
        <time>2019-06-20T11:17:40.000Z</time>
      </trkpt>
      <trkpt lat="50.36886" lon="5.14847">
        <ele>239.80000305176</ele>
        <time>2019-06-20T11:17:43.000Z</time>
      </trkpt>
      <trkpt lat="50.36912" lon="5.14853">
        <ele>240.60000610352</ele>
        <time>2019-06-20T11:17:45.000Z</time>
      </trkpt>
      <trkpt lat="50.36925" lon="5.14856">
        <ele>241</ele>
        <time>2019-06-20T11:17:48.000Z</time>
      </trkpt>
      <trkpt lat="50.36963" lon="5.14867">
        <ele>242.19999694824</ele>
        <time>2019-06-20T11:17:49.000Z</time>
      </trkpt>
      <trkpt lat="50.36989" lon="5.14875">
        <ele>242.80000305176</ele>
        <time>2019-06-20T11:17:50.000Z</time>
      </trkpt>
      <trkpt lat="50.37009" lon="5.14882">
        <ele>243.19999694824</ele>
        <time>2019-06-20T11:17:51.000Z</time>
      </trkpt>
      <trkpt lat="50.37043" lon="5.14897">
        <ele>244</ele>
        <time>2019-06-20T11:17:53.000Z</time>
      </trkpt>
      <trkpt lat="50.37062" lon="5.14912">
        <ele>244.19999694824</ele>
        <time>2019-06-20T11:17:55.000Z</time>
      </trkpt>
      <trkpt lat="50.3708" lon="5.1493">
        <ele>244.39999389648</ele>
        <time>2019-06-20T11:17:56.000Z</time>
      </trkpt>
      <trkpt lat="50.37125" lon="5.14987">
        <ele>245</ele>
        <time>2019-06-20T11:18:00.000Z</time>
      </trkpt>
      <trkpt lat="50.37136" lon="5.15001">
        <ele>245.19999694824</ele>
        <time>2019-06-20T11:18:01.000Z</time>
      </trkpt>
      <trkpt lat="50.37141" lon="5.15008">
        <ele>245.19999694824</ele>
        <time>2019-06-20T11:18:05.000Z</time>
      </trkpt>
      <trkpt lat="50.37178" lon="5.15057">
        <ele>245.60000610352</ele>
        <time>2019-06-20T11:18:07.000Z</time>
      </trkpt>
      <trkpt lat="50.37183" lon="5.15063">
        <ele>245.60000610352</ele>
        <time>2019-06-20T11:18:08.000Z</time>
      </trkpt>
      <trkpt lat="50.37196" lon="5.15066">
        <ele>245.80000305176</ele>
        <time>2019-06-20T11:18:10.000Z</time>
      </trkpt>
      <trkpt lat="50.3721" lon="5.15048">
        <ele>292.3</ele>
        <time>2019-06-20T11:18:14.000Z</time>
      </trkpt>
      <trkpt lat="50.37218" lon="5.15029">
        <ele>292.1</ele>
        <time>2019-06-20T11:18:15.000Z</time>
      </trkpt>
      <trkpt lat="50.3723" lon="5.15001">
        <ele>291.7</ele>
        <time>2019-06-20T11:18:18.000Z</time>
      </trkpt>
      <trkpt lat="50.37262" lon="5.14931">
        <ele>291.6</ele>
        <time>2019-06-20T11:18:21.000Z</time>
      </trkpt>
      <trkpt lat="50.37273" lon="5.14907">
        <ele>293.2</ele>
        <time>2019-06-20T11:18:22.000Z</time>
      </trkpt>
      <trkpt lat="50.37301" lon="5.14863">
        <ele>295</ele>
        <time>2019-06-20T11:18:24.000Z</time>
      </trkpt>
      <trkpt lat="50.37342" lon="5.1481">
        <ele>299.5</ele>
        <time>2019-06-20T11:18:26.000Z</time>
      </trkpt>
      <trkpt lat="50.37371" lon="5.14776">
        <ele>299.9</ele>
        <time>2019-06-20T11:18:31.000Z</time>
      </trkpt>
      <trkpt lat="50.37391" lon="5.14752">
        <ele>299.2</ele>
        <time>2019-06-20T11:18:34.000Z</time>
      </trkpt>
      <trkpt lat="50.37406" lon="5.14736">
        <ele>300.9</ele>
        <time>2019-06-20T11:18:35.000Z</time>
      </trkpt>
      <trkpt lat="50.37441" lon="5.14701">
        <ele>294.6</ele>
        <time>2019-06-20T11:18:36.000Z</time>
      </trkpt>
      <trkpt lat="50.37471" lon="5.14675">
        <ele>291.3</ele>
        <time>2019-06-20T11:18:40.000Z</time>
      </trkpt>
      <trkpt lat="50.37502" lon="5.14658">
        <ele>284.1</ele>
        <time>2019-06-20T11:18:41.000Z</time>
      </trkpt>
      <trkpt lat="50.37526" lon="5.14645">
        <ele>282.7</ele>
        <time>2019-06-20T11:18:42.000Z</time>
      </trkpt>
      <trkpt lat="50.37552" lon="5.14629">
        <ele>281.7</ele>
        <time>2019-06-20T11:18:46.000Z</time>
      </trkpt>
      <trkpt lat="50.37578" lon="5.14613">
        <ele>280.9</ele>
        <time>2019-06-20T11:18:51.000Z</time>
      </trkpt>
      <trkpt lat="50.37602" lon="5.14597">
        <ele>239.19999694824</ele>
        <time>2019-06-20T11:18:59.000Z</time>
      </trkpt>
      <trkpt lat="50.37611" lon="5.14588">
        <ele>238.39999389648</ele>
        <time>2019-06-20T11:19:01.000Z</time>
      </trkpt>
      <trkpt lat="50.37621" lon="5.1458">
        <ele>237.80000305176</ele>
        <time>2019-06-20T11:19:05.000Z</time>
      </trkpt>
      <trkpt lat="50.37647" lon="5.14556">
        <ele>237</ele>
        <time>2019-06-20T11:19:10.000Z</time>
      </trkpt>
      <trkpt lat="50.37673" lon="5.14533">
        <ele>235.39999389648</ele>
        <time>2019-06-20T11:19:11.000Z</time>
      </trkpt>
      <trkpt lat="50.3769" lon="5.14518">
        <ele>235</ele>
        <time>2019-06-20T11:19:15.000Z</time>
      </trkpt>
      <trkpt lat="50.37734" lon="5.14484">
        <ele>234.39999389648</ele>
        <time>2019-06-20T11:19:17.000Z</time>
      </trkpt>
      <trkpt lat="50.37762" lon="5.14464">
        <ele>233.80000305176</ele>
        <time>2019-06-20T11:19:22.000Z</time>
      </trkpt>
      <trkpt lat="50.37782" lon="5.14449">
        <ele>233.19999694824</ele>
        <time>2019-06-20T11:19:24.000Z</time>
      </trkpt>
      <trkpt lat="50.37808" lon="5.14428">
        <ele>275.4</ele>
        <time>2019-06-20T11:19:27.000Z</time>
      </trkpt>
      <trkpt lat="50.37837" lon="5.14407">
        <ele>272.1</ele>
        <time>2019-06-20T11:19:32.000Z</time>
      </trkpt>
      <trkpt lat="50.37856" lon="5.14398">
        <ele>227.19999694824</ele>
        <time>2019-06-20T11:19:34.000Z</time>
      </trkpt>
      <trkpt lat="50.37868" lon="5.14394">
        <ele>225.60000610352</ele>
        <time>2019-06-20T11:19:37.000Z</time>
      </trkpt>
      <trkpt lat="50.37874" lon="5.14392">
        <ele>225</ele>
        <time>2019-06-20T11:19:42.000Z</time>
      </trkpt>
      <trkpt lat="50.3788" lon="5.1439">
        <ele>224.39999389648</ele>
        <time>2019-06-20T11:19:47.000Z</time>
      </trkpt>
      <trkpt lat="50.37899" lon="5.14384">
        <ele>223.60000610352</ele>
        <time>2019-06-20T11:19:52.000Z</time>
      </trkpt>
      <trkpt lat="50.37917" lon="5.14377">
        <ele>223.19999694824</ele>
        <time>2019-06-20T11:19:54.000Z</time>
      </trkpt>
      <trkpt lat="50.37935" lon="5.1437">
        <ele>223.19999694824</ele>
        <time>2019-06-20T11:19:57.000Z</time>
      </trkpt>
      <trkpt lat="50.37952" lon="5.14362">
        <ele>223.19999694824</ele>
        <time>2019-06-20T11:20:03.000Z</time>
      </trkpt>
      <trkpt lat="50.37982" lon="5.14336">
        <ele>223.60000610352</ele>
        <time>2019-06-20T11:20:04.000Z</time>
      </trkpt>
      <trkpt lat="50.38001" lon="5.14313">
        <ele>224.39999389648</ele>
        <time>2019-06-20T11:20:07.000Z</time>
      </trkpt>
      <trkpt lat="50.3801" lon="5.143">
        <ele>224.80000305176</ele>
        <time>2019-06-20T11:20:08.000Z</time>
      </trkpt>
      <trkpt lat="50.38045" lon="5.14255">
        <ele>225.39999389648</ele>
        <time>2019-06-20T11:20:09.000Z</time>
      </trkpt>
      <trkpt lat="50.38055" lon="5.14243">
        <ele>225.39999389648</ele>
        <time>2019-06-20T11:20:10.000Z</time>
      </trkpt>
      <trkpt lat="50.38061" lon="5.14237">
        <ele>225.39999389648</ele>
        <time>2019-06-20T11:20:16.000Z</time>
      </trkpt>
      <trkpt lat="50.38108" lon="5.14187">
        <ele>225.80000305176</ele>
        <time>2019-06-20T11:20:17.000Z</time>
      </trkpt>
      <trkpt lat="50.38114" lon="5.14182">
        <ele>225.80000305176</ele>
        <time>2019-06-20T11:20:18.000Z</time>
      </trkpt>
      <trkpt lat="50.38141" lon="5.1416">
        <ele>276.5</ele>
        <time>2019-06-20T11:20:23.000Z</time>
      </trkpt>
      <trkpt lat="50.38161" lon="5.14173">
        <ele>227</ele>
        <time>2019-06-20T11:20:28.000Z</time>
      </trkpt>
      <trkpt lat="50.38193" lon="5.1419">
        <ele>277.9</ele>
        <time>2019-06-20T11:20:32.000Z</time>
      </trkpt>
      <trkpt lat="50.38216" lon="5.14206">
        <ele>278.4</ele>
        <time>2019-06-20T11:20:36.000Z</time>
      </trkpt>
      <trkpt lat="50.38251" lon="5.14224">
        <ele>282.8</ele>
        <time>2019-06-20T11:20:41.000Z</time>
      </trkpt>
      <trkpt lat="50.3828" lon="5.1424">
        <ele>229.19999694824</ele>
        <time>2019-06-20T11:20:45.000Z</time>
      </trkpt>
      <trkpt lat="50.38295" lon="5.14249">
        <ele>284.8</ele>
        <time>2019-06-20T11:20:46.000Z</time>
      </trkpt>
      <trkpt lat="50.38307" lon="5.14256">
        <ele>283</ele>
        <time>2019-06-20T11:20:52.000Z</time>
      </trkpt>
      <trkpt lat="50.38307" lon="5.14271">
        <ele>281.9</ele>
        <time>2019-06-20T11:20:53.000Z</time>
      </trkpt>
      <trkpt lat="50.38311" lon="5.14311">
        <ele>280.1</ele>
        <time>2019-06-20T11:21:00.000Z</time>
      </trkpt>
      <trkpt lat="50.38317" lon="5.14357">
        <ele>228.60000610352</ele>
        <time>2019-06-20T11:21:04.000Z</time>
      </trkpt>
      <trkpt lat="50.3832" lon="5.14373">
        <ele>228.39999389648</ele>
        <time>2019-06-20T11:21:08.000Z</time>
      </trkpt>
      <trkpt lat="50.38327" lon="5.14415">
        <ele>227.60000610352</ele>
        <time>2019-06-20T11:21:13.000Z</time>
      </trkpt>
      <trkpt lat="50.38329" lon="5.14429">
        <ele>227.60000610352</ele>
        <time>2019-06-20T11:21:18.000Z</time>
      </trkpt>
      <trkpt lat="50.38336" lon="5.14466">
        <ele>271.9</ele>
        <time>2019-06-20T11:21:19.000Z</time>
      </trkpt>
      <trkpt lat="50.38338" lon="5.14493">
        <ele>270.1</ele>
        <time>2019-06-20T11:21:25.000Z</time>
      </trkpt>
      <trkpt lat="50.38335" lon="5.14516">
        <ele>270.2</ele>
        <time>2019-06-20T11:21:27.000Z</time>
      </trkpt>
      <trkpt lat="50.3833" lon="5.14541">
        <ele>269.8</ele>
        <time>2019-06-20T11:21:29.000Z</time>
      </trkpt>
      <trkpt lat="50.3832" lon="5.14581">
        <ele>270.5</ele>
        <time>2019-06-20T11:21:30.000Z</time>
      </trkpt>
      <trkpt lat="50.38307" lon="5.14629">
        <ele>272.8</ele>
        <time>2019-06-20T11:21:32.000Z</time>
      </trkpt>
      <trkpt lat="50.38297" lon="5.14653">
        <ele>273.2</ele>
        <time>2019-06-20T11:21:33.000Z</time>
      </trkpt>
      <trkpt lat="50.38289" lon="5.14677">
        <ele>275.7</ele>
        <time>2019-06-20T11:21:36.000Z</time>
      </trkpt>
      <trkpt lat="50.38283" lon="5.14692">
        <ele>276</ele>
        <time>2019-06-20T11:21:37.000Z</time>
      </trkpt>
      <trkpt lat="50.38277" lon="5.1471">
        <ele>276.4</ele>
        <time>2019-06-20T11:21:42.000Z</time>
      </trkpt>
      <trkpt lat="50.3827" lon="5.14743">
        <ele>277.4</ele>
        <time>2019-06-20T11:21:43.000Z</time>
      </trkpt>
      <trkpt lat="50.38274" lon="5.14765">
        <ele>278.1</ele>
        <time>2019-06-20T11:21:45.000Z</time>
      </trkpt>
      <trkpt lat="50.38282" lon="5.14777">
        <ele>277.9</ele>
        <time>2019-06-20T11:21:47.000Z</time>
      </trkpt>
      <trkpt lat="50.3829" lon="5.14792">
        <ele>277.8</ele>
        <time>2019-06-20T11:21:49.000Z</time>
      </trkpt>
      <trkpt lat="50.38304" lon="5.14811">
        <ele>277.7</ele>
        <time>2019-06-20T11:21:51.000Z</time>
      </trkpt>
      <trkpt lat="50.38332" lon="5.14847">
        <ele>277.2</ele>
        <time>2019-06-20T11:21:56.000Z</time>
      </trkpt>
      <trkpt lat="50.38364" lon="5.14892">
        <ele>278</ele>
        <time>2019-06-20T11:22:02.000Z</time>
      </trkpt>
      <trkpt lat="50.38374" lon="5.14909">
        <ele>231.39999389648</ele>
        <time>2019-06-20T11:22:09.000Z</time>
      </trkpt>
      <trkpt lat="50.38381" lon="5.1493">
        <ele>231.19999694824</ele>
        <time>2019-06-20T11:22:15.000Z</time>
      </trkpt>
      <trkpt lat="50.38389" lon="5.14952">
        <ele>280</ele>
        <time>2019-06-20T11:22:16.000Z</time>
      </trkpt>
      <trkpt lat="50.38396" lon="5.14971">
        <ele>280.7</ele>
        <time>2019-06-20T11:22:17.000Z</time>
      </trkpt>
      <trkpt lat="50.38404" lon="5.14998">
        <ele>282.2</ele>
        <time>2019-06-20T11:22:19.000Z</time>
      </trkpt>
      <trkpt lat="50.3842" lon="5.1498">
        <ele>234</ele>
        <time>2019-06-20T11:22:24.000Z</time>
      </trkpt>
      <trkpt lat="50.3843" lon="5.14969">
        <ele>282</ele>
        <time>2019-06-20T11:22:28.000Z</time>
      </trkpt>
      <trkpt lat="50.3844" lon="5.14965">
        <ele>282.3</ele>
        <time>2019-06-20T11:22:29.000Z</time>
      </trkpt>
      <trkpt lat="50.38449" lon="5.14973">
        <ele>282.4</ele>
        <time>2019-06-20T11:22:35.000Z</time>
      </trkpt>
      <trkpt lat="50.38456" lon="5.14986">
        <ele>282.6</ele>
        <time>2019-06-20T11:22:36.000Z</time>
      </trkpt>
      <trkpt lat="50.38463" lon="5.14998">
        <ele>282.8</ele>
        <time>2019-06-20T11:22:38.000Z</time>
      </trkpt>
      <trkpt lat="50.38474" lon="5.1502">
        <ele>284.4</ele>
        <time>2019-06-20T11:22:39.000Z</time>
      </trkpt>
      <trkpt lat="50.38488" lon="5.15046">
        <ele>284.7</ele>
        <time>2019-06-20T11:22:42.000Z</time>
      </trkpt>
      <trkpt lat="50.38502" lon="5.15069">
        <ele>285</ele>
        <time>2019-06-20T11:22:43.000Z</time>
      </trkpt>
      <trkpt lat="50.38528" lon="5.15105">
        <ele>286.1</ele>
        <time>2019-06-20T11:22:48.000Z</time>
      </trkpt>
      <trkpt lat="50.38555" lon="5.15136">
        <ele>286.4</ele>
        <time>2019-06-20T11:22:49.000Z</time>
      </trkpt>
      <trkpt lat="50.38574" lon="5.15156">
        <ele>287.2</ele>
        <time>2019-06-20T11:22:55.000Z</time>
      </trkpt>
      <trkpt lat="50.3859" lon="5.15177">
        <ele>288.1</ele>
        <time>2019-06-20T11:23:01.000Z</time>
      </trkpt>
      <trkpt lat="50.38603" lon="5.15196">
        <ele>288.3</ele>
        <time>2019-06-20T11:23:06.000Z</time>
      </trkpt>
      <trkpt lat="50.38616" lon="5.15215">
        <ele>288.6</ele>
        <time>2019-06-20T11:23:09.000Z</time>
      </trkpt>
      <trkpt lat="50.38629" lon="5.15238">
        <ele>288.9</ele>
        <time>2019-06-20T11:23:14.000Z</time>
      </trkpt>
      <trkpt lat="50.38643" lon="5.1527">
        <ele>291</ele>
        <time>2019-06-20T11:23:20.000Z</time>
      </trkpt>
      <trkpt lat="50.38658" lon="5.15298">
        <ele>291.7</ele>
        <time>2019-06-20T11:23:25.000Z</time>
      </trkpt>
      <trkpt lat="50.38668" lon="5.15316">
        <ele>291.8</ele>
        <time>2019-06-20T11:23:28.000Z</time>
      </trkpt>
      <trkpt lat="50.38687" lon="5.15344">
        <ele>292.9</ele>
        <time>2019-06-20T11:23:30.000Z</time>
      </trkpt>
      <trkpt lat="50.38708" lon="5.15368">
        <ele>292.4</ele>
        <time>2019-06-20T11:23:31.000Z</time>
      </trkpt>
      <trkpt lat="50.38737" lon="5.15395">
        <ele>292.5</ele>
        <time>2019-06-20T11:23:36.000Z</time>
      </trkpt>
      <trkpt lat="50.38766" lon="5.15418">
        <ele>292.4</ele>
        <time>2019-06-20T11:23:41.000Z</time>
      </trkpt>
      <trkpt lat="50.38783" lon="5.15431">
        <ele>291.9</ele>
        <time>2019-06-20T11:23:43.000Z</time>
      </trkpt>
      <trkpt lat="50.388" lon="5.15441">
        <ele>291.5</ele>
        <time>2019-06-20T11:23:46.000Z</time>
      </trkpt>
      <trkpt lat="50.38816" lon="5.15454">
        <ele>291.4</ele>
        <time>2019-06-20T11:23:48.000Z</time>
      </trkpt>
      <trkpt lat="50.38844" lon="5.15479">
        <ele>290.1</ele>
        <time>2019-06-20T11:23:49.000Z</time>
      </trkpt>
      <trkpt lat="50.38873" lon="5.1551">
        <ele>291.9</ele>
        <time>2019-06-20T11:23:53.000Z</time>
      </trkpt>
      <trkpt lat="50.38895" lon="5.15543">
        <ele>292.1</ele>
        <time>2019-06-20T11:23:58.000Z</time>
      </trkpt>
      <trkpt lat="50.38905" lon="5.15559">
        <ele>292.4</ele>
        <time>2019-06-20T11:23:59.000Z</time>
      </trkpt>
      <trkpt lat="50.38925" lon="5.15589">
        <ele>292.9</ele>
        <time>2019-06-20T11:24:01.000Z</time>
      </trkpt>
      <trkpt lat="50.38953" lon="5.15631">
        <ele>246.60000610352</ele>
        <time>2019-06-20T11:24:02.000Z</time>
      </trkpt>
      <trkpt lat="50.38984" lon="5.1567">
        <ele>246.60000610352</ele>
        <time>2019-06-20T11:24:05.000Z</time>
      </trkpt>
      <trkpt lat="50.39014" lon="5.15706">
        <ele>247.19999694824</ele>
        <time>2019-06-20T11:24:07.000Z</time>
      </trkpt>
      <trkpt lat="50.39036" lon="5.15732">
        <ele>247.39999389648</ele>
        <time>2019-06-20T11:24:13.000Z</time>
      </trkpt>
      <trkpt lat="50.3906" lon="5.15759">
        <ele>247.60000610352</ele>
        <time>2019-06-20T11:24:14.000Z</time>
      </trkpt>
      <trkpt lat="50.39077" lon="5.15777">
        <ele>247.80000305176</ele>
        <time>2019-06-20T11:24:16.000Z</time>
      </trkpt>
      <trkpt lat="50.39098" lon="5.15792">
        <ele>248</ele>
        <time>2019-06-20T11:24:18.000Z</time>
      </trkpt>
      <trkpt lat="50.39146" lon="5.1582">
        <ele>248</ele>
        <time>2019-06-20T11:24:21.000Z</time>
      </trkpt>
      <trkpt lat="50.39198" lon="5.15851">
        <ele>247.19999694824</ele>
        <time>2019-06-20T11:24:24.000Z</time>
      </trkpt>
      <trkpt lat="50.39223" lon="5.15868">
        <ele>246.80000305176</ele>
        <time>2019-06-20T11:24:26.000Z</time>
      </trkpt>
      <trkpt lat="50.39229" lon="5.15873">
        <ele>246.60000610352</ele>
        <time>2019-06-20T11:24:28.000Z</time>
      </trkpt>
      <trkpt lat="50.3927" lon="5.15909">
        <ele>246</ele>
        <time>2019-06-20T11:24:32.000Z</time>
      </trkpt>
      <trkpt lat="50.39321" lon="5.15956">
        <ele>246.19999694824</ele>
        <time>2019-06-20T11:24:34.000Z</time>
      </trkpt>
      <trkpt lat="50.3936" lon="5.15984">
        <ele>246.39999389648</ele>
        <time>2019-06-20T11:24:39.000Z</time>
      </trkpt>
      <trkpt lat="50.39388" lon="5.16002">
        <ele>246.60000610352</ele>
        <time>2019-06-20T11:24:44.000Z</time>
      </trkpt>
      <trkpt lat="50.39417" lon="5.16022">
        <ele>247.19999694824</ele>
        <time>2019-06-20T11:24:46.000Z</time>
      </trkpt>
      <trkpt lat="50.39428" lon="5.1603">
        <ele>247.60000610352</ele>
        <time>2019-06-20T11:24:49.000Z</time>
      </trkpt>
      <trkpt lat="50.39451" lon="5.16045">
        <ele>248.60000610352</ele>
        <time>2019-06-20T11:24:51.000Z</time>
      </trkpt>
      <trkpt lat="50.39479" lon="5.16064">
        <ele>250</ele>
        <time>2019-06-20T11:24:53.000Z</time>
      </trkpt>
      <trkpt lat="50.39506" lon="5.16083">
        <ele>251.39999389648</ele>
        <time>2019-06-20T11:24:59.000Z</time>
      </trkpt>
      <trkpt lat="50.39527" lon="5.16098">
        <ele>252.39999389648</ele>
        <time>2019-06-20T11:25:05.000Z</time>
      </trkpt>
      <trkpt lat="50.39565" lon="5.16125">
        <ele>253.60000610352</ele>
        <time>2019-06-20T11:25:06.000Z</time>
      </trkpt>
      <trkpt lat="50.39596" lon="5.16145">
        <ele>304.3</ele>
        <time>2019-06-20T11:25:10.000Z</time>
      </trkpt>
      <trkpt lat="50.39601" lon="5.16156">
        <ele>254</ele>
        <time>2019-06-20T11:25:12.000Z</time>
      </trkpt>
      <trkpt lat="50.39613" lon="5.16193">
        <ele>253.80000305176</ele>
        <time>2019-06-20T11:25:19.000Z</time>
      </trkpt>
      <trkpt lat="50.39637" lon="5.1628">
        <ele>252.80000305176</ele>
        <time>2019-06-20T11:25:25.000Z</time>
      </trkpt>
      <trkpt lat="50.3964" lon="5.16289">
        <ele>252.80000305176</ele>
        <time>2019-06-20T11:25:26.000Z</time>
      </trkpt>
      <trkpt lat="50.3965" lon="5.16326">
        <ele>252.39999389648</ele>
        <time>2019-06-20T11:25:31.000Z</time>
      </trkpt>
      <trkpt lat="50.39656" lon="5.16344">
        <ele>252.19999694824</ele>
        <time>2019-06-20T11:25:34.000Z</time>
      </trkpt>
      <trkpt lat="50.39664" lon="5.16372">
        <ele>252</ele>
        <time>2019-06-20T11:25:35.000Z</time>
      </trkpt>
      <trkpt lat="50.39673" lon="5.16401">
        <ele>251.60000610352</ele>
        <time>2019-06-20T11:25:39.000Z</time>
      </trkpt>
      <trkpt lat="50.39678" lon="5.16421">
        <ele>251.60000610352</ele>
        <time>2019-06-20T11:25:42.000Z</time>
      </trkpt>
      <trkpt lat="50.39683" lon="5.16441">
        <ele>251.39999389648</ele>
        <time>2019-06-20T11:25:45.000Z</time>
      </trkpt>
      <trkpt lat="50.39686" lon="5.16451">
        <ele>251.39999389648</ele>
        <time>2019-06-20T11:25:50.000Z</time>
      </trkpt>
      <trkpt lat="50.39689" lon="5.16462">
        <ele>251.19999694824</ele>
        <time>2019-06-20T11:25:51.000Z</time>
      </trkpt>
      <trkpt lat="50.397" lon="5.16502">
        <ele>250.60000610352</ele>
        <time>2019-06-20T11:25:57.000Z</time>
      </trkpt>
      <trkpt lat="50.39708" lon="5.16534">
        <ele>250.19999694824</ele>
        <time>2019-06-20T11:26:00.000Z</time>
      </trkpt>
      <trkpt lat="50.39711" lon="5.16544">
        <ele>250</ele>
        <time>2019-06-20T11:26:03.000Z</time>
      </trkpt>
      <trkpt lat="50.39728" lon="5.16598">
        <ele>249</ele>
        <time>2019-06-20T11:26:04.000Z</time>
      </trkpt>
      <trkpt lat="50.39731" lon="5.1661">
        <ele>248.80000305176</ele>
        <time>2019-06-20T11:26:06.000Z</time>
      </trkpt>
      <trkpt lat="50.39749" lon="5.16672">
        <ele>248.19999694824</ele>
        <time>2019-06-20T11:26:09.000Z</time>
      </trkpt>
      <trkpt lat="50.39757" lon="5.16699">
        <ele>247.80000305176</ele>
        <time>2019-06-20T11:26:10.000Z</time>
      </trkpt>
      <trkpt lat="50.39765" lon="5.16727">
        <ele>246.60000610352</ele>
        <time>2019-06-20T11:26:14.000Z</time>
      </trkpt>
      <trkpt lat="50.39774" lon="5.16754">
        <ele>246</ele>
        <time>2019-06-20T11:26:15.000Z</time>
      </trkpt>
      <trkpt lat="50.39779" lon="5.16767">
        <ele>245.39999389648</ele>
        <time>2019-06-20T11:26:20.000Z</time>
      </trkpt>
      <trkpt lat="50.39793" lon="5.16792">
        <ele>244.39999389648</ele>
        <time>2019-06-20T11:26:24.000Z</time>
      </trkpt>
      <trkpt lat="50.39818" lon="5.16826">
        <ele>243</ele>
        <time>2019-06-20T11:26:25.000Z</time>
      </trkpt>
      <trkpt lat="50.39834" lon="5.16848">
        <ele>241.80000305176</ele>
        <time>2019-06-20T11:26:26.000Z</time>
      </trkpt>
      <trkpt lat="50.39841" lon="5.16858">
        <ele>241.19999694824</ele>
        <time>2019-06-20T11:26:29.000Z</time>
      </trkpt>
      <trkpt lat="50.39849" lon="5.16868">
        <ele>240.60000610352</ele>
        <time>2019-06-20T11:26:30.000Z</time>
      </trkpt>
      <trkpt lat="50.39864" lon="5.16888">
        <ele>239.19999694824</ele>
        <time>2019-06-20T11:26:32.000Z</time>
      </trkpt>
      <trkpt lat="50.39884" lon="5.16918">
        <ele>238.39999389648</ele>
        <time>2019-06-20T11:26:34.000Z</time>
      </trkpt>
      <trkpt lat="50.39891" lon="5.16927">
        <ele>238.19999694824</ele>
        <time>2019-06-20T11:26:36.000Z</time>
      </trkpt>
      <trkpt lat="50.39914" lon="5.16965">
        <ele>237.80000305176</ele>
        <time>2019-06-20T11:26:38.000Z</time>
      </trkpt>
      <trkpt lat="50.39943" lon="5.17008">
        <ele>237.19999694824</ele>
        <time>2019-06-20T11:26:39.000Z</time>
      </trkpt>
      <trkpt lat="50.39961" lon="5.17032">
        <ele>237</ele>
        <time>2019-06-20T11:26:41.000Z</time>
      </trkpt>
      <trkpt lat="50.39972" lon="5.17049">
        <ele>237</ele>
        <time>2019-06-20T11:26:44.000Z</time>
      </trkpt>
      <trkpt lat="50.40014" lon="5.17109">
        <ele>236.60000610352</ele>
        <time>2019-06-20T11:26:48.000Z</time>
      </trkpt>
      <trkpt lat="50.40047" lon="5.17155">
        <ele>236.60000610352</ele>
        <time>2019-06-20T11:26:49.000Z</time>
      </trkpt>
      <trkpt lat="50.40067" lon="5.17183">
        <ele>236.60000610352</ele>
        <time>2019-06-20T11:26:55.000Z</time>
      </trkpt>
      <trkpt lat="50.40083" lon="5.17204">
        <ele>236.60000610352</ele>
        <time>2019-06-20T11:26:56.000Z</time>
      </trkpt>
      <trkpt lat="50.40088" lon="5.17212">
        <ele>236.60000610352</ele>
        <time>2019-06-20T11:26:57.000Z</time>
      </trkpt>
      <trkpt lat="50.40105" lon="5.17233">
        <ele>237.80000305176</ele>
        <time>2019-06-20T11:27:00.000Z</time>
      </trkpt>
      <trkpt lat="50.40121" lon="5.17256">
        <ele>238.39999389648</ele>
        <time>2019-06-20T11:27:02.000Z</time>
      </trkpt>
      <trkpt lat="50.40131" lon="5.17271">
        <ele>238.60000610352</ele>
        <time>2019-06-20T11:27:05.000Z</time>
      </trkpt>
      <trkpt lat="50.40141" lon="5.17286">
        <ele>239.60000610352</ele>
        <time>2019-06-20T11:27:11.000Z</time>
      </trkpt>
      <trkpt lat="50.40156" lon="5.17308">
        <ele>239.80000305176</ele>
        <time>2019-06-20T11:27:14.000Z</time>
      </trkpt>
      <trkpt lat="50.40171" lon="5.1733">
        <ele>240.60000610352</ele>
        <time>2019-06-20T11:27:18.000Z</time>
      </trkpt>
      <trkpt lat="50.40189" lon="5.17358">
        <ele>241.80000305176</ele>
        <time>2019-06-20T11:27:19.000Z</time>
      </trkpt>
      <trkpt lat="50.40193" lon="5.17366">
        <ele>242</ele>
        <time>2019-06-20T11:27:22.000Z</time>
      </trkpt>
      <trkpt lat="50.40215" lon="5.17402">
        <ele>242.80000305176</ele>
        <time>2019-06-20T11:27:26.000Z</time>
      </trkpt>
      <trkpt lat="50.4024" lon="5.17445">
        <ele>243.80000305176</ele>
        <time>2019-06-20T11:27:27.000Z</time>
      </trkpt>
      <trkpt lat="50.40265" lon="5.1749">
        <ele>244.80000305176</ele>
        <time>2019-06-20T11:27:31.000Z</time>
      </trkpt>
      <trkpt lat="50.40292" lon="5.17534">
        <ele>245.39999389648</ele>
        <time>2019-06-20T11:27:33.000Z</time>
      </trkpt>
      <trkpt lat="50.40321" lon="5.17584">
        <ele>246</ele>
        <time>2019-06-20T11:27:39.000Z</time>
      </trkpt>
      <trkpt lat="50.40325" lon="5.17592">
        <ele>246</ele>
        <time>2019-06-20T11:27:40.000Z</time>
      </trkpt>
      <trkpt lat="50.40362" lon="5.17655">
        <ele>246</ele>
        <time>2019-06-20T11:27:41.000Z</time>
      </trkpt>
      <trkpt lat="50.40404" lon="5.17724">
        <ele>245</ele>
        <time>2019-06-20T11:27:45.000Z</time>
      </trkpt>
      <trkpt lat="50.4041" lon="5.17733">
        <ele>244.80000305176</ele>
        <time>2019-06-20T11:27:50.000Z</time>
      </trkpt>
      <trkpt lat="50.40424" lon="5.17751">
        <ele>244</ele>
        <time>2019-06-20T11:27:55.000Z</time>
      </trkpt>
      <trkpt lat="50.40438" lon="5.17768">
        <ele>243.80000305176</ele>
        <time>2019-06-20T11:28:00.000Z</time>
      </trkpt>
      <trkpt lat="50.40445" lon="5.17776">
        <ele>243.60000610352</ele>
        <time>2019-06-20T11:28:01.000Z</time>
      </trkpt>
      <trkpt lat="50.40471" lon="5.17805">
        <ele>242.39999389648</ele>
        <time>2019-06-20T11:28:03.000Z</time>
      </trkpt>
      <trkpt lat="50.40483" lon="5.17817">
        <ele>241.19999694824</ele>
        <time>2019-06-20T11:28:07.000Z</time>
      </trkpt>
      <trkpt lat="50.40492" lon="5.17827">
        <ele>239.60000610352</ele>
        <time>2019-06-20T11:28:10.000Z</time>
      </trkpt>
      <trkpt lat="50.40512" lon="5.17846">
        <ele>283.7</ele>
        <time>2019-06-20T11:28:13.000Z</time>
      </trkpt>
      <trkpt lat="50.40514" lon="5.17878">
        <ele>284.2</ele>
        <time>2019-06-20T11:28:14.000Z</time>
      </trkpt>
      <trkpt lat="50.40516" lon="5.17907">
        <ele>285.3</ele>
        <time>2019-06-20T11:28:18.000Z</time>
      </trkpt>
      <trkpt lat="50.40517" lon="5.17936">
        <ele>287</ele>
        <time>2019-06-20T11:28:21.000Z</time>
      </trkpt>
      <trkpt lat="50.40518" lon="5.17955">
        <ele>235.19999694824</ele>
        <time>2019-06-20T11:28:28.000Z</time>
      </trkpt>
      <trkpt lat="50.4052" lon="5.17978">
        <ele>235.80000305176</ele>
        <time>2019-06-20T11:28:35.000Z</time>
      </trkpt>
      <trkpt lat="50.40521" lon="5.1801">
        <ele>237</ele>
        <time>2019-06-20T11:28:36.000Z</time>
      </trkpt>
      <trkpt lat="50.40521" lon="5.18025">
        <ele>237.39999389648</ele>
        <time>2019-06-20T11:28:41.000Z</time>
      </trkpt>
      <trkpt lat="50.40522" lon="5.18056">
        <ele>237.80000305176</ele>
        <time>2019-06-20T11:28:43.000Z</time>
      </trkpt>
      <trkpt lat="50.40522" lon="5.18064">
        <ele>238.19999694824</ele>
        <time>2019-06-20T11:28:48.000Z</time>
      </trkpt>
      <trkpt lat="50.40524" lon="5.18072">
        <ele>238.39999389648</ele>
        <time>2019-06-20T11:28:52.000Z</time>
      </trkpt>
      <trkpt lat="50.40529" lon="5.18097">
        <ele>239.60000610352</ele>
        <time>2019-06-20T11:28:54.000Z</time>
      </trkpt>
      <trkpt lat="50.40537" lon="5.18129">
        <ele>240.60000610352</ele>
        <time>2019-06-20T11:28:57.000Z</time>
      </trkpt>
      <trkpt lat="50.40551" lon="5.18181">
        <ele>241.60000610352</ele>
        <time>2019-06-20T11:29:00.000Z</time>
      </trkpt>
      <trkpt lat="50.40558" lon="5.1821">
        <ele>242</ele>
        <time>2019-06-20T11:29:05.000Z</time>
      </trkpt>
      <trkpt lat="50.40581" lon="5.18299">
        <ele>241.60000610352</ele>
        <time>2019-06-20T11:29:11.000Z</time>
      </trkpt>
      <trkpt lat="50.40596" lon="5.18352">
        <ele>240.39999389648</ele>
        <time>2019-06-20T11:29:13.000Z</time>
      </trkpt>
      <trkpt lat="50.40607" lon="5.18395">
        <ele>240</ele>
        <time>2019-06-20T11:29:18.000Z</time>
      </trkpt>
      <trkpt lat="50.40631" lon="5.18479">
        <ele>240.19999694824</ele>
        <time>2019-06-20T11:29:22.000Z</time>
      </trkpt>
      <trkpt lat="50.40634" lon="5.18489">
        <ele>240.39999389648</ele>
        <time>2019-06-20T11:29:28.000Z</time>
      </trkpt>
      <trkpt lat="50.40652" lon="5.18563">
        <ele>240.80000305176</ele>
        <time>2019-06-20T11:29:34.000Z</time>
      </trkpt>
      <trkpt lat="50.40668" lon="5.1862">
        <ele>241.19999694824</ele>
        <time>2019-06-20T11:29:35.000Z</time>
      </trkpt>
      <trkpt lat="50.40678" lon="5.1866">
        <ele>241.60000610352</ele>
        <time>2019-06-20T11:29:41.000Z</time>
      </trkpt>
      <trkpt lat="50.40689" lon="5.18699">
        <ele>242.60000610352</ele>
        <time>2019-06-20T11:29:45.000Z</time>
      </trkpt>
      <trkpt lat="50.40705" lon="5.18757">
        <ele>292.3</ele>
        <time>2019-06-20T11:29:46.000Z</time>
      </trkpt>
      <trkpt lat="50.40724" lon="5.18833">
        <ele>292.5</ele>
        <time>2019-06-20T11:29:48.000Z</time>
      </trkpt>
      <trkpt lat="50.4074" lon="5.18894">
        <ele>294.6</ele>
        <time>2019-06-20T11:30:15.000Z</time>
      </trkpt>
      <trkpt lat="50.40758" lon="5.18954">
        <ele>293.5</ele>
        <time>2019-06-20T11:30:18.000Z</time>
      </trkpt>
      <trkpt lat="50.40772" lon="5.1901">
        <ele>294.3</ele>
        <time>2019-06-20T11:30:22.000Z</time>
      </trkpt>
      <trkpt lat="50.40788" lon="5.19068">
        <ele>293.8</ele>
        <time>2019-06-20T11:30:26.000Z</time>
      </trkpt>
      <trkpt lat="50.40806" lon="5.19137">
        <ele>294.4</ele>
        <time>2019-06-20T11:30:29.000Z</time>
      </trkpt>
      <trkpt lat="50.40817" lon="5.1918">
        <ele>296</ele>
        <time>2019-06-20T11:30:31.000Z</time>
      </trkpt>
      <trkpt lat="50.40832" lon="5.19237">
        <ele>297.9</ele>
        <time>2019-06-20T11:30:37.000Z</time>
      </trkpt>
      <trkpt lat="50.40845" lon="5.19289">
        <ele>296.1</ele>
        <time>2019-06-20T11:30:39.000Z</time>
      </trkpt>
      <trkpt lat="50.4086" lon="5.19345">
        <ele>297.7</ele>
        <time>2019-06-20T11:30:43.000Z</time>
      </trkpt>
      <trkpt lat="50.40878" lon="5.19408">
        <ele>296.1</ele>
        <time>2019-06-20T11:30:45.000Z</time>
      </trkpt>
      <trkpt lat="50.40888" lon="5.19446">
        <ele>294.6</ele>
        <time>2019-06-20T11:30:50.000Z</time>
      </trkpt>
      <trkpt lat="50.409" lon="5.19494">
        <ele>292.9</ele>
        <time>2019-06-20T11:30:53.000Z</time>
      </trkpt>
      <trkpt lat="50.4092" lon="5.19568">
        <ele>289.2</ele>
        <time>2019-06-20T11:30:58.000Z</time>
      </trkpt>
      <trkpt lat="50.40934" lon="5.19622">
        <ele>287.6</ele>
        <time>2019-06-20T11:31:02.000Z</time>
      </trkpt>
      <trkpt lat="50.40956" lon="5.19703">
        <ele>287</ele>
        <time>2019-06-20T11:31:03.000Z</time>
      </trkpt>
      <trkpt lat="50.4097" lon="5.19736">
        <ele>286.8</ele>
        <time>2019-06-20T11:31:06.000Z</time>
      </trkpt>
      <trkpt lat="50.40983" lon="5.19759">
        <ele>287.7</ele>
        <time>2019-06-20T11:31:09.000Z</time>
      </trkpt>
      <trkpt lat="50.40999" lon="5.19774">
        <ele>288.2</ele>
        <time>2019-06-20T11:31:10.000Z</time>
      </trkpt>
      <trkpt lat="50.41027" lon="5.19803">
        <ele>284.1</ele>
        <time>2019-06-20T11:31:16.000Z</time>
      </trkpt>
      <trkpt lat="50.41063" lon="5.19841">
        <ele>283.7</ele>
        <time>2019-06-20T11:31:21.000Z</time>
      </trkpt>
      <trkpt lat="50.41091" lon="5.19871">
        <ele>279</ele>
        <time>2019-06-20T11:31:25.000Z</time>
      </trkpt>
      <trkpt lat="50.41101" lon="5.19884">
        <ele>279.3</ele>
        <time>2019-06-20T11:31:28.000Z</time>
      </trkpt>
      <trkpt lat="50.41113" lon="5.19892">
        <ele>279.1</ele>
        <time>2019-06-20T11:31:30.000Z</time>
      </trkpt>
      <trkpt lat="50.41127" lon="5.19892">
        <ele>278.4</ele>
        <time>2019-06-20T11:31:34.000Z</time>
      </trkpt>
      <trkpt lat="50.41142" lon="5.19886">
        <ele>277.7</ele>
        <time>2019-06-20T11:31:37.000Z</time>
      </trkpt>
      <trkpt lat="50.41176" lon="5.19873">
        <ele>273.7</ele>
        <time>2019-06-20T11:31:42.000Z</time>
      </trkpt>
      <trkpt lat="50.41205" lon="5.19858">
        <ele>273</ele>
        <time>2019-06-20T11:31:46.000Z</time>
      </trkpt>
      <trkpt lat="50.41232" lon="5.19847">
        <ele>272.1</ele>
        <time>2019-06-20T11:31:49.000Z</time>
      </trkpt>
      <trkpt lat="50.41256" lon="5.19837">
        <ele>270.1</ele>
        <time>2019-06-20T11:31:50.000Z</time>
      </trkpt>
      <trkpt lat="50.41273" lon="5.19831">
        <ele>268.8</ele>
        <time>2019-06-20T11:31:52.000Z</time>
      </trkpt>
      <trkpt lat="50.41303" lon="5.19818">
        <ele>267.3</ele>
        <time>2019-06-20T11:31:55.000Z</time>
      </trkpt>
      <trkpt lat="50.41326" lon="5.19809">
        <ele>266.3</ele>
        <time>2019-06-20T11:31:58.000Z</time>
      </trkpt>
      <trkpt lat="50.41348" lon="5.198">
        <ele>261</ele>
        <time>2019-06-20T11:32:03.000Z</time>
      </trkpt>
      <trkpt lat="50.41364" lon="5.19794">
        <ele>260.3</ele>
        <time>2019-06-20T11:32:04.000Z</time>
      </trkpt>
      <trkpt lat="50.41387" lon="5.19782">
        <ele>258.7</ele>
        <time>2019-06-20T11:32:09.000Z</time>
      </trkpt>
      <trkpt lat="50.41412" lon="5.19774">
        <ele>256.5</ele>
        <time>2019-06-20T11:32:15.000Z</time>
      </trkpt>
      <trkpt lat="50.41427" lon="5.19767">
        <ele>250.9</ele>
        <time>2019-06-20T11:32:19.000Z</time>
      </trkpt>
      <trkpt lat="50.41454" lon="5.1976">
        <ele>249.5</ele>
        <time>2019-06-20T11:32:22.000Z</time>
      </trkpt>
      <trkpt lat="50.41473" lon="5.19752">
        <ele>247.7</ele>
        <time>2019-06-20T11:32:27.000Z</time>
      </trkpt>
      <trkpt lat="50.41493" lon="5.19743">
        <ele>243.4</ele>
        <time>2019-06-20T11:32:31.000Z</time>
      </trkpt>
      <trkpt lat="50.41536" lon="5.19725">
        <ele>237.4</ele>
        <time>2019-06-20T11:32:33.000Z</time>
      </trkpt>
      <trkpt lat="50.41565" lon="5.19715">
        <ele>236.1</ele>
        <time>2019-06-20T11:32:38.000Z</time>
      </trkpt>
      <trkpt lat="50.41592" lon="5.19703">
        <ele>232.5</ele>
        <time>2019-06-20T11:32:41.000Z</time>
      </trkpt>
      <trkpt lat="50.41608" lon="5.19695">
        <ele>232.2</ele>
        <time>2019-06-20T11:32:42.000Z</time>
      </trkpt>
      <trkpt lat="50.4162" lon="5.19684">
        <ele>184.19999694824</ele>
        <time>2019-06-20T11:32:46.000Z</time>
      </trkpt>
      <trkpt lat="50.41624" lon="5.19677">
        <ele>183.39999389648</ele>
        <time>2019-06-20T11:32:59.000Z</time>
      </trkpt>
      <trkpt lat="50.41627" lon="5.19672">
        <ele>182.80000305176</ele>
        <time>2019-06-20T11:33:02.000Z</time>
      </trkpt>
      <trkpt lat="50.41633" lon="5.1966">
        <ele>181.60000610352</ele>
        <time>2019-06-20T11:33:05.000Z</time>
      </trkpt>
      <trkpt lat="50.4164" lon="5.19647">
        <ele>180.60000610352</ele>
        <time>2019-06-20T11:33:06.000Z</time>
      </trkpt>
      <trkpt lat="50.41647" lon="5.19635">
        <ele>179.39999389648</ele>
        <time>2019-06-20T11:33:09.000Z</time>
      </trkpt>
      <trkpt lat="50.41663" lon="5.19608">
        <ele>178.39999389648</ele>
        <time>2019-06-20T11:33:11.000Z</time>
      </trkpt>
      <trkpt lat="50.41667" lon="5.19601">
        <ele>178.19999694824</ele>
        <time>2019-06-20T11:33:15.000Z</time>
      </trkpt>
      <trkpt lat="50.41681" lon="5.19584">
        <ele>178</ele>
        <time>2019-06-20T11:33:17.000Z</time>
      </trkpt>
      <trkpt lat="50.41699" lon="5.19568">
        <ele>228</ele>
        <time>2019-06-20T11:33:23.000Z</time>
      </trkpt>
      <trkpt lat="50.41713" lon="5.19563">
        <ele>228.1</ele>
        <time>2019-06-20T11:33:28.000Z</time>
      </trkpt>
      <trkpt lat="50.41722" lon="5.19563">
        <ele>228</ele>
        <time>2019-06-20T11:33:30.000Z</time>
      </trkpt>
      <trkpt lat="50.41727" lon="5.19578">
        <ele>228.7</ele>
        <time>2019-06-20T11:33:35.000Z</time>
      </trkpt>
      <trkpt lat="50.41737" lon="5.19614">
        <ele>178.60000610352</ele>
        <time>2019-06-20T11:33:36.000Z</time>
      </trkpt>
      <trkpt lat="50.4174" lon="5.19618">
        <ele>179</ele>
        <time>2019-06-20T11:33:39.000Z</time>
      </trkpt>
      <trkpt lat="50.41743" lon="5.19621">
        <ele>179.39999389648</ele>
        <time>2019-06-20T11:33:41.000Z</time>
      </trkpt>
      <trkpt lat="50.41755" lon="5.19626">
        <ele>180.39999389648</ele>
        <time>2019-06-20T11:33:42.000Z</time>
      </trkpt>
      <trkpt lat="50.41764" lon="5.1963">
        <ele>181.19999694824</ele>
        <time>2019-06-20T11:33:47.000Z</time>
      </trkpt>
      <trkpt lat="50.41774" lon="5.19633">
        <ele>181.80000305176</ele>
        <time>2019-06-20T11:33:48.000Z</time>
      </trkpt>
      <trkpt lat="50.41788" lon="5.19636">
        <ele>182.39999389648</ele>
        <time>2019-06-20T11:33:52.000Z</time>
      </trkpt>
      <trkpt lat="50.41793" lon="5.19637">
        <ele>182.39999389648</ele>
        <time>2019-06-20T11:33:54.000Z</time>
      </trkpt>
      <trkpt lat="50.41804" lon="5.19641">
        <ele>182.80000305176</ele>
        <time>2019-06-20T11:33:55.000Z</time>
      </trkpt>
      <trkpt lat="50.41808" lon="5.19647">
        <ele>183</ele>
        <time>2019-06-20T11:33:57.000Z</time>
      </trkpt>
      <trkpt lat="50.4182" lon="5.19668">
        <ele>183.39999389648</ele>
        <time>2019-06-20T11:34:00.000Z</time>
      </trkpt>
      <trkpt lat="50.41827" lon="5.19683">
        <ele>183.60000610352</ele>
        <time>2019-06-20T11:34:01.000Z</time>
      </trkpt>
      <trkpt lat="50.4184" lon="5.19704">
        <ele>184</ele>
        <time>2019-06-20T11:34:03.000Z</time>
      </trkpt>
      <trkpt lat="50.41856" lon="5.19733">
        <ele>184.19999694824</ele>
        <time>2019-06-20T11:34:04.000Z</time>
      </trkpt>
      <trkpt lat="50.41892" lon="5.19792">
        <ele>184.19999694824</ele>
        <time>2019-06-20T11:34:08.000Z</time>
      </trkpt>
      <trkpt lat="50.41926" lon="5.19863">
        <ele>183.80000305176</ele>
        <time>2019-06-20T11:34:09.000Z</time>
      </trkpt>
      <trkpt lat="50.41944" lon="5.19907">
        <ele>182.80000305176</ele>
        <time>2019-06-20T11:34:12.000Z</time>
      </trkpt>
      <trkpt lat="50.41953" lon="5.19928">
        <ele>182.19999694824</ele>
        <time>2019-06-20T11:34:16.000Z</time>
      </trkpt>
      <trkpt lat="50.41967" lon="5.1996">
        <ele>181.80000305176</ele>
        <time>2019-06-20T11:34:17.000Z</time>
      </trkpt>
      <trkpt lat="50.41986" lon="5.20005">
        <ele>181</ele>
        <time>2019-06-20T11:34:22.000Z</time>
      </trkpt>
      <trkpt lat="50.41994" lon="5.20027">
        <ele>180.60000610352</ele>
        <time>2019-06-20T11:34:25.000Z</time>
      </trkpt>
      <trkpt lat="50.42003" lon="5.20048">
        <ele>180.19999694824</ele>
        <time>2019-06-20T11:34:26.000Z</time>
      </trkpt>
      <trkpt lat="50.42015" lon="5.20079">
        <ele>179.80000305176</ele>
        <time>2019-06-20T11:34:32.000Z</time>
      </trkpt>
      <trkpt lat="50.42019" lon="5.2009">
        <ele>179.60000610352</ele>
        <time>2019-06-20T11:34:33.000Z</time>
      </trkpt>
      <trkpt lat="50.42047" lon="5.2017">
        <ele>178.80000305176</ele>
        <time>2019-06-20T11:34:36.000Z</time>
      </trkpt>
      <trkpt lat="50.42075" lon="5.2025">
        <ele>178.80000305176</ele>
        <time>2019-06-20T11:34:37.000Z</time>
      </trkpt>
      <trkpt lat="50.42079" lon="5.20261">
        <ele>178.80000305176</ele>
        <time>2019-06-20T11:34:41.000Z</time>
      </trkpt>
      <trkpt lat="50.42105" lon="5.20344">
        <ele>179.19999694824</ele>
        <time>2019-06-20T11:34:44.000Z</time>
      </trkpt>
      <trkpt lat="50.42115" lon="5.20381">
        <ele>179.19999694824</ele>
        <time>2019-06-20T11:34:45.000Z</time>
      </trkpt>
      <trkpt lat="50.42133" lon="5.20464">
        <ele>179.39999389648</ele>
        <time>2019-06-20T11:34:46.000Z</time>
      </trkpt>
      <trkpt lat="50.42139" lon="5.20489">
        <ele>179.39999389648</ele>
        <time>2019-06-20T11:34:48.000Z</time>
      </trkpt>
      <trkpt lat="50.42157" lon="5.20574">
        <ele>180</ele>
        <time>2019-06-20T11:34:49.000Z</time>
      </trkpt>
      <trkpt lat="50.4216" lon="5.20586">
        <ele>180</ele>
        <time>2019-06-20T11:34:51.000Z</time>
      </trkpt>
      <trkpt lat="50.42178" lon="5.20666">
        <ele>180.19999694824</ele>
        <time>2019-06-20T11:34:53.000Z</time>
      </trkpt>
      <trkpt lat="50.4218" lon="5.20678">
        <ele>180.19999694824</ele>
        <time>2019-06-20T11:58:50.000Z</time>
      </trkpt>
      <trkpt lat="50.42198" lon="5.20763">
        <ele>180.39999389648</ele>
        <time>2019-06-20T11:58:51.000Z</time>
      </trkpt>
      <trkpt lat="50.42203" lon="5.208">
        <ele>180.39999389648</ele>
        <time>2019-06-20T11:58:52.000Z</time>
      </trkpt>
      <trkpt lat="50.42212" lon="5.20889">
        <ele>180.19999694824</ele>
        <time>2019-06-20T11:58:55.000Z</time>
      </trkpt>
      <trkpt lat="50.42226" lon="5.20937">
        <ele>180.19999694824</ele>
        <time>2019-06-20T11:58:56.000Z</time>
      </trkpt>
      <trkpt lat="50.4223" lon="5.20948">
        <ele>180.19999694824</ele>
        <time>2019-06-20T11:58:59.000Z</time>
      </trkpt>
      <trkpt lat="50.42264" lon="5.21024">
        <ele>179.60000610352</ele>
        <time>2019-06-20T11:59:01.000Z</time>
      </trkpt>
      <trkpt lat="50.42285" lon="5.21069">
        <ele>179.19999694824</ele>
        <time>2019-06-20T11:59:02.000Z</time>
      </trkpt>
      <trkpt lat="50.42295" lon="5.21092">
        <ele>179</ele>
        <time>2019-06-20T11:59:05.000Z</time>
      </trkpt>
      <trkpt lat="50.42306" lon="5.21115">
        <ele>178.60000610352</ele>
        <time>2019-06-20T11:59:07.000Z</time>
      </trkpt>
      <trkpt lat="50.42317" lon="5.21139">
        <ele>178</ele>
        <time>2019-06-20T11:59:08.000Z</time>
      </trkpt>
      <trkpt lat="50.42333" lon="5.21175">
        <ele>177.19999694824</ele>
        <time>2019-06-20T11:59:12.000Z</time>
      </trkpt>
      <trkpt lat="50.42344" lon="5.21198">
        <ele>176.80000305176</ele>
        <time>2019-06-20T11:59:14.000Z</time>
      </trkpt>
      <trkpt lat="50.4236" lon="5.21234">
        <ele>176.19999694824</ele>
        <time>2019-06-20T11:59:15.000Z</time>
      </trkpt>
      <trkpt lat="50.42388" lon="5.21296">
        <ele>175.19999694824</ele>
        <time>2019-06-20T11:59:19.000Z</time>
      </trkpt>
      <trkpt lat="50.42409" lon="5.21345">
        <ele>174.19999694824</ele>
        <time>2019-06-20T11:59:20.000Z</time>
      </trkpt>
      <trkpt lat="50.42415" lon="5.21357">
        <ele>174</ele>
        <time>2019-06-20T11:59:23.000Z</time>
      </trkpt>
      <trkpt lat="50.42436" lon="5.21402">
        <ele>173</ele>
        <time>2019-06-20T11:59:26.000Z</time>
      </trkpt>
      <trkpt lat="50.42442" lon="5.21413">
        <ele>172.80000305176</ele>
        <time>2019-06-20T11:59:27.000Z</time>
      </trkpt>
      <trkpt lat="50.42458" lon="5.21447">
        <ele>172.19999694824</ele>
        <time>2019-06-20T11:59:28.000Z</time>
      </trkpt>
      <trkpt lat="50.42474" lon="5.21479">
        <ele>172</ele>
        <time>2019-06-20T11:59:29.000Z</time>
      </trkpt>
      <trkpt lat="50.4249" lon="5.21511">
        <ele>171.80000305176</ele>
        <time>2019-06-20T11:59:31.000Z</time>
      </trkpt>
      <trkpt lat="50.42526" lon="5.21583">
        <ele>171.80000305176</ele>
        <time>2019-06-20T11:59:32.000Z</time>
      </trkpt>
      <trkpt lat="50.42562" lon="5.21654">
        <ele>171.80000305176</ele>
        <time>2019-06-20T11:59:34.000Z</time>
      </trkpt>
      <trkpt lat="50.42583" lon="5.21695">
        <ele>171.80000305176</ele>
        <time>2019-06-20T11:59:38.000Z</time>
      </trkpt>
      <trkpt lat="50.42619" lon="5.21765">
        <ele>171.80000305176</ele>
        <time>2019-06-20T11:59:42.000Z</time>
      </trkpt>
      <trkpt lat="50.42624" lon="5.21775">
        <ele>171.80000305176</ele>
        <time>2019-06-20T11:59:43.000Z</time>
      </trkpt>
      <trkpt lat="50.42651" lon="5.21828">
        <ele>172.19999694824</ele>
        <time>2019-06-20T11:59:50.000Z</time>
      </trkpt>
      <trkpt lat="50.42683" lon="5.21893">
        <ele>172.60000610352</ele>
        <time>2019-06-20T11:59:52.000Z</time>
      </trkpt>
      <trkpt lat="50.42693" lon="5.21934">
        <ele>172.60000610352</ele>
        <time>2019-06-20T11:59:58.000Z</time>
      </trkpt>
      <trkpt lat="50.427" lon="5.21997">
        <ele>172.39999389648</ele>
        <time>2019-06-20T11:59:59.000Z</time>
      </trkpt>
      <trkpt lat="50.42706" lon="5.22049">
        <ele>171</ele>
        <time>2019-06-20T12:00:02.000Z</time>
      </trkpt>
      <trkpt lat="50.42707" lon="5.22059">
        <ele>170.80000305176</ele>
        <time>2019-06-20T12:00:04.000Z</time>
      </trkpt>
      <trkpt lat="50.42711" lon="5.22094">
        <ele>169.80000305176</ele>
        <time>2019-06-20T12:00:07.000Z</time>
      </trkpt>
      <trkpt lat="50.42713" lon="5.22108">
        <ele>169.19999694824</ele>
        <time>2019-06-20T12:00:12.000Z</time>
      </trkpt>
      <trkpt lat="50.42715" lon="5.22127">
        <ele>168.60000610352</ele>
        <time>2019-06-20T12:00:13.000Z</time>
      </trkpt>
      <trkpt lat="50.42717" lon="5.22139">
        <ele>168.19999694824</ele>
        <time>2019-06-20T12:00:16.000Z</time>
      </trkpt>
      <trkpt lat="50.42719" lon="5.22144">
        <ele>168.19999694824</ele>
        <time>2019-06-20T12:00:17.000Z</time>
      </trkpt>
      <trkpt lat="50.42731" lon="5.22147">
        <ele>167.80000305176</ele>
        <time>2019-06-20T12:00:19.000Z</time>
      </trkpt>
      <trkpt lat="50.42735" lon="5.22146">
        <ele>167.60000610352</ele>
        <time>2019-06-20T12:00:22.000Z</time>
      </trkpt>
      <trkpt lat="50.42739" lon="5.22143">
        <ele>167.60000610352</ele>
        <time>2019-06-20T12:00:27.000Z</time>
      </trkpt>
      <trkpt lat="50.42747" lon="5.22138">
        <ele>167.60000610352</ele>
        <time>2019-06-20T12:00:34.000Z</time>
      </trkpt>
      <trkpt lat="50.42752" lon="5.22136">
        <ele>167.60000610352</ele>
        <time>2019-06-20T12:00:35.000Z</time>
      </trkpt>
      <trkpt lat="50.4276" lon="5.22134">
        <ele>167.60000610352</ele>
        <time>2019-06-20T12:00:36.000Z</time>
      </trkpt>
      <trkpt lat="50.42773" lon="5.22132">
        <ele>167.60000610352</ele>
        <time>2019-06-20T12:00:38.000Z</time>
      </trkpt>
      <trkpt lat="50.42778" lon="5.2213">
        <ele>167.60000610352</ele>
        <time>2019-06-20T12:00:39.000Z</time>
      </trkpt>
      <trkpt lat="50.42791" lon="5.22125">
        <ele>168.39999389648</ele>
        <time>2019-06-20T12:00:42.000Z</time>
      </trkpt>
      <trkpt lat="50.428" lon="5.2212">
        <ele>168.80000305176</ele>
        <time>2019-06-20T12:00:43.000Z</time>
      </trkpt>
      <trkpt lat="50.42804" lon="5.22117">
        <ele>169</ele>
        <time>2019-06-20T12:00:47.000Z</time>
      </trkpt>
      <trkpt lat="50.42808" lon="5.22114">
        <ele>169.60000610352</ele>
        <time>2019-06-20T12:00:50.000Z</time>
      </trkpt>
      <trkpt lat="50.42812" lon="5.2211">
        <ele>170.19999694824</ele>
        <time>2019-06-20T12:00:58.000Z</time>
      </trkpt>
      <trkpt lat="50.42823" lon="5.22101">
        <ele>171.19999694824</ele>
        <time>2019-06-20T12:01:05.000Z</time>
      </trkpt>
      <trkpt lat="50.42835" lon="5.22093">
        <ele>172.39999389648</ele>
        <time>2019-06-20T12:01:08.000Z</time>
      </trkpt>
      <trkpt lat="50.42839" lon="5.2209">
        <ele>172.80000305176</ele>
        <time>2019-06-20T12:01:13.000Z</time>
      </trkpt>
      <trkpt lat="50.4285" lon="5.2208">
        <ele>173.60000610352</ele>
        <time>2019-06-20T12:01:19.000Z</time>
      </trkpt>
      <trkpt lat="50.42869" lon="5.22065">
        <ele>174.60000610352</ele>
        <time>2019-06-20T12:01:24.000Z</time>
      </trkpt>
      <trkpt lat="50.42873" lon="5.22062">
        <ele>174.80000305176</ele>
        <time>2019-06-20T12:01:26.000Z</time>
      </trkpt>
      <trkpt lat="50.42888" lon="5.2205">
        <ele>175.80000305176</ele>
        <time>2019-06-20T12:01:30.000Z</time>
      </trkpt>
      <trkpt lat="50.42904" lon="5.22039">
        <ele>176.19999694824</ele>
        <time>2019-06-20T12:01:32.000Z</time>
      </trkpt>
      <trkpt lat="50.42912" lon="5.22035">
        <ele>176.60000610352</ele>
        <time>2019-06-20T12:01:40.000Z</time>
      </trkpt>
      <trkpt lat="50.42925" lon="5.22033">
        <ele>177.39999389648</ele>
        <time>2019-06-20T12:01:48.000Z</time>
      </trkpt>
      <trkpt lat="50.4293" lon="5.22033">
        <ele>177.60000610352</ele>
        <time>2019-06-20T12:01:52.000Z</time>
      </trkpt>
      <trkpt lat="50.42935" lon="5.22033">
        <ele>177.80000305176</ele>
        <time>2019-06-20T12:02:00.000Z</time>
      </trkpt>
      <trkpt lat="50.42957" lon="5.22038">
        <ele>178.80000305176</ele>
        <time>2019-06-20T12:02:01.000Z</time>
      </trkpt>
      <trkpt lat="50.42971" lon="5.22041">
        <ele>179.60000610352</ele>
        <time>2019-06-20T12:02:09.000Z</time>
      </trkpt>
      <trkpt lat="50.42975" lon="5.22042">
        <ele>180</ele>
        <time>2019-06-20T12:02:12.000Z</time>
      </trkpt>
      <trkpt lat="50.42993" lon="5.22045">
        <ele>181.19999694824</ele>
        <time>2019-06-20T12:02:15.000Z</time>
      </trkpt>
      <trkpt lat="50.43016" lon="5.22047">
        <ele>182.19999694824</ele>
        <time>2019-06-20T12:02:22.000Z</time>
      </trkpt>
      <trkpt lat="50.43039" lon="5.22046">
        <ele>183.19999694824</ele>
        <time>2019-06-20T12:02:30.000Z</time>
      </trkpt>
      <trkpt lat="50.43063" lon="5.22044">
        <ele>184.19999694824</ele>
        <time>2019-06-20T12:02:36.000Z</time>
      </trkpt>
      <trkpt lat="50.43091" lon="5.2204">
        <ele>185.39999389648</ele>
        <time>2019-06-20T12:02:37.000Z</time>
      </trkpt>
      <trkpt lat="50.4311" lon="5.22037">
        <ele>186.19999694824</ele>
        <time>2019-06-20T12:02:38.000Z</time>
      </trkpt>
      <trkpt lat="50.43115" lon="5.22036">
        <ele>186.39999389648</ele>
        <time>2019-06-20T12:02:39.000Z</time>
      </trkpt>
      <trkpt lat="50.43148" lon="5.22032">
        <ele>187.60000610352</ele>
        <time>2019-06-20T12:02:40.000Z</time>
      </trkpt>
      <trkpt lat="50.43163" lon="5.2203">
        <ele>188.19999694824</ele>
        <time>2019-06-20T12:02:42.000Z</time>
      </trkpt>
      <trkpt lat="50.43172" lon="5.22028">
        <ele>188.60000610352</ele>
        <time>2019-06-20T12:02:43.000Z</time>
      </trkpt>
      <trkpt lat="50.432" lon="5.22024">
        <ele>189.80000305176</ele>
        <time>2019-06-20T12:02:46.000Z</time>
      </trkpt>
      <trkpt lat="50.43205" lon="5.22024">
        <ele>190</ele>
        <time>2019-06-20T12:02:54.000Z</time>
      </trkpt>
      <trkpt lat="50.43222" lon="5.22021">
        <ele>190.80000305176</ele>
        <time>2019-06-20T12:03:02.000Z</time>
      </trkpt>
      <trkpt lat="50.43245" lon="5.22018">
        <ele>192</ele>
        <time>2019-06-20T12:03:10.000Z</time>
      </trkpt>
      <trkpt lat="50.43254" lon="5.22017">
        <ele>192.60000610352</ele>
        <time>2019-06-20T12:03:11.000Z</time>
      </trkpt>
      <trkpt lat="50.43264" lon="5.22016">
        <ele>193</ele>
        <time>2019-06-20T12:03:19.000Z</time>
      </trkpt>
      <trkpt lat="50.433" lon="5.22011">
        <ele>194</ele>
        <time>2019-06-20T12:03:20.000Z</time>
      </trkpt>
      <trkpt lat="50.43348" lon="5.21999">
        <ele>194</ele>
        <time>2019-06-20T12:03:28.000Z</time>
      </trkpt>
      <trkpt lat="50.43401" lon="5.21978">
        <ele>193.39999389648</ele>
        <time>2019-06-20T12:03:36.000Z</time>
      </trkpt>
      <trkpt lat="50.43407" lon="5.21976">
        <ele>193.19999694824</ele>
        <time>2019-06-20T12:03:42.000Z</time>
      </trkpt>
      <trkpt lat="50.43455" lon="5.21959">
        <ele>193.39999389648</ele>
        <time>2019-06-20T12:03:50.000Z</time>
      </trkpt>
      <trkpt lat="50.43489" lon="5.21948">
        <ele>193.60000610352</ele>
        <time>2019-06-20T12:03:52.000Z</time>
      </trkpt>
      <trkpt lat="50.43533" lon="5.21942">
        <ele>194.60000610352</ele>
        <time>2019-06-20T12:04:00.000Z</time>
      </trkpt>
      <trkpt lat="50.43549" lon="5.21945">
        <ele>195.19999694824</ele>
        <time>2019-06-20T12:04:01.000Z</time>
      </trkpt>
      <trkpt lat="50.43568" lon="5.2195">
        <ele>196.39999389648</ele>
        <time>2019-06-20T12:04:09.000Z</time>
      </trkpt>
      <trkpt lat="50.43573" lon="5.21952">
        <ele>196.60000610352</ele>
        <time>2019-06-20T12:04:10.000Z</time>
      </trkpt>
      <trkpt lat="50.43587" lon="5.21956">
        <ele>197.60000610352</ele>
        <time>2019-06-20T12:04:18.000Z</time>
      </trkpt>
      <trkpt lat="50.43602" lon="5.21959">
        <ele>198.80000305176</ele>
        <time>2019-06-20T12:04:26.000Z</time>
      </trkpt>
      <trkpt lat="50.43607" lon="5.2196">
        <ele>199.19999694824</ele>
        <time>2019-06-20T12:04:34.000Z</time>
      </trkpt>
      <trkpt lat="50.43622" lon="5.21967">
        <ele>199.80000305176</ele>
        <time>2019-06-20T12:04:42.000Z</time>
      </trkpt>
      <trkpt lat="50.43626" lon="5.21971">
        <ele>200.19999694824</ele>
        <time>2019-06-20T12:04:43.000Z</time>
      </trkpt>
      <trkpt lat="50.4363" lon="5.21976">
        <ele>200.39999389648</ele>
        <time>2019-06-20T12:04:51.000Z</time>
      </trkpt>
      <trkpt lat="50.43645" lon="5.21994">
        <ele>201</ele>
        <time>2019-06-20T12:04:52.000Z</time>
      </trkpt>
      <trkpt lat="50.43653" lon="5.22004">
        <ele>201.19999694824</ele>
        <time>2019-06-20T12:05:00.000Z</time>
      </trkpt>
      <trkpt lat="50.4366" lon="5.22013">
        <ele>201.39999389648</ele>
        <time>2019-06-20T12:05:08.000Z</time>
      </trkpt>
      <trkpt lat="50.43669" lon="5.22022">
        <ele>202</ele>
        <time>2019-06-20T12:05:12.000Z</time>
      </trkpt>
      <trkpt lat="50.43674" lon="5.22027">
        <ele>202.19999694824</ele>
        <time>2019-06-20T12:05:20.000Z</time>
      </trkpt>
      <trkpt lat="50.43693" lon="5.22045">
        <ele>203.19999694824</ele>
        <time>2019-06-20T12:05:22.000Z</time>
      </trkpt>
      <trkpt lat="50.43707" lon="5.22055">
        <ele>203.80000305176</ele>
        <time>2019-06-20T12:05:30.000Z</time>
      </trkpt>
      <trkpt lat="50.43716" lon="5.2206">
        <ele>204.19999694824</ele>
        <time>2019-06-20T12:05:32.000Z</time>
      </trkpt>
      <trkpt lat="50.43739" lon="5.2207">
        <ele>205.39999389648</ele>
        <time>2019-06-20T12:05:40.000Z</time>
      </trkpt>
      <trkpt lat="50.43757" lon="5.22077">
        <ele>206.60000610352</ele>
        <time>2019-06-20T12:05:48.000Z</time>
      </trkpt>
      <trkpt lat="50.4377" lon="5.2208">
        <ele>207.60000610352</ele>
        <time>2019-06-20T12:05:51.000Z</time>
      </trkpt>
      <trkpt lat="50.43774" lon="5.22081">
        <ele>207.80000305176</ele>
        <time>2019-06-20T12:05:59.000Z</time>
      </trkpt>
      <trkpt lat="50.43792" lon="5.22084">
        <ele>209</ele>
        <time>2019-06-20T12:06:00.000Z</time>
      </trkpt>
      <trkpt lat="50.43801" lon="5.22085">
        <ele>210.19999694824</ele>
        <time>2019-06-20T12:06:08.000Z</time>
      </trkpt>
      <trkpt lat="50.43811" lon="5.22086">
        <ele>210.80000305176</ele>
        <time>2019-06-20T12:06:09.000Z</time>
      </trkpt>
      <trkpt lat="50.43816" lon="5.22086">
        <ele>211.19999694824</ele>
        <time>2019-06-20T12:06:16.000Z</time>
      </trkpt>
      <trkpt lat="50.43833" lon="5.22086">
        <ele>212.19999694824</ele>
        <time>2019-06-20T12:06:24.000Z</time>
      </trkpt>
      <trkpt lat="50.43837" lon="5.22085">
        <ele>212.60000610352</ele>
        <time>2019-06-20T12:06:25.000Z</time>
      </trkpt>
      <trkpt lat="50.43852" lon="5.22082">
        <ele>213.39999389648</ele>
        <time>2019-06-20T12:06:33.000Z</time>
      </trkpt>
      <trkpt lat="50.43856" lon="5.22081">
        <ele>213.60000610352</ele>
        <time>2019-06-20T12:06:34.000Z</time>
      </trkpt>
      <trkpt lat="50.43882" lon="5.22088">
        <ele>214.19999694824</ele>
        <time>2019-06-20T12:06:41.000Z</time>
      </trkpt>
      <trkpt lat="50.43916" lon="5.22098">
        <ele>214.19999694824</ele>
        <time>2019-06-20T12:06:43.000Z</time>
      </trkpt>
      <trkpt lat="50.4396" lon="5.22108">
        <ele>213.80000305176</ele>
        <time>2019-06-20T12:06:49.000Z</time>
      </trkpt>
      <trkpt lat="50.4397" lon="5.22109">
        <ele>213</ele>
        <time>2019-06-20T12:06:55.000Z</time>
      </trkpt>
      <trkpt lat="50.43991" lon="5.22105">
        <ele>212</ele>
        <time>2019-06-20T12:07:03.000Z</time>
      </trkpt>
      <trkpt lat="50.44001" lon="5.22103">
        <ele>211.60000610352</ele>
        <time>2019-06-20T12:07:06.000Z</time>
      </trkpt>
      <trkpt lat="50.44012" lon="5.22102">
        <ele>210.80000305176</ele>
        <time>2019-06-20T12:07:12.000Z</time>
      </trkpt>
      <trkpt lat="50.44033" lon="5.22104">
        <ele>209.39999389648</ele>
        <time>2019-06-20T12:07:14.000Z</time>
      </trkpt>
      <trkpt lat="50.44044" lon="5.22105">
        <ele>208.60000610352</ele>
        <time>2019-06-20T12:07:22.000Z</time>
      </trkpt>
      <trkpt lat="50.44055" lon="5.22107">
        <ele>208</ele>
        <time>2019-06-20T12:07:24.000Z</time>
      </trkpt>
      <trkpt lat="50.44077" lon="5.22108">
        <ele>207</ele>
        <time>2019-06-20T12:07:32.000Z</time>
      </trkpt>
      <trkpt lat="50.44102" lon="5.22108">
        <ele>206.19999694824</ele>
        <time>2019-06-20T12:07:35.000Z</time>
      </trkpt>
      <trkpt lat="50.44115" lon="5.22108">
        <ele>205.60000610352</ele>
        <time>2019-06-20T12:07:43.000Z</time>
      </trkpt>
      <trkpt lat="50.4414" lon="5.22108">
        <ele>204.39999389648</ele>
        <time>2019-06-20T12:07:44.000Z</time>
      </trkpt>
      <trkpt lat="50.44152" lon="5.22108">
        <ele>203.39999389648</ele>
        <time>2019-06-20T12:07:51.000Z</time>
      </trkpt>
      <trkpt lat="50.44163" lon="5.22109">
        <ele>202.39999389648</ele>
        <time>2019-06-20T12:07:55.000Z</time>
      </trkpt>
      <trkpt lat="50.44174" lon="5.22111">
        <ele>201.39999389648</ele>
        <time>2019-06-20T12:08:02.000Z</time>
      </trkpt>
      <trkpt lat="50.44195" lon="5.22122">
        <ele>199.60000610352</ele>
        <time>2019-06-20T12:08:03.000Z</time>
      </trkpt>
      <trkpt lat="50.44213" lon="5.22142">
        <ele>197.39999389648</ele>
        <time>2019-06-20T12:08:04.000Z</time>
      </trkpt>
      <trkpt lat="50.44222" lon="5.22156">
        <ele>196.19999694824</ele>
        <time>2019-06-20T12:08:10.000Z</time>
      </trkpt>
      <trkpt lat="50.44229" lon="5.2217">
        <ele>195</ele>
        <time>2019-06-20T12:08:15.000Z</time>
      </trkpt>
      <trkpt lat="50.44229" lon="5.2217">
        <ele>193.60000610352</ele>
        <time>2019-06-20T12:08:17.000Z</time>
      </trkpt>
      <trkpt lat="50.44247" lon="5.22201">
        <ele>192.39999389648</ele>
        <time>2019-06-20T12:08:25.000Z</time>
      </trkpt>
      <trkpt lat="50.44256" lon="5.22216">
        <ele>190</ele>
        <time>2019-06-20T12:08:26.000Z</time>
      </trkpt>
      <trkpt lat="50.44264" lon="5.22232">
        <ele>188.80000305176</ele>
        <time>2019-06-20T12:08:34.000Z</time>
      </trkpt>
      <trkpt lat="50.44282" lon="5.22257">
        <ele>187.19999694824</ele>
        <time>2019-06-20T12:08:35.000Z</time>
      </trkpt>
      <trkpt lat="50.44292" lon="5.22267">
        <ele>186</ele>
        <time>2019-06-20T12:08:43.000Z</time>
      </trkpt>
      <trkpt lat="50.44303" lon="5.22274">
        <ele>184.60000610352</ele>
        <time>2019-06-20T12:08:46.000Z</time>
      </trkpt>
      <trkpt lat="50.44314" lon="5.22277">
        <ele>183.39999389648</ele>
        <time>2019-06-20T12:08:54.000Z</time>
      </trkpt>
      <trkpt lat="50.44325" lon="5.22278">
        <ele>182.19999694824</ele>
        <time>2019-06-20T12:08:56.000Z</time>
      </trkpt>
      <trkpt lat="50.44338" lon="5.22278">
        <ele>180.80000305176</ele>
        <time>2019-06-20T12:09:04.000Z</time>
      </trkpt>
      <trkpt lat="50.4435" lon="5.22278">
        <ele>179.60000610352</ele>
        <time>2019-06-20T12:09:05.000Z</time>
      </trkpt>
      <trkpt lat="50.44362" lon="5.22277">
        <ele>178.39999389648</ele>
        <time>2019-06-20T12:09:09.000Z</time>
      </trkpt>
      <trkpt lat="50.44388" lon="5.22277">
        <ele>176.39999389648</ele>
        <time>2019-06-20T12:09:12.000Z</time>
      </trkpt>
      <trkpt lat="50.44401" lon="5.22277">
        <ele>175</ele>
        <time>2019-06-20T12:09:18.000Z</time>
      </trkpt>
      <trkpt lat="50.44414" lon="5.22277">
        <ele>174</ele>
        <time>2019-06-20T12:09:21.000Z</time>
      </trkpt>
      <trkpt lat="50.44439" lon="5.22278">
        <ele>172.39999389648</ele>
        <time>2019-06-20T12:09:29.000Z</time>
      </trkpt>
      <trkpt lat="50.44462" lon="5.22274">
        <ele>170.60000610352</ele>
        <time>2019-06-20T12:09:31.000Z</time>
      </trkpt>
      <trkpt lat="50.44473" lon="5.2227">
        <ele>170</ele>
        <time>2019-06-20T12:09:38.000Z</time>
      </trkpt>
      <trkpt lat="50.44482" lon="5.22265">
        <ele>169.19999694824</ele>
        <time>2019-06-20T12:09:45.000Z</time>
      </trkpt>
      <trkpt lat="50.44491" lon="5.2226">
        <ele>168.19999694824</ele>
        <time>2019-06-20T12:09:46.000Z</time>
      </trkpt>
      <trkpt lat="50.44508" lon="5.22249">
        <ele>166.80000305176</ele>
        <time>2019-06-20T12:09:51.000Z</time>
      </trkpt>
      <trkpt lat="50.44517" lon="5.22242">
        <ele>166</ele>
        <time>2019-06-20T12:09:54.000Z</time>
      </trkpt>
      <trkpt lat="50.44524" lon="5.22235">
        <ele>165</ele>
        <time>2019-06-20T12:09:59.000Z</time>
      </trkpt>
      <trkpt lat="50.44538" lon="5.2222">
        <ele>162.39999389648</ele>
        <time>2019-06-20T12:10:02.000Z</time>
      </trkpt>
      <trkpt lat="50.4456" lon="5.22195">
        <ele>161.19999694824</ele>
        <time>2019-06-20T12:10:06.000Z</time>
      </trkpt>
      <trkpt lat="50.44568" lon="5.22187">
        <ele>161</ele>
        <time>2019-06-20T12:10:10.000Z</time>
      </trkpt>
      <trkpt lat="50.4459" lon="5.22164">
        <ele>160.19999694824</ele>
        <time>2019-06-20T12:10:17.000Z</time>
      </trkpt>
      <trkpt lat="50.44599" lon="5.22158">
        <ele>160.19999694824</ele>
        <time>2019-06-20T12:10:25.000Z</time>
      </trkpt>
      <trkpt lat="50.44631" lon="5.22139">
        <ele>159</ele>
        <time>2019-06-20T12:10:32.000Z</time>
      </trkpt>
      <trkpt lat="50.4464" lon="5.22136">
        <ele>159</ele>
        <time>2019-06-20T12:10:39.000Z</time>
      </trkpt>
      <trkpt lat="50.44678" lon="5.22127">
        <ele>158.80000305176</ele>
        <time>2019-06-20T12:10:43.000Z</time>
      </trkpt>
      <trkpt lat="50.44713" lon="5.2213">
        <ele>159</ele>
        <time>2019-06-20T12:10:45.000Z</time>
      </trkpt>
      <trkpt lat="50.4475" lon="5.22136">
        <ele>159</ele>
        <time>2019-06-20T12:10:49.000Z</time>
      </trkpt>
      <trkpt lat="50.44776" lon="5.22142">
        <ele>159</ele>
        <time>2019-06-20T12:10:50.000Z</time>
      </trkpt>
      <trkpt lat="50.44786" lon="5.22144">
        <ele>159.39999389648</ele>
        <time>2019-06-20T12:10:52.000Z</time>
      </trkpt>
      <trkpt lat="50.44797" lon="5.22147">
        <ele>159.39999389648</ele>
        <time>2019-06-20T12:10:55.000Z</time>
      </trkpt>
      <trkpt lat="50.44814" lon="5.2215">
        <ele>159.39999389648</ele>
        <time>2019-06-20T12:10:57.000Z</time>
      </trkpt>
      <trkpt lat="50.44824" lon="5.22152">
        <ele>159.60000610352</ele>
        <time>2019-06-20T12:11:03.000Z</time>
      </trkpt>
      <trkpt lat="50.4484" lon="5.22155">
        <ele>159.60000610352</ele>
        <time>2019-06-20T12:11:04.000Z</time>
      </trkpt>
      <trkpt lat="50.4486" lon="5.22158">
        <ele>160</ele>
        <time>2019-06-20T12:11:07.000Z</time>
      </trkpt>
      <trkpt lat="50.4487" lon="5.22158">
        <ele>160</ele>
        <time>2019-06-20T12:11:09.000Z</time>
      </trkpt>
      <trkpt lat="50.44876" lon="5.22158">
        <ele>160</ele>
        <time>2019-06-20T12:11:11.000Z</time>
      </trkpt>
      <trkpt lat="50.44898" lon="5.22152">
        <ele>160.19999694824</ele>
        <time>2019-06-20T12:11:19.000Z</time>
      </trkpt>
      <trkpt lat="50.44904" lon="5.2215">
        <ele>160.19999694824</ele>
        <time>2019-06-20T12:11:23.000Z</time>
      </trkpt>
      <trkpt lat="50.44945" lon="5.22129">
        <ele>160.19999694824</ele>
        <time>2019-06-20T12:11:26.000Z</time>
      </trkpt>
      <trkpt lat="50.44994" lon="5.22093">
        <ele>159.60000610352</ele>
        <time>2019-06-20T12:11:34.000Z</time>
      </trkpt>
      <trkpt lat="50.45001" lon="5.22089">
        <ele>159.60000610352</ele>
        <time>2019-06-20T12:11:35.000Z</time>
      </trkpt>
      <trkpt lat="50.4502" lon="5.22079">
        <ele>159</ele>
        <time>2019-06-20T12:11:38.000Z</time>
      </trkpt>
      <trkpt lat="50.45027" lon="5.22078">
        <ele>159</ele>
        <time>2019-06-20T12:11:40.000Z</time>
      </trkpt>
      <trkpt lat="50.45049" lon="5.22082">
        <ele>159</ele>
        <time>2019-06-20T12:11:46.000Z</time>
      </trkpt>
      <trkpt lat="50.45056" lon="5.22085">
        <ele>159</ele>
        <time>2019-06-20T12:11:54.000Z</time>
      </trkpt>
      <trkpt lat="50.45096" lon="5.221">
        <ele>158.80000305176</ele>
        <time>2019-06-20T12:11:55.000Z</time>
      </trkpt>
      <trkpt lat="50.45154" lon="5.22123">
        <ele>158.19999694824</ele>
        <time>2019-06-20T12:12:03.000Z</time>
      </trkpt>
      <trkpt lat="50.4516" lon="5.22125">
        <ele>157.80000305176</ele>
        <time>2019-06-20T12:12:05.000Z</time>
      </trkpt>
      <trkpt lat="50.45166" lon="5.22128">
        <ele>157.80000305176</ele>
        <time>2019-06-20T12:12:10.000Z</time>
      </trkpt>
      <trkpt lat="50.4521" lon="5.22151">
        <ele>157.60000610352</ele>
        <time>2019-06-20T12:12:13.000Z</time>
      </trkpt>
      <trkpt lat="50.45261" lon="5.22179">
        <ele>157</ele>
        <time>2019-06-20T12:12:15.000Z</time>
      </trkpt>
      <trkpt lat="50.45268" lon="5.22182">
        <ele>157</ele>
        <time>2019-06-20T12:12:18.000Z</time>
      </trkpt>
      <trkpt lat="50.45302" lon="5.22197">
        <ele>156.39999389648</ele>
        <time>2019-06-20T12:12:25.000Z</time>
      </trkpt>
      <trkpt lat="50.45317" lon="5.22204">
        <ele>156.19999694824</ele>
        <time>2019-06-20T12:12:27.000Z</time>
      </trkpt>
      <trkpt lat="50.45321" lon="5.22207">
        <ele>156</ele>
        <time>2019-06-20T12:12:35.000Z</time>
      </trkpt>
      <trkpt lat="50.4532" lon="5.22213">
        <ele>156</ele>
        <time>2019-06-20T12:12:42.000Z</time>
      </trkpt>
      <trkpt lat="50.45318" lon="5.22221">
        <ele>155.80000305176</ele>
        <time>2019-06-20T12:12:45.000Z</time>
      </trkpt>
      <trkpt lat="50.45317" lon="5.22232">
        <ele>155.60000610352</ele>
        <time>2019-06-20T12:12:47.000Z</time>
      </trkpt>
      <trkpt lat="50.4532" lon="5.2228">
        <ele>155</ele>
        <time>2019-06-20T12:12:50.000Z</time>
      </trkpt>
      <trkpt lat="50.45322" lon="5.22325">
        <ele>154.80000305176</ele>
        <time>2019-06-20T12:12:58.000Z</time>
      </trkpt>
      <trkpt lat="50.45324" lon="5.22348">
        <ele>154.80000305176</ele>
        <time>2019-06-20T12:12:59.000Z</time>
      </trkpt>
      <trkpt lat="50.45324" lon="5.22355">
        <ele>154.80000305176</ele>
        <time>2019-06-20T12:13:05.000Z</time>
      </trkpt>
      <trkpt lat="50.45325" lon="5.22379">
        <ele>154.60000610352</ele>
        <time>2019-06-20T12:13:10.000Z</time>
      </trkpt>
      <trkpt lat="50.45323" lon="5.22404">
        <ele>154.60000610352</ele>
        <time>2019-06-20T12:13:11.000Z</time>
      </trkpt>
      <trkpt lat="50.45322" lon="5.22412">
        <ele>154.60000610352</ele>
        <time>2019-06-20T12:13:16.000Z</time>
      </trkpt>
      <trkpt lat="50.45317" lon="5.22446">
        <ele>154.39999389648</ele>
        <time>2019-06-20T12:13:24.000Z</time>
      </trkpt>
      <trkpt lat="50.45312" lon="5.22476">
        <ele>154</ele>
        <time>2019-06-20T12:13:28.000Z</time>
      </trkpt>
      <trkpt lat="50.45301" lon="5.22541">
        <ele>153.60000610352</ele>
        <time>2019-06-20T12:13:31.000Z</time>
      </trkpt>
      <trkpt lat="50.453" lon="5.22549">
        <ele>153.60000610352</ele>
        <time>2019-06-20T12:13:39.000Z</time>
      </trkpt>
      <trkpt lat="50.45292" lon="5.22614">
        <ele>153.19999694824</ele>
        <time>2019-06-20T12:13:47.000Z</time>
      </trkpt>
      <trkpt lat="50.45291" lon="5.22623">
        <ele>153.19999694824</ele>
        <time>2019-06-20T12:13:48.000Z</time>
      </trkpt>
      <trkpt lat="50.45284" lon="5.22676">
        <ele>152.60000610352</ele>
        <time>2019-06-20T12:13:56.000Z</time>
      </trkpt>
      <trkpt lat="50.45282" lon="5.22699">
        <ele>152.19999694824</ele>
        <time>2019-06-20T12:13:57.000Z</time>
      </trkpt>
      <trkpt lat="50.45276" lon="5.2275">
        <ele>151.80000305176</ele>
        <time>2019-06-20T12:14:05.000Z</time>
      </trkpt>
      <trkpt lat="50.45276" lon="5.22763">
        <ele>151.60000610352</ele>
        <time>2019-06-20T12:14:06.000Z</time>
      </trkpt>
      <trkpt lat="50.45279" lon="5.22788">
        <ele>151.39999389648</ele>
        <time>2019-06-20T12:14:13.000Z</time>
      </trkpt>
      <trkpt lat="50.45285" lon="5.22811">
        <ele>151</ele>
        <time>2019-06-20T12:14:21.000Z</time>
      </trkpt>
      <trkpt lat="50.45288" lon="5.22821">
        <ele>150.80000305176</ele>
        <time>2019-06-20T12:14:23.000Z</time>
      </trkpt>
      <trkpt lat="50.45291" lon="5.22831">
        <ele>150.80000305176</ele>
        <time>2019-06-20T12:14:30.000Z</time>
      </trkpt>
      <trkpt lat="50.45308" lon="5.22879">
        <ele>150.19999694824</ele>
        <time>2019-06-20T12:14:36.000Z</time>
      </trkpt>
      <trkpt lat="50.45317" lon="5.22907">
        <ele>150</ele>
        <time>2019-06-20T12:14:39.000Z</time>
      </trkpt>
      <trkpt lat="50.45326" lon="5.22936">
        <ele>149.80000305176</ele>
        <time>2019-06-20T12:14:47.000Z</time>
      </trkpt>
      <trkpt lat="50.45338" lon="5.22962">
        <ele>149.60000610352</ele>
        <time>2019-06-20T12:14:49.000Z</time>
      </trkpt>
      <trkpt lat="50.45358" lon="5.2301">
        <ele>148.80000305176</ele>
        <time>2019-06-20T12:14:56.000Z</time>
      </trkpt>
      <trkpt lat="50.4536" lon="5.23017">
        <ele>148.80000305176</ele>
        <time>2019-06-20T12:15:03.000Z</time>
      </trkpt>
      <trkpt lat="50.45364" lon="5.23033">
        <ele>148.80000305176</ele>
        <time>2019-06-20T12:15:11.000Z</time>
      </trkpt>
      <trkpt lat="50.45372" lon="5.23041">
        <ele>148.80000305176</ele>
        <time>2019-06-20T12:15:13.000Z</time>
      </trkpt>
      <trkpt lat="50.45395" lon="5.23053">
        <ele>148.39999389648</ele>
        <time>2019-06-20T12:15:21.000Z</time>
      </trkpt>
      <trkpt lat="50.4544" lon="5.23083">
        <ele>148.19999694824</ele>
        <time>2019-06-20T12:15:24.000Z</time>
      </trkpt>
      <trkpt lat="50.45465" lon="5.23098">
        <ele>148.19999694824</ele>
        <time>2019-06-20T12:15:31.000Z</time>
      </trkpt>
      <trkpt lat="50.4547" lon="5.23101">
        <ele>148.19999694824</ele>
        <time>2019-06-20T12:15:32.000Z</time>
      </trkpt>
      <trkpt lat="50.45482" lon="5.23105">
        <ele>148.19999694824</ele>
        <time>2019-06-20T12:15:39.000Z</time>
      </trkpt>
      <trkpt lat="50.45488" lon="5.23107">
        <ele>148.19999694824</ele>
        <time>2019-06-20T12:15:42.000Z</time>
      </trkpt>
      <trkpt lat="50.45515" lon="5.23111">
        <ele>148</ele>
        <time>2019-06-20T12:15:47.000Z</time>
      </trkpt>
      <trkpt lat="50.45561" lon="5.23118">
        <ele>148</ele>
        <time>2019-06-20T12:15:52.000Z</time>
      </trkpt>
      <trkpt lat="50.45615" lon="5.23125">
        <ele>147.80000305176</ele>
        <time>2019-06-20T12:15:59.000Z</time>
      </trkpt>
      <trkpt lat="50.4566" lon="5.23133">
        <ele>147.60000610352</ele>
        <time>2019-06-20T12:16:02.000Z</time>
      </trkpt>
      <trkpt lat="50.45677" lon="5.23138">
        <ele>147.39999389648</ele>
        <time>2019-06-20T12:16:08.000Z</time>
      </trkpt>
      <trkpt lat="50.45701" lon="5.23153">
        <ele>147.39999389648</ele>
        <time>2019-06-20T12:16:09.000Z</time>
      </trkpt>
      <trkpt lat="50.45708" lon="5.23159">
        <ele>147.39999389648</ele>
        <time>2019-06-20T12:16:12.000Z</time>
      </trkpt>
      <trkpt lat="50.45715" lon="5.23166">
        <ele>147.60000610352</ele>
        <time>2019-06-20T12:16:19.000Z</time>
      </trkpt>
      <trkpt lat="50.45733" lon="5.23201">
        <ele>147.39999389648</ele>
        <time>2019-06-20T12:16:21.000Z</time>
      </trkpt>
      <trkpt lat="50.45736" lon="5.23211">
        <ele>147.39999389648</ele>
        <time>2019-06-20T12:16:23.000Z</time>
      </trkpt>
      <trkpt lat="50.45748" lon="5.23246">
        <ele>147.60000610352</ele>
        <time>2019-06-20T12:16:26.000Z</time>
      </trkpt>
      <trkpt lat="50.45751" lon="5.23255">
        <ele>147.60000610352</ele>
        <time>2019-06-20T12:16:27.000Z</time>
      </trkpt>
      <trkpt lat="50.45767" lon="5.23283">
        <ele>147.39999389648</ele>
        <time>2019-06-20T12:16:32.000Z</time>
      </trkpt>
      <trkpt lat="50.45771" lon="5.23288">
        <ele>147.39999389648</ele>
        <time>2019-06-20T12:16:36.000Z</time>
      </trkpt>
      <trkpt lat="50.45779" lon="5.23298">
        <ele>147.39999389648</ele>
        <time>2019-06-20T12:16:38.000Z</time>
      </trkpt>
      <trkpt lat="50.45791" lon="5.23308">
        <ele>147.39999389648</ele>
        <time>2019-06-20T12:16:46.000Z</time>
      </trkpt>
      <trkpt lat="50.45807" lon="5.23319">
        <ele>147.60000610352</ele>
        <time>2019-06-20T12:16:47.000Z</time>
      </trkpt>
      <trkpt lat="50.45819" lon="5.23327">
        <ele>147.60000610352</ele>
        <time>2019-06-20T12:16:55.000Z</time>
      </trkpt>
      <trkpt lat="50.45839" lon="5.23336">
        <ele>147.80000305176</ele>
        <time>2019-06-20T12:17:00.000Z</time>
      </trkpt>
      <trkpt lat="50.45843" lon="5.23337">
        <ele>147.80000305176</ele>
        <time>2019-06-20T12:17:01.000Z</time>
      </trkpt>
      <trkpt lat="50.45853" lon="5.23338">
        <ele>147.80000305176</ele>
        <time>2019-06-20T12:17:04.000Z</time>
      </trkpt>
      <trkpt lat="50.45875" lon="5.23334">
        <ele>147.60000610352</ele>
        <time>2019-06-20T12:17:07.000Z</time>
      </trkpt>
      <trkpt lat="50.45902" lon="5.23327">
        <ele>147.60000610352</ele>
        <time>2019-06-20T12:17:10.000Z</time>
      </trkpt>
      <trkpt lat="50.45911" lon="5.23328">
        <ele>147.60000610352</ele>
        <time>2019-06-20T12:17:11.000Z</time>
      </trkpt>
      <trkpt lat="50.4592" lon="5.23332">
        <ele>147.39999389648</ele>
        <time>2019-06-20T12:17:14.000Z</time>
      </trkpt>
      <trkpt lat="50.45932" lon="5.23339">
        <ele>147.39999389648</ele>
        <time>2019-06-20T12:17:15.000Z</time>
      </trkpt>
      <trkpt lat="50.45974" lon="5.23372">
        <ele>146.80000305176</ele>
        <time>2019-06-20T12:17:18.000Z</time>
      </trkpt>
      <trkpt lat="50.45995" lon="5.23389">
        <ele>146.39999389648</ele>
        <time>2019-06-20T12:17:25.000Z</time>
      </trkpt>
      <trkpt lat="50.46013" lon="5.23405">
        <ele>146.19999694824</ele>
        <time>2019-06-20T12:17:32.000Z</time>
      </trkpt>
      <trkpt lat="50.4604" lon="5.23437">
        <ele>145.80000305176</ele>
        <time>2019-06-20T12:17:36.000Z</time>
      </trkpt>
      <trkpt lat="50.46064" lon="5.23466">
        <ele>145.19999694824</ele>
        <time>2019-06-20T12:17:40.000Z</time>
      </trkpt>
      <trkpt lat="50.46076" lon="5.23484">
        <ele>144.80000305176</ele>
        <time>2019-06-20T12:17:43.000Z</time>
      </trkpt>
      <trkpt lat="50.46079" lon="5.23487">
        <ele>144.80000305176</ele>
        <time>2019-06-20T12:17:45.000Z</time>
      </trkpt>
      <trkpt lat="50.46091" lon="5.23501">
        <ele>144.80000305176</ele>
        <time>2019-06-20T12:17:48.000Z</time>
      </trkpt>
      <trkpt lat="50.46111" lon="5.23533">
        <ele>144.60000610352</ele>
        <time>2019-06-20T12:17:49.000Z</time>
      </trkpt>
      <trkpt lat="50.46114" lon="5.23538">
        <ele>144.60000610352</ele>
        <time>2019-06-20T12:17:50.000Z</time>
      </trkpt>
      <trkpt lat="50.46135" lon="5.2358">
        <ele>144.60000610352</ele>
        <time>2019-06-20T12:17:52.000Z</time>
      </trkpt>
      <trkpt lat="50.46156" lon="5.23628">
        <ele>144.80000305176</ele>
        <time>2019-06-20T12:17:56.000Z</time>
      </trkpt>
      <trkpt lat="50.46175" lon="5.23662">
        <ele>150.60000610352</ele>
        <time>2019-06-20T12:17:57.000Z</time>
      </trkpt>
      <trkpt lat="50.46177" lon="5.23666">
        <ele>165</ele>
        <time>2019-06-20T12:18:01.000Z</time>
      </trkpt>
      <trkpt lat="50.4618" lon="5.23671">
        <ele>176.19999694824</ele>
        <time>2019-06-20T12:18:04.000Z</time>
      </trkpt>
      <trkpt lat="50.46183" lon="5.23677">
        <ele>182.80000305176</ele>
        <time>2019-06-20T12:18:10.000Z</time>
      </trkpt>
      <trkpt lat="50.46186" lon="5.23682">
        <ele>186.60000610352</ele>
        <time>2019-06-20T12:18:16.000Z</time>
      </trkpt>
      <trkpt lat="50.46189" lon="5.23688">
        <ele>188.60000610352</ele>
        <time>2019-06-20T12:18:17.000Z</time>
      </trkpt>
      <trkpt lat="50.46192" lon="5.23694">
        <ele>189.80000305176</ele>
        <time>2019-06-20T12:18:19.000Z</time>
      </trkpt>
      <trkpt lat="50.46195" lon="5.237">
        <ele>190.60000610352</ele>
        <time>2019-06-20T12:18:22.000Z</time>
      </trkpt>
      <trkpt lat="50.46198" lon="5.23706">
        <ele>191</ele>
        <time>2019-06-20T12:18:23.000Z</time>
      </trkpt>
      <trkpt lat="50.4621" lon="5.23741">
        <ele>192</ele>
        <time>2019-06-20T12:18:24.000Z</time>
      </trkpt>
      <trkpt lat="50.46211" lon="5.23748">
        <ele>192.19999694824</ele>
        <time>2019-06-20T12:18:26.000Z</time>
      </trkpt>
      <trkpt lat="50.46215" lon="5.23763">
        <ele>192.19999694824</ele>
        <time>2019-06-20T12:18:29.000Z</time>
      </trkpt>
      <trkpt lat="50.46221" lon="5.23776">
        <ele>192.19999694824</ele>
        <time>2019-06-20T12:18:31.000Z</time>
      </trkpt>
      <trkpt lat="50.46223" lon="5.23783">
        <ele>192.39999389648</ele>
        <time>2019-06-20T12:18:35.000Z</time>
      </trkpt>
      <trkpt lat="50.46241" lon="5.23836">
        <ele>192.60000610352</ele>
        <time>2019-06-20T12:18:43.000Z</time>
      </trkpt>
      <trkpt lat="50.4626" lon="5.23892">
        <ele>192.60000610352</ele>
        <time>2019-06-20T12:18:44.000Z</time>
      </trkpt>
      <trkpt lat="50.46262" lon="5.23902">
        <ele>192.60000610352</ele>
        <time>2019-06-20T12:18:52.000Z</time>
      </trkpt>
      <trkpt lat="50.46273" lon="5.2395">
        <ele>192.39999389648</ele>
        <time>2019-06-20T12:18:53.000Z</time>
      </trkpt>
      <trkpt lat="50.4628" lon="5.23981">
        <ele>192.39999389648</ele>
        <time>2019-06-20T12:19:00.000Z</time>
      </trkpt>
      <trkpt lat="50.46284" lon="5.2399">
        <ele>192.19999694824</ele>
        <time>2019-06-20T12:19:08.000Z</time>
      </trkpt>
      <trkpt lat="50.46297" lon="5.24015">
        <ele>192.19999694824</ele>
        <time>2019-06-20T12:19:10.000Z</time>
      </trkpt>
      <trkpt lat="50.46306" lon="5.24029">
        <ele>192.19999694824</ele>
        <time>2019-06-20T12:19:17.000Z</time>
      </trkpt>
      <trkpt lat="50.46338" lon="5.24075">
        <ele>192.39999389648</ele>
        <time>2019-06-20T12:19:22.000Z</time>
      </trkpt>
      <trkpt lat="50.46343" lon="5.2408">
        <ele>192.60000610352</ele>
        <time>2019-06-20T12:19:25.000Z</time>
      </trkpt>
      <trkpt lat="50.46357" lon="5.24089">
        <ele>193.19999694824</ele>
        <time>2019-06-20T12:19:27.000Z</time>
      </trkpt>
      <trkpt lat="50.46366" lon="5.24096">
        <ele>194</ele>
        <time>2019-06-20T12:19:35.000Z</time>
      </trkpt>
      <trkpt lat="50.46371" lon="5.24106">
        <ele>194.80000305176</ele>
        <time>2019-06-20T12:19:36.000Z</time>
      </trkpt>
      <trkpt lat="50.46374" lon="5.24112">
        <ele>195.19999694824</ele>
        <time>2019-06-20T12:19:43.000Z</time>
      </trkpt>
      <trkpt lat="50.46379" lon="5.24122">
        <ele>196</ele>
        <time>2019-06-20T12:19:45.000Z</time>
      </trkpt>
      <trkpt lat="50.46384" lon="5.24133">
        <ele>197.19999694824</ele>
        <time>2019-06-20T12:19:49.000Z</time>
      </trkpt>
      <trkpt lat="50.4639" lon="5.24142">
        <ele>198</ele>
        <time>2019-06-20T12:19:53.000Z</time>
      </trkpt>
      <trkpt lat="50.46394" lon="5.24145">
        <ele>198.60000610352</ele>
        <time>2019-06-20T12:20:00.000Z</time>
      </trkpt>
      <trkpt lat="50.46407" lon="5.24145">
        <ele>199.60000610352</ele>
        <time>2019-06-20T12:20:04.000Z</time>
      </trkpt>
      <trkpt lat="50.46411" lon="5.24143">
        <ele>199.80000305176</ele>
        <time>2019-06-20T12:20:11.000Z</time>
      </trkpt>
      <trkpt lat="50.46416" lon="5.24142">
        <ele>200.19999694824</ele>
        <time>2019-06-20T12:20:13.000Z</time>
      </trkpt>
      <trkpt lat="50.46421" lon="5.24142">
        <ele>200.60000610352</ele>
        <time>2019-06-20T12:20:19.000Z</time>
      </trkpt>
      <trkpt lat="50.46425" lon="5.24144">
        <ele>201</ele>
        <time>2019-06-20T12:20:26.000Z</time>
      </trkpt>
      <trkpt lat="50.46433" lon="5.24154">
        <ele>202</ele>
        <time>2019-06-20T12:20:28.000Z</time>
      </trkpt>
      <trkpt lat="50.46437" lon="5.24159">
        <ele>202.39999389648</ele>
        <time>2019-06-20T12:20:33.000Z</time>
      </trkpt>
      <trkpt lat="50.46441" lon="5.24165">
        <ele>202.80000305176</ele>
        <time>2019-06-20T12:20:40.000Z</time>
      </trkpt>
      <trkpt lat="50.46445" lon="5.2417">
        <ele>203.19999694824</ele>
        <time>2019-06-20T12:20:43.000Z</time>
      </trkpt>
      <trkpt lat="50.46458" lon="5.24181">
        <ele>204.19999694824</ele>
        <time>2019-06-20T12:20:46.000Z</time>
      </trkpt>
      <trkpt lat="50.46462" lon="5.24183">
        <ele>204.39999389648</ele>
        <time>2019-06-20T12:20:53.000Z</time>
      </trkpt>
      <trkpt lat="50.46467" lon="5.24184">
        <ele>204.60000610352</ele>
        <time>2019-06-20T12:20:56.000Z</time>
      </trkpt>
      <trkpt lat="50.46477" lon="5.24181">
        <ele>205.19999694824</ele>
        <time>2019-06-20T12:21:01.000Z</time>
      </trkpt>
      <trkpt lat="50.46476" lon="5.24182">
        <ele>205.39999389648</ele>
        <time>2019-06-20T12:21:06.000Z</time>
      </trkpt>
      <trkpt lat="50.46477" lon="5.24184">
        <ele>205.60000610352</ele>
        <time>2019-06-20T12:21:09.000Z</time>
      </trkpt>
      <trkpt lat="50.46486" lon="5.24207">
        <ele>206.60000610352</ele>
        <time>2019-06-20T12:21:12.000Z</time>
      </trkpt>
      <trkpt lat="50.46489" lon="5.24213">
        <ele>206.80000305176</ele>
        <time>2019-06-20T12:21:19.000Z</time>
      </trkpt>
      <trkpt lat="50.46505" lon="5.24236">
        <ele>208</ele>
        <time>2019-06-20T12:21:27.000Z</time>
      </trkpt>
      <trkpt lat="50.4651" lon="5.24241">
        <ele>208</ele>
        <time>2019-06-20T12:21:34.000Z</time>
      </trkpt>
      <trkpt lat="50.46539" lon="5.24287">
        <ele>208.39999389648</ele>
        <time>2019-06-20T12:21:35.000Z</time>
      </trkpt>
      <trkpt lat="50.46562" lon="5.2433">
        <ele>208.39999389648</ele>
        <time>2019-06-20T12:21:40.000Z</time>
      </trkpt>
      <trkpt lat="50.46587" lon="5.24388">
        <ele>208.39999389648</ele>
        <time>2019-06-20T12:21:42.000Z</time>
      </trkpt>
      <trkpt lat="50.46616" lon="5.24458">
        <ele>208.80000305176</ele>
        <time>2019-06-20T12:21:44.000Z</time>
      </trkpt>
      <trkpt lat="50.4664" lon="5.24516">
        <ele>209</ele>
        <time>2019-06-20T12:21:45.000Z</time>
      </trkpt>
      <trkpt lat="50.46643" lon="5.24524">
        <ele>209</ele>
        <time>2019-06-20T12:21:48.000Z</time>
      </trkpt>
      <trkpt lat="50.46666" lon="5.24585">
        <ele>210</ele>
        <time>2019-06-20T12:21:55.000Z</time>
      </trkpt>
      <trkpt lat="50.46663" lon="5.24603">
        <ele>210.39999389648</ele>
        <time>2019-06-20T12:22:02.000Z</time>
      </trkpt>
      <trkpt lat="50.46661" lon="5.24609">
        <ele>210.60000610352</ele>
        <time>2019-06-20T12:22:05.000Z</time>
      </trkpt>
      <trkpt lat="50.46659" lon="5.24616">
        <ele>210.80000305176</ele>
        <time>2019-06-20T12:22:12.000Z</time>
      </trkpt>
      <trkpt lat="50.46654" lon="5.24632">
        <ele>210.80000305176</ele>
        <time>2019-06-20T12:22:13.000Z</time>
      </trkpt>
      <trkpt lat="50.46644" lon="5.24674">
        <ele>210.80000305176</ele>
        <time>2019-06-20T12:22:20.000Z</time>
      </trkpt>
      <trkpt lat="50.46642" lon="5.24686">
        <ele>210.80000305176</ele>
        <time>2019-06-20T12:22:22.000Z</time>
      </trkpt>
      <trkpt lat="50.46639" lon="5.24713">
        <ele>210.19999694824</ele>
        <time>2019-06-20T12:22:29.000Z</time>
      </trkpt>
      <trkpt lat="50.46638" lon="5.24741">
        <ele>208.80000305176</ele>
        <time>2019-06-20T12:22:31.000Z</time>
      </trkpt>
      <trkpt lat="50.46638" lon="5.24755">
        <ele>207.80000305176</ele>
        <time>2019-06-20T12:22:38.000Z</time>
      </trkpt>
      <trkpt lat="50.46636" lon="5.24785">
        <ele>206.19999694824</ele>
        <time>2019-06-20T12:22:40.000Z</time>
      </trkpt>
      <trkpt lat="50.46634" lon="5.24818">
        <ele>204.39999389648</ele>
        <time>2019-06-20T12:22:47.000Z</time>
      </trkpt>
      <trkpt lat="50.46633" lon="5.24834">
        <ele>203.39999389648</ele>
        <time>2019-06-20T12:22:51.000Z</time>
      </trkpt>
      <trkpt lat="50.46632" lon="5.24851">
        <ele>202.60000610352</ele>
        <time>2019-06-20T12:22:58.000Z</time>
      </trkpt>
      <trkpt lat="50.46629" lon="5.24883">
        <ele>200.19999694824</ele>
        <time>2019-06-20T12:23:02.000Z</time>
      </trkpt>
      <trkpt lat="50.46628" lon="5.24899">
        <ele>198.80000305176</ele>
        <time>2019-06-20T12:23:09.000Z</time>
      </trkpt>
      <trkpt lat="50.46627" lon="5.24915">
        <ele>197.60000610352</ele>
        <time>2019-06-20T12:23:16.000Z</time>
      </trkpt>
      <trkpt lat="50.46626" lon="5.2493">
        <ele>196.19999694824</ele>
        <time>2019-06-20T12:23:18.000Z</time>
      </trkpt>
      <trkpt lat="50.46625" lon="5.24945">
        <ele>195.19999694824</ele>
        <time>2019-06-20T12:23:25.000Z</time>
      </trkpt>
      <trkpt lat="50.4662" lon="5.24974">
        <ele>193</ele>
        <time>2019-06-20T12:23:32.000Z</time>
      </trkpt>
      <trkpt lat="50.46616" lon="5.24988">
        <ele>191.80000305176</ele>
        <time>2019-06-20T12:23:33.000Z</time>
      </trkpt>
      <trkpt lat="50.46611" lon="5.25002">
        <ele>190.60000610352</ele>
        <time>2019-06-20T12:23:40.000Z</time>
      </trkpt>
      <trkpt lat="50.46606" lon="5.25016">
        <ele>189.19999694824</ele>
        <time>2019-06-20T12:23:41.000Z</time>
      </trkpt>
      <trkpt lat="50.46601" lon="5.2503">
        <ele>188</ele>
        <time>2019-06-20T12:23:48.000Z</time>
      </trkpt>
      <trkpt lat="50.46596" lon="5.25043">
        <ele>186.80000305176</ele>
        <time>2019-06-20T12:23:50.000Z</time>
      </trkpt>
      <trkpt lat="50.46592" lon="5.25056">
        <ele>185.80000305176</ele>
        <time>2019-06-20T12:23:57.000Z</time>
      </trkpt>
      <trkpt lat="50.46588" lon="5.25069">
        <ele>184.60000610352</ele>
        <time>2019-06-20T12:24:03.000Z</time>
      </trkpt>
      <trkpt lat="50.46586" lon="5.25083">
        <ele>182.80000305176</ele>
        <time>2019-06-20T12:24:10.000Z</time>
      </trkpt>
      <trkpt lat="50.46584" lon="5.25096">
        <ele>181.60000610352</ele>
        <time>2019-06-20T12:24:11.000Z</time>
      </trkpt>
      <trkpt lat="50.46583" lon="5.2511">
        <ele>180.39999389648</ele>
        <time>2019-06-20T12:24:18.000Z</time>
      </trkpt>
      <trkpt lat="50.46583" lon="5.25122">
        <ele>179.19999694824</ele>
        <time>2019-06-20T12:24:20.000Z</time>
      </trkpt>
      <trkpt lat="50.46583" lon="5.25133">
        <ele>177.60000610352</ele>
        <time>2019-06-20T12:24:27.000Z</time>
      </trkpt>
      <trkpt lat="50.46584" lon="5.25143">
        <ele>176</ele>
        <time>2019-06-20T12:24:32.000Z</time>
      </trkpt>
      <trkpt lat="50.46584" lon="5.2515">
        <ele>174.80000305176</ele>
        <time>2019-06-20T12:24:39.000Z</time>
      </trkpt>
      <trkpt lat="50.46584" lon="5.25155">
        <ele>173.39999389648</ele>
        <time>2019-06-20T12:24:41.000Z</time>
      </trkpt>
      <trkpt lat="50.46584" lon="5.25157">
        <ele>172</ele>
        <time>2019-06-20T12:24:48.000Z</time>
      </trkpt>
      <trkpt lat="50.46582" lon="5.25158">
        <ele>170.60000610352</ele>
        <time>2019-06-20T12:24:49.000Z</time>
      </trkpt>
      <trkpt lat="50.46581" lon="5.25158">
        <ele>169.60000610352</ele>
        <time>2019-06-20T12:24:56.000Z</time>
      </trkpt>
      <trkpt lat="50.46579" lon="5.25159">
        <ele>168.39999389648</ele>
        <time>2019-06-20T12:24:57.000Z</time>
      </trkpt>
      <trkpt lat="50.46576" lon="5.25158">
        <ele>167.60000610352</ele>
        <time>2019-06-20T12:25:04.000Z</time>
      </trkpt>
      <trkpt lat="50.46574" lon="5.25157">
        <ele>166</ele>
        <time>2019-06-20T12:25:05.000Z</time>
      </trkpt>
      <trkpt lat="50.4657" lon="5.25156">
        <ele>165.39999389648</ele>
        <time>2019-06-20T12:25:10.000Z</time>
      </trkpt>
      <trkpt lat="50.46567" lon="5.25154">
        <ele>164.80000305176</ele>
        <time>2019-06-20T12:25:13.000Z</time>
      </trkpt>
      <trkpt lat="50.46555" lon="5.25139">
        <ele>163.80000305176</ele>
        <time>2019-06-20T12:25:20.000Z</time>
      </trkpt>
      <trkpt lat="50.4655" lon="5.25132">
        <ele>163.60000610352</ele>
        <time>2019-06-20T12:25:21.000Z</time>
      </trkpt>
      <trkpt lat="50.46542" lon="5.25117">
        <ele>162.60000610352</ele>
        <time>2019-06-20T12:25:28.000Z</time>
      </trkpt>
      <trkpt lat="50.46537" lon="5.2511">
        <ele>162.19999694824</ele>
        <time>2019-06-20T12:25:29.000Z</time>
      </trkpt>
      <trkpt lat="50.46528" lon="5.25095">
        <ele>161.39999389648</ele>
        <time>2019-06-20T12:25:31.000Z</time>
      </trkpt>
      <trkpt lat="50.46523" lon="5.25087">
        <ele>160.80000305176</ele>
        <time>2019-06-20T12:25:34.000Z</time>
      </trkpt>
      <trkpt lat="50.46507" lon="5.25059">
        <ele>159.19999694824</ele>
        <time>2019-06-20T12:25:41.000Z</time>
      </trkpt>
      <trkpt lat="50.46502" lon="5.25049">
        <ele>158.39999389648</ele>
        <time>2019-06-20T12:25:48.000Z</time>
      </trkpt>
      <trkpt lat="50.46497" lon="5.25039">
        <ele>157.19999694824</ele>
        <time>2019-06-20T12:25:50.000Z</time>
      </trkpt>
      <trkpt lat="50.46489" lon="5.25018">
        <ele>156</ele>
        <time>2019-06-20T12:25:57.000Z</time>
      </trkpt>
      <trkpt lat="50.46485" lon="5.25007">
        <ele>154.80000305176</ele>
        <time>2019-06-20T12:25:59.000Z</time>
      </trkpt>
      <trkpt lat="50.46483" lon="5.24997">
        <ele>153.39999389648</ele>
        <time>2019-06-20T12:26:05.000Z</time>
      </trkpt>
      <trkpt lat="50.4648" lon="5.24985">
        <ele>152.39999389648</ele>
        <time>2019-06-20T12:26:12.000Z</time>
      </trkpt>
      <trkpt lat="50.46477" lon="5.24974">
        <ele>151.19999694824</ele>
        <time>2019-06-20T12:26:14.000Z</time>
      </trkpt>
      <trkpt lat="50.46474" lon="5.24962">
        <ele>150.19999694824</ele>
        <time>2019-06-20T12:26:21.000Z</time>
      </trkpt>
      <trkpt lat="50.46471" lon="5.2495">
        <ele>148.80000305176</ele>
        <time>2019-06-20T12:26:28.000Z</time>
      </trkpt>
      <trkpt lat="50.46468" lon="5.24939">
        <ele>147.60000610352</ele>
        <time>2019-06-20T12:26:30.000Z</time>
      </trkpt>
      <trkpt lat="50.46465" lon="5.24928">
        <ele>146.39999389648</ele>
        <time>2019-06-20T12:26:35.000Z</time>
      </trkpt>
      <trkpt lat="50.46462" lon="5.24918">
        <ele>143.80000305176</ele>
        <time>2019-06-20T12:26:42.000Z</time>
      </trkpt>
      <trkpt lat="50.46458" lon="5.24909">
        <ele>142.39999389648</ele>
        <time>2019-06-20T12:26:44.000Z</time>
      </trkpt>
      <trkpt lat="50.46455" lon="5.24899">
        <ele>141.19999694824</ele>
        <time>2019-06-20T12:26:46.000Z</time>
      </trkpt>
      <trkpt lat="50.46452" lon="5.24891">
        <ele>140.19999694824</ele>
        <time>2019-06-20T12:26:54.000Z</time>
      </trkpt>
      <trkpt lat="50.46448" lon="5.24883">
        <ele>139.19999694824</ele>
        <time>2019-06-20T12:26:55.000Z</time>
      </trkpt>
      <trkpt lat="50.46444" lon="5.24876">
        <ele>138</ele>
        <time>2019-06-20T12:27:02.000Z</time>
      </trkpt>
      <trkpt lat="50.4644" lon="5.2487">
        <ele>136.39999389648</ele>
        <time>2019-06-20T12:27:07.000Z</time>
      </trkpt>
      <trkpt lat="50.46436" lon="5.24866">
        <ele>135.19999694824</ele>
        <time>2019-06-20T12:27:14.000Z</time>
      </trkpt>
      <trkpt lat="50.46434" lon="5.24863">
        <ele>134</ele>
        <time>2019-06-20T12:27:15.000Z</time>
      </trkpt>
      <trkpt lat="50.46432" lon="5.24863">
        <ele>132.60000610352</ele>
        <time>2019-06-20T12:27:22.000Z</time>
      </trkpt>
      <trkpt lat="50.46431" lon="5.24863">
        <ele>131.19999694824</ele>
        <time>2019-06-20T12:27:30.000Z</time>
      </trkpt>
      <trkpt lat="50.46429" lon="5.24864">
        <ele>130</ele>
        <time>2019-06-20T12:27:32.000Z</time>
      </trkpt>
      <trkpt lat="50.4643" lon="5.24866">
        <ele>129</ele>
        <time>2019-06-20T12:27:35.000Z</time>
      </trkpt>
      <trkpt lat="50.4643" lon="5.24869">
        <ele>128</ele>
        <time>2019-06-20T12:27:42.000Z</time>
      </trkpt>
      <trkpt lat="50.46431" lon="5.24877">
        <ele>126.59999847412</ele>
        <time>2019-06-20T12:27:43.000Z</time>
      </trkpt>
      <trkpt lat="50.46431" lon="5.2488">
        <ele>125.80000305176</ele>
        <time>2019-06-20T12:27:51.000Z</time>
      </trkpt>
      <trkpt lat="50.46432" lon="5.24883">
        <ele>125.19999694824</ele>
        <time>2019-06-20T12:27:55.000Z</time>
      </trkpt>
      <trkpt lat="50.46437" lon="5.24898">
        <ele>124.59999847412</ele>
        <time>2019-06-20T12:27:58.000Z</time>
      </trkpt>
      <trkpt lat="50.46441" lon="5.24911">
        <ele>124.59999847412</ele>
        <time>2019-06-20T12:28:03.000Z</time>
      </trkpt>
      <trkpt lat="50.46445" lon="5.2493">
        <ele>124.40000152588</ele>
        <time>2019-06-20T12:28:06.000Z</time>
      </trkpt>
      <trkpt lat="50.46447" lon="5.24936">
        <ele>124.40000152588</ele>
        <time>2019-06-20T12:28:12.000Z</time>
      </trkpt>
      <trkpt lat="50.46449" lon="5.2495">
        <ele>124.40000152588</ele>
        <time>2019-06-20T12:28:14.000Z</time>
      </trkpt>
      <trkpt lat="50.4645" lon="5.2498">
        <ele>124.59999847412</ele>
        <time>2019-06-20T12:28:17.000Z</time>
      </trkpt>
      <trkpt lat="50.4645" lon="5.24988">
        <ele>124.59999847412</ele>
        <time>2019-06-20T12:28:23.000Z</time>
      </trkpt>
      <trkpt lat="50.46451" lon="5.25015">
        <ele>124.80000305176</ele>
        <time>2019-06-20T12:28:25.000Z</time>
      </trkpt>
      <trkpt lat="50.46452" lon="5.25032">
        <ele>124.80000305176</ele>
        <time>2019-06-20T12:28:28.000Z</time>
      </trkpt>
      <trkpt lat="50.46452" lon="5.2504">
        <ele>125</ele>
        <time>2019-06-20T12:28:34.000Z</time>
      </trkpt>
      <trkpt lat="50.46457" lon="5.25073">
        <ele>125.19999694824</ele>
        <time>2019-06-20T12:28:39.000Z</time>
      </trkpt>
      <trkpt lat="50.46467" lon="5.25115">
        <ele>126</ele>
        <time>2019-06-20T12:28:44.000Z</time>
      </trkpt>
      <trkpt lat="50.4647" lon="5.25123">
        <ele>126.19999694824</ele>
        <time>2019-06-20T12:28:51.000Z</time>
      </trkpt>
      <trkpt lat="50.46476" lon="5.25145">
        <ele>126.40000152588</ele>
        <time>2019-06-20T12:28:53.000Z</time>
      </trkpt>
      <trkpt lat="50.46481" lon="5.2516">
        <ele>126.19999694824</ele>
        <time>2019-06-20T12:28:58.000Z</time>
      </trkpt>
      <trkpt lat="50.46486" lon="5.25172">
        <ele>126.19999694824</ele>
        <time>2019-06-20T12:29:00.000Z</time>
      </trkpt>
      <trkpt lat="50.46495" lon="5.25192">
        <ele>126.19999694824</ele>
        <time>2019-06-20T12:29:04.000Z</time>
      </trkpt>
      <trkpt lat="50.4651" lon="5.2523">
        <ele>126.19999694824</ele>
        <time>2019-06-20T12:29:09.000Z</time>
      </trkpt>
      <trkpt lat="50.46516" lon="5.25246">
        <ele>126.19999694824</ele>
        <time>2019-06-20T12:29:16.000Z</time>
      </trkpt>
      <trkpt lat="50.46526" lon="5.25277">
        <ele>126.19999694824</ele>
        <time>2019-06-20T12:29:18.000Z</time>
      </trkpt>
      <trkpt lat="50.46537" lon="5.25309">
        <ele>126.19999694824</ele>
        <time>2019-06-20T12:29:25.000Z</time>
      </trkpt>
      <trkpt lat="50.46548" lon="5.25353">
        <ele>126</ele>
        <time>2019-06-20T12:29:33.000Z</time>
      </trkpt>
      <trkpt lat="50.46564" lon="5.25413">
        <ele>126.19999694824</ele>
        <time>2019-06-20T12:29:35.000Z</time>
      </trkpt>
      <trkpt lat="50.46577" lon="5.25452">
        <ele>127</ele>
        <time>2019-06-20T12:29:43.000Z</time>
      </trkpt>
      <trkpt lat="50.46579" lon="5.25459">
        <ele>127.19999694824</ele>
        <time>2019-06-20T12:29:46.000Z</time>
      </trkpt>
      <trkpt lat="50.46581" lon="5.25466">
        <ele>127.40000152588</ele>
        <time>2019-06-20T12:29:50.000Z</time>
      </trkpt>
      <trkpt lat="50.46587" lon="5.25495">
        <ele>127.59999847412</ele>
        <time>2019-06-20T12:29:52.000Z</time>
      </trkpt>
      <trkpt lat="50.46599" lon="5.25541">
        <ele>127.59999847412</ele>
        <time>2019-06-20T12:29:53.000Z</time>
      </trkpt>
      <trkpt lat="50.46613" lon="5.25599">
        <ele>126.80000305176</ele>
        <time>2019-06-20T12:29:57.000Z</time>
      </trkpt>
      <trkpt lat="50.4662" lon="5.25626">
        <ele>125.19999694824</ele>
        <time>2019-06-20T12:29:58.000Z</time>
      </trkpt>
      <trkpt lat="50.46622" lon="5.25638">
        <ele>124.80000305176</ele>
        <time>2019-06-20T12:30:05.000Z</time>
      </trkpt>
      <trkpt lat="50.46623" lon="5.25652">
        <ele>124.40000152588</ele>
        <time>2019-06-20T12:30:06.000Z</time>
      </trkpt>
      <trkpt lat="50.46622" lon="5.25667">
        <ele>124</ele>
        <time>2019-06-20T12:30:10.000Z</time>
      </trkpt>
      <trkpt lat="50.46616" lon="5.25696">
        <ele>122.80000305176</ele>
        <time>2019-06-20T12:30:11.000Z</time>
      </trkpt>
      <trkpt lat="50.46609" lon="5.25722">
        <ele>121.80000305176</ele>
        <time>2019-06-20T12:30:17.000Z</time>
      </trkpt>
      <trkpt lat="50.46604" lon="5.25746">
        <ele>120.19999694824</ele>
        <time>2019-06-20T12:30:18.000Z</time>
      </trkpt>
      <trkpt lat="50.46603" lon="5.25757">
        <ele>119.80000305176</ele>
        <time>2019-06-20T12:30:20.000Z</time>
      </trkpt>
      <trkpt lat="50.46607" lon="5.25793">
        <ele>119.19999694824</ele>
        <time>2019-06-20T12:30:21.000Z</time>
      </trkpt>
      <trkpt lat="50.4661" lon="5.25804">
        <ele>119</ele>
        <time>2019-06-20T12:30:22.000Z</time>
      </trkpt>
      <trkpt lat="50.46623" lon="5.2584">
        <ele>118.59999847412</ele>
        <time>2019-06-20T12:30:23.000Z</time>
      </trkpt>
      <trkpt lat="50.46627" lon="5.25847">
        <ele>118.59999847412</ele>
        <time>2019-06-20T12:30:24.000Z</time>
      </trkpt>
      <trkpt lat="50.46657" lon="5.25883">
        <ele>118.40000152588</ele>
        <time>2019-06-20T12:30:26.000Z</time>
      </trkpt>
      <trkpt lat="50.46674" lon="5.25901">
        <ele>118</ele>
        <time>2019-06-20T12:30:28.000Z</time>
      </trkpt>
      <trkpt lat="50.46691" lon="5.25921">
        <ele>117.59999847412</ele>
        <time>2019-06-20T12:30:29.000Z</time>
      </trkpt>
      <trkpt lat="50.46726" lon="5.25976">
        <ele>117</ele>
        <time>2019-06-20T12:30:31.000Z</time>
      </trkpt>
      <trkpt lat="50.46741" lon="5.26001">
        <ele>117</ele>
        <time>2019-06-20T12:30:32.000Z</time>
      </trkpt>
      <trkpt lat="50.4676" lon="5.26035">
        <ele>116.59999847412</ele>
        <time>2019-06-20T12:30:33.000Z</time>
      </trkpt>
      <trkpt lat="50.46789" lon="5.26084">
        <ele>116.59999847412</ele>
        <time>2019-06-20T12:30:35.000Z</time>
      </trkpt>
      <trkpt lat="50.46821" lon="5.26137">
        <ele>116.59999847412</ele>
        <time>2019-06-20T12:30:36.000Z</time>
      </trkpt>
      <trkpt lat="50.46823" lon="5.26147">
        <ele>116.59999847412</ele>
        <time>2019-06-20T12:30:38.000Z</time>
      </trkpt>
      <trkpt lat="50.46832" lon="5.26179">
        <ele>116.40000152588</ele>
        <time>2019-06-20T12:30:40.000Z</time>
      </trkpt>
      <trkpt lat="50.46835" lon="5.2619">
        <ele>116.40000152588</ele>
        <time>2019-06-20T12:30:41.000Z</time>
      </trkpt>
      <trkpt lat="50.46838" lon="5.26263">
        <ele>116.40000152588</ele>
        <time>2019-06-20T12:30:42.000Z</time>
      </trkpt>
      <trkpt lat="50.46838" lon="5.26318">
        <ele>116</ele>
        <time>2019-06-20T12:30:45.000Z</time>
      </trkpt>
      <trkpt lat="50.46837" lon="5.26333">
        <ele>115.80000305176</ele>
        <time>2019-06-20T12:30:48.000Z</time>
      </trkpt>
      <trkpt lat="50.46836" lon="5.26348">
        <ele>115.40000152588</ele>
        <time>2019-06-20T12:30:49.000Z</time>
      </trkpt>
      <trkpt lat="50.4683" lon="5.26392">
        <ele>114.19999694824</ele>
        <time>2019-06-20T12:30:50.000Z</time>
      </trkpt>
      <trkpt lat="50.46828" lon="5.26406">
        <ele>113.59999847412</ele>
        <time>2019-06-20T12:30:54.000Z</time>
      </trkpt>
      <trkpt lat="50.46828" lon="5.26421">
        <ele>113</ele>
        <time>2019-06-20T12:30:55.000Z</time>
      </trkpt>
      <trkpt lat="50.46827" lon="5.2645">
        <ele>111.40000152588</ele>
        <time>2019-06-20T12:30:59.000Z</time>
      </trkpt>
      <trkpt lat="50.46829" lon="5.26477">
        <ele>110.59999847412</ele>
        <time>2019-06-20T12:31:04.000Z</time>
      </trkpt>
      <trkpt lat="50.46832" lon="5.26504">
        <ele>110.40000152588</ele>
        <time>2019-06-20T12:31:11.000Z</time>
      </trkpt>
      <trkpt lat="50.46839" lon="5.26531">
        <ele>110</ele>
        <time>2019-06-20T12:31:19.000Z</time>
      </trkpt>
      <trkpt lat="50.46844" lon="5.26544">
        <ele>110</ele>
        <time>2019-06-20T12:31:20.000Z</time>
      </trkpt>
      <trkpt lat="50.4686" lon="5.26583">
        <ele>109.40000152588</ele>
        <time>2019-06-20T12:31:28.000Z</time>
      </trkpt>
      <trkpt lat="50.46866" lon="5.26596">
        <ele>109.19999694824</ele>
        <time>2019-06-20T12:31:29.000Z</time>
      </trkpt>
      <trkpt lat="50.46873" lon="5.26607">
        <ele>108.80000305176</ele>
        <time>2019-06-20T12:31:36.000Z</time>
      </trkpt>
      <trkpt lat="50.46894" lon="5.26642">
        <ele>107.80000305176</ele>
        <time>2019-06-20T12:31:40.000Z</time>
      </trkpt>
      <trkpt lat="50.46909" lon="5.26662">
        <ele>106.59999847412</ele>
        <time>2019-06-20T12:31:44.000Z</time>
      </trkpt>
      <trkpt lat="50.46927" lon="5.26688">
        <ele>105.19999694824</ele>
        <time>2019-06-20T12:31:51.000Z</time>
      </trkpt>
      <trkpt lat="50.46932" lon="5.26697">
        <ele>104.80000305176</ele>
        <time>2019-06-20T12:31:55.000Z</time>
      </trkpt>
      <trkpt lat="50.46935" lon="5.26708">
        <ele>104.40000152588</ele>
        <time>2019-06-20T12:32:00.000Z</time>
      </trkpt>
      <trkpt lat="50.46939" lon="5.26719">
        <ele>103.80000305176</ele>
        <time>2019-06-20T12:32:01.000Z</time>
      </trkpt>
      <trkpt lat="50.46938" lon="5.26743">
        <ele>103.19999694824</ele>
        <time>2019-06-20T12:32:04.000Z</time>
      </trkpt>
      <trkpt lat="50.46935" lon="5.26762">
        <ele>102.59999847412</ele>
        <time>2019-06-20T12:32:11.000Z</time>
      </trkpt>
      <trkpt lat="50.46932" lon="5.26769">
        <ele>102.40000152588</ele>
        <time>2019-06-20T12:32:18.000Z</time>
      </trkpt>
      <trkpt lat="50.46917" lon="5.26794">
        <ele>101.80000305176</ele>
        <time>2019-06-20T12:32:26.000Z</time>
      </trkpt>
      <trkpt lat="50.46913" lon="5.268">
        <ele>101.80000305176</ele>
        <time>2019-06-20T12:32:27.000Z</time>
      </trkpt>
      <trkpt lat="50.469" lon="5.2682">
        <ele>101.40000152588</ele>
        <time>2019-06-20T12:32:34.000Z</time>
      </trkpt>
      <trkpt lat="50.46894" lon="5.26828">
        <ele>101.40000152588</ele>
        <time>2019-06-20T12:32:40.000Z</time>
      </trkpt>
      <trkpt lat="50.4689" lon="5.26832">
        <ele>101.40000152588</ele>
        <time>2019-06-20T12:32:43.000Z</time>
      </trkpt>
      <trkpt lat="50.46887" lon="5.26835">
        <ele>101.40000152588</ele>
        <time>2019-06-20T12:32:48.000Z</time>
      </trkpt>
      <trkpt lat="50.46873" lon="5.26854">
        <ele>101.40000152588</ele>
        <time>2019-06-20T12:32:55.000Z</time>
      </trkpt>
      <trkpt lat="50.46869" lon="5.26861">
        <ele>101.40000152588</ele>
        <time>2019-06-20T12:33:03.000Z</time>
      </trkpt>
      <trkpt lat="50.46864" lon="5.26894">
        <ele>101.59999847412</ele>
        <time>2019-06-20T12:33:05.000Z</time>
      </trkpt>
      <trkpt lat="50.46865" lon="5.2693">
        <ele>101.80000305176</ele>
        <time>2019-06-20T12:33:12.000Z</time>
      </trkpt>
      <trkpt lat="50.46866" lon="5.26947">
        <ele>102.19999694824</ele>
        <time>2019-06-20T12:33:19.000Z</time>
      </trkpt>
      <trkpt lat="50.46869" lon="5.26974">
        <ele>102.40000152588</ele>
        <time>2019-06-20T12:33:24.000Z</time>
      </trkpt>
      <trkpt lat="50.46871" lon="5.27006">
        <ele>102.59999847412</ele>
        <time>2019-06-20T12:33:27.000Z</time>
      </trkpt>
      <trkpt lat="50.46875" lon="5.27062">
        <ele>103</ele>
        <time>2019-06-20T12:33:29.000Z</time>
      </trkpt>
      <trkpt lat="50.46877" lon="5.27072">
        <ele>103.19999694824</ele>
        <time>2019-06-20T12:33:32.000Z</time>
      </trkpt>
      <trkpt lat="50.46877" lon="5.27074">
        <ele>103.40000152588</ele>
        <time>2019-06-20T12:33:34.000Z</time>
      </trkpt>
      <trkpt lat="50.46877" lon="5.27075">
        <ele>103.40000152588</ele>
        <time>2019-06-20T12:33:41.000Z</time>
      </trkpt>
      <trkpt lat="50.4688" lon="5.27079">
        <ele>104.19999694824</ele>
        <time>2019-06-20T12:33:44.000Z</time>
      </trkpt>
      <trkpt lat="50.46881" lon="5.27079">
        <ele>104.40000152588</ele>
        <time>2019-06-20T12:33:46.000Z</time>
      </trkpt>
      <trkpt lat="50.46883" lon="5.27078">
        <ele>104.40000152588</ele>
        <time>2019-06-20T12:33:48.000Z</time>
      </trkpt>
      <trkpt lat="50.46892" lon="5.27064">
        <ele>104.59999847412</ele>
        <time>2019-06-20T12:33:50.000Z</time>
      </trkpt>
      <trkpt lat="50.4691" lon="5.27037">
        <ele>104.59999847412</ele>
        <time>2019-06-20T12:33:52.000Z</time>
      </trkpt>
      <trkpt lat="50.46947" lon="5.26989">
        <ele>104</ele>
        <time>2019-06-20T12:33:53.000Z</time>
      </trkpt>
      <trkpt lat="50.46957" lon="5.26975">
        <ele>103.80000305176</ele>
        <time>2019-06-20T12:33:55.000Z</time>
      </trkpt>
      <trkpt lat="50.46975" lon="5.26941">
        <ele>103.59999847412</ele>
        <time>2019-06-20T12:33:56.000Z</time>
      </trkpt>
      <trkpt lat="50.47003" lon="5.26897">
        <ele>103.40000152588</ele>
        <time>2019-06-20T12:33:58.000Z</time>
      </trkpt>
      <trkpt lat="50.47009" lon="5.26888">
        <ele>103.19999694824</ele>
        <time>2019-06-20T12:34:01.000Z</time>
      </trkpt>
      <trkpt lat="50.47032" lon="5.2685">
        <ele>102.19999694824</ele>
        <time>2019-06-20T12:34:03.000Z</time>
      </trkpt>
      <trkpt lat="50.47044" lon="5.26831">
        <ele>102</ele>
        <time>2019-06-20T12:34:10.000Z</time>
      </trkpt>
      <trkpt lat="50.47072" lon="5.26781">
        <ele>101.19999694824</ele>
        <time>2019-06-20T12:34:14.000Z</time>
      </trkpt>
      <trkpt lat="50.47085" lon="5.26762">
        <ele>101</ele>
        <time>2019-06-20T12:34:16.000Z</time>
      </trkpt>
      <trkpt lat="50.47105" lon="5.26735">
        <ele>100.80000305176</ele>
        <time>2019-06-20T12:34:20.000Z</time>
      </trkpt>
      <trkpt lat="50.47139" lon="5.26699">
        <ele>100.19999694824</ele>
        <time>2019-06-20T12:34:29.000Z</time>
      </trkpt>
      <trkpt lat="50.47152" lon="5.26684">
        <ele>99.800003051758</ele>
        <time>2019-06-20T12:34:38.000Z</time>
      </trkpt>
      <trkpt lat="50.47173" lon="5.26668">
        <ele>99.599998474121</ele>
        <time>2019-06-20T12:34:45.000Z</time>
      </trkpt>
      <trkpt lat="50.47215" lon="5.26659">
        <ele>99.199996948242</ele>
        <time>2019-06-20T12:34:50.000Z</time>
      </trkpt>
      <trkpt lat="50.47259" lon="5.26662">
        <ele>99.199996948242</ele>
        <time>2019-06-20T12:34:52.000Z</time>
      </trkpt>
      <trkpt lat="50.47299" lon="5.26665">
        <ele>98.599998474121</ele>
        <time>2019-06-20T12:34:58.000Z</time>
      </trkpt>
      <trkpt lat="50.47315" lon="5.26668">
        <ele>98.599998474121</ele>
        <time>2019-06-20T12:34:59.000Z</time>
      </trkpt>
      <trkpt lat="50.4734" lon="5.26682">
        <ele>98.400001525879</ele>
        <time>2019-06-20T12:35:04.000Z</time>
      </trkpt>
      <trkpt lat="50.47386" lon="5.26723">
        <ele>97.800003051758</ele>
        <time>2019-06-20T12:35:08.000Z</time>
      </trkpt>
      <trkpt lat="50.47394" lon="5.26731">
        <ele>97.800003051758</ele>
        <time>2019-06-20T12:35:10.000Z</time>
      </trkpt>
      <trkpt lat="50.47418" lon="5.26751">
        <ele>97.400001525879</ele>
        <time>2019-06-20T12:35:11.000Z</time>
      </trkpt>
      <trkpt lat="50.47427" lon="5.26757">
        <ele>97.400001525879</ele>
        <time>2019-06-20T12:35:15.000Z</time>
      </trkpt>
      <trkpt lat="50.47435" lon="5.26762">
        <ele>97.199996948242</ele>
        <time>2019-06-20T12:35:16.000Z</time>
      </trkpt>
      <trkpt lat="50.47444" lon="5.26767">
        <ele>97</ele>
        <time>2019-06-20T12:35:18.000Z</time>
      </trkpt>
      <trkpt lat="50.47494" lon="5.26793">
        <ele>96.400001525879</ele>
        <time>2019-06-20T12:35:21.000Z</time>
      </trkpt>
      <trkpt lat="50.47503" lon="5.26796">
        <ele>96.199996948242</ele>
        <time>2019-06-20T12:35:25.000Z</time>
      </trkpt>
      <trkpt lat="50.47511" lon="5.26801">
        <ele>96.199996948242</ele>
        <time>2019-06-20T12:35:26.000Z</time>
      </trkpt>
      <trkpt lat="50.47549" lon="5.26823">
        <ele>95.800003051758</ele>
        <time>2019-06-20T12:35:32.000Z</time>
      </trkpt>
      <trkpt lat="50.476" lon="5.26846">
        <ele>95.400001525879</ele>
        <time>2019-06-20T12:35:34.000Z</time>
      </trkpt>
      <trkpt lat="50.47636" lon="5.26856">
        <ele>95.199996948242</ele>
        <time>2019-06-20T12:35:37.000Z</time>
      </trkpt>
      <trkpt lat="50.47673" lon="5.2685">
        <ele>95.199996948242</ele>
        <time>2019-06-20T12:35:40.000Z</time>
      </trkpt>
      <trkpt lat="50.4772" lon="5.26837">
        <ele>95.199996948242</ele>
        <time>2019-06-20T12:35:46.000Z</time>
      </trkpt>
      <trkpt lat="50.47766" lon="5.26827">
        <ele>95</ele>
        <time>2019-06-20T12:35:47.000Z</time>
      </trkpt>
      <trkpt lat="50.47778" lon="5.26824">
        <ele>94.800003051758</ele>
        <time>2019-06-20T12:35:55.000Z</time>
      </trkpt>
      <trkpt lat="50.47844" lon="5.26809">
        <ele>94.400001525879</ele>
        <time>2019-06-20T12:35:59.000Z</time>
      </trkpt>
      <trkpt lat="50.47853" lon="5.26807">
        <ele>94.400001525879</ele>
        <time>2019-06-20T12:36:01.000Z</time>
      </trkpt>
      <trkpt lat="50.47917" lon="5.2679">
        <ele>94.199996948242</ele>
        <time>2019-06-20T12:36:07.000Z</time>
      </trkpt>
      <trkpt lat="50.47953" lon="5.26782">
        <ele>94</ele>
        <time>2019-06-20T12:36:11.000Z</time>
      </trkpt>
      <trkpt lat="50.47988" lon="5.26774">
        <ele>93.599998474121</ele>
        <time>2019-06-20T12:36:13.000Z</time>
      </trkpt>
      <trkpt lat="50.48031" lon="5.26759">
        <ele>93.400001525879</ele>
        <time>2019-06-20T12:36:21.000Z</time>
      </trkpt>
      <trkpt lat="50.48074" lon="5.26738">
        <ele>93</ele>
        <time>2019-06-20T12:36:28.000Z</time>
      </trkpt>
      <trkpt lat="50.48083" lon="5.26734">
        <ele>92.800003051758</ele>
        <time>2019-06-20T12:36:34.000Z</time>
      </trkpt>
      <trkpt lat="50.48134" lon="5.26707">
        <ele>92</ele>
        <time>2019-06-20T12:36:39.000Z</time>
      </trkpt>
      <trkpt lat="50.48149" lon="5.26693">
        <ele>91.800003051758</ele>
        <time>2019-06-20T12:36:44.000Z</time>
      </trkpt>
      <trkpt lat="50.48163" lon="5.26679">
        <ele>91.800003051758</ele>
        <time>2019-06-20T12:36:52.000Z</time>
      </trkpt>
      <trkpt lat="50.48169" lon="5.26668">
        <ele>91.800003051758</ele>
        <time>2019-06-20T12:36:57.000Z</time>
      </trkpt>
      <trkpt lat="50.48181" lon="5.26648">
        <ele>91.800003051758</ele>
        <time>2019-06-20T12:36:58.000Z</time>
      </trkpt>
      <trkpt lat="50.48186" lon="5.26638">
        <ele>91.599998474121</ele>
        <time>2019-06-20T12:37:02.000Z</time>
      </trkpt>
      <trkpt lat="50.48199" lon="5.26605">
        <ele>91.599998474121</ele>
        <time>2019-06-20T12:37:06.000Z</time>
      </trkpt>
      <trkpt lat="50.48202" lon="5.26593">
        <ele>91.599998474121</ele>
        <time>2019-06-20T12:37:10.000Z</time>
      </trkpt>
      <trkpt lat="50.48219" lon="5.26533">
        <ele>91.599998474121</ele>
        <time>2019-06-20T12:37:13.000Z</time>
      </trkpt>
      <trkpt lat="50.48224" lon="5.26522">
        <ele>91.599998474121</ele>
        <time>2019-06-20T12:37:16.000Z</time>
      </trkpt>
      <trkpt lat="50.48237" lon="5.26503">
        <ele>91.599998474121</ele>
        <time>2019-06-20T12:37:20.000Z</time>
      </trkpt>
      <trkpt lat="50.48253" lon="5.2649">
        <ele>91.199996948242</ele>
        <time>2019-06-20T12:37:28.000Z</time>
      </trkpt>
      <trkpt lat="50.48271" lon="5.26483">
        <ele>91</ele>
        <time>2019-06-20T12:37:32.000Z</time>
      </trkpt>
      <trkpt lat="50.48287" lon="5.26474">
        <ele>91</ele>
        <time>2019-06-20T12:37:33.000Z</time>
      </trkpt>
      <trkpt lat="50.48327" lon="5.2644">
        <ele>90.599998474121</ele>
        <time>2019-06-20T12:37:39.000Z</time>
      </trkpt>
      <trkpt lat="50.48374" lon="5.26393">
        <ele>90.199996948242</ele>
        <time>2019-06-20T12:37:44.000Z</time>
      </trkpt>
      <trkpt lat="50.48426" lon="5.26343">
        <ele>89.800003051758</ele>
        <time>2019-06-20T12:37:46.000Z</time>
      </trkpt>
      <trkpt lat="50.48475" lon="5.2631">
        <ele>89.400001525879</ele>
        <time>2019-06-20T12:37:54.000Z</time>
      </trkpt>
      <trkpt lat="50.48482" lon="5.26302">
        <ele>89.199996948242</ele>
        <time>2019-06-20T12:38:00.000Z</time>
      </trkpt>
      <trkpt lat="50.48489" lon="5.26292">
        <ele>89</ele>
        <time>2019-06-20T12:38:01.000Z</time>
      </trkpt>
      <trkpt lat="50.48503" lon="5.26269">
        <ele>89</ele>
        <time>2019-06-20T12:38:04.000Z</time>
      </trkpt>
      <trkpt lat="50.48534" lon="5.26205">
        <ele>88.599998474121</ele>
        <time>2019-06-20T12:38:07.000Z</time>
      </trkpt>
      <trkpt lat="50.4855" lon="5.26144">
        <ele>88.199996948242</ele>
        <time>2019-06-20T12:38:16.000Z</time>
      </trkpt>
      <trkpt lat="50.48554" lon="5.26127">
        <ele>87.599998474121</ele>
        <time>2019-06-20T12:38:17.000Z</time>
      </trkpt>
      <trkpt lat="50.48572" lon="5.26032">
        <ele>86.599998474121</ele>
        <time>2019-06-20T12:38:24.000Z</time>
      </trkpt>
      <trkpt lat="50.48576" lon="5.26017">
        <ele>86.400001525879</ele>
        <time>2019-06-20T12:38:33.000Z</time>
      </trkpt>
      <trkpt lat="50.48588" lon="5.2599">
        <ele>86.199996948242</ele>
        <time>2019-06-20T12:38:34.000Z</time>
      </trkpt>
      <trkpt lat="50.48594" lon="5.25978">
        <ele>86</ele>
        <time>2019-06-20T12:38:39.000Z</time>
      </trkpt>
      <trkpt lat="50.48619" lon="5.25951">
        <ele>85.400001525879</ele>
        <time>2019-06-20T12:38:40.000Z</time>
      </trkpt>
      <trkpt lat="50.48628" lon="5.25944">
        <ele>85.199996948242</ele>
        <time>2019-06-20T12:38:44.000Z</time>
      </trkpt>
      <trkpt lat="50.4868" lon="5.25916">
        <ele>84.400001525879</ele>
        <time>2019-06-20T12:38:45.000Z</time>
      </trkpt>
      <trkpt lat="50.48691" lon="5.25911">
        <ele>84.199996948242</ele>
        <time>2019-06-20T12:38:53.000Z</time>
      </trkpt>
      <trkpt lat="50.48752" lon="5.25882">
        <ele>83.400001525879</ele>
        <time>2019-06-20T12:38:59.000Z</time>
      </trkpt>
      <trkpt lat="50.48812" lon="5.25862">
        <ele>83</ele>
        <time>2019-06-20T12:39:02.000Z</time>
      </trkpt>
      <trkpt lat="50.48864" lon="5.25851">
        <ele>82.800003051758</ele>
        <time>2019-06-20T12:39:09.000Z</time>
      </trkpt>
      <trkpt lat="50.48896" lon="5.25843">
        <ele>82</ele>
        <time>2019-06-20T12:39:14.000Z</time>
      </trkpt>
      <trkpt lat="50.48949" lon="5.25834">
        <ele>81.599998474121</ele>
        <time>2019-06-20T12:39:19.000Z</time>
      </trkpt>
      <trkpt lat="50.49012" lon="5.25825">
        <ele>81.199996948242</ele>
        <time>2019-06-20T12:39:24.000Z</time>
      </trkpt>
      <trkpt lat="50.49063" lon="5.25818">
        <ele>81</ele>
        <time>2019-06-20T12:39:28.000Z</time>
      </trkpt>
      <trkpt lat="50.49093" lon="5.25812">
        <ele>81</ele>
        <time>2019-06-20T12:39:30.000Z</time>
      </trkpt>
      <trkpt lat="50.49112" lon="5.25804">
        <ele>80.800003051758</ele>
        <time>2019-06-20T12:39:35.000Z</time>
      </trkpt>
      <trkpt lat="50.49121" lon="5.25798">
        <ele>80.800003051758</ele>
        <time>2019-06-20T12:39:38.000Z</time>
      </trkpt>
      <trkpt lat="50.49163" lon="5.2577">
        <ele>80.800003051758</ele>
        <time>2019-06-20T12:39:42.000Z</time>
      </trkpt>
      <trkpt lat="50.49206" lon="5.25736">
        <ele>80.599998474121</ele>
        <time>2019-06-20T12:39:51.000Z</time>
      </trkpt>
      <trkpt lat="50.49221" lon="5.25715">
        <ele>80.400001525879</ele>
        <time>2019-06-20T12:39:54.000Z</time>
      </trkpt>
      <trkpt lat="50.49234" lon="5.25667">
        <ele>80</ele>
        <time>2019-06-20T12:40:02.000Z</time>
      </trkpt>
      <trkpt lat="50.49236" lon="5.25625">
        <ele>79.800003051758</ele>
        <time>2019-06-20T12:40:06.000Z</time>
      </trkpt>
      <trkpt lat="50.49237" lon="5.25608">
        <ele>79.400001525879</ele>
        <time>2019-06-20T12:40:10.000Z</time>
      </trkpt>
      <trkpt lat="50.49247" lon="5.2554">
        <ele>78.599998474121</ele>
        <time>2019-06-20T12:40:19.000Z</time>
      </trkpt>
      <trkpt lat="50.49265" lon="5.25455">
        <ele>77.199996948242</ele>
        <time>2019-06-20T12:40:20.000Z</time>
      </trkpt>
      <trkpt lat="50.49268" lon="5.25437">
        <ele>77</ele>
        <time>2019-06-20T12:40:24.000Z</time>
      </trkpt>
      <trkpt lat="50.49273" lon="5.25401">
        <ele>76.400001525879</ele>
        <time>2019-06-20T12:40:27.000Z</time>
      </trkpt>
      <trkpt lat="50.49273" lon="5.25383">
        <ele>75.800003051758</ele>
        <time>2019-06-20T12:40:29.000Z</time>
      </trkpt>
      <trkpt lat="50.49269" lon="5.25332">
        <ele>74.800003051758</ele>
        <time>2019-06-20T12:40:35.000Z</time>
      </trkpt>
      <trkpt lat="50.49267" lon="5.25299">
        <ele>74.400001525879</ele>
        <time>2019-06-20T12:40:43.000Z</time>
      </trkpt>
      <trkpt lat="50.49262" lon="5.25208">
        <ele>74.199996948242</ele>
        <time>2019-06-20T12:40:52.000Z</time>
      </trkpt>
      <trkpt lat="50.49261" lon="5.25194">
        <ele>74.199996948242</ele>
        <time>2019-06-20T12:40:57.000Z</time>
      </trkpt>
      <trkpt lat="50.49254" lon="5.25167">
        <ele>74.199996948242</ele>
        <time>2019-06-20T12:41:01.000Z</time>
      </trkpt>
      <trkpt lat="50.49245" lon="5.25141">
        <ele>74.599998474121</ele>
        <time>2019-06-20T12:41:06.000Z</time>
      </trkpt>
      <trkpt lat="50.4923" lon="5.25104">
        <ele>75</ele>
        <time>2019-06-20T12:41:09.000Z</time>
      </trkpt>
      <trkpt lat="50.49214" lon="5.25066">
        <ele>75.400001525879</ele>
        <time>2019-06-20T12:41:11.000Z</time>
      </trkpt>
      <trkpt lat="50.49203" lon="5.25041">
        <ele>75.800003051758</ele>
        <time>2019-06-20T12:41:12.000Z</time>
      </trkpt>
      <trkpt lat="50.49193" lon="5.25016">
        <ele>76.199996948242</ele>
        <time>2019-06-20T12:41:15.000Z</time>
      </trkpt>
      <trkpt lat="50.49172" lon="5.24968">
        <ele>76.800003051758</ele>
        <time>2019-06-20T12:41:17.000Z</time>
      </trkpt>
      <trkpt lat="50.49161" lon="5.24943">
        <ele>77.199996948242</ele>
        <time>2019-06-20T12:41:20.000Z</time>
      </trkpt>
      <trkpt lat="50.49142" lon="5.24885">
        <ele>77.800003051758</ele>
        <time>2019-06-20T12:41:25.000Z</time>
      </trkpt>
      <trkpt lat="50.49131" lon="5.24828">
        <ele>78.400001525879</ele>
        <time>2019-06-20T12:41:26.000Z</time>
      </trkpt>
      <trkpt lat="50.49129" lon="5.24805">
        <ele>78.800003051758</ele>
        <time>2019-06-20T12:41:29.000Z</time>
      </trkpt>
      <trkpt lat="50.49129" lon="5.24766">
        <ele>79.400001525879</ele>
        <time>2019-06-20T12:41:31.000Z</time>
      </trkpt>
      <trkpt lat="50.49132" lon="5.24743">
        <ele>79.400001525879</ele>
        <time>2019-06-20T12:41:32.000Z</time>
      </trkpt>
      <trkpt lat="50.49136" lon="5.24714">
        <ele>79.400001525879</ele>
        <time>2019-06-20T12:41:36.000Z</time>
      </trkpt>
      <trkpt lat="50.49147" lon="5.24616">
        <ele>79.199996948242</ele>
        <time>2019-06-20T12:41:39.000Z</time>
      </trkpt>
      <trkpt lat="50.49151" lon="5.24521">
        <ele>77.400001525879</ele>
        <time>2019-06-20T12:41:46.000Z</time>
      </trkpt>
      <trkpt lat="50.49151" lon="5.24506">
        <ele>77.199996948242</ele>
        <time>2019-06-20T12:41:48.000Z</time>
      </trkpt>
      <trkpt lat="50.49149" lon="5.24447">
        <ele>76.800003051758</ele>
        <time>2019-06-20T12:41:51.000Z</time>
      </trkpt>
      <trkpt lat="50.49146" lon="5.2442">
        <ele>76</ele>
        <time>2019-06-20T12:41:54.000Z</time>
      </trkpt>
      <trkpt lat="50.49129" lon="5.24326">
        <ele>75.199996948242</ele>
        <time>2019-06-20T12:42:00.000Z</time>
      </trkpt>
      <trkpt lat="50.49114" lon="5.2425">
        <ele>75</ele>
        <time>2019-06-20T12:42:02.000Z</time>
      </trkpt>
      <trkpt lat="50.49111" lon="5.24237">
        <ele>75</ele>
        <time>2019-06-20T12:42:11.000Z</time>
      </trkpt>
      <trkpt lat="50.49099" lon="5.24171">
        <ele>74.400001525879</ele>
        <time>2019-06-20T12:42:17.000Z</time>
      </trkpt>
      <trkpt lat="50.49093" lon="5.2413">
        <ele>74</ele>
        <time>2019-06-20T12:42:21.000Z</time>
      </trkpt>
      <trkpt lat="50.49092" lon="5.24116">
        <ele>74</ele>
        <time>2019-06-20T12:42:24.000Z</time>
      </trkpt>
      <trkpt lat="50.49088" lon="5.24059">
        <ele>73.199996948242</ele>
        <time>2019-06-20T12:42:33.000Z</time>
      </trkpt>
      <trkpt lat="50.49086" lon="5.24017">
        <ele>72.800003051758</ele>
        <time>2019-06-20T12:42:34.000Z</time>
      </trkpt>
      <trkpt lat="50.49084" lon="5.23974">
        <ele>72.400001525879</ele>
        <time>2019-06-20T12:42:36.000Z</time>
      </trkpt>
      <trkpt lat="50.49081" lon="5.23904">
        <ele>71.599998474121</ele>
        <time>2019-06-20T12:42:43.000Z</time>
      </trkpt>
      <trkpt lat="50.4908" lon="5.2389">
        <ele>71.599998474121</ele>
        <time>2019-06-20T12:42:47.000Z</time>
      </trkpt>
      <trkpt lat="50.49076" lon="5.23802">
        <ele>70.599998474121</ele>
        <time>2019-06-20T12:42:51.000Z</time>
      </trkpt>
      <trkpt lat="50.49074" lon="5.23758">
        <ele>70.199996948242</ele>
        <time>2019-06-20T12:42:52.000Z</time>
      </trkpt>
      <trkpt lat="50.49077" lon="5.23714">
        <ele>69.599998474121</ele>
        <time>2019-06-20T12:42:57.000Z</time>
      </trkpt>
      <trkpt lat="50.4908" lon="5.23702">
        <ele>69.599998474121</ele>
        <time>2019-06-20T12:43:02.000Z</time>
      </trkpt>
      <trkpt lat="50.49088" lon="5.23678">
        <ele>69.400001525879</ele>
        <time>2019-06-20T12:43:05.000Z</time>
      </trkpt>
      <trkpt lat="50.49104" lon="5.2365">
        <ele>69.400001525879</ele>
        <time>2019-06-20T12:43:06.000Z</time>
      </trkpt>
      <trkpt lat="50.49109" lon="5.23642">
        <ele>69.400001525879</ele>
        <time>2019-06-20T12:43:15.000Z</time>
      </trkpt>
      <trkpt lat="50.49131" lon="5.23615">
        <ele>69.599998474121</ele>
        <time>2019-06-20T12:43:19.000Z</time>
      </trkpt>
      <trkpt lat="50.49136" lon="5.23609">
        <ele>69.800003051758</ele>
        <time>2019-06-20T12:43:23.000Z</time>
      </trkpt>
      <trkpt lat="50.49166" lon="5.23572">
        <ele>70</ele>
        <time>2019-06-20T12:43:30.000Z</time>
      </trkpt>
      <trkpt lat="50.49193" lon="5.23531">
        <ele>70</ele>
        <time>2019-06-20T12:43:31.000Z</time>
      </trkpt>
      <trkpt lat="50.492" lon="5.23519">
        <ele>70</ele>
        <time>2019-06-20T12:43:33.000Z</time>
      </trkpt>
      <trkpt lat="50.49208" lon="5.23508">
        <ele>69.800003051758</ele>
        <time>2019-06-20T12:43:37.000Z</time>
      </trkpt>
      <trkpt lat="50.49236" lon="5.23479">
        <ele>69</ele>
        <time>2019-06-20T12:43:42.000Z</time>
      </trkpt>
      <trkpt lat="50.49246" lon="5.23471">
        <ele>68.400001525879</ele>
        <time>2019-06-20T12:43:45.000Z</time>
      </trkpt>
      <trkpt lat="50.49267" lon="5.23458">
        <ele>67.199996948242</ele>
        <time>2019-06-20T12:43:47.000Z</time>
      </trkpt>
      <trkpt lat="50.49277" lon="5.23452">
        <ele>65.199996948242</ele>
        <time>2019-06-20T12:43:49.000Z</time>
      </trkpt>
      <trkpt lat="50.49306" lon="5.23434">
        <ele>63.599998474121</ele>
        <time>2019-06-20T12:43:52.000Z</time>
      </trkpt>
      <trkpt lat="50.49325" lon="5.23424">
        <ele>62.599998474121</ele>
        <time>2019-06-20T12:43:53.000Z</time>
      </trkpt>
      <trkpt lat="50.49334" lon="5.2342">
        <ele>62</ele>
        <time>2019-06-20T12:44:01.000Z</time>
      </trkpt>
      <trkpt lat="50.49353" lon="5.23414">
        <ele>61.400001525879</ele>
        <time>2019-06-20T12:44:07.000Z</time>
      </trkpt>
      <trkpt lat="50.4938" lon="5.23411">
        <ele>61</ele>
        <time>2019-06-20T12:44:09.000Z</time>
      </trkpt>
      <trkpt lat="50.49409" lon="5.23414">
        <ele>60.799999237061</ele>
        <time>2019-06-20T12:44:17.000Z</time>
      </trkpt>
      <trkpt lat="50.49428" lon="5.23418">
        <ele>60.599998474121</ele>
        <time>2019-06-20T12:44:24.000Z</time>
      </trkpt>
      <trkpt lat="50.49485" lon="5.2343">
        <ele>60.400001525879</ele>
        <time>2019-06-20T12:44:31.000Z</time>
      </trkpt>
      <trkpt lat="50.49494" lon="5.23433">
        <ele>60.200000762939</ele>
        <time>2019-06-20T12:44:32.000Z</time>
      </trkpt>
      <trkpt lat="50.49503" lon="5.23438">
        <ele>60</ele>
        <time>2019-06-20T12:44:37.000Z</time>
      </trkpt>
      <trkpt lat="50.49526" lon="5.23461">
        <ele>59.799999237061</ele>
        <time>2019-06-20T12:44:38.000Z</time>
      </trkpt>
      <trkpt lat="50.49539" lon="5.2348">
        <ele>59.599998474121</ele>
        <time>2019-06-20T12:44:45.000Z</time>
      </trkpt>
      <trkpt lat="50.49559" lon="5.23509">
        <ele>59.599998474121</ele>
        <time>2019-06-20T12:44:47.000Z</time>
      </trkpt>
      <trkpt lat="50.49599" lon="5.23565">
        <ele>59</ele>
        <time>2019-06-20T12:44:51.000Z</time>
      </trkpt>
      <trkpt lat="50.49618" lon="5.23595">
        <ele>59</ele>
        <time>2019-06-20T12:44:56.000Z</time>
      </trkpt>
      <trkpt lat="50.49638" lon="5.23641">
        <ele>58.799999237061</ele>
        <time>2019-06-20T12:45:03.000Z</time>
      </trkpt>
      <trkpt lat="50.49641" lon="5.23654">
        <ele>58.599998474121</ele>
        <time>2019-06-20T12:45:09.000Z</time>
      </trkpt>
      <trkpt lat="50.49648" lon="5.23695">
        <ele>58.599998474121</ele>
        <time>2019-06-20T12:45:16.000Z</time>
      </trkpt>
      <trkpt lat="50.49652" lon="5.23751">
        <ele>58.400001525879</ele>
        <time>2019-06-20T12:45:17.000Z</time>
      </trkpt>
      <trkpt lat="50.49652" lon="5.23765">
        <ele>58.400001525879</ele>
        <time>2019-06-20T12:45:22.000Z</time>
      </trkpt>
      <trkpt lat="50.49648" lon="5.23821">
        <ele>58</ele>
        <time>2019-06-20T12:45:26.000Z</time>
      </trkpt>
      <trkpt lat="50.49646" lon="5.23848">
        <ele>57.799999237061</ele>
        <time>2019-06-20T12:45:33.000Z</time>
      </trkpt>
      <trkpt lat="50.4964" lon="5.2393">
        <ele>57</ele>
        <time>2019-06-20T12:45:35.000Z</time>
      </trkpt>
      <trkpt lat="50.4964" lon="5.23943">
        <ele>57</ele>
        <time>2019-06-20T12:45:39.000Z</time>
      </trkpt>
      <trkpt lat="50.49641" lon="5.23956">
        <ele>56.799999237061</ele>
        <time>2019-06-20T12:45:43.000Z</time>
      </trkpt>
      <trkpt lat="50.49649" lon="5.2401">
        <ele>56.799999237061</ele>
        <time>2019-06-20T12:45:45.000Z</time>
      </trkpt>
      <trkpt lat="50.49668" lon="5.24076">
        <ele>56.599998474121</ele>
        <time>2019-06-20T12:45:50.000Z</time>
      </trkpt>
      <trkpt lat="50.49698" lon="5.24136">
        <ele>56</ele>
        <time>2019-06-20T12:45:52.000Z</time>
      </trkpt>
      <trkpt lat="50.49738" lon="5.24181">
        <ele>55.799999237061</ele>
        <time>2019-06-20T12:45:56.000Z</time>
      </trkpt>
      <trkpt lat="50.49746" lon="5.24187">
        <ele>55.599998474121</ele>
        <time>2019-06-20T12:45:57.000Z</time>
      </trkpt>
      <trkpt lat="50.49765" lon="5.24194">
        <ele>55.599998474121</ele>
        <time>2019-06-20T12:46:06.000Z</time>
      </trkpt>
      <trkpt lat="50.49806" lon="5.24194">
        <ele>55.599998474121</ele>
        <time>2019-06-20T12:46:07.000Z</time>
      </trkpt>
      <trkpt lat="50.49831" lon="5.24173">
        <ele>55.599998474121</ele>
        <time>2019-06-20T12:46:09.000Z</time>
      </trkpt>
      <trkpt lat="50.49852" lon="5.24148">
        <ele>55.400001525879</ele>
        <time>2019-06-20T12:46:18.000Z</time>
      </trkpt>
      <trkpt lat="50.49858" lon="5.24138">
        <ele>55.400001525879</ele>
        <time>2019-06-20T12:46:19.000Z</time>
      </trkpt>
      <trkpt lat="50.49883" lon="5.24102">
        <ele>55.400001525879</ele>
        <time>2019-06-20T12:46:20.000Z</time>
      </trkpt>
      <trkpt lat="50.49902" lon="5.24077">
        <ele>55.599998474121</ele>
        <time>2019-06-20T12:46:27.000Z</time>
      </trkpt>
      <trkpt lat="50.49949" lon="5.24027">
        <ele>55.400001525879</ele>
        <time>2019-06-20T12:46:28.000Z</time>
      </trkpt>
      <trkpt lat="50.49998" lon="5.23977">
        <ele>55</ele>
        <time>2019-06-20T12:46:34.000Z</time>
      </trkpt>
      <trkpt lat="50.50005" lon="5.2397">
        <ele>55</ele>
        <time>2019-06-20T12:46:39.000Z</time>
      </trkpt>
      <trkpt lat="50.5004" lon="5.23931">
        <ele>54.599998474121</ele>
        <time>2019-06-20T12:46:43.000Z</time>
      </trkpt>
      <trkpt lat="50.50054" lon="5.23916">
        <ele>54.400001525879</ele>
        <time>2019-06-20T12:46:44.000Z</time>
      </trkpt>
      <trkpt lat="50.50088" lon="5.23883">
        <ele>54.200000762939</ele>
        <time>2019-06-20T12:46:52.000Z</time>
      </trkpt>
      <trkpt lat="50.50112" lon="5.23856">
        <ele>53.599998474121</ele>
        <time>2019-06-20T12:46:53.000Z</time>
      </trkpt>
      <trkpt lat="50.50125" lon="5.23843">
        <ele>53.599998474121</ele>
        <time>2019-06-20T12:47:00.000Z</time>
      </trkpt>
      <trkpt lat="50.50142" lon="5.23824">
        <ele>53.400001525879</ele>
        <time>2019-06-20T12:47:03.000Z</time>
      </trkpt>
      <trkpt lat="50.5016" lon="5.23802">
        <ele>53.400001525879</ele>
        <time>2019-06-20T12:47:05.000Z</time>
      </trkpt>
      <trkpt lat="50.50193" lon="5.23762">
        <ele>53.200000762939</ele>
        <time>2019-06-20T12:47:11.000Z</time>
      </trkpt>
      <trkpt lat="50.50239" lon="5.23723">
        <ele>52.799999237061</ele>
        <time>2019-06-20T12:47:12.000Z</time>
      </trkpt>
      <trkpt lat="50.50257" lon="5.23713">
        <ele>52.599998474121</ele>
        <time>2019-06-20T12:47:18.000Z</time>
      </trkpt>
      <trkpt lat="50.503" lon="5.23688">
        <ele>52</ele>
        <time>2019-06-20T12:47:21.000Z</time>
      </trkpt>
      <trkpt lat="50.50333" lon="5.23668">
        <ele>51.599998474121</ele>
        <time>2019-06-20T12:47:24.000Z</time>
      </trkpt>
      <trkpt lat="50.50382" lon="5.23638">
        <ele>51.400001525879</ele>
        <time>2019-06-20T12:47:30.000Z</time>
      </trkpt>
      <trkpt lat="50.5043" lon="5.23611">
        <ele>50.599998474121</ele>
        <time>2019-06-20T12:47:33.000Z</time>
      </trkpt>
      <trkpt lat="50.50437" lon="5.23606">
        <ele>50.599998474121</ele>
        <time>2019-06-20T12:47:36.000Z</time>
      </trkpt>
      <trkpt lat="50.50476" lon="5.23577">
        <ele>49.799999237061</ele>
        <time>2019-06-20T12:47:39.000Z</time>
      </trkpt>
      <trkpt lat="50.50494" lon="5.23562">
        <ele>49.599998474121</ele>
        <time>2019-06-20T12:47:41.000Z</time>
      </trkpt>
      <trkpt lat="50.50497" lon="5.23559">
        <ele>49.599998474121</ele>
        <time>2019-06-20T12:47:44.000Z</time>
      </trkpt>
      <trkpt lat="50.50499" lon="5.23556">
        <ele>49.400001525879</ele>
        <time>2019-06-20T12:47:47.000Z</time>
      </trkpt>
      <trkpt lat="50.50503" lon="5.23553">
        <ele>46.799999237061</ele>
        <time>2019-06-20T12:47:50.000Z</time>
      </trkpt>
      <trkpt lat="50.50509" lon="5.23548">
        <ele>46.200000762939</ele>
        <time>2019-06-20T12:47:53.000Z</time>
      </trkpt>
      <trkpt lat="50.50523" lon="5.23534">
        <ele>45.599998474121</ele>
        <time>2019-06-20T12:47:55.000Z</time>
      </trkpt>
      <trkpt lat="50.50544" lon="5.23514">
        <ele>45</ele>
        <time>2019-06-20T12:47:58.000Z</time>
      </trkpt>
      <trkpt lat="50.50564" lon="5.235">
        <ele>44.599998474121</ele>
        <time>2019-06-20T12:48:01.000Z</time>
      </trkpt>
      <trkpt lat="50.50578" lon="5.23493">
        <ele>44.200000762939</ele>
        <time>2019-06-20T12:48:03.000Z</time>
      </trkpt>
      <trkpt lat="50.50622" lon="5.23483">
        <ele>43.599998474121</ele>
        <time>2019-06-20T12:48:09.000Z</time>
      </trkpt>
      <trkpt lat="50.50636" lon="5.23482">
        <ele>43.599998474121</ele>
        <time>2019-06-20T12:48:10.000Z</time>
      </trkpt>
      <trkpt lat="50.50666" lon="5.23476">
        <ele>42.400001525879</ele>
        <time>2019-06-20T12:48:14.000Z</time>
      </trkpt>
      <trkpt lat="50.50682" lon="5.23471">
        <ele>42</ele>
        <time>2019-06-20T12:48:15.000Z</time>
      </trkpt>
      <trkpt lat="50.5072" lon="5.23454">
        <ele>41.799999237061</ele>
        <time>2019-06-20T12:48:17.000Z</time>
      </trkpt>
      <trkpt lat="50.50742" lon="5.23442">
        <ele>41.799999237061</ele>
        <time>2019-06-20T12:48:21.000Z</time>
      </trkpt>
      <trkpt lat="50.50778" lon="5.23422">
        <ele>42.200000762939</ele>
        <time>2019-06-20T12:48:22.000Z</time>
      </trkpt>
      <trkpt lat="50.50805" lon="5.2341">
        <ele>42.400001525879</ele>
        <time>2019-06-20T12:48:25.000Z</time>
      </trkpt>
      <trkpt lat="50.50812" lon="5.23408">
        <ele>42.400001525879</ele>
        <time>2019-06-20T12:48:27.000Z</time>
      </trkpt>
      <trkpt lat="50.50832" lon="5.23413">
        <ele>42.599998474121</ele>
        <time>2019-06-20T12:48:31.000Z</time>
      </trkpt>
      <trkpt lat="50.5085" lon="5.23428">
        <ele>42.599998474121</ele>
        <time>2019-06-20T12:48:34.000Z</time>
      </trkpt>
      <trkpt lat="50.50856" lon="5.23433">
        <ele>42.799999237061</ele>
        <time>2019-06-20T12:48:36.000Z</time>
      </trkpt>
      <trkpt lat="50.5089" lon="5.23467">
        <ele>42.799999237061</ele>
        <time>2019-06-20T12:48:41.000Z</time>
      </trkpt>
      <trkpt lat="50.5092" lon="5.23506">
        <ele>42.799999237061</ele>
        <time>2019-06-20T12:48:47.000Z</time>
      </trkpt>
      <trkpt lat="50.50934" lon="5.23553">
        <ele>42.599998474121</ele>
        <time>2019-06-20T12:48:53.000Z</time>
      </trkpt>
      <trkpt lat="50.50936" lon="5.23596">
        <ele>42.200000762939</ele>
        <time>2019-06-20T12:48:59.000Z</time>
      </trkpt>
      <trkpt lat="50.50934" lon="5.23625">
        <ele>42</ele>
        <time>2019-06-20T12:49:01.000Z</time>
      </trkpt>
      <trkpt lat="50.50927" lon="5.23681">
        <ele>41.599998474121</ele>
        <time>2019-06-20T12:49:04.000Z</time>
      </trkpt>
      <trkpt lat="50.50922" lon="5.23722">
        <ele>41</ele>
        <time>2019-06-20T12:49:10.000Z</time>
      </trkpt>
      <trkpt lat="50.50914" lon="5.23795">
        <ele>40.599998474121</ele>
        <time>2019-06-20T12:49:14.000Z</time>
      </trkpt>
      <trkpt lat="50.5091" lon="5.23854">
        <ele>40.200000762939</ele>
        <time>2019-06-20T12:49:15.000Z</time>
      </trkpt>
      <trkpt lat="50.50908" lon="5.23896">
        <ele>40</ele>
        <time>2019-06-20T12:49:22.000Z</time>
      </trkpt>
      <trkpt lat="50.50908" lon="5.23908">
        <ele>40</ele>
        <time>2019-06-20T12:49:26.000Z</time>
      </trkpt>
      <trkpt lat="50.50914" lon="5.2393">
        <ele>39.799999237061</ele>
        <time>2019-06-20T12:49:28.000Z</time>
      </trkpt>
      <trkpt lat="50.50931" lon="5.23949">
        <ele>39.799999237061</ele>
        <time>2019-06-20T12:49:32.000Z</time>
      </trkpt>
      <trkpt lat="50.50954" lon="5.23945">
        <ele>39.599998474121</ele>
        <time>2019-06-20T12:49:34.000Z</time>
      </trkpt>
      <trkpt lat="50.50991" lon="5.23937">
        <ele>39</ele>
        <time>2019-06-20T12:49:40.000Z</time>
      </trkpt>
      <trkpt lat="50.50999" lon="5.23935">
        <ele>39</ele>
        <time>2019-06-20T12:49:42.000Z</time>
      </trkpt>
      <trkpt lat="50.51041" lon="5.23927">
        <ele>38.400001525879</ele>
        <time>2019-06-20T12:49:44.000Z</time>
      </trkpt>
      <trkpt lat="50.51096" lon="5.23934">
        <ele>38</ele>
        <time>2019-06-20T12:49:47.000Z</time>
      </trkpt>
      <trkpt lat="50.5113" lon="5.23942">
        <ele>38</ele>
        <time>2019-06-20T12:49:48.000Z</time>
      </trkpt>
      <trkpt lat="50.51154" lon="5.23948">
        <ele>37.599998474121</ele>
        <time>2019-06-20T12:49:52.000Z</time>
      </trkpt>
      <trkpt lat="50.51196" lon="5.23943">
        <ele>37.400001525879</ele>
        <time>2019-06-20T12:49:59.000Z</time>
      </trkpt>
      <trkpt lat="50.51227" lon="5.2394">
        <ele>37</ele>
        <time>2019-06-20T12:50:07.000Z</time>
      </trkpt>
      <trkpt lat="50.51242" lon="5.23937">
        <ele>36.799999237061</ele>
        <time>2019-06-20T12:50:11.000Z</time>
      </trkpt>
      <trkpt lat="50.51277" lon="5.23925">
        <ele>36.200000762939</ele>
        <time>2019-06-20T12:50:15.000Z</time>
      </trkpt>
      <trkpt lat="50.51291" lon="5.23921">
        <ele>36.200000762939</ele>
        <time>2019-06-20T12:50:18.000Z</time>
      </trkpt>
      <trkpt lat="50.51295" lon="5.2392">
        <ele>36.200000762939</ele>
        <time>2019-06-20T12:50:23.000Z</time>
      </trkpt>
      <trkpt lat="50.51301" lon="5.23917">
        <ele>36</ele>
        <time>2019-06-20T12:50:28.000Z</time>
      </trkpt>
      <trkpt lat="50.51305" lon="5.23916">
        <ele>35</ele>
        <time>2019-06-20T12:50:31.000Z</time>
      </trkpt>
      <trkpt lat="50.51311" lon="5.23916">
        <ele>34.799999237061</ele>
        <time>2019-06-20T12:50:32.000Z</time>
      </trkpt>
      <trkpt lat="50.51322" lon="5.23915">
        <ele>34.400001525879</ele>
        <time>2019-06-20T12:50:38.000Z</time>
      </trkpt>
      <trkpt lat="50.51326" lon="5.23914">
        <ele>34.400001525879</ele>
        <time>2019-06-20T12:50:45.000Z</time>
      </trkpt>
      <trkpt lat="50.51343" lon="5.23909">
        <ele>34</ele>
        <time>2019-06-20T12:50:47.000Z</time>
      </trkpt>
      <trkpt lat="50.51355" lon="5.23906">
        <ele>33.799999237061</ele>
        <time>2019-06-20T12:50:54.000Z</time>
      </trkpt>
      <trkpt lat="50.5138" lon="5.23897">
        <ele>33.200000762939</ele>
        <time>2019-06-20T12:50:55.000Z</time>
      </trkpt>
      <trkpt lat="50.51394" lon="5.23893">
        <ele>33</ele>
        <time>2019-06-20T12:51:03.000Z</time>
      </trkpt>
      <trkpt lat="50.51437" lon="5.23886">
        <ele>32.400001525879</ele>
        <time>2019-06-20T12:51:04.000Z</time>
      </trkpt>
      <trkpt lat="50.51474" lon="5.23888">
        <ele>32</ele>
        <time>2019-06-20T12:51:05.000Z</time>
      </trkpt>
      <trkpt lat="50.51489" lon="5.2389">
        <ele>31.799999237061</ele>
        <time>2019-06-20T12:51:09.000Z</time>
      </trkpt>
      <trkpt lat="50.51524" lon="5.23895">
        <ele>31.60000038147</ele>
        <time>2019-06-20T12:51:13.000Z</time>
      </trkpt>
      <trkpt lat="50.51531" lon="5.23898">
        <ele>31.60000038147</ele>
        <time>2019-06-20T12:51:19.000Z</time>
      </trkpt>
      <trkpt lat="50.51548" lon="5.23913">
        <ele>31.39999961853</ele>
        <time>2019-06-20T12:51:25.000Z</time>
      </trkpt>
      <trkpt lat="50.51561" lon="5.23924">
        <ele>31.200000762939</ele>
        <time>2019-06-20T12:51:26.000Z</time>
      </trkpt>
      <trkpt lat="50.51567" lon="5.2393">
        <ele>31</ele>
        <time>2019-06-20T12:51:31.000Z</time>
      </trkpt>
      <trkpt lat="50.51599" lon="5.2396">
        <ele>30.60000038147</ele>
        <time>2019-06-20T12:51:36.000Z</time>
      </trkpt>
      <trkpt lat="50.51606" lon="5.23966">
        <ele>30.60000038147</ele>
        <time>2019-06-20T12:51:37.000Z</time>
      </trkpt>
      <trkpt lat="50.51627" lon="5.23997">
        <ele>30.200000762939</ele>
        <time>2019-06-20T12:51:39.000Z</time>
      </trkpt>
      <trkpt lat="50.51637" lon="5.24013">
        <ele>30</ele>
        <time>2019-06-20T12:51:42.000Z</time>
      </trkpt>
      <trkpt lat="50.51641" lon="5.24021">
        <ele>29.799999237061</ele>
        <time>2019-06-20T12:51:49.000Z</time>
      </trkpt>
      <trkpt lat="50.51648" lon="5.24037">
        <ele>29.60000038147</ele>
        <time>2019-06-20T12:51:55.000Z</time>
      </trkpt>
      <trkpt lat="50.51664" lon="5.24047">
        <ele>29.200000762939</ele>
        <time>2019-06-20T12:51:56.000Z</time>
      </trkpt>
      <trkpt lat="50.51669" lon="5.24049">
        <ele>29.200000762939</ele>
        <time>2019-06-20T12:52:00.000Z</time>
      </trkpt>
      <trkpt lat="50.51679" lon="5.24054">
        <ele>29</ele>
        <time>2019-06-20T12:52:05.000Z</time>
      </trkpt>
      <trkpt lat="50.51684" lon="5.24057">
        <ele>28.799999237061</ele>
        <time>2019-06-20T12:52:06.000Z</time>
      </trkpt>
      <trkpt lat="50.51693" lon="5.24074">
        <ele>28.39999961853</ele>
        <time>2019-06-20T12:52:11.000Z</time>
      </trkpt>
      <trkpt lat="50.51695" lon="5.24077">
        <ele>28.39999961853</ele>
        <time>2019-06-20T12:52:17.000Z</time>
      </trkpt>
      <trkpt lat="50.51704" lon="5.24081">
        <ele>28.200000762939</ele>
        <time>2019-06-20T12:52:24.000Z</time>
      </trkpt>
      <trkpt lat="50.51713" lon="5.24086">
        <ele>27.799999237061</ele>
        <time>2019-06-20T12:52:28.000Z</time>
      </trkpt>
      <trkpt lat="50.51715" lon="5.24086">
        <ele>27.799999237061</ele>
        <time>2019-06-20T12:52:30.000Z</time>
      </trkpt>
      <trkpt lat="50.51722" lon="5.24089">
        <ele>27.39999961853</ele>
        <time>2019-06-20T12:52:35.000Z</time>
      </trkpt>
      <trkpt lat="50.51731" lon="5.24086">
        <ele>27.200000762939</ele>
        <time>2019-06-20T12:52:41.000Z</time>
      </trkpt>
      <trkpt lat="50.51734" lon="5.24085">
        <ele>27.200000762939</ele>
        <time>2019-06-20T12:52:43.000Z</time>
      </trkpt>
      <trkpt lat="50.51753" lon="5.24074">
        <ele>26.799999237061</ele>
        <time>2019-06-20T12:52:46.000Z</time>
      </trkpt>
      <trkpt lat="50.51754" lon="5.24075">
        <ele>26.799999237061</ele>
        <time>2019-06-20T12:52:54.000Z</time>
      </trkpt>
      <trkpt lat="50.51762" lon="5.24084">
        <ele>26.799999237061</ele>
        <time>2019-06-20T12:52:57.000Z</time>
      </trkpt>
      <trkpt lat="50.51767" lon="5.24086">
        <ele>26.799999237061</ele>
        <time>2019-06-20T12:52:59.000Z</time>
      </trkpt>
      <trkpt lat="50.51791" lon="5.2408">
        <ele>26.39999961853</ele>
        <time>2019-06-20T12:53:03.000Z</time>
      </trkpt>
      <trkpt lat="50.51803" lon="5.2408">
        <ele>26.39999961853</ele>
        <time>2019-06-20T12:53:07.000Z</time>
      </trkpt>
      <trkpt lat="50.51805" lon="5.24082">
        <ele>26.200000762939</ele>
        <time>2019-06-20T12:53:08.000Z</time>
      </trkpt>
      <trkpt lat="50.51808" lon="5.24086">
        <ele>26</ele>
        <time>2019-06-20T12:53:14.000Z</time>
      </trkpt>
      <trkpt lat="50.51812" lon="5.24094">
        <ele>25.799999237061</ele>
        <time>2019-06-20T12:53:16.000Z</time>
      </trkpt>
      <trkpt lat="50.51814" lon="5.24096">
        <ele>25.60000038147</ele>
        <time>2019-06-20T12:53:23.000Z</time>
      </trkpt>
      <trkpt lat="50.51816" lon="5.24097">
        <ele>25.60000038147</ele>
        <time>2019-06-20T12:53:24.000Z</time>
      </trkpt>
      <trkpt lat="50.51819" lon="5.24098">
        <ele>25.200000762939</ele>
        <time>2019-06-20T12:53:32.000Z</time>
      </trkpt>
      <trkpt lat="50.51845" lon="5.23975">
        <ele>69.199996948242</ele>
        <time>2019-06-20T12:53:37.000Z</time>
      </trkpt>
      <trkpt lat="50.51845" lon="5.23974">
        <ele>69.199996948242</ele>
        <time>2019-06-20T12:53:40.000Z</time>
      </trkpt>
      <trkpt lat="50.51847" lon="5.23973">
        <ele>68.800003051758</ele>
        <time>2019-06-20T12:53:46.000Z</time>
      </trkpt>
      <trkpt lat="50.51859" lon="5.23969">
        <ele>67.400001525879</ele>
        <time>2019-06-20T12:53:48.000Z</time>
      </trkpt>
      <trkpt lat="50.51864" lon="5.23967">
        <ele>69.400001525879</ele>
        <time>2019-06-20T12:53:51.000Z</time>
      </trkpt>
      <trkpt lat="50.51878" lon="5.23957">
        <ele>69.599998474121</ele>
        <time>2019-06-20T12:53:58.000Z</time>
      </trkpt>
      <trkpt lat="50.51889" lon="5.23954">
        <ele>68.800003051758</ele>
        <time>2019-06-20T12:54:02.000Z</time>
      </trkpt>
      <trkpt lat="50.51894" lon="5.23952">
        <ele>68.199996948242</ele>
        <time>2019-06-20T12:54:04.000Z</time>
      </trkpt>
      <trkpt lat="50.51908" lon="5.23943">
        <ele>66.800003051758</ele>
        <time>2019-06-20T12:54:09.000Z</time>
      </trkpt>
      <trkpt lat="50.51917" lon="5.23936">
        <ele>66</ele>
        <time>2019-06-20T12:54:14.000Z</time>
      </trkpt>
      <trkpt lat="50.51921" lon="5.23931">
        <ele>65.599998474121</ele>
        <time>2019-06-20T12:54:17.000Z</time>
      </trkpt>
      <trkpt lat="50.51937" lon="5.23911">
        <ele>64.199996948242</ele>
        <time>2019-06-20T12:54:22.000Z</time>
      </trkpt>
      <trkpt lat="50.51941" lon="5.23903">
        <ele>63.400001525879</ele>
        <time>2019-06-20T12:54:24.000Z</time>
      </trkpt>
      <trkpt lat="50.51943" lon="5.23899">
        <ele>63.200000762939</ele>
        <time>2019-06-20T12:54:31.000Z</time>
      </trkpt>
      <trkpt lat="50.5195" lon="5.23886">
        <ele>62</ele>
        <time>2019-06-20T12:54:32.000Z</time>
      </trkpt>
      <trkpt lat="50.51952" lon="5.23883">
        <ele>61.799999237061</ele>
        <time>2019-06-20T12:54:40.000Z</time>
      </trkpt>
      <trkpt lat="50.51958" lon="5.23873">
        <ele>61</ele>
        <time>2019-06-20T12:54:48.000Z</time>
      </trkpt>
      <trkpt lat="50.51966" lon="5.23864">
        <ele>60.200000762939</ele>
        <time>2019-06-20T12:54:50.000Z</time>
      </trkpt>
      <trkpt lat="50.51969" lon="5.2386">
        <ele>60.200000762939</ele>
        <time>2019-06-20T12:54:52.000Z</time>
      </trkpt>
      <trkpt lat="50.51971" lon="5.23854">
        <ele>60</ele>
        <time>2019-06-20T12:54:55.000Z</time>
      </trkpt>
      <trkpt lat="50.51973" lon="5.23847">
        <ele>59.599998474121</ele>
        <time>2019-06-20T12:54:57.000Z</time>
      </trkpt>
      <trkpt lat="50.51976" lon="5.23835">
        <ele>59</ele>
        <time>2019-06-20T12:54:58.000Z</time>
      </trkpt>
      <trkpt lat="50.51978" lon="5.23829">
        <ele>58.799999237061</ele>
        <time>2019-06-20T12:55:01.000Z</time>
      </trkpt>
      <trkpt lat="50.51983" lon="5.23817">
        <ele>58.599998474121</ele>
        <time>2019-06-20T12:55:02.000Z</time>
      </trkpt>
      <trkpt lat="50.51992" lon="5.23796">
        <ele>57.799999237061</ele>
        <time>2019-06-20T12:55:08.000Z</time>
      </trkpt>
      <trkpt lat="50.52" lon="5.23777">
        <ele>57</ele>
        <time>2019-06-20T12:55:16.000Z</time>
      </trkpt>
      <trkpt lat="50.52001" lon="5.23772">
        <ele>56.599998474121</ele>
        <time>2019-06-20T12:55:19.000Z</time>
      </trkpt>
      <trkpt lat="50.52016" lon="5.23737">
        <ele>55.599998474121</ele>
        <time>2019-06-20T12:55:25.000Z</time>
      </trkpt>
      <trkpt lat="50.52021" lon="5.23725">
        <ele>55.400001525879</ele>
        <time>2019-06-20T12:55:33.000Z</time>
      </trkpt>
      <trkpt lat="50.52036" lon="5.23692">
        <ele>55</ele>
        <time>2019-06-20T12:55:41.000Z</time>
      </trkpt>
      <trkpt lat="50.52039" lon="5.23688">
        <ele>54.799999237061</ele>
        <time>2019-06-20T12:55:48.000Z</time>
      </trkpt>
      <trkpt lat="50.52054" lon="5.2369">
        <ele>54.599998474121</ele>
        <time>2019-06-20T12:55:49.000Z</time>
      </trkpt>
      <trkpt lat="50.52064" lon="5.23701">
        <ele>54.200000762939</ele>
        <time>2019-06-20T12:55:52.000Z</time>
      </trkpt>
      <trkpt lat="50.52082" lon="5.23718">
        <ele>54</ele>
        <time>2019-06-20T12:55:54.000Z</time>
      </trkpt>
      <trkpt lat="50.52119" lon="5.23745">
        <ele>52.799999237061</ele>
        <time>2019-06-20T12:55:55.000Z</time>
      </trkpt>
      <trkpt lat="50.52127" lon="5.2375">
        <ele>52.599998474121</ele>
        <time>2019-06-20T12:56:00.000Z</time>
      </trkpt>
      <trkpt lat="50.52151" lon="5.23764">
        <ele>52.200000762939</ele>
        <time>2019-06-20T12:56:03.000Z</time>
      </trkpt>
      <trkpt lat="50.52159" lon="5.23769">
        <ele>51.799999237061</ele>
        <time>2019-06-20T12:56:05.000Z</time>
      </trkpt>
      <trkpt lat="50.52174" lon="5.23777">
        <ele>51.200000762939</ele>
        <time>2019-06-20T12:56:09.000Z</time>
      </trkpt>
      <trkpt lat="50.52197" lon="5.23789">
        <ele>50.599998474121</ele>
        <time>2019-06-20T12:56:15.000Z</time>
      </trkpt>
      <trkpt lat="50.52233" lon="5.23805">
        <ele>50</ele>
        <time>2019-06-20T12:56:20.000Z</time>
      </trkpt>
      <trkpt lat="50.52283" lon="5.23827">
        <ele>49.400001525879</ele>
        <time>2019-06-20T12:56:21.000Z</time>
      </trkpt>
      <trkpt lat="50.52289" lon="5.2383">
        <ele>49.400001525879</ele>
        <time>2019-06-20T12:56:24.000Z</time>
      </trkpt>
      <trkpt lat="50.52295" lon="5.23833">
        <ele>49.400001525879</ele>
        <time>2019-06-20T12:56:27.000Z</time>
      </trkpt>
      <trkpt lat="50.52309" lon="5.23838">
        <ele>49.400001525879</ele>
        <time>2019-06-20T12:56:28.000Z</time>
      </trkpt>
      <trkpt lat="50.52315" lon="5.23841">
        <ele>49.400001525879</ele>
        <time>2019-06-20T12:56:29.000Z</time>
      </trkpt>
      <trkpt lat="50.52335" lon="5.2385">
        <ele>49</ele>
        <time>2019-06-20T12:56:31.000Z</time>
      </trkpt>
      <trkpt lat="50.52342" lon="5.23853">
        <ele>49</ele>
        <time>2019-06-20T12:56:32.000Z</time>
      </trkpt>
      <trkpt lat="50.52369" lon="5.23866">
        <ele>48.799999237061</ele>
        <time>2019-06-20T12:56:34.000Z</time>
      </trkpt>
      <trkpt lat="50.5239" lon="5.23876">
        <ele>48.799999237061</ele>
        <time>2019-06-20T12:56:38.000Z</time>
      </trkpt>
      <trkpt lat="50.52444" lon="5.23896">
        <ele>48.200000762939</ele>
        <time>2019-06-20T12:56:39.000Z</time>
      </trkpt>
      <trkpt lat="50.5249" lon="5.23916">
        <ele>48.200000762939</ele>
        <time>2019-06-20T12:56:40.000Z</time>
      </trkpt>
      <trkpt lat="50.52511" lon="5.23925">
        <ele>48.200000762939</ele>
        <time>2019-06-20T12:56:46.000Z</time>
      </trkpt>
      <trkpt lat="50.52545" lon="5.23942">
        <ele>47.599998474121</ele>
        <time>2019-06-20T12:56:49.000Z</time>
      </trkpt>
      <trkpt lat="50.52586" lon="5.23959">
        <ele>47.599998474121</ele>
        <time>2019-06-20T12:56:52.000Z</time>
      </trkpt>
      <trkpt lat="50.52617" lon="5.23973">
        <ele>47.400001525879</ele>
        <time>2019-06-20T12:58:42.000Z</time>
      </trkpt>
      <trkpt lat="50.52629" lon="5.23979">
        <ele>47.200000762939</ele>
        <time>2019-06-20T12:58:43.000Z</time>
      </trkpt>
      <trkpt lat="50.52654" lon="5.23991">
        <ele>47.400001525879</ele>
        <time>2019-06-20T12:58:45.000Z</time>
      </trkpt>
      <trkpt lat="50.52667" lon="5.23997">
        <ele>47.400001525879</ele>
        <time>2019-06-20T12:58:48.000Z</time>
      </trkpt>
      <trkpt lat="50.52716" lon="5.24022">
        <ele>47.200000762939</ele>
        <time>2019-06-20T12:58:54.000Z</time>
      </trkpt>
      <trkpt lat="50.52768" lon="5.24045">
        <ele>47</ele>
        <time>2019-06-20T12:58:57.000Z</time>
      </trkpt>
      <trkpt lat="50.52795" lon="5.24057">
        <ele>47</ele>
        <time>2019-06-20T12:58:59.000Z</time>
      </trkpt>
      <trkpt lat="50.5285" lon="5.24081">
        <ele>46.799999237061</ele>
        <time>2019-06-20T12:59:02.000Z</time>
      </trkpt>
      <trkpt lat="50.52857" lon="5.24084">
        <ele>46.799999237061</ele>
        <time>2019-06-20T12:59:03.000Z</time>
      </trkpt>
      <trkpt lat="50.52911" lon="5.2411">
        <ele>46.599998474121</ele>
        <time>2019-06-20T12:59:09.000Z</time>
      </trkpt>
      <trkpt lat="50.52931" lon="5.24119">
        <ele>46.400001525879</ele>
        <time>2019-06-20T12:59:14.000Z</time>
      </trkpt>
      <trkpt lat="50.52951" lon="5.24128">
        <ele>46.200000762939</ele>
        <time>2019-06-20T12:59:15.000Z</time>
      </trkpt>
      <trkpt lat="50.52997" lon="5.24151">
        <ele>45.799999237061</ele>
        <time>2019-06-20T12:59:19.000Z</time>
      </trkpt>
      <trkpt lat="50.53051" lon="5.24182">
        <ele>45.799999237061</ele>
        <time>2019-06-20T12:59:22.000Z</time>
      </trkpt>
      <trkpt lat="50.5309" lon="5.24209">
        <ele>48.599998474121</ele>
        <time>2019-06-20T12:59:23.000Z</time>
      </trkpt>
      <trkpt lat="50.53096" lon="5.24215">
        <ele>72.599998474121</ele>
        <time>2019-06-20T12:59:31.000Z</time>
      </trkpt>
      <trkpt lat="50.53102" lon="5.2422">
        <ele>79.400001525879</ele>
        <time>2019-06-20T12:59:32.000Z</time>
      </trkpt>
      <trkpt lat="50.53109" lon="5.24225">
        <ele>82.800003051758</ele>
        <time>2019-06-20T12:59:37.000Z</time>
      </trkpt>
      <trkpt lat="50.53115" lon="5.24231">
        <ele>84.800003051758</ele>
        <time>2019-06-20T12:59:41.000Z</time>
      </trkpt>
      <trkpt lat="50.53128" lon="5.24241">
        <ele>86.199996948242</ele>
        <time>2019-06-20T12:59:44.000Z</time>
      </trkpt>
      <trkpt lat="50.53134" lon="5.24247">
        <ele>86.400001525879</ele>
        <time>2019-06-20T12:59:48.000Z</time>
      </trkpt>
      <trkpt lat="50.53151" lon="5.24266">
        <ele>86.800003051758</ele>
        <time>2019-06-20T12:59:52.000Z</time>
      </trkpt>
      <trkpt lat="50.53197" lon="5.24322">
        <ele>86.800003051758</ele>
        <time>2019-06-20T12:59:56.000Z</time>
      </trkpt>
      <trkpt lat="50.53241" lon="5.24381">
        <ele>86.800003051758</ele>
        <time>2019-06-20T13:00:06.000Z</time>
      </trkpt>
      <trkpt lat="50.53283" lon="5.24445">
        <ele>86.800003051758</ele>
        <time>2019-06-20T13:00:13.000Z</time>
      </trkpt>
      <trkpt lat="50.53288" lon="5.24453">
        <ele>86.800003051758</ele>
        <time>2019-06-20T13:00:21.000Z</time>
      </trkpt>
      <trkpt lat="50.53326" lon="5.24524">
        <ele>86.800003051758</ele>
        <time>2019-06-20T13:00:22.000Z</time>
      </trkpt>
      <trkpt lat="50.53331" lon="5.24534">
        <ele>86.800003051758</ele>
        <time>2019-06-20T13:00:27.000Z</time>
      </trkpt>
      <trkpt lat="50.53363" lon="5.24609">
        <ele>86.800003051758</ele>
        <time>2019-06-20T13:00:29.000Z</time>
      </trkpt>
      <trkpt lat="50.53394" lon="5.24687">
        <ele>86.800003051758</ele>
        <time>2019-06-20T13:00:35.000Z</time>
      </trkpt>
      <trkpt lat="50.53416" lon="5.24749">
        <ele>86.800003051758</ele>
        <time>2019-06-20T13:00:38.000Z</time>
      </trkpt>
      <trkpt lat="50.53443" lon="5.24832">
        <ele>86.800003051758</ele>
        <time>2019-06-20T13:00:39.000Z</time>
      </trkpt>
      <trkpt lat="50.5345" lon="5.24852">
        <ele>86.800003051758</ele>
        <time>2019-06-20T13:00:41.000Z</time>
      </trkpt>
      <trkpt lat="50.53475" lon="5.24932">
        <ele>86.800003051758</ele>
        <time>2019-06-20T13:00:42.000Z</time>
      </trkpt>
      <trkpt lat="50.53478" lon="5.24942">
        <ele>86.800003051758</ele>
        <time>2019-06-20T13:02:07.000Z</time>
      </trkpt>
      <trkpt lat="50.535" lon="5.25025">
        <ele>86.800003051758</ele>
        <time>2019-06-20T13:02:12.000Z</time>
      </trkpt>
      <trkpt lat="50.53503" lon="5.25035">
        <ele>86.800003051758</ele>
        <time>2019-06-20T13:02:14.000Z</time>
      </trkpt>
      <trkpt lat="50.53525" lon="5.25115">
        <ele>86.800003051758</ele>
        <time>2019-06-20T13:03:12.000Z</time>
      </trkpt>
      <trkpt lat="50.53548" lon="5.25197">
        <ele>86.599998474121</ele>
        <time>2019-06-20T13:03:13.000Z</time>
      </trkpt>
      <trkpt lat="50.53571" lon="5.25278">
        <ele>86.800003051758</ele>
        <time>2019-06-20T13:03:18.000Z</time>
      </trkpt>
      <trkpt lat="50.53593" lon="5.25357">
        <ele>86.800003051758</ele>
        <time>2019-06-20T13:03:20.000Z</time>
      </trkpt>
      <trkpt lat="50.53596" lon="5.25367">
        <ele>86.800003051758</ele>
        <time>2019-06-20T13:03:23.000Z</time>
      </trkpt>
      <trkpt lat="50.53619" lon="5.25446">
        <ele>86.800003051758</ele>
        <time>2019-06-20T13:03:24.000Z</time>
      </trkpt>
      <trkpt lat="50.53622" lon="5.25456">
        <ele>86.800003051758</ele>
        <time>2019-06-20T13:03:25.000Z</time>
      </trkpt>
      <trkpt lat="50.53645" lon="5.25536">
        <ele>86.800003051758</ele>
        <time>2019-06-20T13:03:29.000Z</time>
      </trkpt>
      <trkpt lat="50.53666" lon="5.25616">
        <ele>86.800003051758</ele>
        <time>2019-06-20T13:03:37.000Z</time>
      </trkpt>
      <trkpt lat="50.5368" lon="5.25664">
        <ele>73.7</ele>
        <time>2019-06-20T13:03:47.000Z</time>
      </trkpt>
      <trkpt lat="50.537" lon="5.25767">
        <ele>71.9</ele>
        <time>2019-06-20T13:03:55.000Z</time>
      </trkpt>
      <trkpt lat="50.53713" lon="5.2583">
        <ele>71.4</ele>
        <time>2019-06-20T13:04:09.000Z</time>
      </trkpt>
      <trkpt lat="50.53723" lon="5.25877">
        <ele>69.6</ele>
        <time>2019-06-20T13:04:11.000Z</time>
      </trkpt>
      <trkpt lat="50.53739" lon="5.25955">
        <ele>68.8</ele>
      </trkpt>
      <trkpt lat="50.53752" lon="5.26026">
        <ele>77.7</ele>
      </trkpt>
      <trkpt lat="50.53764" lon="5.26088">
        <ele>75.3</ele>
      </trkpt>
      <trkpt lat="50.53773" lon="5.26172">
        <ele>76.8</ele>
      </trkpt>
      <trkpt lat="50.53774" lon="5.26249">
        <ele>77.1</ele>
      </trkpt>
      <trkpt lat="50.53773" lon="5.26295">
        <ele>81.2</ele>
      </trkpt>
      <trkpt lat="50.53752" lon="5.26439">
        <ele>84.4</ele>
      </trkpt>
      <trkpt lat="50.53747" lon="5.26515">
        <ele>75.4</ele>
      </trkpt>
      <trkpt lat="50.53746" lon="5.26544">
        <ele>71.8</ele>
      </trkpt>
      <trkpt lat="50.53748" lon="5.26607">
        <ele>66.7</ele>
      </trkpt>
      <trkpt lat="50.53748" lon="5.26647">
        <ele>66.6</ele>
      </trkpt>
      <trkpt lat="50.53751" lon="5.26706">
        <ele>86.599998474121</ele>
      </trkpt>
      <trkpt lat="50.53754" lon="5.26776">
        <ele>86.599998474121</ele>
      </trkpt>
      <trkpt lat="50.53757" lon="5.26872">
        <ele>86.400001525879</ele>
      </trkpt>
      <trkpt lat="50.53759" lon="5.26908">
        <ele>86.400001525879</ele>
      </trkpt>
      <trkpt lat="50.5376" lon="5.26982">
        <ele>86</ele>
      </trkpt>
      <trkpt lat="50.5376" lon="5.27006">
        <ele>85.800003051758</ele>
      </trkpt>
      <trkpt lat="50.5376" lon="5.27103">
        <ele>85.599998474121</ele>
      </trkpt>
      <trkpt lat="50.5376" lon="5.27126">
        <ele>86</ele>
      </trkpt>
      <trkpt lat="50.53759" lon="5.27222">
        <ele>86</ele>
      </trkpt>
      <trkpt lat="50.53759" lon="5.27257">
        <ele>86</ele>
      </trkpt>
      <trkpt lat="50.53758" lon="5.27353">
        <ele>86.199996948242</ele>
      </trkpt>
      <trkpt lat="50.53758" lon="5.27366">
        <ele>86.199996948242</ele>
      </trkpt>
      <trkpt lat="50.53758" lon="5.27454">
        <ele>86</ele>
      </trkpt>
      <trkpt lat="50.53758" lon="5.2752">
        <ele>72.8</ele>
      </trkpt>
      <trkpt lat="50.53754" lon="5.27594">
        <ele>85.599998474121</ele>
      </trkpt>
      <trkpt lat="50.53753" lon="5.27618">
        <ele>85.599998474121</ele>
      </trkpt>
      <trkpt lat="50.53748" lon="5.2769">
        <ele>85.400001525879</ele>
      </trkpt>
      <trkpt lat="50.53745" lon="5.27761">
        <ele>72.4</ele>
      </trkpt>
      <trkpt lat="50.53741" lon="5.27812">
        <ele>71.7</ele>
      </trkpt>
      <trkpt lat="50.53734" lon="5.27899">
        <ele>70.2</ele>
      </trkpt>
      <trkpt lat="50.53726" lon="5.27995">
        <ele>69.8</ele>
      </trkpt>
      <trkpt lat="50.53721" lon="5.28071">
        <ele>71</ele>
      </trkpt>
      <trkpt lat="50.53719" lon="5.2811">
        <ele>71.7</ele>
      </trkpt>
      <trkpt lat="50.53708" lon="5.28185">
        <ele>71.1</ele>
      </trkpt>
      <trkpt lat="50.53705" lon="5.28208">
        <ele>70.8</ele>
      </trkpt>
      <trkpt lat="50.53693" lon="5.28301">
        <ele>69.7</ele>
      </trkpt>
      <trkpt lat="50.53685" lon="5.2834">
        <ele>69.8</ele>
      </trkpt>
      <trkpt lat="50.53679" lon="5.28371">
        <ele>70.2</ele>
      </trkpt>
      <trkpt lat="50.53668" lon="5.28439">
        <ele>70</ele>
      </trkpt>
      <trkpt lat="50.5366" lon="5.28477">
        <ele>67.3</ele>
      </trkpt>
      <trkpt lat="50.53647" lon="5.2854">
        <ele>66.3</ele>
      </trkpt>
      <trkpt lat="50.53638" lon="5.28582">
        <ele>66.1</ele>
      </trkpt>
      <trkpt lat="50.53615" lon="5.28651">
        <ele>66.4</ele>
      </trkpt>
      <trkpt lat="50.53587" lon="5.2873">
        <ele>66.4</ele>
      </trkpt>
      <trkpt lat="50.53577" lon="5.28763">
        <ele>65.8</ele>
      </trkpt>
      <trkpt lat="50.53568" lon="5.28825">
        <ele>66.7</ele>
      </trkpt>
      <trkpt lat="50.53559" lon="5.28885">
        <ele>67.1</ele>
      </trkpt>
      <trkpt lat="50.53548" lon="5.28954">
        <ele>86.400001525879</ele>
      </trkpt>
      <trkpt lat="50.53542" lon="5.29001">
        <ele>67.2</ele>
      </trkpt>
      <trkpt lat="50.53531" lon="5.29067">
        <ele>67.1</ele>
      </trkpt>
      <trkpt lat="50.53517" lon="5.29148">
        <ele>68.9</ele>
      </trkpt>
      <trkpt lat="50.53504" lon="5.29226">
        <ele>86.599998474121</ele>
      </trkpt>
      <trkpt lat="50.5349" lon="5.29299">
        <ele>86.599998474121</ele>
      </trkpt>
      <trkpt lat="50.53482" lon="5.29346">
        <ele>67.9</ele>
      </trkpt>
      <trkpt lat="50.53484" lon="5.29364">
        <ele>86.400001525879</ele>
      </trkpt>
      <trkpt lat="50.5349" lon="5.2939">
        <ele>67</ele>
      </trkpt>
      <trkpt lat="50.535" lon="5.29409">
        <ele>67.1</ele>
      </trkpt>
      <trkpt lat="50.53512" lon="5.29412">
        <ele>68</ele>
      </trkpt>
      <trkpt lat="50.53527" lon="5.29408">
        <ele>68</ele>
      </trkpt>
      <trkpt lat="50.53545" lon="5.29403">
        <ele>68.2</ele>
      </trkpt>
      <trkpt lat="50.53576" lon="5.29396">
        <ele>68.4</ele>
      </trkpt>
      <trkpt lat="50.53588" lon="5.29397">
        <ele>69.1</ele>
      </trkpt>
      <trkpt lat="50.53599" lon="5.29401">
        <ele>69</ele>
      </trkpt>
      <trkpt lat="50.5361" lon="5.29418">
        <ele>68.4</ele>
      </trkpt>
      <trkpt lat="50.53628" lon="5.29462">
        <ele>68.5</ele>
      </trkpt>
      <trkpt lat="50.53658" lon="5.29533">
        <ele>67.5</ele>
      </trkpt>
      <trkpt lat="50.53686" lon="5.29599">
        <ele>66.3</ele>
      </trkpt>
      <trkpt lat="50.53712" lon="5.2966">
        <ele>66.5</ele>
      </trkpt>
      <trkpt lat="50.53721" lon="5.29684">
        <ele>67.1</ele>
      </trkpt>
      <trkpt lat="50.53728" lon="5.29712">
        <ele>87.199996948242</ele>
      </trkpt>
      <trkpt lat="50.53732" lon="5.29737">
        <ele>67.6</ele>
      </trkpt>
      <trkpt lat="50.5374" lon="5.29801">
        <ele>87</ele>
      </trkpt>
      <trkpt lat="50.53747" lon="5.29892">
        <ele>86.800003051758</ele>
      </trkpt>
      <trkpt lat="50.53748" lon="5.29903">
        <ele>86.800003051758</ele>
      </trkpt>
      <trkpt lat="50.53761" lon="5.29995">
        <ele>70.1</ele>
      </trkpt>
      <trkpt lat="50.53771" lon="5.30054">
        <ele>86.800003051758</ele>
      </trkpt>
      <trkpt lat="50.53792" lon="5.30041">
        <ele>69.5</ele>
      </trkpt>
      <trkpt lat="50.53806" lon="5.30034">
        <ele>69.6</ele>
      </trkpt>
      <trkpt lat="50.53847" lon="5.3001">
        <ele>69.9</ele>
      </trkpt>
      <trkpt lat="50.53872" lon="5.29995">
        <ele>70</ele>
      </trkpt>
      <trkpt lat="50.53913" lon="5.29971">
        <ele>69.9</ele>
      </trkpt>
      <trkpt lat="50.53949" lon="5.29952">
        <ele>68.6</ele>
      </trkpt>
      <trkpt lat="50.53962" lon="5.29943">
        <ele>68.5</ele>
      </trkpt>
      <trkpt lat="50.53977" lon="5.29982">
        <ele>68.1</ele>
      </trkpt>
      <trkpt lat="50.53987" lon="5.30009">
        <ele>67.8</ele>
      </trkpt>
      <trkpt lat="50.54016" lon="5.30074">
        <ele>86.599998474121</ele>
      </trkpt>
      <trkpt lat="50.54031" lon="5.30112">
        <ele>68.5</ele>
      </trkpt>
      <trkpt lat="50.54035" lon="5.30146">
        <ele>68.5</ele>
      </trkpt>
      <trkpt lat="50.54041" lon="5.30185">
        <ele>86.400001525879</ele>
      </trkpt>
      <trkpt lat="50.54043" lon="5.30194">
        <ele>86.400001525879</ele>
      </trkpt>
      <trkpt lat="50.54051" lon="5.30242">
        <ele>86.800003051758</ele>
      </trkpt>
      <trkpt lat="50.54061" lon="5.30325">
        <ele>86.800003051758</ele>
      </trkpt>
      <trkpt lat="50.54065" lon="5.30368">
        <ele>86.599998474121</ele>
      </trkpt>
      <trkpt lat="50.54069" lon="5.304">
        <ele>86.400001525879</ele>
      </trkpt>
      <trkpt lat="50.5408" lon="5.30487">
        <ele>86.199996948242</ele>
      </trkpt>
      <trkpt lat="50.54093" lon="5.30575">
        <ele>86.400001525879</ele>
      </trkpt>
      <trkpt lat="50.54095" lon="5.30586">
        <ele>86.400001525879</ele>
      </trkpt>
      <trkpt lat="50.54109" lon="5.30676">
        <ele>86.400001525879</ele>
      </trkpt>
      <trkpt lat="50.54111" lon="5.30688">
        <ele>86.400001525879</ele>
      </trkpt>
      <trkpt lat="50.54128" lon="5.30779">
        <ele>86.400001525879</ele>
      </trkpt>
      <trkpt lat="50.5413" lon="5.3079">
        <ele>86.199996948242</ele>
      </trkpt>
      <trkpt lat="50.54144" lon="5.30867">
        <ele>86</ele>
      </trkpt>
      <trkpt lat="50.54159" lon="5.30931">
        <ele>67.7</ele>
      </trkpt>
      <trkpt lat="50.54168" lon="5.30971">
        <ele>86</ele>
      </trkpt>
      <trkpt lat="50.54186" lon="5.31047">
        <ele>86.199996948242</ele>
      </trkpt>
      <trkpt lat="50.54203" lon="5.31113">
        <ele>86</ele>
      </trkpt>
      <trkpt lat="50.54212" lon="5.31144">
        <ele>85.800003051758</ele>
      </trkpt>
      <trkpt lat="50.54236" lon="5.31229">
        <ele>85.800003051758</ele>
      </trkpt>
      <trkpt lat="50.54242" lon="5.31249">
        <ele>85.800003051758</ele>
      </trkpt>
      <trkpt lat="50.54264" lon="5.31317">
        <ele>85.800003051758</ele>
      </trkpt>
      <trkpt lat="50.54284" lon="5.31384">
        <ele>86.199996948242</ele>
      </trkpt>
      <trkpt lat="50.5431" lon="5.31468">
        <ele>86.400001525879</ele>
      </trkpt>
      <trkpt lat="50.54316" lon="5.31489">
        <ele>86.400001525879</ele>
      </trkpt>
      <trkpt lat="50.54342" lon="5.31574">
        <ele>86.199996948242</ele>
      </trkpt>
      <trkpt lat="50.54352" lon="5.31606">
        <ele>86.199996948242</ele>
      </trkpt>
      <trkpt lat="50.54382" lon="5.3168">
        <ele>86</ele>
      </trkpt>
      <trkpt lat="50.54387" lon="5.3169">
        <ele>86</ele>
      </trkpt>
      <trkpt lat="50.54417" lon="5.31763">
        <ele>85.800003051758</ele>
      </trkpt>
      <trkpt lat="50.54431" lon="5.31794">
        <ele>85.800003051758</ele>
      </trkpt>
      <trkpt lat="50.54456" lon="5.31845">
        <ele>85.599998474121</ele>
      </trkpt>
      <trkpt lat="50.54481" lon="5.31897">
        <ele>85.599998474121</ele>
      </trkpt>
      <trkpt lat="50.54517" lon="5.31965">
        <ele>85</ele>
      </trkpt>
      <trkpt lat="50.54533" lon="5.31993">
        <ele>85</ele>
      </trkpt>
      <trkpt lat="50.54553" lon="5.32026">
        <ele>68</ele>
      </trkpt>
      <trkpt lat="50.54564" lon="5.32066">
        <ele>67.8</ele>
      </trkpt>
      <trkpt lat="50.54571" lon="5.32094">
        <ele>84.800003051758</ele>
      </trkpt>
      <trkpt lat="50.54588" lon="5.32162">
        <ele>84.800003051758</ele>
      </trkpt>
      <trkpt lat="50.54593" lon="5.32178">
        <ele>84.800003051758</ele>
      </trkpt>
      <trkpt lat="50.54607" lon="5.32167">
        <ele>68.6</ele>
      </trkpt>
      <trkpt lat="50.54605" lon="5.32222">
        <ele>69.2</ele>
      </trkpt>
      <trkpt lat="50.54603" lon="5.32256">
        <ele>69.4</ele>
      </trkpt>
      <trkpt lat="50.54599" lon="5.32305">
        <ele>69.1</ele>
      </trkpt>
      <trkpt lat="50.54598" lon="5.32332">
        <ele>69</ele>
      </trkpt>
      <trkpt lat="50.54594" lon="5.32398">
        <ele>68.2</ele>
      </trkpt>
      <trkpt lat="50.54592" lon="5.32436">
        <ele>67.8</ele>
      </trkpt>
      <trkpt lat="50.54589" lon="5.32504">
        <ele>67.1</ele>
      </trkpt>
      <trkpt lat="50.54586" lon="5.32552">
        <ele>67.1</ele>
      </trkpt>
      <trkpt lat="50.54585" lon="5.32569">
        <ele>67.1</ele>
      </trkpt>
      <trkpt lat="50.54599" lon="5.32584">
        <ele>66.9</ele>
      </trkpt>
      <trkpt lat="50.54605" lon="5.32588">
        <ele>66.9</ele>
      </trkpt>
      <trkpt lat="50.5462" lon="5.32569">
        <ele>67</ele>
      </trkpt>
      <trkpt lat="50.54644" lon="5.32554">
        <ele>67</ele>
      </trkpt>
      <trkpt lat="50.54669" lon="5.32545">
        <ele>67.6</ele>
      </trkpt>
      <trkpt lat="50.54715" lon="5.32528">
        <ele>67.8</ele>
      </trkpt>
      <trkpt lat="50.54738" lon="5.3252">
        <ele>67.9</ele>
      </trkpt>
      <trkpt lat="50.54762" lon="5.32511">
        <ele>68.2</ele>
      </trkpt>
      <trkpt lat="50.54778" lon="5.32504">
        <ele>68.4</ele>
      </trkpt>
      <trkpt lat="50.54791" lon="5.32499">
        <ele>68.7</ele>
      </trkpt>
      <trkpt lat="50.54811" lon="5.3249">
        <ele>68.8</ele>
      </trkpt>
      <trkpt lat="50.54828" lon="5.32473">
        <ele>68.8</ele>
      </trkpt>
      <trkpt lat="50.54845" lon="5.32451">
        <ele>68.7</ele>
      </trkpt>
      <trkpt lat="50.54863" lon="5.32424">
        <ele>68.6</ele>
      </trkpt>
      <trkpt lat="50.54881" lon="5.32397">
        <ele>68.5</ele>
      </trkpt>
      <trkpt lat="50.54915" lon="5.32348">
        <ele>68.7</ele>
      </trkpt>
      <trkpt lat="50.54955" lon="5.32288">
        <ele>69</ele>
      </trkpt>
      <trkpt lat="50.54985" lon="5.3224">
        <ele>69.5</ele>
      </trkpt>
      <trkpt lat="50.55005" lon="5.32211">
        <ele>73.2</ele>
      </trkpt>
      <trkpt lat="50.5502" lon="5.32236">
        <ele>86.599998474121</ele>
      </trkpt>
      <trkpt lat="50.55028" lon="5.32249">
        <ele>86.599998474121</ele>
      </trkpt>
      <trkpt lat="50.55045" lon="5.32278">
        <ele>86.599998474121</ele>
      </trkpt>
      <trkpt lat="50.55084" lon="5.32344">
        <ele>86.599998474121</ele>
      </trkpt>
      <trkpt lat="50.55089" lon="5.32352">
        <ele>86.599998474121</ele>
      </trkpt>
      <trkpt lat="50.55128" lon="5.32422">
        <ele>86.599998474121</ele>
      </trkpt>
      <trkpt lat="50.55133" lon="5.32432">
        <ele>86.800003051758</ele>
      </trkpt>
      <trkpt lat="50.5517" lon="5.32496">
        <ele>86.800003051758</ele>
      </trkpt>
      <trkpt lat="50.55211" lon="5.32567">
        <ele>86.800003051758</ele>
      </trkpt>
      <trkpt lat="50.55221" lon="5.32585">
        <ele>86.800003051758</ele>
      </trkpt>
      <trkpt lat="50.55255" lon="5.32644">
        <ele>87.199996948242</ele>
      </trkpt>
      <trkpt lat="50.55277" lon="5.32685">
        <ele>88</ele>
      </trkpt>
      <trkpt lat="50.55289" lon="5.32712">
        <ele>88.599998474121</ele>
      </trkpt>
      <trkpt lat="50.55296" lon="5.32732">
        <ele>89</ele>
      </trkpt>
      <trkpt lat="50.55326" lon="5.32813">
        <ele>89.599998474121</ele>
      </trkpt>
      <trkpt lat="50.5533" lon="5.32824">
        <ele>89.599998474121</ele>
      </trkpt>
      <trkpt lat="50.55359" lon="5.32898">
        <ele>89</ele>
      </trkpt>
      <trkpt lat="50.55368" lon="5.32919">
        <ele>88.800003051758</ele>
      </trkpt>
      <trkpt lat="50.55389" lon="5.32958">
        <ele>88.400001525879</ele>
      </trkpt>
      <trkpt lat="50.5541" lon="5.32996">
        <ele>88</ele>
      </trkpt>
      <trkpt lat="50.55447" lon="5.33063">
        <ele>87.599998474121</ele>
      </trkpt>
      <trkpt lat="50.55468" lon="5.33101">
        <ele>87.599998474121</ele>
      </trkpt>
      <trkpt lat="50.55505" lon="5.33168">
        <ele>87.400001525879</ele>
      </trkpt>
      <trkpt lat="50.55518" lon="5.33192">
        <ele>81.7</ele>
      </trkpt>
      <trkpt lat="50.55534" lon="5.33217">
        <ele>82</ele>
      </trkpt>
      <trkpt lat="50.55551" lon="5.33236">
        <ele>87.599998474121</ele>
      </trkpt>
      <trkpt lat="50.55595" lon="5.33289">
        <ele>87.400001525879</ele>
      </trkpt>
      <trkpt lat="50.55608" lon="5.33303">
        <ele>87.599998474121</ele>
      </trkpt>
      <trkpt lat="50.55635" lon="5.33348">
        <ele>87.400001525879</ele>
      </trkpt>
      <trkpt lat="50.55668" lon="5.33417">
        <ele>87.199996948242</ele>
      </trkpt>
      <trkpt lat="50.55682" lon="5.33449">
        <ele>87</ele>
      </trkpt>
      <trkpt lat="50.55697" lon="5.3348">
        <ele>86.800003051758</ele>
      </trkpt>
      <trkpt lat="50.55733" lon="5.33553">
        <ele>86.400001525879</ele>
      </trkpt>
      <trkpt lat="50.55748" lon="5.33584">
        <ele>86.199996948242</ele>
      </trkpt>
      <trkpt lat="50.5577" lon="5.33627">
        <ele>86.199996948242</ele>
      </trkpt>
      <trkpt lat="50.55791" lon="5.33673">
        <ele>86.199996948242</ele>
      </trkpt>
      <trkpt lat="50.55805" lon="5.33703">
        <ele>86</ele>
      </trkpt>
      <trkpt lat="50.55819" lon="5.33732">
        <ele>85.800003051758</ele>
      </trkpt>
      <trkpt lat="50.55853" lon="5.33798">
        <ele>85.599998474121</ele>
      </trkpt>
      <trkpt lat="50.55889" lon="5.33875">
        <ele>85.599998474121</ele>
      </trkpt>
      <trkpt lat="50.55924" lon="5.33943">
        <ele>85.800003051758</ele>
      </trkpt>
      <trkpt lat="50.55931" lon="5.33952">
        <ele>85.800003051758</ele>
      </trkpt>
      <trkpt lat="50.55965" lon="5.33983">
        <ele>85.599998474121</ele>
      </trkpt>
      <trkpt lat="50.5598" lon="5.33997">
        <ele>85.599998474121</ele>
      </trkpt>
      <trkpt lat="50.55991" lon="5.34013">
        <ele>85.400001525879</ele>
      </trkpt>
      <trkpt lat="50.55996" lon="5.34023">
        <ele>85.400001525879</ele>
      </trkpt>
      <trkpt lat="50.56009" lon="5.34053">
        <ele>85.400001525879</ele>
      </trkpt>
      <trkpt lat="50.56035" lon="5.34128">
        <ele>85.199996948242</ele>
      </trkpt>
      <trkpt lat="50.56063" lon="5.34202">
        <ele>85.400001525879</ele>
      </trkpt>
      <trkpt lat="50.56075" lon="5.34235">
        <ele>85.400001525879</ele>
      </trkpt>
      <trkpt lat="50.56104" lon="5.34311">
        <ele>85.800003051758</ele>
      </trkpt>
      <trkpt lat="50.56108" lon="5.34323">
        <ele>85.800003051758</ele>
      </trkpt>
      <trkpt lat="50.56137" lon="5.34401">
        <ele>86</ele>
      </trkpt>
      <trkpt lat="50.56145" lon="5.34423">
        <ele>86</ele>
      </trkpt>
      <trkpt lat="50.56174" lon="5.34502">
        <ele>86.199996948242</ele>
      </trkpt>
      <trkpt lat="50.56183" lon="5.34525">
        <ele>86.400001525879</ele>
      </trkpt>
      <trkpt lat="50.56213" lon="5.34605">
        <ele>86.599998474121</ele>
      </trkpt>
      <trkpt lat="50.56221" lon="5.34627">
        <ele>86.599998474121</ele>
      </trkpt>
      <trkpt lat="50.56249" lon="5.34707">
        <ele>86.199996948242</ele>
      </trkpt>
      <trkpt lat="50.56264" lon="5.34753">
        <ele>86.199996948242</ele>
      </trkpt>
      <trkpt lat="50.56292" lon="5.34833">
        <ele>86</ele>
      </trkpt>
      <trkpt lat="50.56308" lon="5.34878">
        <ele>86</ele>
      </trkpt>
      <trkpt lat="50.56333" lon="5.34955">
        <ele>86</ele>
      </trkpt>
      <trkpt lat="50.56359" lon="5.35034">
        <ele>86</ele>
      </trkpt>
      <trkpt lat="50.56367" lon="5.35056">
        <ele>86</ele>
      </trkpt>
      <trkpt lat="50.56392" lon="5.35135">
        <ele>86</ele>
      </trkpt>
      <trkpt lat="50.56412" lon="5.35216">
        <ele>86</ele>
      </trkpt>
      <trkpt lat="50.56415" lon="5.35228">
        <ele>86</ele>
      </trkpt>
      <trkpt lat="50.56439" lon="5.35309">
        <ele>86</ele>
      </trkpt>
      <trkpt lat="50.56443" lon="5.3532">
        <ele>86</ele>
      </trkpt>
      <trkpt lat="50.56467" lon="5.354">
        <ele>86</ele>
      </trkpt>
      <trkpt lat="50.56474" lon="5.35423">
        <ele>86</ele>
      </trkpt>
      <trkpt lat="50.56497" lon="5.35505">
        <ele>86.199996948242</ele>
      </trkpt>
      <trkpt lat="50.56517" lon="5.35575">
        <ele>86.199996948242</ele>
      </trkpt>
      <trkpt lat="50.56542" lon="5.35657">
        <ele>86</ele>
      </trkpt>
      <trkpt lat="50.56546" lon="5.35669">
        <ele>86</ele>
      </trkpt>
      <trkpt lat="50.56572" lon="5.3575">
        <ele>86.400001525879</ele>
      </trkpt>
      <trkpt lat="50.56579" lon="5.35773">
        <ele>86.599998474121</ele>
      </trkpt>
      <trkpt lat="50.56602" lon="5.35854">
        <ele>86.800003051758</ele>
      </trkpt>
      <trkpt lat="50.56619" lon="5.35911">
        <ele>87.199996948242</ele>
      </trkpt>
      <trkpt lat="50.56641" lon="5.35993">
        <ele>87.199996948242</ele>
      </trkpt>
      <trkpt lat="50.56647" lon="5.36017">
        <ele>87.400001525879</ele>
      </trkpt>
      <trkpt lat="50.56671" lon="5.36101">
        <ele>87.400001525879</ele>
      </trkpt>
      <trkpt lat="50.56674" lon="5.36113">
        <ele>87.400001525879</ele>
      </trkpt>
      <trkpt lat="50.56693" lon="5.362">
        <ele>86.800003051758</ele>
      </trkpt>
      <trkpt lat="50.56696" lon="5.36213">
        <ele>86.599998474121</ele>
      </trkpt>
      <trkpt lat="50.56712" lon="5.36303">
        <ele>86.400001525879</ele>
      </trkpt>
      <trkpt lat="50.56715" lon="5.36316">
        <ele>86.199996948242</ele>
      </trkpt>
      <trkpt lat="50.56727" lon="5.3638">
        <ele>85.800003051758</ele>
      </trkpt>
      <trkpt lat="50.56734" lon="5.36418">
        <ele>85.599998474121</ele>
      </trkpt>
      <trkpt lat="50.5675" lon="5.36503">
        <ele>85.400001525879</ele>
      </trkpt>
      <trkpt lat="50.56753" lon="5.36515">
        <ele>85.400001525879</ele>
      </trkpt>
      <trkpt lat="50.56773" lon="5.36595">
        <ele>85.599998474121</ele>
      </trkpt>
      <trkpt lat="50.56776" lon="5.36606">
        <ele>85.800003051758</ele>
      </trkpt>
      <trkpt lat="50.56782" lon="5.36628">
        <ele>86</ele>
      </trkpt>
      <trkpt lat="50.56791" lon="5.3666">
        <ele>86.199996948242</ele>
      </trkpt>
      <trkpt lat="50.56812" lon="5.36736">
        <ele>86.400001525879</ele>
      </trkpt>
      <trkpt lat="50.56834" lon="5.36818">
        <ele>86.800003051758</ele>
      </trkpt>
      <trkpt lat="50.5684" lon="5.36841">
        <ele>86.800003051758</ele>
      </trkpt>
      <trkpt lat="50.56861" lon="5.36925">
        <ele>86.599998474121</ele>
      </trkpt>
      <trkpt lat="50.56866" lon="5.36949">
        <ele>86.599998474121</ele>
      </trkpt>
      <trkpt lat="50.56883" lon="5.3702">
        <ele>86.400001525879</ele>
      </trkpt>
      <trkpt lat="50.56903" lon="5.37102">
        <ele>85.599998474121</ele>
      </trkpt>
      <trkpt lat="50.56908" lon="5.37126">
        <ele>85.400001525879</ele>
      </trkpt>
      <trkpt lat="50.56931" lon="5.37208">
        <ele>85.199996948242</ele>
      </trkpt>
      <trkpt lat="50.56958" lon="5.37283">
        <ele>85.199996948242</ele>
      </trkpt>
      <trkpt lat="50.56965" lon="5.37304">
        <ele>85.199996948242</ele>
      </trkpt>
      <trkpt lat="50.56982" lon="5.37354">
        <ele>86</ele>
      </trkpt>
      <trkpt lat="50.57007" lon="5.37425">
        <ele>87</ele>
      </trkpt>
      <trkpt lat="50.57014" lon="5.37446">
        <ele>87.199996948242</ele>
      </trkpt>
      <trkpt lat="50.57022" lon="5.37467">
        <ele>87.199996948242</ele>
      </trkpt>
      <trkpt lat="50.57051" lon="5.37551">
        <ele>87.199996948242</ele>
      </trkpt>
      <trkpt lat="50.57055" lon="5.37562">
        <ele>87.199996948242</ele>
      </trkpt>
      <trkpt lat="50.57081" lon="5.37638">
        <ele>87.199996948242</ele>
      </trkpt>
      <trkpt lat="50.57099" lon="5.37693">
        <ele>87</ele>
      </trkpt>
      <trkpt lat="50.57124" lon="5.37772">
        <ele>86.800003051758</ele>
      </trkpt>
      <trkpt lat="50.57128" lon="5.37783">
        <ele>86.800003051758</ele>
      </trkpt>
      <trkpt lat="50.57159" lon="5.37853">
        <ele>86.800003051758</ele>
      </trkpt>
      <trkpt lat="50.57195" lon="5.37926">
        <ele>87.599998474121</ele>
      </trkpt>
      <trkpt lat="50.57204" lon="5.37944">
        <ele>87.800003051758</ele>
      </trkpt>
      <trkpt lat="50.57217" lon="5.3797">
        <ele>88.199996948242</ele>
      </trkpt>
      <trkpt lat="50.57245" lon="5.38036">
        <ele>89.199996948242</ele>
      </trkpt>
      <trkpt lat="50.57249" lon="5.38046">
        <ele>89.199996948242</ele>
      </trkpt>
      <trkpt lat="50.57278" lon="5.38125">
        <ele>90.400001525879</ele>
      </trkpt>
      <trkpt lat="50.57293" lon="5.38164">
        <ele>91.199996948242</ele>
      </trkpt>
      <trkpt lat="50.57304" lon="5.38192">
        <ele>91.599998474121</ele>
      </trkpt>
      <trkpt lat="50.57325" lon="5.38238">
        <ele>92.199996948242</ele>
      </trkpt>
      <trkpt lat="50.57339" lon="5.38265">
        <ele>92.800003051758</ele>
      </trkpt>
      <trkpt lat="50.57367" lon="5.38319">
        <ele>93.800003051758</ele>
      </trkpt>
      <trkpt lat="50.57376" lon="5.38336">
        <ele>94.400001525879</ele>
      </trkpt>
      <trkpt lat="50.5739" lon="5.38362">
        <ele>94.800003051758</ele>
      </trkpt>
      <trkpt lat="50.5742" lon="5.38412">
        <ele>96</ele>
      </trkpt>
      <trkpt lat="50.5743" lon="5.38429">
        <ele>96.400001525879</ele>
      </trkpt>
      <trkpt lat="50.57446" lon="5.38455">
        <ele>97</ele>
      </trkpt>
      <trkpt lat="50.57476" lon="5.38507">
        <ele>97.800003051758</ele>
      </trkpt>
      <trkpt lat="50.57501" lon="5.38548">
        <ele>98</ele>
      </trkpt>
      <trkpt lat="50.57526" lon="5.38588">
        <ele>98.199996948242</ele>
      </trkpt>
      <trkpt lat="50.57562" lon="5.38645">
        <ele>98.199996948242</ele>
      </trkpt>
      <trkpt lat="50.57572" lon="5.38662">
        <ele>98</ele>
      </trkpt>
      <trkpt lat="50.57596" lon="5.38707">
        <ele>97.800003051758</ele>
      </trkpt>
      <trkpt lat="50.57606" lon="5.38726">
        <ele>97.800003051758</ele>
      </trkpt>
      <trkpt lat="50.57625" lon="5.38766">
        <ele>97.599998474121</ele>
      </trkpt>
      <trkpt lat="50.5765" lon="5.38815">
        <ele>97.400001525879</ele>
      </trkpt>
      <trkpt lat="50.57685" lon="5.38882">
        <ele>97</ele>
      </trkpt>
      <trkpt lat="50.57696" lon="5.38901">
        <ele>97</ele>
      </trkpt>
      <trkpt lat="50.57732" lon="5.38964">
        <ele>96.800003051758</ele>
      </trkpt>
      <trkpt lat="50.57774" lon="5.39033">
        <ele>97.199996948242</ele>
      </trkpt>
      <trkpt lat="50.57784" lon="5.39051">
        <ele>97.199996948242</ele>
      </trkpt>
      <trkpt lat="50.57825" lon="5.39119">
        <ele>98</ele>
      </trkpt>
      <trkpt lat="50.57839" lon="5.39144">
        <ele>98.199996948242</ele>
      </trkpt>
      <trkpt lat="50.57859" lon="5.39178">
        <ele>98.199996948242</ele>
      </trkpt>
      <trkpt lat="50.57867" lon="5.39198">
        <ele>98.400001525879</ele>
      </trkpt>
      <trkpt lat="50.57869" lon="5.39209">
        <ele>98.400001525879</ele>
      </trkpt>
      <trkpt lat="50.57873" lon="5.39256">
        <ele>98.400001525879</ele>
      </trkpt>
      <trkpt lat="50.57873" lon="5.39269">
        <ele>98.400001525879</ele>
      </trkpt>
      <trkpt lat="50.57875" lon="5.39354">
        <ele>98.400001525879</ele>
      </trkpt>
      <trkpt lat="50.57877" lon="5.39366">
        <ele>98.400001525879</ele>
      </trkpt>
      <trkpt lat="50.57892" lon="5.39411">
        <ele>98</ele>
      </trkpt>
      <trkpt lat="50.57896" lon="5.39422">
        <ele>98</ele>
      </trkpt>
      <trkpt lat="50.57927" lon="5.39491">
        <ele>97.400001525879</ele>
      </trkpt>
      <trkpt lat="50.57932" lon="5.39503">
        <ele>97</ele>
      </trkpt>
      <trkpt lat="50.57942" lon="5.39528">
        <ele>96</ele>
      </trkpt>
      <trkpt lat="50.57947" lon="5.39541">
        <ele>95.599998474121</ele>
      </trkpt>
      <trkpt lat="50.57951" lon="5.39555">
        <ele>95.400001525879</ele>
      </trkpt>
      <trkpt lat="50.57954" lon="5.3957">
        <ele>95</ele>
      </trkpt>
      <trkpt lat="50.57955" lon="5.39586">
        <ele>94.599998474121</ele>
      </trkpt>
      <trkpt lat="50.57955" lon="5.39618">
        <ele>93</ele>
      </trkpt>
      <trkpt lat="50.5795" lon="5.39649">
        <ele>92.199996948242</ele>
      </trkpt>
      <trkpt lat="50.57946" lon="5.39664">
        <ele>91.599998474121</ele>
      </trkpt>
      <trkpt lat="50.57935" lon="5.39691">
        <ele>90.400001525879</ele>
      </trkpt>
      <trkpt lat="50.57928" lon="5.39703">
        <ele>90</ele>
      </trkpt>
      <trkpt lat="50.57921" lon="5.39714">
        <ele>89.400001525879</ele>
      </trkpt>
      <trkpt lat="50.57907" lon="5.39734">
        <ele>88.400001525879</ele>
      </trkpt>
      <trkpt lat="50.579" lon="5.39743">
        <ele>88</ele>
      </trkpt>
      <trkpt lat="50.57885" lon="5.3975">
        <ele>86.800003051758</ele>
      </trkpt>
      <trkpt lat="50.57873" lon="5.39759">
        <ele>85.800003051758</ele>
      </trkpt>
      <trkpt lat="50.57871" lon="5.39767">
        <ele>85.599998474121</ele>
      </trkpt>
      <trkpt lat="50.57871" lon="5.39776">
        <ele>85.400001525879</ele>
      </trkpt>
      <trkpt lat="50.57881" lon="5.39795">
        <ele>84.800003051758</ele>
      </trkpt>
      <trkpt lat="50.57895" lon="5.39816">
        <ele>84.800003051758</ele>
      </trkpt>
      <trkpt lat="50.57899" lon="5.39826">
        <ele>84.800003051758</ele>
      </trkpt>
      <trkpt lat="50.57902" lon="5.39835">
        <ele>84.599998474121</ele>
      </trkpt>
      <trkpt lat="50.57915" lon="5.39874">
        <ele>84.599998474121</ele>
      </trkpt>
      <trkpt lat="50.57919" lon="5.39884">
        <ele>84.599998474121</ele>
      </trkpt>
      <trkpt lat="50.57933" lon="5.39926">
        <ele>84.599998474121</ele>
      </trkpt>
      <trkpt lat="50.57952" lon="5.39976">
        <ele>84.400001525879</ele>
      </trkpt>
      <trkpt lat="50.57977" lon="5.40049">
        <ele>84.400001525879</ele>
      </trkpt>
      <trkpt lat="50.58006" lon="5.40134">
        <ele>84.199996948242</ele>
      </trkpt>
      <trkpt lat="50.5801" lon="5.40145">
        <ele>84.199996948242</ele>
      </trkpt>
      <trkpt lat="50.58039" lon="5.40233">
        <ele>84.199996948242</ele>
      </trkpt>
      <trkpt lat="50.58042" lon="5.40244">
        <ele>84.199996948242</ele>
      </trkpt>
      <trkpt lat="50.5807" lon="5.40316">
        <ele>84</ele>
      </trkpt>
      <trkpt lat="50.58086" lon="5.40358">
        <ele>83.800003051758</ele>
      </trkpt>
      <trkpt lat="50.58102" lon="5.404">
        <ele>83.800003051758</ele>
      </trkpt>
      <trkpt lat="50.5813" lon="5.40473">
        <ele>83.599998474121</ele>
      </trkpt>
      <trkpt lat="50.58146" lon="5.40515">
        <ele>83.599998474121</ele>
      </trkpt>
      <trkpt lat="50.58166" lon="5.40565">
        <ele>83.599998474121</ele>
      </trkpt>
      <trkpt lat="50.58171" lon="5.40574">
        <ele>83.599998474121</ele>
      </trkpt>
      <trkpt lat="50.58182" lon="5.40604">
        <ele>83.599998474121</ele>
      </trkpt>
      <trkpt lat="50.58205" lon="5.40666">
        <ele>83.800003051758</ele>
      </trkpt>
      <trkpt lat="50.58236" lon="5.40749">
        <ele>84.199996948242</ele>
      </trkpt>
      <trkpt lat="50.58266" lon="5.40829">
        <ele>84.400001525879</ele>
      </trkpt>
      <trkpt lat="50.5827" lon="5.40839">
        <ele>84.400001525879</ele>
      </trkpt>
      <trkpt lat="50.58296" lon="5.40908">
        <ele>84.800003051758</ele>
      </trkpt>
      <trkpt lat="50.58319" lon="5.40965">
        <ele>85.199996948242</ele>
      </trkpt>
      <trkpt lat="50.58331" lon="5.40994">
        <ele>85.199996948242</ele>
      </trkpt>
      <trkpt lat="50.58351" lon="5.4104">
        <ele>85.400001525879</ele>
      </trkpt>
      <trkpt lat="50.5838" lon="5.41103">
        <ele>85.800003051758</ele>
      </trkpt>
      <trkpt lat="50.58415" lon="5.41177">
        <ele>86.199996948242</ele>
      </trkpt>
      <trkpt lat="50.58424" lon="5.41196">
        <ele>86.199996948242</ele>
      </trkpt>
      <trkpt lat="50.58461" lon="5.41258">
        <ele>86.199996948242</ele>
      </trkpt>
      <trkpt lat="50.58495" lon="5.41315">
        <ele>86</ele>
      </trkpt>
      <trkpt lat="50.58518" lon="5.41354">
        <ele>85.599998474121</ele>
      </trkpt>
      <trkpt lat="50.58532" lon="5.41376">
        <ele>85.400001525879</ele>
      </trkpt>
      <trkpt lat="50.58542" lon="5.41389">
        <ele>85.400001525879</ele>
      </trkpt>
      <trkpt lat="50.58554" lon="5.41411">
        <ele>85.400001525879</ele>
      </trkpt>
      <trkpt lat="50.58563" lon="5.41425">
        <ele>85.400001525879</ele>
      </trkpt>
      <trkpt lat="50.58589" lon="5.41468">
        <ele>85.199996948242</ele>
      </trkpt>
      <trkpt lat="50.58604" lon="5.41498">
        <ele>85</ele>
      </trkpt>
      <trkpt lat="50.5861" lon="5.41515">
        <ele>84.800003051758</ele>
      </trkpt>
      <trkpt lat="50.58614" lon="5.41533">
        <ele>84.800003051758</ele>
      </trkpt>
      <trkpt lat="50.58617" lon="5.41551">
        <ele>84.800003051758</ele>
      </trkpt>
      <trkpt lat="50.58619" lon="5.41568">
        <ele>84.800003051758</ele>
      </trkpt>
      <trkpt lat="50.5862" lon="5.41576">
        <ele>84.800003051758</ele>
      </trkpt>
      <trkpt lat="50.58624" lon="5.41584">
        <ele>84.599998474121</ele>
      </trkpt>
      <trkpt lat="50.58627" lon="5.41584">
        <ele>84.599998474121</ele>
      </trkpt>
      <trkpt lat="50.58637" lon="5.4158">
        <ele>84.599998474121</ele>
      </trkpt>
      <trkpt lat="50.58654" lon="5.4157">
        <ele>84.599998474121</ele>
      </trkpt>
      <trkpt lat="50.58664" lon="5.41564">
        <ele>84.599998474121</ele>
      </trkpt>
      <trkpt lat="50.58707" lon="5.41549">
        <ele>84.199996948242</ele>
      </trkpt>
      <trkpt lat="50.58728" lon="5.41532">
        <ele>84.199996948242</ele>
      </trkpt>
      <trkpt lat="50.58738" lon="5.4152">
        <ele>84.199996948242</ele>
      </trkpt>
      <trkpt lat="50.58758" lon="5.41497">
        <ele>84.400001525879</ele>
      </trkpt>
      <trkpt lat="50.58802" lon="5.41441">
        <ele>84.800003051758</ele>
      </trkpt>
      <trkpt lat="50.58848" lon="5.41389">
        <ele>85.199996948242</ele>
      </trkpt>
      <trkpt lat="50.58886" lon="5.41353">
        <ele>85.599998474121</ele>
      </trkpt>
      <trkpt lat="50.58906" lon="5.41318">
        <ele>85.800003051758</ele>
      </trkpt>
      <trkpt lat="50.58912" lon="5.41303">
        <ele>85.800003051758</ele>
      </trkpt>
      <trkpt lat="50.5893" lon="5.41256">
        <ele>87</ele>
      </trkpt>
      <trkpt lat="50.58933" lon="5.41248">
        <ele>87.199996948242</ele>
      </trkpt>
      <trkpt lat="50.58948" lon="5.41208">
        <ele>88</ele>
      </trkpt>
      <trkpt lat="50.58959" lon="5.41177">
        <ele>88.599998474121</ele>
      </trkpt>
      <trkpt lat="50.58965" lon="5.41162">
        <ele>89</ele>
      </trkpt>
      <trkpt lat="50.58968" lon="5.41154">
        <ele>89.199996948242</ele>
      </trkpt>
      <trkpt lat="50.58982" lon="5.41128">
        <ele>89.800003051758</ele>
      </trkpt>
      <trkpt lat="50.58986" lon="5.41122">
        <ele>90</ele>
      </trkpt>
      <trkpt lat="50.58996" lon="5.41113">
        <ele>90.199996948242</ele>
      </trkpt>
      <trkpt lat="50.59011" lon="5.41103">
        <ele>90.400001525879</ele>
      </trkpt>
      <trkpt lat="50.59032" lon="5.41095">
        <ele>91</ele>
      </trkpt>
      <trkpt lat="50.59037" lon="5.41095">
        <ele>91.199996948242</ele>
      </trkpt>
      <trkpt lat="50.59068" lon="5.41105">
        <ele>92</ele>
      </trkpt>
      <trkpt lat="50.59078" lon="5.4111">
        <ele>92.400001525879</ele>
      </trkpt>
      <trkpt lat="50.59094" lon="5.41116">
        <ele>93</ele>
      </trkpt>
      <trkpt lat="50.5911" lon="5.41122">
        <ele>93.599998474121</ele>
      </trkpt>
      <trkpt lat="50.59143" lon="5.41135">
        <ele>94.800003051758</ele>
      </trkpt>
      <trkpt lat="50.59149" lon="5.41137">
        <ele>94.800003051758</ele>
      </trkpt>
      <trkpt lat="50.59196" lon="5.41155">
        <ele>95.599998474121</ele>
      </trkpt>
      <trkpt lat="50.59222" lon="5.41159">
        <ele>95.599998474121</ele>
      </trkpt>
      <trkpt lat="50.59235" lon="5.41157">
        <ele>95.800003051758</ele>
      </trkpt>
      <trkpt lat="50.59272" lon="5.41143">
        <ele>95.800003051758</ele>
      </trkpt>
      <trkpt lat="50.59297" lon="5.41134">
        <ele>95.800003051758</ele>
      </trkpt>
      <trkpt lat="50.5931" lon="5.4113">
        <ele>95.800003051758</ele>
      </trkpt>
      <trkpt lat="50.5936" lon="5.4112">
        <ele>96</ele>
      </trkpt>
      <trkpt lat="50.59405" lon="5.41111">
        <ele>96.199996948242</ele>
      </trkpt>
      <trkpt lat="50.59445" lon="5.41102">
        <ele>96.599998474121</ele>
      </trkpt>
      <trkpt lat="50.59478" lon="5.41094">
        <ele>96.599998474121</ele>
      </trkpt>
      <trkpt lat="50.59512" lon="5.4109">
        <ele>97</ele>
      </trkpt>
      <trkpt lat="50.59563" lon="5.41098">
        <ele>97.199996948242</ele>
      </trkpt>
      <trkpt lat="50.59593" lon="5.41104">
        <ele>97.599998474121</ele>
      </trkpt>
      <trkpt lat="50.59599" lon="5.41106">
        <ele>97.800003051758</ele>
      </trkpt>
      <trkpt lat="50.59621" lon="5.41111">
        <ele>98.800003051758</ele>
      </trkpt>
      <trkpt lat="50.59644" lon="5.41114">
        <ele>99.400001525879</ele>
      </trkpt>
      <trkpt lat="50.59667" lon="5.4112">
        <ele>100</ele>
      </trkpt>
      <trkpt lat="50.59684" lon="5.41121">
        <ele>100.80000305176</ele>
      </trkpt>
      <trkpt lat="50.59702" lon="5.41121">
        <ele>101.19999694824</ele>
      </trkpt>
      <trkpt lat="50.59726" lon="5.4112">
        <ele>101.40000152588</ele>
      </trkpt>
      <trkpt lat="50.59773" lon="5.41116">
        <ele>101.59999847412</ele>
      </trkpt>
      <trkpt lat="50.59797" lon="5.4111">
        <ele>101.59999847412</ele>
      </trkpt>
      <trkpt lat="50.59803" lon="5.41107">
        <ele>101.59999847412</ele>
      </trkpt>
      <trkpt lat="50.59835" lon="5.41081">
        <ele>101.80000305176</ele>
      </trkpt>
      <trkpt lat="50.5986" lon="5.41048">
        <ele>101.80000305176</ele>
      </trkpt>
      <trkpt lat="50.59868" lon="5.41031">
        <ele>102</ele>
      </trkpt>
      <trkpt lat="50.59894" lon="5.4096">
        <ele>102</ele>
      </trkpt>
      <trkpt lat="50.59911" lon="5.40908">
        <ele>102.19999694824</ele>
      </trkpt>
      <trkpt lat="50.59914" lon="5.40899">
        <ele>102.19999694824</ele>
      </trkpt>
      <trkpt lat="50.59923" lon="5.40874">
        <ele>102.19999694824</ele>
      </trkpt>
      <trkpt lat="50.59929" lon="5.40846">
        <ele>102.40000152588</ele>
      </trkpt>
      <trkpt lat="50.59952" lon="5.40765">
        <ele>103.40000152588</ele>
      </trkpt>
      <trkpt lat="50.59955" lon="5.40756">
        <ele>103.59999847412</ele>
      </trkpt>
      <trkpt lat="50.59973" lon="5.40695">
        <ele>103.80000305176</ele>
      </trkpt>
      <trkpt lat="50.59996" lon="5.40615">
        <ele>104.59999847412</ele>
      </trkpt>
      <trkpt lat="50.59999" lon="5.40606">
        <ele>104.59999847412</ele>
      </trkpt>
      <trkpt lat="50.60014" lon="5.40562">
        <ele>105</ele>
      </trkpt>
      <trkpt lat="50.60018" lon="5.40554">
        <ele>105.19999694824</ele>
      </trkpt>
      <trkpt lat="50.60039" lon="5.40533">
        <ele>105.59999847412</ele>
      </trkpt>
      <trkpt lat="50.60045" lon="5.40529">
        <ele>105.59999847412</ele>
      </trkpt>
      <trkpt lat="50.60092" lon="5.405">
        <ele>106.19999694824</ele>
      </trkpt>
      <trkpt lat="50.60127" lon="5.40481">
        <ele>106.59999847412</ele>
      </trkpt>
      <trkpt lat="50.60145" lon="5.40471">
        <ele>106.80000305176</ele>
      </trkpt>
      <trkpt lat="50.60186" lon="5.40447">
        <ele>107.19999694824</ele>
      </trkpt>
      <trkpt lat="50.60216" lon="5.4043">
        <ele>107.59999847412</ele>
      </trkpt>
      <trkpt lat="50.60245" lon="5.40415">
        <ele>108</ele>
      </trkpt>
      <trkpt lat="50.60274" lon="5.404">
        <ele>108.80000305176</ele>
      </trkpt>
      <trkpt lat="50.60296" lon="5.40389">
        <ele>109.19999694824</ele>
      </trkpt>
      <trkpt lat="50.60307" lon="5.40385">
        <ele>109.80000305176</ele>
      </trkpt>
      <trkpt lat="50.60336" lon="5.40372">
        <ele>110.59999847412</ele>
      </trkpt>
      <trkpt lat="50.60353" lon="5.40362">
        <ele>111</ele>
      </trkpt>
      <trkpt lat="50.60377" lon="5.40348">
        <ele>111.40000152588</ele>
      </trkpt>
      <trkpt lat="50.6043" lon="5.40315">
        <ele>112</ele>
      </trkpt>
      <trkpt lat="50.60448" lon="5.40305">
        <ele>112</ele>
      </trkpt>
      <trkpt lat="50.60494" lon="5.40272">
        <ele>112.19999694824</ele>
      </trkpt>
      <trkpt lat="50.60513" lon="5.40249">
        <ele>112.19999694824</ele>
      </trkpt>
      <trkpt lat="50.60534" lon="5.40225">
        <ele>112.40000152588</ele>
      </trkpt>
      <trkpt lat="50.60581" lon="5.40169">
        <ele>113</ele>
      </trkpt>
      <trkpt lat="50.60586" lon="5.40163">
        <ele>113</ele>
      </trkpt>
      <trkpt lat="50.60607" lon="5.40138">
        <ele>113.19999694824</ele>
      </trkpt>
      <trkpt lat="50.60622" lon="5.40119">
        <ele>113.19999694824</ele>
      </trkpt>
      <trkpt lat="50.60632" lon="5.40105">
        <ele>113.40000152588</ele>
      </trkpt>
      <trkpt lat="50.60657" lon="5.40061">
        <ele>113.59999847412</ele>
      </trkpt>
      <trkpt lat="50.60683" lon="5.39989">
        <ele>113.80000305176</ele>
      </trkpt>
      <trkpt lat="50.60713" lon="5.39906">
        <ele>114</ele>
      </trkpt>
      <trkpt lat="50.6073" lon="5.39861">
        <ele>114.19999694824</ele>
      </trkpt>
      <trkpt lat="50.60742" lon="5.39825">
        <ele>114.40000152588</ele>
      </trkpt>
      <trkpt lat="50.60756" lon="5.39784">
        <ele>114.59999847412</ele>
      </trkpt>
      <trkpt lat="50.60764" lon="5.39762">
        <ele>114.80000305176</ele>
      </trkpt>
      <trkpt lat="50.60769" lon="5.39746">
        <ele>115</ele>
      </trkpt>
      <trkpt lat="50.60771" lon="5.39739">
        <ele>115</ele>
      </trkpt>
      <trkpt lat="50.60781" lon="5.39713">
        <ele>115</ele>
      </trkpt>
      <trkpt lat="50.60787" lon="5.39693">
        <ele>115.19999694824</ele>
      </trkpt>
      <trkpt lat="50.60795" lon="5.39666">
        <ele>115.40000152588</ele>
      </trkpt>
      <trkpt lat="50.60809" lon="5.39617">
        <ele>115.59999847412</ele>
      </trkpt>
      <trkpt lat="50.60811" lon="5.39608">
        <ele>115.59999847412</ele>
      </trkpt>
      <trkpt lat="50.60819" lon="5.3958">
        <ele>116</ele>
      </trkpt>
      <trkpt lat="50.60826" lon="5.39558">
        <ele>116.19999694824</ele>
      </trkpt>
      <trkpt lat="50.60828" lon="5.39549">
        <ele>116.19999694824</ele>
      </trkpt>
      <trkpt lat="50.60838" lon="5.3951">
        <ele>116.40000152588</ele>
      </trkpt>
      <trkpt lat="50.60846" lon="5.39483">
        <ele>116.80000305176</ele>
      </trkpt>
      <trkpt lat="50.60865" lon="5.39421">
        <ele>117.59999847412</ele>
      </trkpt>
      <trkpt lat="50.60872" lon="5.39404">
        <ele>118</ele>
      </trkpt>
      <trkpt lat="50.60885" lon="5.3938">
        <ele>118.80000305176</ele>
      </trkpt>
      <trkpt lat="50.60894" lon="5.39366">
        <ele>119.19999694824</ele>
      </trkpt>
      <trkpt lat="50.60929" lon="5.39318">
        <ele>120</ele>
      </trkpt>
      <trkpt lat="50.60938" lon="5.39305">
        <ele>120</ele>
      </trkpt>
      <trkpt lat="50.60984" lon="5.39252">
        <ele>120.19999694824</ele>
      </trkpt>
      <trkpt lat="50.6102" lon="5.39229">
        <ele>120.59999847412</ele>
      </trkpt>
      <trkpt lat="50.61045" lon="5.39222">
        <ele>121</ele>
      </trkpt>
      <trkpt lat="50.61065" lon="5.39219">
        <ele>121.19999694824</ele>
      </trkpt>
      <trkpt lat="50.61124" lon="5.39211">
        <ele>121.80000305176</ele>
      </trkpt>
      <trkpt lat="50.61131" lon="5.3921">
        <ele>121.80000305176</ele>
      </trkpt>
      <trkpt lat="50.61144" lon="5.39208">
        <ele>122</ele>
      </trkpt>
      <trkpt lat="50.61187" lon="5.39201">
        <ele>122.19999694824</ele>
      </trkpt>
      <trkpt lat="50.6121" lon="5.39191">
        <ele>123.19999694824</ele>
      </trkpt>
      <trkpt lat="50.61231" lon="5.39177">
        <ele>123.80000305176</ele>
      </trkpt>
      <trkpt lat="50.61236" lon="5.39172">
        <ele>124.19999694824</ele>
      </trkpt>
      <trkpt lat="50.6126" lon="5.39148">
        <ele>125.40000152588</ele>
      </trkpt>
      <trkpt lat="50.61283" lon="5.39121">
        <ele>126.40000152588</ele>
      </trkpt>
      <trkpt lat="50.61297" lon="5.39104">
        <ele>127.19999694824</ele>
      </trkpt>
      <trkpt lat="50.61302" lon="5.39098">
        <ele>127.59999847412</ele>
      </trkpt>
      <trkpt lat="50.61344" lon="5.39046">
        <ele>128.39999389648</ele>
      </trkpt>
      <trkpt lat="50.61363" lon="5.39024">
        <ele>128.60000610352</ele>
      </trkpt>
      <trkpt lat="50.61382" lon="5.39001">
        <ele>128.80000305176</ele>
      </trkpt>
      <trkpt lat="50.61417" lon="5.38967">
        <ele>129.60000610352</ele>
      </trkpt>
      <trkpt lat="50.61422" lon="5.38963">
        <ele>129.80000305176</ele>
      </trkpt>
      <trkpt lat="50.61432" lon="5.38955">
        <ele>129.80000305176</ele>
      </trkpt>
      <trkpt lat="50.61454" lon="5.38942">
        <ele>130</ele>
      </trkpt>
      <trkpt lat="50.61483" lon="5.38937">
        <ele>130.60000610352</ele>
      </trkpt>
      <trkpt lat="50.61498" lon="5.3894">
        <ele>131.19999694824</ele>
      </trkpt>
      <trkpt lat="50.61508" lon="5.38947">
        <ele>131.39999389648</ele>
      </trkpt>
      <trkpt lat="50.61518" lon="5.38956">
        <ele>132</ele>
      </trkpt>
      <trkpt lat="50.61534" lon="5.38971">
        <ele>133</ele>
      </trkpt>
      <trkpt lat="50.6154" lon="5.38976">
        <ele>133.19999694824</ele>
      </trkpt>
      <trkpt lat="50.61586" lon="5.39015">
        <ele>133.80000305176</ele>
      </trkpt>
      <trkpt lat="50.61625" lon="5.39036">
        <ele>134.19999694824</ele>
      </trkpt>
      <trkpt lat="50.61637" lon="5.39045">
        <ele>134.60000610352</ele>
      </trkpt>
      <trkpt lat="50.61686" lon="5.39082">
        <ele>135.39999389648</ele>
      </trkpt>
      <trkpt lat="50.61725" lon="5.39121">
        <ele>136.39999389648</ele>
      </trkpt>
      <trkpt lat="50.61758" lon="5.39167">
        <ele>137.19999694824</ele>
      </trkpt>
      <trkpt lat="50.61763" lon="5.39174">
        <ele>137.60000610352</ele>
      </trkpt>
      <trkpt lat="50.61785" lon="5.39207">
        <ele>138.60000610352</ele>
      </trkpt>
      <trkpt lat="50.6179" lon="5.39214">
        <ele>138.60000610352</ele>
      </trkpt>
      <trkpt lat="50.61822" lon="5.3926">
        <ele>139.80000305176</ele>
      </trkpt>
      <trkpt lat="50.61831" lon="5.39273">
        <ele>140.19999694824</ele>
      </trkpt>
      <trkpt lat="50.61849" lon="5.39299">
        <ele>140.80000305176</ele>
      </trkpt>
      <trkpt lat="50.61871" lon="5.39333">
        <ele>142</ele>
      </trkpt>
      <trkpt lat="50.61907" lon="5.39383">
        <ele>142.80000305176</ele>
      </trkpt>
      <trkpt lat="50.61942" lon="5.39416">
        <ele>143</ele>
      </trkpt>
      <trkpt lat="50.6198" lon="5.39451">
        <ele>143.19999694824</ele>
      </trkpt>
      <trkpt lat="50.61985" lon="5.39455">
        <ele>143.39999389648</ele>
      </trkpt>
      <trkpt lat="50.62011" lon="5.3948">
        <ele>144.39999389648</ele>
      </trkpt>
      <trkpt lat="50.6203" lon="5.395">
        <ele>145.39999389648</ele>
      </trkpt>
      <trkpt lat="50.62063" lon="5.39536">
        <ele>146.60000610352</ele>
      </trkpt>
      <trkpt lat="50.62073" lon="5.39545">
        <ele>147</ele>
      </trkpt>
      <trkpt lat="50.62093" lon="5.39564">
        <ele>147.60000610352</ele>
      </trkpt>
      <trkpt lat="50.62114" lon="5.39581">
        <ele>148.39999389648</ele>
      </trkpt>
      <trkpt lat="50.62125" lon="5.3959">
        <ele>148.80000305176</ele>
      </trkpt>
      <trkpt lat="50.62152" lon="5.39612">
        <ele>149.80000305176</ele>
      </trkpt>
      <trkpt lat="50.62164" lon="5.39619">
        <ele>150.19999694824</ele>
      </trkpt>
      <trkpt lat="50.62189" lon="5.39623">
        <ele>151.19999694824</ele>
      </trkpt>
      <trkpt lat="50.62195" lon="5.39623">
        <ele>151.19999694824</ele>
      </trkpt>
      <trkpt lat="50.62255" lon="5.39621">
        <ele>152</ele>
      </trkpt>
      <trkpt lat="50.62261" lon="5.39621">
        <ele>152.19999694824</ele>
      </trkpt>
      <trkpt lat="50.62274" lon="5.39621">
        <ele>152.39999389648</ele>
      </trkpt>
      <trkpt lat="50.62332" lon="5.39618">
        <ele>153</ele>
      </trkpt>
      <trkpt lat="50.62338" lon="5.39617">
        <ele>153.39999389648</ele>
      </trkpt>
      <trkpt lat="50.62345" lon="5.39617">
        <ele>153.39999389648</ele>
      </trkpt>
      <trkpt lat="50.62387" lon="5.39616">
        <ele>154.60000610352</ele>
      </trkpt>
      <trkpt lat="50.62393" lon="5.39616">
        <ele>154.80000305176</ele>
      </trkpt>
      <trkpt lat="50.62428" lon="5.39615">
        <ele>155.60000610352</ele>
      </trkpt>
      <trkpt lat="50.62457" lon="5.39613">
        <ele>156.80000305176</ele>
      </trkpt>
      <trkpt lat="50.62481" lon="5.39612">
        <ele>157.60000610352</ele>
      </trkpt>
      <trkpt lat="50.62488" lon="5.39612">
        <ele>158</ele>
      </trkpt>
      <trkpt lat="50.62539" lon="5.39612">
        <ele>158.80000305176</ele>
      </trkpt>
      <trkpt lat="50.62546" lon="5.39612">
        <ele>159</ele>
      </trkpt>
      <trkpt lat="50.62588" lon="5.39611">
        <ele>160.19999694824</ele>
      </trkpt>
      <trkpt lat="50.62607" lon="5.39611">
        <ele>161</ele>
      </trkpt>
      <trkpt lat="50.62619" lon="5.3961">
        <ele>161.60000610352</ele>
      </trkpt>
      <trkpt lat="50.62655" lon="5.39606">
        <ele>162.60000610352</ele>
      </trkpt>
      <trkpt lat="50.62661" lon="5.39604">
        <ele>162.80000305176</ele>
      </trkpt>
      <trkpt lat="50.62697" lon="5.39591">
        <ele>163.80000305176</ele>
      </trkpt>
      <trkpt lat="50.62715" lon="5.39585">
        <ele>164.19999694824</ele>
      </trkpt>
      <trkpt lat="50.62733" lon="5.39578">
        <ele>164.80000305176</ele>
      </trkpt>
      <trkpt lat="50.62768" lon="5.39565">
        <ele>166</ele>
      </trkpt>
      <trkpt lat="50.62785" lon="5.39559">
        <ele>166.39999389648</ele>
      </trkpt>
      <trkpt lat="50.62802" lon="5.39553">
        <ele>167</ele>
      </trkpt>
      <trkpt lat="50.62819" lon="5.39549">
        <ele>167.60000610352</ele>
      </trkpt>
      <trkpt lat="50.6283" lon="5.39545">
        <ele>168</ele>
      </trkpt>
      <trkpt lat="50.62847" lon="5.39542">
        <ele>168.60000610352</ele>
      </trkpt>
      <trkpt lat="50.62863" lon="5.39538">
        <ele>169.39999389648</ele>
      </trkpt>
      <trkpt lat="50.62878" lon="5.39535">
        <ele>170</ele>
      </trkpt>
      <trkpt lat="50.62893" lon="5.39532">
        <ele>170.39999389648</ele>
      </trkpt>
      <trkpt lat="50.62903" lon="5.3953">
        <ele>170.60000610352</ele>
      </trkpt>
      <trkpt lat="50.62919" lon="5.39524">
        <ele>171.39999389648</ele>
      </trkpt>
      <trkpt lat="50.62935" lon="5.39519">
        <ele>172</ele>
      </trkpt>
      <trkpt lat="50.62946" lon="5.39517">
        <ele>172.80000305176</ele>
      </trkpt>
      <trkpt lat="50.62984" lon="5.39503">
        <ele>173.60000610352</ele>
      </trkpt>
      <trkpt lat="50.62991" lon="5.395">
        <ele>173.80000305176</ele>
      </trkpt>
      <trkpt lat="50.63015" lon="5.39494">
        <ele>174.80000305176</ele>
      </trkpt>
      <trkpt lat="50.63021" lon="5.39492">
        <ele>175.19999694824</ele>
      </trkpt>
      <trkpt lat="50.63032" lon="5.39487">
        <ele>175.39999389648</ele>
      </trkpt>
      <trkpt lat="50.6305" lon="5.39478">
        <ele>175.80000305176</ele>
      </trkpt>
      <trkpt lat="50.63061" lon="5.39471">
        <ele>176</ele>
      </trkpt>
      <trkpt lat="50.6308" lon="5.39463">
        <ele>176.60000610352</ele>
      </trkpt>
      <trkpt lat="50.63092" lon="5.39457">
        <ele>177</ele>
      </trkpt>
      <trkpt lat="50.63116" lon="5.39449">
        <ele>178</ele>
      </trkpt>
      <trkpt lat="50.63135" lon="5.39443">
        <ele>178.39999389648</ele>
      </trkpt>
      <trkpt lat="50.63147" lon="5.3944">
        <ele>179</ele>
      </trkpt>
      <trkpt lat="50.63178" lon="5.39428">
        <ele>179.80000305176</ele>
      </trkpt>
      <trkpt lat="50.63216" lon="5.39415">
        <ele>179.80000305176</ele>
      </trkpt>
      <trkpt lat="50.63254" lon="5.39401">
        <ele>179.80000305176</ele>
      </trkpt>
      <trkpt lat="50.63292" lon="5.39387">
        <ele>179.80000305176</ele>
      </trkpt>
      <trkpt lat="50.63305" lon="5.39385">
        <ele>179.80000305176</ele>
      </trkpt>
      <trkpt lat="50.63325" lon="5.39389">
        <ele>179.80000305176</ele>
      </trkpt>
      <trkpt lat="50.63364" lon="5.39407">
        <ele>179.60000610352</ele>
      </trkpt>
      <trkpt lat="50.63387" lon="5.39428">
        <ele>179.80000305176</ele>
      </trkpt>
      <trkpt lat="50.63392" lon="5.39434">
        <ele>179.80000305176</ele>
      </trkpt>
      <trkpt lat="50.63425" lon="5.39485">
        <ele>179.80000305176</ele>
      </trkpt>
      <trkpt lat="50.6344" lon="5.39519">
        <ele>180</ele>
      </trkpt>
      <trkpt lat="50.63447" lon="5.39536">
        <ele>180.19999694824</ele>
      </trkpt>
      <trkpt lat="50.63462" lon="5.39564">
        <ele>180.19999694824</ele>
      </trkpt>
      <trkpt lat="50.63469" lon="5.39576">
        <ele>180.19999694824</ele>
      </trkpt>
      <trkpt lat="50.63494" lon="5.39606">
        <ele>180.39999389648</ele>
      </trkpt>
      <trkpt lat="50.63503" lon="5.39617">
        <ele>180.60000610352</ele>
      </trkpt>
      <trkpt lat="50.63506" lon="5.39633">
        <ele>180.60000610352</ele>
      </trkpt>
      <trkpt lat="50.635" lon="5.39655">
        <ele>181</ele>
      </trkpt>
      <trkpt lat="50.63495" lon="5.3966">
        <ele>181.19999694824</ele>
      </trkpt>
      <trkpt lat="50.63474" lon="5.39683">
        <ele>181.39999389648</ele>
      </trkpt>
      <trkpt lat="50.63441" lon="5.39722">
        <ele>181.39999389648</ele>
      </trkpt>
      <trkpt lat="50.63392" lon="5.39788">
        <ele>180.60000610352</ele>
      </trkpt>
      <trkpt lat="50.63369" lon="5.39816">
        <ele>180.39999389648</ele>
      </trkpt>
      <trkpt lat="50.63347" lon="5.39844">
        <ele>179.80000305176</ele>
      </trkpt>
      <trkpt lat="50.6333" lon="5.39866">
        <ele>179.39999389648</ele>
      </trkpt>
      <trkpt lat="50.63301" lon="5.39904">
        <ele>179.19999694824</ele>
      </trkpt>
      <trkpt lat="50.63271" lon="5.39945">
        <ele>178.60000610352</ele>
      </trkpt>
      <trkpt lat="50.63253" lon="5.3997">
        <ele>178.60000610352</ele>
      </trkpt>
      <trkpt lat="50.63247" lon="5.39978">
        <ele>178.39999389648</ele>
      </trkpt>
      <trkpt lat="50.63214" lon="5.40026">
        <ele>178</ele>
      </trkpt>
      <trkpt lat="50.63174" lon="5.40079">
        <ele>177.19999694824</ele>
      </trkpt>
      <trkpt lat="50.63162" lon="5.40095">
        <ele>177.19999694824</ele>
      </trkpt>
      <trkpt lat="50.63122" lon="5.40147">
        <ele>176.39999389648</ele>
      </trkpt>
      <trkpt lat="50.63116" lon="5.40154">
        <ele>176.39999389648</ele>
      </trkpt>
      <trkpt lat="50.63069" lon="5.40214">
        <ele>175.60000610352</ele>
      </trkpt>
      <trkpt lat="50.63063" lon="5.40221">
        <ele>175.39999389648</ele>
      </trkpt>
      <trkpt lat="50.63057" lon="5.40229">
        <ele>175.39999389648</ele>
      </trkpt>
      <trkpt lat="50.63034" lon="5.40259">
        <ele>174.39999389648</ele>
      </trkpt>
      <trkpt lat="50.6301" lon="5.40288">
        <ele>174</ele>
      </trkpt>
      <trkpt lat="50.62975" lon="5.40329">
        <ele>173.80000305176</ele>
      </trkpt>
      <trkpt lat="50.6294" lon="5.4037">
        <ele>173.19999694824</ele>
      </trkpt>
      <trkpt lat="50.62935" lon="5.40377">
        <ele>173</ele>
      </trkpt>
      <trkpt lat="50.62906" lon="5.40415">
        <ele>172.80000305176</ele>
      </trkpt>
      <trkpt lat="50.62879" lon="5.4045">
        <ele>172.39999389648</ele>
      </trkpt>
      <trkpt lat="50.62874" lon="5.40458">
        <ele>172.39999389648</ele>
      </trkpt>
      <trkpt lat="50.62862" lon="5.40471">
        <ele>172.19999694824</ele>
      </trkpt>
      <trkpt lat="50.62846" lon="5.4049">
        <ele>172</ele>
      </trkpt>
      <trkpt lat="50.6281" lon="5.40539">
        <ele>172</ele>
      </trkpt>
      <trkpt lat="50.62782" lon="5.40574">
        <ele>173.19999694824</ele>
      </trkpt>
      <trkpt lat="50.62777" lon="5.4058">
        <ele>173.39999389648</ele>
      </trkpt>
      <trkpt lat="50.62758" lon="5.40602">
        <ele>174.19999694824</ele>
      </trkpt>
      <trkpt lat="50.62735" lon="5.4063">
        <ele>175.60000610352</ele>
      </trkpt>
      <trkpt lat="50.62731" lon="5.40636">
        <ele>175.80000305176</ele>
      </trkpt>
      <trkpt lat="50.62707" lon="5.40666">
        <ele>177</ele>
      </trkpt>
      <trkpt lat="50.62679" lon="5.40703">
        <ele>178</ele>
      </trkpt>
      <trkpt lat="50.62646" lon="5.40748">
        <ele>179</ele>
      </trkpt>
      <trkpt lat="50.62627" lon="5.40772">
        <ele>180</ele>
      </trkpt>
      <trkpt lat="50.62618" lon="5.40785">
        <ele>180.60000610352</ele>
      </trkpt>
      <trkpt lat="50.62595" lon="5.40816">
        <ele>181.60000610352</ele>
      </trkpt>
      <trkpt lat="50.62567" lon="5.40853">
        <ele>182.80000305176</ele>
      </trkpt>
      <trkpt lat="50.62557" lon="5.40865">
        <ele>183.19999694824</ele>
      </trkpt>
      <trkpt lat="50.62543" lon="5.40884">
        <ele>184</ele>
      </trkpt>
      <trkpt lat="50.62505" lon="5.40934">
        <ele>185</ele>
      </trkpt>
      <trkpt lat="50.6249" lon="5.40953">
        <ele>185.60000610352</ele>
      </trkpt>
      <trkpt lat="50.6248" lon="5.40966">
        <ele>186</ele>
      </trkpt>
      <trkpt lat="50.62461" lon="5.40992">
        <ele>187</ele>
      </trkpt>
      <trkpt lat="50.62442" lon="5.41017">
        <ele>188</ele>
      </trkpt>
      <trkpt lat="50.62437" lon="5.41023">
        <ele>188</ele>
      </trkpt>
      <trkpt lat="50.62408" lon="5.41059">
        <ele>189</ele>
      </trkpt>
      <trkpt lat="50.62399" lon="5.41072">
        <ele>189.19999694824</ele>
      </trkpt>
      <trkpt lat="50.62364" lon="5.41117">
        <ele>190.19999694824</ele>
      </trkpt>
      <trkpt lat="50.62359" lon="5.41124">
        <ele>190.60000610352</ele>
      </trkpt>
      <trkpt lat="50.62319" lon="5.41176">
        <ele>191.39999389648</ele>
      </trkpt>
      <trkpt lat="50.62294" lon="5.41208">
        <ele>192</ele>
      </trkpt>
      <trkpt lat="50.6228" lon="5.41227">
        <ele>192.60000610352</ele>
      </trkpt>
      <trkpt lat="50.62251" lon="5.41264">
        <ele>193.60000610352</ele>
      </trkpt>
      <trkpt lat="50.62241" lon="5.41277">
        <ele>194</ele>
      </trkpt>
      <trkpt lat="50.62227" lon="5.41296">
        <ele>194.60000610352</ele>
      </trkpt>
      <trkpt lat="50.62194" lon="5.41339">
        <ele>195.80000305176</ele>
      </trkpt>
      <trkpt lat="50.62175" lon="5.41363">
        <ele>196.39999389648</ele>
      </trkpt>
      <trkpt lat="50.62165" lon="5.41376">
        <ele>197.19999694824</ele>
      </trkpt>
      <trkpt lat="50.62141" lon="5.41407">
        <ele>198.39999389648</ele>
      </trkpt>
      <trkpt lat="50.62118" lon="5.41438">
        <ele>199.19999694824</ele>
      </trkpt>
      <trkpt lat="50.62103" lon="5.41457">
        <ele>199.60000610352</ele>
      </trkpt>
      <trkpt lat="50.62079" lon="5.41489">
        <ele>200.60000610352</ele>
      </trkpt>
      <trkpt lat="50.62069" lon="5.41501">
        <ele>200.80000305176</ele>
      </trkpt>
      <trkpt lat="50.62036" lon="5.41545">
        <ele>201.39999389648</ele>
      </trkpt>
      <trkpt lat="50.62031" lon="5.4155">
        <ele>201.60000610352</ele>
      </trkpt>
      <trkpt lat="50.61993" lon="5.41599">
        <ele>202.19999694824</ele>
      </trkpt>
      <trkpt lat="50.61955" lon="5.41647">
        <ele>202.39999389648</ele>
      </trkpt>
      <trkpt lat="50.61946" lon="5.41655">
        <ele>202.39999389648</ele>
      </trkpt>
      <trkpt lat="50.61937" lon="5.41665">
        <ele>202.39999389648</ele>
      </trkpt>
      <trkpt lat="50.61925" lon="5.41685">
        <ele>202.60000610352</ele>
      </trkpt>
      <trkpt lat="50.61917" lon="5.41701">
        <ele>202.80000305176</ele>
      </trkpt>
      <trkpt lat="50.61914" lon="5.4171">
        <ele>202.80000305176</ele>
      </trkpt>
      <trkpt lat="50.61908" lon="5.41741">
        <ele>203</ele>
      </trkpt>
      <trkpt lat="50.61906" lon="5.41751">
        <ele>203</ele>
      </trkpt>
      <trkpt lat="50.61901" lon="5.41819">
        <ele>203.39999389648</ele>
      </trkpt>
      <trkpt lat="50.61894" lon="5.41908">
        <ele>203.80000305176</ele>
      </trkpt>
      <trkpt lat="50.61893" lon="5.41942">
        <ele>203.80000305176</ele>
      </trkpt>
      <trkpt lat="50.61895" lon="5.42011">
        <ele>203.80000305176</ele>
      </trkpt>
      <trkpt lat="50.61903" lon="5.42103">
        <ele>203.60000610352</ele>
      </trkpt>
      <trkpt lat="50.61906" lon="5.42193">
        <ele>203.39999389648</ele>
      </trkpt>
      <trkpt lat="50.61904" lon="5.42269">
        <ele>203.60000610352</ele>
      </trkpt>
      <trkpt lat="50.61902" lon="5.42279">
        <ele>203.80000305176</ele>
      </trkpt>
      <trkpt lat="50.61892" lon="5.42306">
        <ele>203.80000305176</ele>
      </trkpt>
      <trkpt lat="50.61885" lon="5.42324">
        <ele>204</ele>
      </trkpt>
      <trkpt lat="50.61881" lon="5.42332">
        <ele>204.19999694824</ele>
      </trkpt>
      <trkpt lat="50.61863" lon="5.42376">
        <ele>205.39999389648</ele>
      </trkpt>
      <trkpt lat="50.61853" lon="5.42401">
        <ele>206</ele>
      </trkpt>
      <trkpt lat="50.61846" lon="5.42417">
        <ele>206.39999389648</ele>
      </trkpt>
      <trkpt lat="50.61835" lon="5.42446">
        <ele>207.60000610352</ele>
      </trkpt>
      <trkpt lat="50.6182" lon="5.42496">
        <ele>208.60000610352</ele>
      </trkpt>
      <trkpt lat="50.61812" lon="5.42548">
        <ele>208.60000610352</ele>
      </trkpt>
      <trkpt lat="50.61812" lon="5.4256">
        <ele>208.39999389648</ele>
      </trkpt>
      <trkpt lat="50.61815" lon="5.42595">
        <ele>208</ele>
      </trkpt>
      <trkpt lat="50.61821" lon="5.42629">
        <ele>207.60000610352</ele>
      </trkpt>
      <trkpt lat="50.61822" lon="5.42642">
        <ele>207.39999389648</ele>
      </trkpt>
      <trkpt lat="50.61821" lon="5.42655">
        <ele>207.19999694824</ele>
      </trkpt>
      <trkpt lat="50.61819" lon="5.42681">
        <ele>206.80000305176</ele>
      </trkpt>
      <trkpt lat="50.61817" lon="5.42694">
        <ele>206.60000610352</ele>
      </trkpt>
      <trkpt lat="50.61811" lon="5.42721">
        <ele>205.60000610352</ele>
      </trkpt>
      <trkpt lat="50.618" lon="5.42772">
        <ele>204</ele>
      </trkpt>
      <trkpt lat="50.61796" lon="5.42783">
        <ele>203.80000305176</ele>
      </trkpt>
      <trkpt lat="50.61793" lon="5.42793">
        <ele>203.39999389648</ele>
      </trkpt>
      <trkpt lat="50.61772" lon="5.42848">
        <ele>203.19999694824</ele>
      </trkpt>
      <trkpt lat="50.61772" lon="5.42876">
        <ele>203.19999694824</ele>
      </trkpt>
      <trkpt lat="50.61782" lon="5.42902">
        <ele>203.60000610352</ele>
      </trkpt>
      <trkpt lat="50.61792" lon="5.42915">
        <ele>204.19999694824</ele>
      </trkpt>
      <trkpt lat="50.61808" lon="5.42933">
        <ele>205.19999694824</ele>
      </trkpt>
      <trkpt lat="50.61841" lon="5.42967">
        <ele>206.39999389648</ele>
      </trkpt>
      <trkpt lat="50.61867" lon="5.43003">
        <ele>207.60000610352</ele>
      </trkpt>
      <trkpt lat="50.61871" lon="5.4301">
        <ele>207.60000610352</ele>
      </trkpt>
      <trkpt lat="50.61905" lon="5.43055">
        <ele>208.39999389648</ele>
      </trkpt>
      <trkpt lat="50.61952" lon="5.43119">
        <ele>208.39999389648</ele>
      </trkpt>
      <trkpt lat="50.61957" lon="5.43127">
        <ele>208.39999389648</ele>
      </trkpt>
      <trkpt lat="50.61975" lon="5.43147">
        <ele>208.39999389648</ele>
      </trkpt>
      <trkpt lat="50.61988" lon="5.43159">
        <ele>208.39999389648</ele>
      </trkpt>
      <trkpt lat="50.62016" lon="5.43175">
        <ele>208.80000305176</ele>
      </trkpt>
      <trkpt lat="50.62023" lon="5.43178">
        <ele>209</ele>
      </trkpt>
      <trkpt lat="50.62053" lon="5.43199">
        <ele>209.19999694824</ele>
      </trkpt>
      <trkpt lat="50.6206" lon="5.43206">
        <ele>209.19999694824</ele>
      </trkpt>
      <trkpt lat="50.62079" lon="5.43228">
        <ele>209.19999694824</ele>
      </trkpt>
      <trkpt lat="50.6212" lon="5.43273">
        <ele>209.19999694824</ele>
      </trkpt>
      <trkpt lat="50.62147" lon="5.43303">
        <ele>209.60000610352</ele>
      </trkpt>
      <trkpt lat="50.62156" lon="5.43319">
        <ele>209.80000305176</ele>
      </trkpt>
      <trkpt lat="50.62183" lon="5.43392">
        <ele>210</ele>
      </trkpt>
      <trkpt lat="50.62206" lon="5.43454">
        <ele>208.60000610352</ele>
      </trkpt>
      <trkpt lat="50.62209" lon="5.43465">
        <ele>208.39999389648</ele>
      </trkpt>
      <trkpt lat="50.62211" lon="5.43475">
        <ele>208.19999694824</ele>
      </trkpt>
      <trkpt lat="50.62213" lon="5.43497">
        <ele>207.80000305176</ele>
      </trkpt>
      <trkpt lat="50.62216" lon="5.43506">
        <ele>207.60000610352</ele>
      </trkpt>
      <trkpt lat="50.62221" lon="5.43514">
        <ele>207.80000305176</ele>
      </trkpt>
      <trkpt lat="50.62227" lon="5.4352">
        <ele>207.60000610352</ele>
      </trkpt>
      <trkpt lat="50.62232" lon="5.43527">
        <ele>207.39999389648</ele>
      </trkpt>
      <trkpt lat="50.6224" lon="5.43544">
        <ele>207.19999694824</ele>
      </trkpt>
      <trkpt lat="50.62252" lon="5.43575">
        <ele>206.60000610352</ele>
      </trkpt>
      <trkpt lat="50.62267" lon="5.43608">
        <ele>206.39999389648</ele>
      </trkpt>
      <trkpt lat="50.62286" lon="5.43656">
        <ele>206.19999694824</ele>
      </trkpt>
      <trkpt lat="50.62291" lon="5.43668">
        <ele>205.80000305176</ele>
      </trkpt>
      <trkpt lat="50.62296" lon="5.4368">
        <ele>205.60000610352</ele>
      </trkpt>
      <trkpt lat="50.62314" lon="5.43729">
        <ele>204.39999389648</ele>
      </trkpt>
      <trkpt lat="50.62329" lon="5.43767">
        <ele>203.19999694824</ele>
      </trkpt>
      <trkpt lat="50.62343" lon="5.43821">
        <ele>202</ele>
      </trkpt>
      <trkpt lat="50.62345" lon="5.43833">
        <ele>201.60000610352</ele>
      </trkpt>
      <trkpt lat="50.6235" lon="5.43857">
        <ele>200.80000305176</ele>
      </trkpt>
      <trkpt lat="50.62357" lon="5.4389">
        <ele>200.60000610352</ele>
      </trkpt>
      <trkpt lat="50.62368" lon="5.43953">
        <ele>200.60000610352</ele>
      </trkpt>
      <trkpt lat="50.62374" lon="5.43985">
        <ele>200.80000305176</ele>
      </trkpt>
      <trkpt lat="50.62373" lon="5.44007">
        <ele>201.39999389648</ele>
      </trkpt>
      <trkpt lat="50.62363" lon="5.44036">
        <ele>201.80000305176</ele>
      </trkpt>
      <trkpt lat="50.62359" lon="5.44045">
        <ele>201.80000305176</ele>
      </trkpt>
      <trkpt lat="50.6233" lon="5.44097">
        <ele>202</ele>
      </trkpt>
      <trkpt lat="50.62311" lon="5.4414">
        <ele>202.19999694824</ele>
      </trkpt>
      <trkpt lat="50.62309" lon="5.4415">
        <ele>202.19999694824</ele>
      </trkpt>
      <trkpt lat="50.62307" lon="5.44192">
        <ele>202.19999694824</ele>
      </trkpt>
      <trkpt lat="50.62314" lon="5.44223">
        <ele>202.80000305176</ele>
      </trkpt>
      <trkpt lat="50.62316" lon="5.44233">
        <ele>203</ele>
      </trkpt>
      <trkpt lat="50.62335" lon="5.44316">
        <ele>204.19999694824</ele>
      </trkpt>
      <trkpt lat="50.62337" lon="5.44326">
        <ele>204.19999694824</ele>
      </trkpt>
      <trkpt lat="50.62346" lon="5.44379">
        <ele>204.60000610352</ele>
      </trkpt>
      <trkpt lat="50.6235" lon="5.44421">
        <ele>205.39999389648</ele>
      </trkpt>
      <trkpt lat="50.62353" lon="5.44452">
        <ele>206</ele>
      </trkpt>
      <trkpt lat="50.62356" lon="5.44494">
        <ele>206.39999389648</ele>
      </trkpt>
      <trkpt lat="50.62358" lon="5.44537">
        <ele>206.80000305176</ele>
      </trkpt>
      <trkpt lat="50.62358" lon="5.44583">
        <ele>207.39999389648</ele>
      </trkpt>
      <trkpt lat="50.62356" lon="5.44618">
        <ele>207.80000305176</ele>
      </trkpt>
      <trkpt lat="50.62348" lon="5.44696">
        <ele>208</ele>
      </trkpt>
      <trkpt lat="50.62339" lon="5.44777">
        <ele>208</ele>
      </trkpt>
      <trkpt lat="50.6233" lon="5.44869">
        <ele>207.19999694824</ele>
      </trkpt>
      <trkpt lat="50.62329" lon="5.44881">
        <ele>207.19999694824</ele>
      </trkpt>
      <trkpt lat="50.62327" lon="5.4494">
        <ele>206.60000610352</ele>
      </trkpt>
      <trkpt lat="50.62326" lon="5.44964">
        <ele>206.39999389648</ele>
      </trkpt>
      <trkpt lat="50.62324" lon="5.45027">
        <ele>205.39999389648</ele>
      </trkpt>
      <trkpt lat="50.62324" lon="5.45052">
        <ele>204.60000610352</ele>
      </trkpt>
      <trkpt lat="50.62324" lon="5.45061">
        <ele>204.39999389648</ele>
      </trkpt>
      <trkpt lat="50.62325" lon="5.4507">
        <ele>204.19999694824</ele>
      </trkpt>
      <trkpt lat="50.62325" lon="5.4509">
        <ele>204</ele>
      </trkpt>
      <trkpt lat="50.62327" lon="5.45134">
        <ele>203.80000305176</ele>
      </trkpt>
      <trkpt lat="50.62327" lon="5.45145">
        <ele>203.80000305176</ele>
      </trkpt>
      <trkpt lat="50.62332" lon="5.45215">
        <ele>203.39999389648</ele>
      </trkpt>
      <trkpt lat="50.62332" lon="5.45297">
        <ele>202.60000610352</ele>
      </trkpt>
      <trkpt lat="50.62332" lon="5.45355">
        <ele>202.39999389648</ele>
      </trkpt>
      <trkpt lat="50.62333" lon="5.4539">
        <ele>202.19999694824</ele>
      </trkpt>
      <trkpt lat="50.62333" lon="5.45434">
        <ele>201.60000610352</ele>
      </trkpt>
      <trkpt lat="50.62335" lon="5.45457">
        <ele>201.39999389648</ele>
      </trkpt>
      <trkpt lat="50.62337" lon="5.45505">
        <ele>201.39999389648</ele>
      </trkpt>
      <trkpt lat="50.6234" lon="5.45551">
        <ele>201.19999694824</ele>
      </trkpt>
      <trkpt lat="50.62341" lon="5.45602">
        <ele>201.19999694824</ele>
      </trkpt>
      <trkpt lat="50.62339" lon="5.45612">
        <ele>201</ele>
      </trkpt>
      <trkpt lat="50.62326" lon="5.45653">
        <ele>201.19999694824</ele>
      </trkpt>
      <trkpt lat="50.62305" lon="5.45742">
        <ele>200.80000305176</ele>
      </trkpt>
      <trkpt lat="50.62298" lon="5.45775">
        <ele>200.60000610352</ele>
      </trkpt>
      <trkpt lat="50.62279" lon="5.45849">
        <ele>200</ele>
      </trkpt>
      <trkpt lat="50.62265" lon="5.459">
        <ele>199.39999389648</ele>
      </trkpt>
      <trkpt lat="50.6226" lon="5.45919">
        <ele>199.39999389648</ele>
      </trkpt>
      <trkpt lat="50.62244" lon="5.45971">
        <ele>199</ele>
      </trkpt>
      <trkpt lat="50.62239" lon="5.45997">
        <ele>198.80000305176</ele>
      </trkpt>
      <trkpt lat="50.62234" lon="5.46027">
        <ele>199</ele>
      </trkpt>
      <trkpt lat="50.62232" lon="5.46032">
        <ele>199.19999694824</ele>
      </trkpt>
      <trkpt lat="50.62231" lon="5.46036">
        <ele>199.80000305176</ele>
      </trkpt>
      <trkpt lat="50.6223" lon="5.46038">
        <ele>199.80000305176</ele>
      </trkpt>
      <trkpt lat="50.62228" lon="5.46054">
        <ele>200</ele>
      </trkpt>
      <trkpt lat="50.62226" lon="5.46063">
        <ele>200</ele>
      </trkpt>
      <trkpt lat="50.62222" lon="5.46081">
        <ele>200</ele>
      </trkpt>
      <trkpt lat="50.62221" lon="5.46087">
        <ele>200</ele>
      </trkpt>
      <trkpt lat="50.6222" lon="5.46094">
        <ele>200</ele>
      </trkpt>
      <trkpt lat="50.62214" lon="5.46123">
        <ele>200</ele>
      </trkpt>
      <trkpt lat="50.62206" lon="5.46188">
        <ele>200.39999389648</ele>
      </trkpt>
      <trkpt lat="50.62198" lon="5.46264">
        <ele>200.60000610352</ele>
      </trkpt>
      <trkpt lat="50.62193" lon="5.46309">
        <ele>200.80000305176</ele>
      </trkpt>
      <trkpt lat="50.62194" lon="5.46324">
        <ele>200.80000305176</ele>
      </trkpt>
      <trkpt lat="50.62201" lon="5.4638">
        <ele>200.60000610352</ele>
      </trkpt>
      <trkpt lat="50.62207" lon="5.46412">
        <ele>200.39999389648</ele>
      </trkpt>
      <trkpt lat="50.6221" lon="5.46425">
        <ele>200.19999694824</ele>
      </trkpt>
      <trkpt lat="50.62215" lon="5.46433">
        <ele>200</ele>
      </trkpt>
      <trkpt lat="50.6222" lon="5.46439">
        <ele>200</ele>
      </trkpt>
      <trkpt lat="50.62233" lon="5.46457">
        <ele>199.80000305176</ele>
      </trkpt>
      <trkpt lat="50.62254" lon="5.46492">
        <ele>199.80000305176</ele>
      </trkpt>
      <trkpt lat="50.62257" lon="5.46496">
        <ele>199.80000305176</ele>
      </trkpt>
      <trkpt lat="50.62269" lon="5.46511">
        <ele>200</ele>
      </trkpt>
      <trkpt lat="50.62279" lon="5.46527">
        <ele>200</ele>
      </trkpt>
      <trkpt lat="50.6228" lon="5.46526">
        <ele>200</ele>
      </trkpt>
    </trkseg>
  </trk>
</gpx>